<?xml version="1.0" encoding="UTF-8" standalone="no" ?>
<gpx xmlns="http://www.topografix.com/GPX/1/1" xmlns:xsi="http://www.w3.org/2001/XMLSchema-instance" xsi:schemaLocation="http://www.topografix.com/GPX/1/1 http://www.topografix.com/GPX/1/1/gpx.xsd" version="1.1" creator="VisuGPX - https://www.visugpx.com">
  <metadata>
    <name>Vers Chessy </name>
  </metadata>
  <trk>
    <name><![CDATA[Enregistré le 27 sept. 2022 13:57:48]]></name>
    <trkseg>
      <trkpt lat="45.83335" lon="4.70876">
        <ele>307.60782</ele>
        <time>2022-09-27T11:58:29.046Z</time>
      </trkpt>
      <trkpt lat="45.83337" lon="4.70876">
        <ele>305.22076</ele>
        <time>2022-09-27T11:58:33.000Z</time>
      </trkpt>
      <trkpt lat="45.83338" lon="4.70869">
        <ele>303.32504</ele>
        <time>2022-09-27T11:58:35.000Z</time>
      </trkpt>
      <trkpt lat="45.83337" lon="4.70866">
        <ele>302.48737</ele>
        <time>2022-09-27T11:58:36.000Z</time>
      </trkpt>
      <trkpt lat="45.83339" lon="4.70861">
        <ele>302.43018</ele>
        <time>2022-09-27T11:58:37.000Z</time>
      </trkpt>
      <trkpt lat="45.83339" lon="4.70856">
        <ele>302.42667</ele>
        <time>2022-09-27T11:58:38.000Z</time>
      </trkpt>
      <trkpt lat="45.83339" lon="4.70851">
        <ele>302.36542</ele>
        <time>2022-09-27T11:58:39.000Z</time>
      </trkpt>
      <trkpt lat="45.83339" lon="4.70847">
        <ele>302.48065</ele>
        <time>2022-09-27T11:58:40.000Z</time>
      </trkpt>
      <trkpt lat="45.8334" lon="4.70841">
        <ele>302.52414</ele>
        <time>2022-09-27T11:58:41.000Z</time>
      </trkpt>
      <trkpt lat="45.8334" lon="4.70836">
        <ele>302.50253</ele>
        <time>2022-09-27T11:58:42.000Z</time>
      </trkpt>
      <trkpt lat="45.83341" lon="4.70832">
        <ele>302.23294</ele>
        <time>2022-09-27T11:58:43.000Z</time>
      </trkpt>
      <trkpt lat="45.83342" lon="4.70828">
        <ele>302.06213</ele>
        <time>2022-09-27T11:58:44.000Z</time>
      </trkpt>
      <trkpt lat="45.83342" lon="4.70823">
        <ele>301.96674</ele>
        <time>2022-09-27T11:58:45.000Z</time>
      </trkpt>
      <trkpt lat="45.83343" lon="4.70818">
        <ele>301.87799</ele>
        <time>2022-09-27T11:58:46.000Z</time>
      </trkpt>
      <trkpt lat="45.83343" lon="4.70813">
        <ele>301.8443</ele>
        <time>2022-09-27T11:58:47.000Z</time>
      </trkpt>
      <trkpt lat="45.83344" lon="4.70808">
        <ele>301.74869</ele>
        <time>2022-09-27T11:58:48.000Z</time>
      </trkpt>
      <trkpt lat="45.83345" lon="4.70802">
        <ele>301.7164</ele>
        <time>2022-09-27T11:58:49.000Z</time>
      </trkpt>
      <trkpt lat="45.83345" lon="4.70797">
        <ele>301.70959</ele>
        <time>2022-09-27T11:58:50.000Z</time>
      </trkpt>
      <trkpt lat="45.83345" lon="4.70792">
        <ele>301.61807</ele>
        <time>2022-09-27T11:58:51.000Z</time>
      </trkpt>
      <trkpt lat="45.83346" lon="4.70786">
        <ele>301.51431</ele>
        <time>2022-09-27T11:58:52.000Z</time>
      </trkpt>
      <trkpt lat="45.83346" lon="4.70781">
        <ele>301.16547</ele>
        <time>2022-09-27T11:58:53.000Z</time>
      </trkpt>
      <trkpt lat="45.83347" lon="4.70776">
        <ele>301.09247</ele>
        <time>2022-09-27T11:58:54.000Z</time>
      </trkpt>
      <trkpt lat="45.83347" lon="4.70772">
        <ele>301.13504</ele>
        <time>2022-09-27T11:58:55.000Z</time>
      </trkpt>
      <trkpt lat="45.83347" lon="4.70769">
        <ele>301.14001</ele>
        <time>2022-09-27T11:58:56.000Z</time>
      </trkpt>
      <trkpt lat="45.83348" lon="4.70764">
        <ele>301.00494</ele>
        <time>2022-09-27T11:58:58.000Z</time>
      </trkpt>
      <trkpt lat="45.83348" lon="4.70762">
        <ele>301.26166</ele>
        <time>2022-09-27T11:58:59.000Z</time>
      </trkpt>
      <trkpt lat="45.83346" lon="4.70759">
        <ele>301.40823</ele>
        <time>2022-09-27T11:59:01.000Z</time>
      </trkpt>
      <trkpt lat="45.83345" lon="4.70761">
        <ele>301.46173</ele>
        <time>2022-09-27T11:59:02.000Z</time>
      </trkpt>
      <trkpt lat="45.83344" lon="4.70765">
        <ele>301.50201</ele>
        <time>2022-09-27T11:59:03.000Z</time>
      </trkpt>
      <trkpt lat="45.83343" lon="4.7077">
        <ele>301.55478</ele>
        <time>2022-09-27T11:59:04.000Z</time>
      </trkpt>
      <trkpt lat="45.83343" lon="4.70775">
        <ele>301.69769</ele>
        <time>2022-09-27T11:59:05.000Z</time>
      </trkpt>
      <trkpt lat="45.83343" lon="4.7078">
        <ele>301.76633</ele>
        <time>2022-09-27T11:59:06.000Z</time>
      </trkpt>
      <trkpt lat="45.83343" lon="4.70784">
        <ele>301.78235</ele>
        <time>2022-09-27T11:59:07.000Z</time>
      </trkpt>
      <trkpt lat="45.83343" lon="4.70788">
        <ele>301.79684</ele>
        <time>2022-09-27T11:59:08.000Z</time>
      </trkpt>
      <trkpt lat="45.83343" lon="4.70792">
        <ele>301.7774</ele>
        <time>2022-09-27T11:59:09.000Z</time>
      </trkpt>
      <trkpt lat="45.83343" lon="4.70797">
        <ele>301.82742</ele>
        <time>2022-09-27T11:59:10.000Z</time>
      </trkpt>
      <trkpt lat="45.83342" lon="4.70803">
        <ele>301.93066</ele>
        <time>2022-09-27T11:59:11.000Z</time>
      </trkpt>
      <trkpt lat="45.83342" lon="4.70808">
        <ele>302.03183</ele>
        <time>2022-09-27T11:59:12.000Z</time>
      </trkpt>
      <trkpt lat="45.8334" lon="4.70815">
        <ele>302.37088</ele>
        <time>2022-09-27T11:59:13.000Z</time>
      </trkpt>
      <trkpt lat="45.83337" lon="4.70851">
        <ele>302.67917</ele>
        <time>2022-09-27T11:59:19.000Z</time>
      </trkpt>
      <trkpt lat="45.83336" lon="4.70857">
        <ele>303.12006</ele>
        <time>2022-09-27T11:59:20.000Z</time>
      </trkpt>
      <trkpt lat="45.83336" lon="4.70863">
        <ele>303.46481</ele>
        <time>2022-09-27T11:59:21.000Z</time>
      </trkpt>
      <trkpt lat="45.83335" lon="4.7087">
        <ele>303.84808</ele>
        <time>2022-09-27T11:59:22.000Z</time>
      </trkpt>
      <trkpt lat="45.83335" lon="4.70876">
        <ele>304.21793</ele>
        <time>2022-09-27T11:59:23.000Z</time>
      </trkpt>
      <trkpt lat="45.83334" lon="4.70882">
        <ele>304.59604</ele>
        <time>2022-09-27T11:59:24.000Z</time>
      </trkpt>
      <trkpt lat="45.83333" lon="4.70888">
        <ele>304.53256</ele>
        <time>2022-09-27T11:59:25.000Z</time>
      </trkpt>
      <trkpt lat="45.83332" lon="4.70894">
        <ele>304.59186</ele>
        <time>2022-09-27T11:59:26.000Z</time>
      </trkpt>
      <trkpt lat="45.83332" lon="4.70901">
        <ele>304.58804</ele>
        <time>2022-09-27T11:59:27.000Z</time>
      </trkpt>
      <trkpt lat="45.83331" lon="4.70907">
        <ele>304.60742</ele>
        <time>2022-09-27T11:59:28.000Z</time>
      </trkpt>
      <trkpt lat="45.8333" lon="4.70913">
        <ele>304.60806</ele>
        <time>2022-09-27T11:59:29.000Z</time>
      </trkpt>
      <trkpt lat="45.8333" lon="4.70919">
        <ele>304.62848</ele>
        <time>2022-09-27T11:59:30.000Z</time>
      </trkpt>
      <trkpt lat="45.83329" lon="4.70925">
        <ele>304.69073</ele>
        <time>2022-09-27T11:59:31.000Z</time>
      </trkpt>
      <trkpt lat="45.83329" lon="4.7093">
        <ele>304.68219</ele>
        <time>2022-09-27T11:59:32.000Z</time>
      </trkpt>
      <trkpt lat="45.83328" lon="4.70934">
        <ele>304.69818</ele>
        <time>2022-09-27T11:59:33.000Z</time>
      </trkpt>
      <trkpt lat="45.83327" lon="4.70939">
        <ele>304.67697</ele>
        <time>2022-09-27T11:59:34.000Z</time>
      </trkpt>
      <trkpt lat="45.83329" lon="4.70941">
        <ele>304.60886</ele>
        <time>2022-09-27T11:59:36.000Z</time>
      </trkpt>
      <trkpt lat="45.83332" lon="4.70939">
        <ele>304.48947</ele>
        <time>2022-09-27T11:59:38.000Z</time>
      </trkpt>
      <trkpt lat="45.83333" lon="4.70935">
        <ele>304.61172</ele>
        <time>2022-09-27T11:59:40.000Z</time>
      </trkpt>
      <trkpt lat="45.83334" lon="4.70932">
        <ele>304.42572</ele>
        <time>2022-09-27T11:59:43.000Z</time>
      </trkpt>
      <trkpt lat="45.83333" lon="4.70931">
        <ele>304.22498</ele>
        <time>2022-09-27T11:59:47.000Z</time>
      </trkpt>
      <trkpt lat="45.83331" lon="4.70928">
        <ele>303.89908</ele>
        <time>2022-09-27T11:59:49.000Z</time>
      </trkpt>
      <trkpt lat="45.83331" lon="4.70922">
        <ele>303.62198</ele>
        <time>2022-09-27T11:59:51.000Z</time>
      </trkpt>
      <trkpt lat="45.83332" lon="4.70919">
        <ele>303.36752</ele>
        <time>2022-09-27T11:59:52.000Z</time>
      </trkpt>
      <trkpt lat="45.83334" lon="4.70917">
        <ele>303.17477</ele>
        <time>2022-09-27T11:59:53.000Z</time>
      </trkpt>
      <trkpt lat="45.83335" lon="4.70914">
        <ele>302.96432</ele>
        <time>2022-09-27T11:59:54.000Z</time>
      </trkpt>
      <trkpt lat="45.83336" lon="4.70912">
        <ele>302.76688</ele>
        <time>2022-09-27T11:59:55.000Z</time>
      </trkpt>
      <trkpt lat="45.83338" lon="4.70908">
        <ele>302.52881</ele>
        <time>2022-09-27T11:59:57.000Z</time>
      </trkpt>
      <trkpt lat="45.8334" lon="4.7091">
        <ele>302.34924</ele>
        <time>2022-09-27T12:00:40.000Z</time>
      </trkpt>
      <trkpt lat="45.83338" lon="4.70907">
        <ele>302.3985</ele>
        <time>2022-09-27T12:01:13.000Z</time>
      </trkpt>
      <trkpt lat="45.83337" lon="4.70904">
        <ele>302.50723</ele>
        <time>2022-09-27T12:01:14.000Z</time>
      </trkpt>
      <trkpt lat="45.83337" lon="4.709">
        <ele>302.71307</ele>
        <time>2022-09-27T12:01:15.000Z</time>
      </trkpt>
      <trkpt lat="45.83337" lon="4.70896">
        <ele>302.89185</ele>
        <time>2022-09-27T12:01:16.000Z</time>
      </trkpt>
      <trkpt lat="45.83336" lon="4.70893">
        <ele>303.23822</ele>
        <time>2022-09-27T12:01:17.000Z</time>
      </trkpt>
      <trkpt lat="45.83336" lon="4.7089">
        <ele>303.64401</ele>
        <time>2022-09-27T12:01:18.000Z</time>
      </trkpt>
      <trkpt lat="45.83336" lon="4.70887">
        <ele>304.06268</ele>
        <time>2022-09-27T12:01:19.000Z</time>
      </trkpt>
      <trkpt lat="45.83336" lon="4.70883">
        <ele>304.49283</ele>
        <time>2022-09-27T12:01:20.000Z</time>
      </trkpt>
      <trkpt lat="45.83336" lon="4.70879">
        <ele>304.84863</ele>
        <time>2022-09-27T12:01:21.000Z</time>
      </trkpt>
      <trkpt lat="45.83336" lon="4.70874">
        <ele>305.00568</ele>
        <time>2022-09-27T12:01:22.000Z</time>
      </trkpt>
      <trkpt lat="45.83337" lon="4.7087">
        <ele>305.33691</ele>
        <time>2022-09-27T12:01:23.000Z</time>
      </trkpt>
      <trkpt lat="45.83337" lon="4.70866">
        <ele>305.72507</ele>
        <time>2022-09-27T12:01:24.000Z</time>
      </trkpt>
      <trkpt lat="45.83337" lon="4.70863">
        <ele>306.06403</ele>
        <time>2022-09-27T12:01:25.000Z</time>
      </trkpt>
      <trkpt lat="45.83338" lon="4.70859">
        <ele>306.39767</ele>
        <time>2022-09-27T12:01:26.000Z</time>
      </trkpt>
      <trkpt lat="45.83338" lon="4.70855">
        <ele>306.73749</ele>
        <time>2022-09-27T12:01:27.000Z</time>
      </trkpt>
      <trkpt lat="45.83338" lon="4.70852">
        <ele>307.02899</ele>
        <time>2022-09-27T12:01:28.000Z</time>
      </trkpt>
      <trkpt lat="45.83339" lon="4.70848">
        <ele>307.3537</ele>
        <time>2022-09-27T12:01:29.000Z</time>
      </trkpt>
      <trkpt lat="45.8334" lon="4.70844">
        <ele>307.65466</ele>
        <time>2022-09-27T12:01:30.000Z</time>
      </trkpt>
      <trkpt lat="45.8334" lon="4.70839">
        <ele>308.05865</ele>
        <time>2022-09-27T12:01:31.000Z</time>
      </trkpt>
      <trkpt lat="45.83341" lon="4.70835">
        <ele>308.51776</ele>
        <time>2022-09-27T12:01:32.000Z</time>
      </trkpt>
      <trkpt lat="45.83341" lon="4.70831">
        <ele>308.76483</ele>
        <time>2022-09-27T12:01:33.000Z</time>
      </trkpt>
      <trkpt lat="45.83341" lon="4.70827">
        <ele>308.98813</ele>
        <time>2022-09-27T12:01:34.000Z</time>
      </trkpt>
      <trkpt lat="45.83342" lon="4.70823">
        <ele>309.13528</ele>
        <time>2022-09-27T12:01:35.000Z</time>
      </trkpt>
      <trkpt lat="45.83342" lon="4.70819">
        <ele>309.27493</ele>
        <time>2022-09-27T12:01:36.000Z</time>
      </trkpt>
      <trkpt lat="45.83342" lon="4.70815">
        <ele>309.34979</ele>
        <time>2022-09-27T12:01:37.000Z</time>
      </trkpt>
      <trkpt lat="45.83343" lon="4.70812">
        <ele>309.34085</ele>
        <time>2022-09-27T12:01:38.000Z</time>
      </trkpt>
      <trkpt lat="45.83343" lon="4.70807">
        <ele>309.34824</ele>
        <time>2022-09-27T12:01:39.000Z</time>
      </trkpt>
      <trkpt lat="45.83343" lon="4.70803">
        <ele>309.35434</ele>
        <time>2022-09-27T12:01:40.000Z</time>
      </trkpt>
      <trkpt lat="45.83343" lon="4.70799">
        <ele>309.34616</ele>
        <time>2022-09-27T12:01:41.000Z</time>
      </trkpt>
      <trkpt lat="45.83343" lon="4.70795">
        <ele>309.33112</ele>
        <time>2022-09-27T12:01:42.000Z</time>
      </trkpt>
      <trkpt lat="45.83343" lon="4.7079">
        <ele>309.34772</ele>
        <time>2022-09-27T12:01:43.000Z</time>
      </trkpt>
      <trkpt lat="45.83343" lon="4.70785">
        <ele>309.38815</ele>
        <time>2022-09-27T12:01:44.000Z</time>
      </trkpt>
      <trkpt lat="45.83343" lon="4.7078">
        <ele>309.46918</ele>
        <time>2022-09-27T12:01:45.000Z</time>
      </trkpt>
      <trkpt lat="45.83344" lon="4.70775">
        <ele>309.57935</ele>
        <time>2022-09-27T12:01:46.000Z</time>
      </trkpt>
      <trkpt lat="45.83344" lon="4.70769">
        <ele>309.66309</ele>
        <time>2022-09-27T12:01:47.000Z</time>
      </trkpt>
      <trkpt lat="45.83344" lon="4.70764">
        <ele>309.77179</ele>
        <time>2022-09-27T12:01:48.000Z</time>
      </trkpt>
      <trkpt lat="45.83344" lon="4.70759">
        <ele>309.90137</ele>
        <time>2022-09-27T12:01:49.000Z</time>
      </trkpt>
      <trkpt lat="45.83345" lon="4.70753">
        <ele>310.06531</ele>
        <time>2022-09-27T12:01:50.000Z</time>
      </trkpt>
      <trkpt lat="45.83345" lon="4.70748">
        <ele>310.20172</ele>
        <time>2022-09-27T12:01:51.000Z</time>
      </trkpt>
      <trkpt lat="45.83346" lon="4.70742">
        <ele>310.30899</ele>
        <time>2022-09-27T12:01:52.000Z</time>
      </trkpt>
      <trkpt lat="45.83346" lon="4.70737">
        <ele>310.44586</ele>
        <time>2022-09-27T12:01:53.000Z</time>
      </trkpt>
      <trkpt lat="45.83346" lon="4.70732">
        <ele>310.57599</ele>
        <time>2022-09-27T12:01:54.000Z</time>
      </trkpt>
      <trkpt lat="45.83346" lon="4.70727">
        <ele>310.66736</ele>
        <time>2022-09-27T12:01:55.000Z</time>
      </trkpt>
      <trkpt lat="45.83346" lon="4.70722">
        <ele>310.8118</ele>
        <time>2022-09-27T12:01:56.000Z</time>
      </trkpt>
      <trkpt lat="45.83347" lon="4.70718">
        <ele>310.90152</ele>
        <time>2022-09-27T12:01:57.000Z</time>
      </trkpt>
      <trkpt lat="45.83347" lon="4.70713">
        <ele>311.01993</ele>
        <time>2022-09-27T12:01:58.000Z</time>
      </trkpt>
      <trkpt lat="45.83347" lon="4.70707">
        <ele>311.15442</ele>
        <time>2022-09-27T12:01:59.000Z</time>
      </trkpt>
      <trkpt lat="45.83347" lon="4.70702">
        <ele>311.32977</ele>
        <time>2022-09-27T12:02:00.000Z</time>
      </trkpt>
      <trkpt lat="45.83348" lon="4.70696">
        <ele>311.45807</ele>
        <time>2022-09-27T12:02:01.000Z</time>
      </trkpt>
      <trkpt lat="45.83351" lon="4.70687">
        <ele>311.50656</ele>
        <time>2022-09-27T12:02:02.000Z</time>
      </trkpt>
      <trkpt lat="45.83351" lon="4.7068">
        <ele>311.55365</ele>
        <time>2022-09-27T12:02:03.000Z</time>
      </trkpt>
      <trkpt lat="45.83353" lon="4.70672">
        <ele>311.59952</ele>
        <time>2022-09-27T12:02:04.000Z</time>
      </trkpt>
      <trkpt lat="45.83353" lon="4.70666">
        <ele>311.58237</ele>
        <time>2022-09-27T12:02:05.000Z</time>
      </trkpt>
      <trkpt lat="45.83354" lon="4.70657">
        <ele>311.5433</ele>
        <time>2022-09-27T12:02:06.000Z</time>
      </trkpt>
      <trkpt lat="45.83354" lon="4.70648">
        <ele>311.51654</ele>
        <time>2022-09-27T12:02:07.000Z</time>
      </trkpt>
      <trkpt lat="45.83355" lon="4.70639">
        <ele>311.46393</ele>
        <time>2022-09-27T12:02:08.000Z</time>
      </trkpt>
      <trkpt lat="45.83356" lon="4.70631">
        <ele>311.41144</ele>
        <time>2022-09-27T12:02:09.000Z</time>
      </trkpt>
      <trkpt lat="45.83355" lon="4.70621">
        <ele>311.36578</ele>
        <time>2022-09-27T12:02:10.000Z</time>
      </trkpt>
      <trkpt lat="45.83355" lon="4.70614">
        <ele>311.30237</ele>
        <time>2022-09-27T12:02:11.000Z</time>
      </trkpt>
      <trkpt lat="45.83354" lon="4.70606">
        <ele>311.20578</ele>
        <time>2022-09-27T12:02:12.000Z</time>
      </trkpt>
      <trkpt lat="45.83354" lon="4.70596">
        <ele>311.04617</ele>
        <time>2022-09-27T12:02:13.000Z</time>
      </trkpt>
      <trkpt lat="45.83355" lon="4.70588">
        <ele>310.88376</ele>
        <time>2022-09-27T12:02:14.000Z</time>
      </trkpt>
      <trkpt lat="45.83354" lon="4.70581">
        <ele>310.74072</ele>
        <time>2022-09-27T12:02:15.000Z</time>
      </trkpt>
      <trkpt lat="45.83353" lon="4.70573">
        <ele>310.57043</ele>
        <time>2022-09-27T12:02:16.000Z</time>
      </trkpt>
      <trkpt lat="45.83353" lon="4.70564">
        <ele>310.47125</ele>
        <time>2022-09-27T12:02:17.000Z</time>
      </trkpt>
      <trkpt lat="45.83352" lon="4.70554">
        <ele>310.31342</ele>
        <time>2022-09-27T12:02:18.000Z</time>
      </trkpt>
      <trkpt lat="45.8335" lon="4.70543">
        <ele>310.09613</ele>
        <time>2022-09-27T12:02:19.000Z</time>
      </trkpt>
      <trkpt lat="45.83348" lon="4.70535">
        <ele>309.86752</ele>
        <time>2022-09-27T12:02:20.000Z</time>
      </trkpt>
      <trkpt lat="45.83347" lon="4.70526">
        <ele>309.67963</ele>
        <time>2022-09-27T12:02:21.000Z</time>
      </trkpt>
      <trkpt lat="45.83345" lon="4.70519">
        <ele>309.47672</ele>
        <time>2022-09-27T12:02:22.000Z</time>
      </trkpt>
      <trkpt lat="45.83345" lon="4.7051">
        <ele>309.25067</ele>
        <time>2022-09-27T12:02:23.000Z</time>
      </trkpt>
      <trkpt lat="45.83343" lon="4.70503">
        <ele>309.08112</ele>
        <time>2022-09-27T12:02:24.000Z</time>
      </trkpt>
      <trkpt lat="45.83341" lon="4.70496">
        <ele>308.90631</ele>
        <time>2022-09-27T12:02:25.000Z</time>
      </trkpt>
      <trkpt lat="45.8334" lon="4.70487">
        <ele>308.75385</ele>
        <time>2022-09-27T12:02:26.000Z</time>
      </trkpt>
      <trkpt lat="45.83339" lon="4.7048">
        <ele>308.58643</ele>
        <time>2022-09-27T12:02:27.000Z</time>
      </trkpt>
      <trkpt lat="45.83337" lon="4.70472">
        <ele>308.49005</ele>
        <time>2022-09-27T12:02:28.000Z</time>
      </trkpt>
      <trkpt lat="45.83336" lon="4.70463">
        <ele>308.30896</ele>
        <time>2022-09-27T12:02:29.000Z</time>
      </trkpt>
      <trkpt lat="45.83335" lon="4.70455">
        <ele>308.13092</ele>
        <time>2022-09-27T12:02:30.000Z</time>
      </trkpt>
      <trkpt lat="45.83334" lon="4.70447">
        <ele>307.94391</ele>
        <time>2022-09-27T12:02:31.000Z</time>
      </trkpt>
      <trkpt lat="45.83334" lon="4.70438">
        <ele>307.81421</ele>
        <time>2022-09-27T12:02:32.000Z</time>
      </trkpt>
      <trkpt lat="45.83332" lon="4.70429">
        <ele>307.70615</ele>
        <time>2022-09-27T12:02:33.000Z</time>
      </trkpt>
      <trkpt lat="45.83331" lon="4.70421">
        <ele>307.62543</ele>
        <time>2022-09-27T12:02:34.000Z</time>
      </trkpt>
      <trkpt lat="45.83331" lon="4.70411">
        <ele>307.56403</ele>
        <time>2022-09-27T12:02:35.000Z</time>
      </trkpt>
      <trkpt lat="45.83331" lon="4.70403">
        <ele>307.52963</ele>
        <time>2022-09-27T12:02:36.000Z</time>
      </trkpt>
      <trkpt lat="45.8333" lon="4.70394">
        <ele>307.47076</ele>
        <time>2022-09-27T12:02:37.000Z</time>
      </trkpt>
      <trkpt lat="45.83329" lon="4.70384">
        <ele>307.41644</ele>
        <time>2022-09-27T12:02:38.000Z</time>
      </trkpt>
      <trkpt lat="45.83327" lon="4.70377">
        <ele>307.43646</ele>
        <time>2022-09-27T12:02:39.000Z</time>
      </trkpt>
      <trkpt lat="45.83325" lon="4.70369">
        <ele>307.49213</ele>
        <time>2022-09-27T12:02:40.000Z</time>
      </trkpt>
      <trkpt lat="45.83325" lon="4.70362">
        <ele>307.55362</ele>
        <time>2022-09-27T12:02:41.000Z</time>
      </trkpt>
      <trkpt lat="45.83323" lon="4.70355">
        <ele>307.6911</ele>
        <time>2022-09-27T12:02:42.000Z</time>
      </trkpt>
      <trkpt lat="45.83323" lon="4.70349">
        <ele>307.78357</ele>
        <time>2022-09-27T12:02:43.000Z</time>
      </trkpt>
      <trkpt lat="45.83323" lon="4.70343">
        <ele>307.83026</ele>
        <time>2022-09-27T12:02:44.000Z</time>
      </trkpt>
      <trkpt lat="45.83319" lon="4.70339">
        <ele>307.92035</ele>
        <time>2022-09-27T12:02:46.000Z</time>
      </trkpt>
      <trkpt lat="45.8332" lon="4.70331">
        <ele>307.94232</ele>
        <time>2022-09-27T12:02:48.000Z</time>
      </trkpt>
      <trkpt lat="45.83322" lon="4.70326">
        <ele>307.94766</ele>
        <time>2022-09-27T12:02:49.000Z</time>
      </trkpt>
      <trkpt lat="45.83323" lon="4.7032">
        <ele>307.91791</ele>
        <time>2022-09-27T12:02:50.000Z</time>
      </trkpt>
      <trkpt lat="45.83325" lon="4.70315">
        <ele>307.95532</ele>
        <time>2022-09-27T12:02:51.000Z</time>
      </trkpt>
      <trkpt lat="45.83326" lon="4.70309">
        <ele>307.9295</ele>
        <time>2022-09-27T12:02:52.000Z</time>
      </trkpt>
      <trkpt lat="45.83328" lon="4.70303">
        <ele>307.90884</ele>
        <time>2022-09-27T12:02:53.000Z</time>
      </trkpt>
      <trkpt lat="45.83328" lon="4.70296">
        <ele>307.86893</ele>
        <time>2022-09-27T12:02:54.000Z</time>
      </trkpt>
      <trkpt lat="45.83332" lon="4.70291">
        <ele>307.82245</ele>
        <time>2022-09-27T12:02:55.000Z</time>
      </trkpt>
      <trkpt lat="45.83335" lon="4.70286">
        <ele>307.75275</ele>
        <time>2022-09-27T12:02:56.000Z</time>
      </trkpt>
      <trkpt lat="45.83338" lon="4.7028">
        <ele>307.66333</ele>
        <time>2022-09-27T12:02:57.000Z</time>
      </trkpt>
      <trkpt lat="45.83341" lon="4.70273">
        <ele>307.53888</ele>
        <time>2022-09-27T12:02:58.000Z</time>
      </trkpt>
      <trkpt lat="45.83343" lon="4.70267">
        <ele>307.40387</ele>
        <time>2022-09-27T12:02:59.000Z</time>
      </trkpt>
      <trkpt lat="45.83345" lon="4.7026">
        <ele>307.25955</ele>
        <time>2022-09-27T12:03:00.000Z</time>
      </trkpt>
      <trkpt lat="45.83347" lon="4.70254">
        <ele>307.06595</ele>
        <time>2022-09-27T12:03:01.000Z</time>
      </trkpt>
      <trkpt lat="45.8335" lon="4.70248">
        <ele>306.85229</ele>
        <time>2022-09-27T12:03:02.000Z</time>
      </trkpt>
      <trkpt lat="45.83352" lon="4.70241">
        <ele>306.69794</ele>
        <time>2022-09-27T12:03:03.000Z</time>
      </trkpt>
      <trkpt lat="45.83355" lon="4.70235">
        <ele>306.50977</ele>
        <time>2022-09-27T12:03:04.000Z</time>
      </trkpt>
      <trkpt lat="45.83356" lon="4.70229">
        <ele>306.28436</ele>
        <time>2022-09-27T12:03:05.000Z</time>
      </trkpt>
      <trkpt lat="45.83357" lon="4.70222">
        <ele>306.00726</ele>
        <time>2022-09-27T12:03:06.000Z</time>
      </trkpt>
      <trkpt lat="45.8336" lon="4.70214">
        <ele>305.67224</ele>
        <time>2022-09-27T12:03:07.000Z</time>
      </trkpt>
      <trkpt lat="45.83362" lon="4.70206">
        <ele>305.48199</ele>
        <time>2022-09-27T12:03:08.000Z</time>
      </trkpt>
      <trkpt lat="45.83364" lon="4.70199">
        <ele>305.32764</ele>
        <time>2022-09-27T12:03:09.000Z</time>
      </trkpt>
      <trkpt lat="45.83366" lon="4.70192">
        <ele>305.28436</ele>
        <time>2022-09-27T12:03:10.000Z</time>
      </trkpt>
      <trkpt lat="45.8337" lon="4.70184">
        <ele>305.36423</ele>
        <time>2022-09-27T12:03:11.000Z</time>
      </trkpt>
      <trkpt lat="45.83371" lon="4.70177">
        <ele>305.5007</ele>
        <time>2022-09-27T12:03:12.000Z</time>
      </trkpt>
      <trkpt lat="45.83374" lon="4.70169">
        <ele>305.60123</ele>
        <time>2022-09-27T12:03:13.000Z</time>
      </trkpt>
      <trkpt lat="45.83375" lon="4.70161">
        <ele>305.68066</ele>
        <time>2022-09-27T12:03:14.000Z</time>
      </trkpt>
      <trkpt lat="45.83377" lon="4.70154">
        <ele>305.73972</ele>
        <time>2022-09-27T12:03:15.000Z</time>
      </trkpt>
      <trkpt lat="45.83379" lon="4.70148">
        <ele>305.73331</ele>
        <time>2022-09-27T12:03:16.000Z</time>
      </trkpt>
      <trkpt lat="45.83381" lon="4.7014">
        <ele>305.74658</ele>
        <time>2022-09-27T12:03:17.000Z</time>
      </trkpt>
      <trkpt lat="45.83384" lon="4.70131">
        <ele>305.81281</ele>
        <time>2022-09-27T12:03:18.000Z</time>
      </trkpt>
      <trkpt lat="45.83385" lon="4.70124">
        <ele>305.84494</ele>
        <time>2022-09-27T12:03:19.000Z</time>
      </trkpt>
      <trkpt lat="45.83386" lon="4.70116">
        <ele>305.89841</ele>
        <time>2022-09-27T12:03:20.000Z</time>
      </trkpt>
      <trkpt lat="45.83387" lon="4.70107">
        <ele>305.98065</ele>
        <time>2022-09-27T12:03:21.000Z</time>
      </trkpt>
      <trkpt lat="45.83388" lon="4.70099">
        <ele>306.05603</ele>
        <time>2022-09-27T12:03:22.000Z</time>
      </trkpt>
      <trkpt lat="45.83389" lon="4.7009">
        <ele>306.1123</ele>
        <time>2022-09-27T12:03:23.000Z</time>
      </trkpt>
      <trkpt lat="45.8339" lon="4.70081">
        <ele>306.17712</ele>
        <time>2022-09-27T12:03:24.000Z</time>
      </trkpt>
      <trkpt lat="45.83393" lon="4.70072">
        <ele>306.34106</ele>
        <time>2022-09-27T12:03:25.000Z</time>
      </trkpt>
      <trkpt lat="45.83394" lon="4.70063">
        <ele>306.52057</ele>
        <time>2022-09-27T12:03:26.000Z</time>
      </trkpt>
      <trkpt lat="45.83394" lon="4.70052">
        <ele>306.75034</ele>
        <time>2022-09-27T12:03:27.000Z</time>
      </trkpt>
      <trkpt lat="45.83395" lon="4.70043">
        <ele>306.87103</ele>
        <time>2022-09-27T12:03:28.000Z</time>
      </trkpt>
      <trkpt lat="45.83394" lon="4.70033">
        <ele>306.98038</ele>
        <time>2022-09-27T12:03:29.000Z</time>
      </trkpt>
      <trkpt lat="45.83395" lon="4.70023">
        <ele>306.92627</ele>
        <time>2022-09-27T12:03:30.000Z</time>
      </trkpt>
      <trkpt lat="45.83396" lon="4.70013">
        <ele>306.71323</ele>
        <time>2022-09-27T12:03:31.000Z</time>
      </trkpt>
      <trkpt lat="45.83396" lon="4.70002">
        <ele>306.4975</ele>
        <time>2022-09-27T12:03:32.000Z</time>
      </trkpt>
      <trkpt lat="45.83399" lon="4.69992">
        <ele>306.24469</ele>
        <time>2022-09-27T12:03:33.000Z</time>
      </trkpt>
      <trkpt lat="45.834" lon="4.69981">
        <ele>305.98285</ele>
        <time>2022-09-27T12:03:34.000Z</time>
      </trkpt>
      <trkpt lat="45.83401" lon="4.69971">
        <ele>305.74152</ele>
        <time>2022-09-27T12:03:35.000Z</time>
      </trkpt>
      <trkpt lat="45.83403" lon="4.6996">
        <ele>305.56085</ele>
        <time>2022-09-27T12:03:36.000Z</time>
      </trkpt>
      <trkpt lat="45.83405" lon="4.6995">
        <ele>305.42239</ele>
        <time>2022-09-27T12:03:37.000Z</time>
      </trkpt>
      <trkpt lat="45.83407" lon="4.6994">
        <ele>305.25119</ele>
        <time>2022-09-27T12:03:38.000Z</time>
      </trkpt>
      <trkpt lat="45.83405" lon="4.69931">
        <ele>305.07874</ele>
        <time>2022-09-27T12:03:39.000Z</time>
      </trkpt>
      <trkpt lat="45.83402" lon="4.69921">
        <ele>304.92416</ele>
        <time>2022-09-27T12:03:40.000Z</time>
      </trkpt>
      <trkpt lat="45.83398" lon="4.69914">
        <ele>304.71152</ele>
        <time>2022-09-27T12:03:41.000Z</time>
      </trkpt>
      <trkpt lat="45.83393" lon="4.69907">
        <ele>304.4245</ele>
        <time>2022-09-27T12:03:42.000Z</time>
      </trkpt>
      <trkpt lat="45.83389" lon="4.69902">
        <ele>304.1308</ele>
        <time>2022-09-27T12:03:43.000Z</time>
      </trkpt>
      <trkpt lat="45.83386" lon="4.69895">
        <ele>303.86667</ele>
        <time>2022-09-27T12:03:44.000Z</time>
      </trkpt>
      <trkpt lat="45.83383" lon="4.69889">
        <ele>303.59894</ele>
        <time>2022-09-27T12:03:45.000Z</time>
      </trkpt>
      <trkpt lat="45.83386" lon="4.69883">
        <ele>303.26996</ele>
        <time>2022-09-27T12:03:46.000Z</time>
      </trkpt>
      <trkpt lat="45.83388" lon="4.69877">
        <ele>302.86359</ele>
        <time>2022-09-27T12:03:47.000Z</time>
      </trkpt>
      <trkpt lat="45.8339" lon="4.69872">
        <ele>302.46771</ele>
        <time>2022-09-27T12:03:48.000Z</time>
      </trkpt>
      <trkpt lat="45.83391" lon="4.69869">
        <ele>302.20999</ele>
        <time>2022-09-27T12:03:50.000Z</time>
      </trkpt>
      <trkpt lat="45.83394" lon="4.69863">
        <ele>302.02835</ele>
        <time>2022-09-27T12:03:52.000Z</time>
      </trkpt>
      <trkpt lat="45.83395" lon="4.6986">
        <ele>301.86694</ele>
        <time>2022-09-27T12:03:53.000Z</time>
      </trkpt>
      <trkpt lat="45.83396" lon="4.69857">
        <ele>301.6723</ele>
        <time>2022-09-27T12:03:54.000Z</time>
      </trkpt>
      <trkpt lat="45.83396" lon="4.69853">
        <ele>301.54031</ele>
        <time>2022-09-27T12:03:55.000Z</time>
      </trkpt>
      <trkpt lat="45.83395" lon="4.6985">
        <ele>301.37988</ele>
        <time>2022-09-27T12:03:56.000Z</time>
      </trkpt>
      <trkpt lat="45.83394" lon="4.69845">
        <ele>301.26895</ele>
        <time>2022-09-27T12:03:57.000Z</time>
      </trkpt>
      <trkpt lat="45.83392" lon="4.6984">
        <ele>301.1965</ele>
        <time>2022-09-27T12:03:58.000Z</time>
      </trkpt>
      <trkpt lat="45.8339" lon="4.69834">
        <ele>301.1106</ele>
        <time>2022-09-27T12:03:59.000Z</time>
      </trkpt>
      <trkpt lat="45.83388" lon="4.6983">
        <ele>301.02341</ele>
        <time>2022-09-27T12:04:00.000Z</time>
      </trkpt>
      <trkpt lat="45.83388" lon="4.69824">
        <ele>300.9642</ele>
        <time>2022-09-27T12:04:01.000Z</time>
      </trkpt>
      <trkpt lat="45.83386" lon="4.69817">
        <ele>300.88165</ele>
        <time>2022-09-27T12:04:02.000Z</time>
      </trkpt>
      <trkpt lat="45.83386" lon="4.69811">
        <ele>300.80597</ele>
        <time>2022-09-27T12:04:03.000Z</time>
      </trkpt>
      <trkpt lat="45.83385" lon="4.69804">
        <ele>300.72742</ele>
        <time>2022-09-27T12:04:04.000Z</time>
      </trkpt>
      <trkpt lat="45.83384" lon="4.69797">
        <ele>300.63263</ele>
        <time>2022-09-27T12:04:05.000Z</time>
      </trkpt>
      <trkpt lat="45.83384" lon="4.69789">
        <ele>300.4617</ele>
        <time>2022-09-27T12:04:06.000Z</time>
      </trkpt>
      <trkpt lat="45.83382" lon="4.69783">
        <ele>300.17401</ele>
        <time>2022-09-27T12:04:07.000Z</time>
      </trkpt>
      <trkpt lat="45.83379" lon="4.69776">
        <ele>299.95306</ele>
        <time>2022-09-27T12:04:08.000Z</time>
      </trkpt>
      <trkpt lat="45.83377" lon="4.69769">
        <ele>299.73657</ele>
        <time>2022-09-27T12:04:09.000Z</time>
      </trkpt>
      <trkpt lat="45.83375" lon="4.69762">
        <ele>299.63019</ele>
        <time>2022-09-27T12:04:10.000Z</time>
      </trkpt>
      <trkpt lat="45.83374" lon="4.69754">
        <ele>299.39655</ele>
        <time>2022-09-27T12:04:11.000Z</time>
      </trkpt>
      <trkpt lat="45.83372" lon="4.69747">
        <ele>299.11456</ele>
        <time>2022-09-27T12:04:12.000Z</time>
      </trkpt>
      <trkpt lat="45.83371" lon="4.69739">
        <ele>298.80157</ele>
        <time>2022-09-27T12:04:13.000Z</time>
      </trkpt>
      <trkpt lat="45.83369" lon="4.69732">
        <ele>298.6084</ele>
        <time>2022-09-27T12:04:14.000Z</time>
      </trkpt>
      <trkpt lat="45.83367" lon="4.69724">
        <ele>298.39908</ele>
        <time>2022-09-27T12:04:15.000Z</time>
      </trkpt>
      <trkpt lat="45.83366" lon="4.69716">
        <ele>298.2713</ele>
        <time>2022-09-27T12:04:16.000Z</time>
      </trkpt>
      <trkpt lat="45.83364" lon="4.69708">
        <ele>298.12796</ele>
        <time>2022-09-27T12:04:17.000Z</time>
      </trkpt>
      <trkpt lat="45.83363" lon="4.69701">
        <ele>298.02103</ele>
        <time>2022-09-27T12:04:18.000Z</time>
      </trkpt>
      <trkpt lat="45.83362" lon="4.69693">
        <ele>297.90692</ele>
        <time>2022-09-27T12:04:19.000Z</time>
      </trkpt>
      <trkpt lat="45.83361" lon="4.69686">
        <ele>297.79486</ele>
        <time>2022-09-27T12:04:20.000Z</time>
      </trkpt>
      <trkpt lat="45.83359" lon="4.69679">
        <ele>297.66412</ele>
        <time>2022-09-27T12:04:21.000Z</time>
      </trkpt>
      <trkpt lat="45.83358" lon="4.6967">
        <ele>297.55002</ele>
        <time>2022-09-27T12:04:22.000Z</time>
      </trkpt>
      <trkpt lat="45.83357" lon="4.69663">
        <ele>297.43256</ele>
        <time>2022-09-27T12:04:23.000Z</time>
      </trkpt>
      <trkpt lat="45.83355" lon="4.69656">
        <ele>297.36884</ele>
        <time>2022-09-27T12:04:24.000Z</time>
      </trkpt>
      <trkpt lat="45.83354" lon="4.69648">
        <ele>297.36899</ele>
        <time>2022-09-27T12:04:25.000Z</time>
      </trkpt>
      <trkpt lat="45.83352" lon="4.69639">
        <ele>297.4447</ele>
        <time>2022-09-27T12:04:26.000Z</time>
      </trkpt>
      <trkpt lat="45.8335" lon="4.69632">
        <ele>297.65604</ele>
        <time>2022-09-27T12:04:27.000Z</time>
      </trkpt>
      <trkpt lat="45.83349" lon="4.69624">
        <ele>297.89276</ele>
        <time>2022-09-27T12:04:28.000Z</time>
      </trkpt>
      <trkpt lat="45.83348" lon="4.69615">
        <ele>298.18008</ele>
        <time>2022-09-27T12:04:29.000Z</time>
      </trkpt>
      <trkpt lat="45.83347" lon="4.69608">
        <ele>298.33536</ele>
        <time>2022-09-27T12:04:30.000Z</time>
      </trkpt>
      <trkpt lat="45.83346" lon="4.696">
        <ele>298.48178</ele>
        <time>2022-09-27T12:04:31.000Z</time>
      </trkpt>
      <trkpt lat="45.83345" lon="4.69593">
        <ele>298.56744</ele>
        <time>2022-09-27T12:04:32.000Z</time>
      </trkpt>
      <trkpt lat="45.83344" lon="4.69586">
        <ele>298.65704</ele>
        <time>2022-09-27T12:04:33.000Z</time>
      </trkpt>
      <trkpt lat="45.83344" lon="4.69578">
        <ele>298.67999</ele>
        <time>2022-09-27T12:04:34.000Z</time>
      </trkpt>
      <trkpt lat="45.83344" lon="4.6957">
        <ele>298.7113</ele>
        <time>2022-09-27T12:04:35.000Z</time>
      </trkpt>
      <trkpt lat="45.83342" lon="4.69562">
        <ele>298.72821</ele>
        <time>2022-09-27T12:04:36.000Z</time>
      </trkpt>
      <trkpt lat="45.83341" lon="4.69556">
        <ele>298.68802</ele>
        <time>2022-09-27T12:04:37.000Z</time>
      </trkpt>
      <trkpt lat="45.83341" lon="4.69548">
        <ele>298.57901</ele>
        <time>2022-09-27T12:04:38.000Z</time>
      </trkpt>
      <trkpt lat="45.83339" lon="4.6954">
        <ele>298.45105</ele>
        <time>2022-09-27T12:04:39.000Z</time>
      </trkpt>
      <trkpt lat="45.83339" lon="4.69533">
        <ele>298.31296</ele>
        <time>2022-09-27T12:04:40.000Z</time>
      </trkpt>
      <trkpt lat="45.83339" lon="4.69526">
        <ele>298.17084</ele>
        <time>2022-09-27T12:04:41.000Z</time>
      </trkpt>
      <trkpt lat="45.83339" lon="4.69519">
        <ele>297.97211</ele>
        <time>2022-09-27T12:04:42.000Z</time>
      </trkpt>
      <trkpt lat="45.83338" lon="4.69512">
        <ele>297.83511</ele>
        <time>2022-09-27T12:04:43.000Z</time>
      </trkpt>
      <trkpt lat="45.83338" lon="4.69505">
        <ele>297.75165</ele>
        <time>2022-09-27T12:04:44.000Z</time>
      </trkpt>
      <trkpt lat="45.83338" lon="4.69499">
        <ele>297.58316</ele>
        <time>2022-09-27T12:04:45.000Z</time>
      </trkpt>
      <trkpt lat="45.83338" lon="4.69491">
        <ele>297.28754</ele>
        <time>2022-09-27T12:04:46.000Z</time>
      </trkpt>
      <trkpt lat="45.83338" lon="4.69478">
        <ele>296.98315</ele>
        <time>2022-09-27T12:04:47.000Z</time>
      </trkpt>
      <trkpt lat="45.83338" lon="4.69471">
        <ele>296.62839</ele>
        <time>2022-09-27T12:04:48.000Z</time>
      </trkpt>
      <trkpt lat="45.83338" lon="4.69464">
        <ele>296.26288</ele>
        <time>2022-09-27T12:04:49.000Z</time>
      </trkpt>
      <trkpt lat="45.83339" lon="4.69456">
        <ele>295.92773</ele>
        <time>2022-09-27T12:04:50.000Z</time>
      </trkpt>
      <trkpt lat="45.8334" lon="4.69447">
        <ele>295.6131</ele>
        <time>2022-09-27T12:04:51.000Z</time>
      </trkpt>
      <trkpt lat="45.83342" lon="4.69437">
        <ele>295.33047</ele>
        <time>2022-09-27T12:04:52.000Z</time>
      </trkpt>
      <trkpt lat="45.83343" lon="4.6943">
        <ele>295.04364</ele>
        <time>2022-09-27T12:04:53.000Z</time>
      </trkpt>
      <trkpt lat="45.83349" lon="4.69425">
        <ele>294.62363</ele>
        <time>2022-09-27T12:04:54.000Z</time>
      </trkpt>
      <trkpt lat="45.8335" lon="4.69417">
        <ele>294.24115</ele>
        <time>2022-09-27T12:04:55.000Z</time>
      </trkpt>
      <trkpt lat="45.8335" lon="4.6941">
        <ele>293.8652</ele>
        <time>2022-09-27T12:04:56.000Z</time>
      </trkpt>
      <trkpt lat="45.83351" lon="4.69403">
        <ele>293.54346</ele>
        <time>2022-09-27T12:04:57.000Z</time>
      </trkpt>
      <trkpt lat="45.83353" lon="4.69396">
        <ele>293.24188</ele>
        <time>2022-09-27T12:04:58.000Z</time>
      </trkpt>
      <trkpt lat="45.83355" lon="4.69387">
        <ele>293.06555</ele>
        <time>2022-09-27T12:04:59.000Z</time>
      </trkpt>
      <trkpt lat="45.83354" lon="4.69379">
        <ele>292.90533</ele>
        <time>2022-09-27T12:05:00.000Z</time>
      </trkpt>
      <trkpt lat="45.83354" lon="4.69372">
        <ele>292.76538</ele>
        <time>2022-09-27T12:05:01.000Z</time>
      </trkpt>
      <trkpt lat="45.83355" lon="4.69365">
        <ele>292.75534</ele>
        <time>2022-09-27T12:05:02.000Z</time>
      </trkpt>
      <trkpt lat="45.83356" lon="4.69358">
        <ele>292.78403</ele>
        <time>2022-09-27T12:05:03.000Z</time>
      </trkpt>
      <trkpt lat="45.83356" lon="4.69348">
        <ele>292.83768</ele>
        <time>2022-09-27T12:05:04.000Z</time>
      </trkpt>
      <trkpt lat="45.83355" lon="4.69341">
        <ele>292.94818</ele>
        <time>2022-09-27T12:05:05.000Z</time>
      </trkpt>
      <trkpt lat="45.83356" lon="4.69335">
        <ele>293.11053</ele>
        <time>2022-09-27T12:05:06.000Z</time>
      </trkpt>
      <trkpt lat="45.83357" lon="4.69327">
        <ele>293.23328</ele>
        <time>2022-09-27T12:05:07.000Z</time>
      </trkpt>
      <trkpt lat="45.83356" lon="4.69321">
        <ele>293.36362</ele>
        <time>2022-09-27T12:05:08.000Z</time>
      </trkpt>
      <trkpt lat="45.83357" lon="4.69315">
        <ele>293.48126</ele>
        <time>2022-09-27T12:05:09.000Z</time>
      </trkpt>
      <trkpt lat="45.83357" lon="4.69308">
        <ele>293.59525</ele>
        <time>2022-09-27T12:05:10.000Z</time>
      </trkpt>
      <trkpt lat="45.83357" lon="4.69302">
        <ele>293.69635</ele>
        <time>2022-09-27T12:05:11.000Z</time>
      </trkpt>
      <trkpt lat="45.83357" lon="4.69297">
        <ele>293.80829</ele>
        <time>2022-09-27T12:05:12.000Z</time>
      </trkpt>
      <trkpt lat="45.83356" lon="4.69292">
        <ele>293.99377</ele>
        <time>2022-09-27T12:05:13.000Z</time>
      </trkpt>
      <trkpt lat="45.83357" lon="4.69286">
        <ele>294.29596</ele>
        <time>2022-09-27T12:05:14.000Z</time>
      </trkpt>
      <trkpt lat="45.83359" lon="4.69281">
        <ele>294.55426</ele>
        <time>2022-09-27T12:05:15.000Z</time>
      </trkpt>
      <trkpt lat="45.83359" lon="4.69276">
        <ele>294.84381</ele>
        <time>2022-09-27T12:05:16.000Z</time>
      </trkpt>
      <trkpt lat="45.83356" lon="4.69269">
        <ele>295.10461</ele>
        <time>2022-09-27T12:05:17.000Z</time>
      </trkpt>
      <trkpt lat="45.83358" lon="4.69263">
        <ele>295.26038</ele>
        <time>2022-09-27T12:05:18.000Z</time>
      </trkpt>
      <trkpt lat="45.83359" lon="4.69257">
        <ele>295.254</ele>
        <time>2022-09-27T12:05:19.000Z</time>
      </trkpt>
      <trkpt lat="45.83359" lon="4.69251">
        <ele>295.20468</ele>
        <time>2022-09-27T12:05:20.000Z</time>
      </trkpt>
      <trkpt lat="45.8336" lon="4.69246">
        <ele>295.17615</ele>
        <time>2022-09-27T12:05:21.000Z</time>
      </trkpt>
      <trkpt lat="45.8336" lon="4.69241">
        <ele>295.03595</ele>
        <time>2022-09-27T12:05:22.000Z</time>
      </trkpt>
      <trkpt lat="45.8336" lon="4.69236">
        <ele>294.89398</ele>
        <time>2022-09-27T12:05:23.000Z</time>
      </trkpt>
      <trkpt lat="45.83361" lon="4.69231">
        <ele>294.69388</ele>
        <time>2022-09-27T12:05:24.000Z</time>
      </trkpt>
      <trkpt lat="45.83361" lon="4.69226">
        <ele>294.49576</ele>
        <time>2022-09-27T12:05:25.000Z</time>
      </trkpt>
      <trkpt lat="45.83362" lon="4.69221">
        <ele>294.31561</ele>
        <time>2022-09-27T12:05:26.000Z</time>
      </trkpt>
      <trkpt lat="45.83363" lon="4.69215">
        <ele>294.10602</ele>
        <time>2022-09-27T12:05:27.000Z</time>
      </trkpt>
      <trkpt lat="45.83364" lon="4.6921">
        <ele>293.92053</ele>
        <time>2022-09-27T12:05:28.000Z</time>
      </trkpt>
      <trkpt lat="45.83364" lon="4.69205">
        <ele>293.73843</ele>
        <time>2022-09-27T12:05:29.000Z</time>
      </trkpt>
      <trkpt lat="45.83365" lon="4.692">
        <ele>293.52301</ele>
        <time>2022-09-27T12:05:30.000Z</time>
      </trkpt>
      <trkpt lat="45.83366" lon="4.69195">
        <ele>293.31711</ele>
        <time>2022-09-27T12:05:31.000Z</time>
      </trkpt>
      <trkpt lat="45.83367" lon="4.69189">
        <ele>293.07111</ele>
        <time>2022-09-27T12:05:32.000Z</time>
      </trkpt>
      <trkpt lat="45.83368" lon="4.69184">
        <ele>292.78015</ele>
        <time>2022-09-27T12:05:33.000Z</time>
      </trkpt>
      <trkpt lat="45.83368" lon="4.69177">
        <ele>292.49326</ele>
        <time>2022-09-27T12:05:34.000Z</time>
      </trkpt>
      <trkpt lat="45.83372" lon="4.69168">
        <ele>292.22928</ele>
        <time>2022-09-27T12:05:35.000Z</time>
      </trkpt>
      <trkpt lat="45.83371" lon="4.69161">
        <ele>291.93549</ele>
        <time>2022-09-27T12:05:36.000Z</time>
      </trkpt>
      <trkpt lat="45.83369" lon="4.69155">
        <ele>291.7005</ele>
        <time>2022-09-27T12:05:37.000Z</time>
      </trkpt>
      <trkpt lat="45.83369" lon="4.69149">
        <ele>291.57327</ele>
        <time>2022-09-27T12:05:38.000Z</time>
      </trkpt>
      <trkpt lat="45.8337" lon="4.69142">
        <ele>291.48172</ele>
        <time>2022-09-27T12:05:39.000Z</time>
      </trkpt>
      <trkpt lat="45.8337" lon="4.69132">
        <ele>291.34717</ele>
        <time>2022-09-27T12:05:40.000Z</time>
      </trkpt>
      <trkpt lat="45.83372" lon="4.69125">
        <ele>291.19473</ele>
        <time>2022-09-27T12:05:41.000Z</time>
      </trkpt>
      <trkpt lat="45.83373" lon="4.69117">
        <ele>291.13416</ele>
        <time>2022-09-27T12:05:42.000Z</time>
      </trkpt>
      <trkpt lat="45.83374" lon="4.69108">
        <ele>290.98422</ele>
        <time>2022-09-27T12:05:43.000Z</time>
      </trkpt>
      <trkpt lat="45.83373" lon="4.69099">
        <ele>290.79568</ele>
        <time>2022-09-27T12:05:44.000Z</time>
      </trkpt>
      <trkpt lat="45.83376" lon="4.69091">
        <ele>290.6022</ele>
        <time>2022-09-27T12:05:45.000Z</time>
      </trkpt>
      <trkpt lat="45.83376" lon="4.69083">
        <ele>290.44772</ele>
        <time>2022-09-27T12:05:46.000Z</time>
      </trkpt>
      <trkpt lat="45.83376" lon="4.69075">
        <ele>290.35175</ele>
        <time>2022-09-27T12:05:47.000Z</time>
      </trkpt>
      <trkpt lat="45.83379" lon="4.69068">
        <ele>290.22427</ele>
        <time>2022-09-27T12:05:48.000Z</time>
      </trkpt>
      <trkpt lat="45.8338" lon="4.6906">
        <ele>290.0983</ele>
        <time>2022-09-27T12:05:49.000Z</time>
      </trkpt>
      <trkpt lat="45.83387" lon="4.69054">
        <ele>289.9725</ele>
        <time>2022-09-27T12:05:50.000Z</time>
      </trkpt>
      <trkpt lat="45.83391" lon="4.69045">
        <ele>289.91113</ele>
        <time>2022-09-27T12:05:51.000Z</time>
      </trkpt>
      <trkpt lat="45.83395" lon="4.69037">
        <ele>289.87827</ele>
        <time>2022-09-27T12:05:52.000Z</time>
      </trkpt>
      <trkpt lat="45.83397" lon="4.69031">
        <ele>289.82529</ele>
        <time>2022-09-27T12:05:53.000Z</time>
      </trkpt>
      <trkpt lat="45.83399" lon="4.69022">
        <ele>289.66367</ele>
        <time>2022-09-27T12:05:54.000Z</time>
      </trkpt>
      <trkpt lat="45.834" lon="4.69014">
        <ele>289.49008</ele>
        <time>2022-09-27T12:05:55.000Z</time>
      </trkpt>
      <trkpt lat="45.83403" lon="4.69005">
        <ele>289.31891</ele>
        <time>2022-09-27T12:05:56.000Z</time>
      </trkpt>
      <trkpt lat="45.83405" lon="4.68996">
        <ele>289.08148</ele>
        <time>2022-09-27T12:05:57.000Z</time>
      </trkpt>
      <trkpt lat="45.83408" lon="4.68987">
        <ele>288.75922</ele>
        <time>2022-09-27T12:05:58.000Z</time>
      </trkpt>
      <trkpt lat="45.83411" lon="4.68976">
        <ele>288.48016</ele>
        <time>2022-09-27T12:05:59.000Z</time>
      </trkpt>
      <trkpt lat="45.83413" lon="4.68967">
        <ele>288.24969</ele>
        <time>2022-09-27T12:06:00.000Z</time>
      </trkpt>
      <trkpt lat="45.83415" lon="4.68959">
        <ele>287.99802</ele>
        <time>2022-09-27T12:06:01.000Z</time>
      </trkpt>
      <trkpt lat="45.83417" lon="4.68949">
        <ele>287.71609</ele>
        <time>2022-09-27T12:06:02.000Z</time>
      </trkpt>
      <trkpt lat="45.8342" lon="4.68942">
        <ele>287.44284</ele>
        <time>2022-09-27T12:06:03.000Z</time>
      </trkpt>
      <trkpt lat="45.83423" lon="4.68935">
        <ele>287.12396</ele>
        <time>2022-09-27T12:06:04.000Z</time>
      </trkpt>
      <trkpt lat="45.83425" lon="4.68929">
        <ele>286.74738</ele>
        <time>2022-09-27T12:06:05.000Z</time>
      </trkpt>
      <trkpt lat="45.83423" lon="4.68922">
        <ele>286.26691</ele>
        <time>2022-09-27T12:06:06.000Z</time>
      </trkpt>
      <trkpt lat="45.83422" lon="4.68916">
        <ele>285.67764</ele>
        <time>2022-09-27T12:06:07.000Z</time>
      </trkpt>
      <trkpt lat="45.8342" lon="4.68909">
        <ele>285.1037</ele>
        <time>2022-09-27T12:06:08.000Z</time>
      </trkpt>
      <trkpt lat="45.83418" lon="4.68902">
        <ele>284.52789</ele>
        <time>2022-09-27T12:06:09.000Z</time>
      </trkpt>
      <trkpt lat="45.83417" lon="4.68896">
        <ele>283.99945</ele>
        <time>2022-09-27T12:06:10.000Z</time>
      </trkpt>
      <trkpt lat="45.83415" lon="4.68888">
        <ele>283.34656</ele>
        <time>2022-09-27T12:06:11.000Z</time>
      </trkpt>
      <trkpt lat="45.83413" lon="4.68879">
        <ele>282.6991</ele>
        <time>2022-09-27T12:06:12.000Z</time>
      </trkpt>
      <trkpt lat="45.83411" lon="4.6887">
        <ele>282.14127</ele>
        <time>2022-09-27T12:06:13.000Z</time>
      </trkpt>
      <trkpt lat="45.83408" lon="4.68859">
        <ele>281.6871</ele>
        <time>2022-09-27T12:06:14.000Z</time>
      </trkpt>
      <trkpt lat="45.83409" lon="4.68846">
        <ele>281.21686</ele>
        <time>2022-09-27T12:06:15.000Z</time>
      </trkpt>
      <trkpt lat="45.83398" lon="4.68814">
        <ele>280.65851</ele>
        <time>2022-09-27T12:06:21.000Z</time>
      </trkpt>
      <trkpt lat="45.83397" lon="4.68809">
        <ele>280.11789</ele>
        <time>2022-09-27T12:06:22.000Z</time>
      </trkpt>
      <trkpt lat="45.83397" lon="4.68805">
        <ele>279.60318</ele>
        <time>2022-09-27T12:06:23.000Z</time>
      </trkpt>
      <trkpt lat="45.83395" lon="4.68801">
        <ele>279.01901</ele>
        <time>2022-09-27T12:06:24.000Z</time>
      </trkpt>
      <trkpt lat="45.83393" lon="4.68795">
        <ele>278.51459</ele>
        <time>2022-09-27T12:06:25.000Z</time>
      </trkpt>
      <trkpt lat="45.83391" lon="4.6879">
        <ele>278.0798</ele>
        <time>2022-09-27T12:06:26.000Z</time>
      </trkpt>
      <trkpt lat="45.8339" lon="4.68785">
        <ele>277.6355</ele>
        <time>2022-09-27T12:06:27.000Z</time>
      </trkpt>
      <trkpt lat="45.83388" lon="4.68781">
        <ele>277.19763</ele>
        <time>2022-09-27T12:06:28.000Z</time>
      </trkpt>
      <trkpt lat="45.83386" lon="4.68777">
        <ele>276.76257</ele>
        <time>2022-09-27T12:06:29.000Z</time>
      </trkpt>
      <trkpt lat="45.83384" lon="4.68773">
        <ele>276.28763</ele>
        <time>2022-09-27T12:06:30.000Z</time>
      </trkpt>
      <trkpt lat="45.83383" lon="4.68769">
        <ele>275.88681</ele>
        <time>2022-09-27T12:06:31.000Z</time>
      </trkpt>
      <trkpt lat="45.8338" lon="4.68764">
        <ele>275.57306</ele>
        <time>2022-09-27T12:06:32.000Z</time>
      </trkpt>
      <trkpt lat="45.83378" lon="4.6876">
        <ele>275.25629</ele>
        <time>2022-09-27T12:06:33.000Z</time>
      </trkpt>
      <trkpt lat="45.83376" lon="4.68756">
        <ele>274.97211</ele>
        <time>2022-09-27T12:06:34.000Z</time>
      </trkpt>
      <trkpt lat="45.83374" lon="4.68752">
        <ele>274.70447</ele>
        <time>2022-09-27T12:06:35.000Z</time>
      </trkpt>
      <trkpt lat="45.83371" lon="4.68747">
        <ele>274.51495</ele>
        <time>2022-09-27T12:06:36.000Z</time>
      </trkpt>
      <trkpt lat="45.83369" lon="4.68743">
        <ele>274.3334</ele>
        <time>2022-09-27T12:06:37.000Z</time>
      </trkpt>
      <trkpt lat="45.83366" lon="4.68739">
        <ele>274.14542</ele>
        <time>2022-09-27T12:06:38.000Z</time>
      </trkpt>
      <trkpt lat="45.83364" lon="4.68736">
        <ele>273.94653</ele>
        <time>2022-09-27T12:06:39.000Z</time>
      </trkpt>
      <trkpt lat="45.83362" lon="4.68732">
        <ele>273.83099</ele>
        <time>2022-09-27T12:06:40.000Z</time>
      </trkpt>
      <trkpt lat="45.8336" lon="4.68729">
        <ele>273.74792</ele>
        <time>2022-09-27T12:06:41.000Z</time>
      </trkpt>
      <trkpt lat="45.83359" lon="4.68726">
        <ele>273.67798</ele>
        <time>2022-09-27T12:06:42.000Z</time>
      </trkpt>
      <trkpt lat="45.83357" lon="4.68723">
        <ele>273.63321</ele>
        <time>2022-09-27T12:06:43.000Z</time>
      </trkpt>
      <trkpt lat="45.83356" lon="4.68719">
        <ele>273.67346</ele>
        <time>2022-09-27T12:06:44.000Z</time>
      </trkpt>
      <trkpt lat="45.83354" lon="4.68716">
        <ele>273.62927</ele>
        <time>2022-09-27T12:06:45.000Z</time>
      </trkpt>
      <trkpt lat="45.83352" lon="4.68713">
        <ele>273.54672</ele>
        <time>2022-09-27T12:06:46.000Z</time>
      </trkpt>
      <trkpt lat="45.83351" lon="4.68709">
        <ele>273.45016</ele>
        <time>2022-09-27T12:06:47.000Z</time>
      </trkpt>
      <trkpt lat="45.83349" lon="4.68706">
        <ele>273.43582</ele>
        <time>2022-09-27T12:06:48.000Z</time>
      </trkpt>
      <trkpt lat="45.83347" lon="4.68703">
        <ele>273.50784</ele>
        <time>2022-09-27T12:06:49.000Z</time>
      </trkpt>
      <trkpt lat="45.83346" lon="4.687">
        <ele>273.54651</ele>
        <time>2022-09-27T12:06:50.000Z</time>
      </trkpt>
      <trkpt lat="45.83345" lon="4.68698">
        <ele>273.60873</ele>
        <time>2022-09-27T12:06:51.000Z</time>
      </trkpt>
      <trkpt lat="45.83343" lon="4.68698">
        <ele>273.47519</ele>
        <time>2022-09-27T12:06:53.000Z</time>
      </trkpt>
      <trkpt lat="45.83342" lon="4.68701">
        <ele>273.32919</ele>
        <time>2022-09-27T12:06:55.000Z</time>
      </trkpt>
      <trkpt lat="45.83345" lon="4.68704">
        <ele>273.16986</ele>
        <time>2022-09-27T12:06:57.000Z</time>
      </trkpt>
      <trkpt lat="45.83348" lon="4.68701">
        <ele>273.02353</ele>
        <time>2022-09-27T12:06:59.000Z</time>
      </trkpt>
      <trkpt lat="45.83349" lon="4.68699">
        <ele>272.90747</ele>
        <time>2022-09-27T12:07:00.000Z</time>
      </trkpt>
      <trkpt lat="45.83348" lon="4.68696">
        <ele>272.80957</ele>
        <time>2022-09-27T12:07:01.000Z</time>
      </trkpt>
      <trkpt lat="45.83347" lon="4.68694">
        <ele>272.68631</ele>
        <time>2022-09-27T12:07:02.000Z</time>
      </trkpt>
      <trkpt lat="45.83345" lon="4.68692">
        <ele>272.57727</ele>
        <time>2022-09-27T12:07:03.000Z</time>
      </trkpt>
      <trkpt lat="45.83343" lon="4.68689">
        <ele>272.43961</ele>
        <time>2022-09-27T12:07:04.000Z</time>
      </trkpt>
      <trkpt lat="45.83342" lon="4.68685">
        <ele>272.30872</ele>
        <time>2022-09-27T12:07:05.000Z</time>
      </trkpt>
      <trkpt lat="45.8334" lon="4.68681">
        <ele>272.19818</ele>
        <time>2022-09-27T12:07:06.000Z</time>
      </trkpt>
      <trkpt lat="45.83339" lon="4.68677">
        <ele>272.17252</ele>
        <time>2022-09-27T12:07:07.000Z</time>
      </trkpt>
      <trkpt lat="45.83338" lon="4.68673">
        <ele>272.11066</ele>
        <time>2022-09-27T12:07:08.000Z</time>
      </trkpt>
      <trkpt lat="45.83337" lon="4.6867">
        <ele>272.08252</ele>
        <time>2022-09-27T12:07:09.000Z</time>
      </trkpt>
      <trkpt lat="45.83336" lon="4.68666">
        <ele>272.01099</ele>
        <time>2022-09-27T12:07:10.000Z</time>
      </trkpt>
      <trkpt lat="45.83335" lon="4.68662">
        <ele>271.85834</ele>
        <time>2022-09-27T12:07:11.000Z</time>
      </trkpt>
      <trkpt lat="45.83334" lon="4.68659">
        <ele>271.63373</ele>
        <time>2022-09-27T12:07:12.000Z</time>
      </trkpt>
      <trkpt lat="45.83333" lon="4.68655">
        <ele>271.2868</ele>
        <time>2022-09-27T12:07:13.000Z</time>
      </trkpt>
      <trkpt lat="45.83332" lon="4.68651">
        <ele>271.16754</ele>
        <time>2022-09-27T12:07:14.000Z</time>
      </trkpt>
      <trkpt lat="45.83331" lon="4.68648">
        <ele>270.99728</ele>
        <time>2022-09-27T12:07:15.000Z</time>
      </trkpt>
      <trkpt lat="45.83331" lon="4.68644">
        <ele>271.0625</ele>
        <time>2022-09-27T12:07:16.000Z</time>
      </trkpt>
      <trkpt lat="45.8333" lon="4.68642">
        <ele>271.16162</ele>
        <time>2022-09-27T12:07:17.000Z</time>
      </trkpt>
      <trkpt lat="45.8333" lon="4.68639">
        <ele>271.33759</ele>
        <time>2022-09-27T12:07:18.000Z</time>
      </trkpt>
      <trkpt lat="45.83329" lon="4.68635">
        <ele>271.47983</ele>
        <time>2022-09-27T12:07:20.000Z</time>
      </trkpt>
      <trkpt lat="45.83329" lon="4.6863">
        <ele>271.58746</ele>
        <time>2022-09-27T12:07:22.000Z</time>
      </trkpt>
      <trkpt lat="45.83329" lon="4.68627">
        <ele>271.70175</ele>
        <time>2022-09-27T12:07:23.000Z</time>
      </trkpt>
      <trkpt lat="45.83329" lon="4.68624">
        <ele>271.79852</ele>
        <time>2022-09-27T12:07:24.000Z</time>
      </trkpt>
      <trkpt lat="45.83329" lon="4.68619">
        <ele>271.9057</ele>
        <time>2022-09-27T12:07:26.000Z</time>
      </trkpt>
      <trkpt lat="45.83329" lon="4.68615">
        <ele>271.98315</ele>
        <time>2022-09-27T12:07:28.000Z</time>
      </trkpt>
      <trkpt lat="45.83328" lon="4.68607">
        <ele>272.04205</ele>
        <time>2022-09-27T12:07:29.000Z</time>
      </trkpt>
      <trkpt lat="45.83327" lon="4.68601">
        <ele>272.05673</ele>
        <time>2022-09-27T12:07:30.000Z</time>
      </trkpt>
      <trkpt lat="45.83327" lon="4.68594">
        <ele>271.97922</ele>
        <time>2022-09-27T12:07:31.000Z</time>
      </trkpt>
      <trkpt lat="45.83328" lon="4.68588">
        <ele>271.93738</ele>
        <time>2022-09-27T12:07:32.000Z</time>
      </trkpt>
      <trkpt lat="45.83326" lon="4.68583">
        <ele>272.01218</ele>
        <time>2022-09-27T12:07:33.000Z</time>
      </trkpt>
      <trkpt lat="45.83325" lon="4.68578">
        <ele>272.18835</ele>
        <time>2022-09-27T12:07:34.000Z</time>
      </trkpt>
      <trkpt lat="45.83324" lon="4.68573">
        <ele>272.56329</ele>
        <time>2022-09-27T12:07:35.000Z</time>
      </trkpt>
      <trkpt lat="45.83323" lon="4.6857">
        <ele>272.79831</ele>
        <time>2022-09-27T12:07:36.000Z</time>
      </trkpt>
      <trkpt lat="45.83322" lon="4.68566">
        <ele>273.16522</ele>
        <time>2022-09-27T12:07:37.000Z</time>
      </trkpt>
      <trkpt lat="45.83321" lon="4.68563">
        <ele>273.59335</ele>
        <time>2022-09-27T12:07:38.000Z</time>
      </trkpt>
      <trkpt lat="45.8332" lon="4.6856">
        <ele>274.22723</ele>
        <time>2022-09-27T12:07:39.000Z</time>
      </trkpt>
      <trkpt lat="45.83318" lon="4.68557">
        <ele>274.91895</ele>
        <time>2022-09-27T12:07:40.000Z</time>
      </trkpt>
      <trkpt lat="45.83317" lon="4.68555">
        <ele>275.59659</ele>
        <time>2022-09-27T12:07:41.000Z</time>
      </trkpt>
      <trkpt lat="45.83315" lon="4.68553">
        <ele>276.19528</ele>
        <time>2022-09-27T12:07:42.000Z</time>
      </trkpt>
      <trkpt lat="45.83313" lon="4.6855">
        <ele>276.73593</ele>
        <time>2022-09-27T12:07:43.000Z</time>
      </trkpt>
      <trkpt lat="45.83311" lon="4.68548">
        <ele>277.24597</ele>
        <time>2022-09-27T12:07:44.000Z</time>
      </trkpt>
      <trkpt lat="45.8331" lon="4.68545">
        <ele>277.72321</ele>
        <time>2022-09-27T12:07:45.000Z</time>
      </trkpt>
      <trkpt lat="45.83309" lon="4.68542">
        <ele>278.19296</ele>
        <time>2022-09-27T12:07:46.000Z</time>
      </trkpt>
      <trkpt lat="45.83309" lon="4.68539">
        <ele>278.63708</ele>
        <time>2022-09-27T12:07:47.000Z</time>
      </trkpt>
      <trkpt lat="45.83311" lon="4.68535">
        <ele>279.08972</ele>
        <time>2022-09-27T12:07:48.000Z</time>
      </trkpt>
      <trkpt lat="45.83313" lon="4.68532">
        <ele>279.58154</ele>
        <time>2022-09-27T12:07:49.000Z</time>
      </trkpt>
      <trkpt lat="45.83316" lon="4.6853">
        <ele>280.07761</ele>
        <time>2022-09-27T12:07:50.000Z</time>
      </trkpt>
      <trkpt lat="45.83319" lon="4.68528">
        <ele>280.59174</ele>
        <time>2022-09-27T12:07:51.000Z</time>
      </trkpt>
      <trkpt lat="45.83323" lon="4.68527">
        <ele>281.07184</ele>
        <time>2022-09-27T12:07:52.000Z</time>
      </trkpt>
      <trkpt lat="45.83327" lon="4.68528">
        <ele>281.44559</ele>
        <time>2022-09-27T12:07:53.000Z</time>
      </trkpt>
      <trkpt lat="45.83331" lon="4.6853">
        <ele>281.7341</ele>
        <time>2022-09-27T12:07:54.000Z</time>
      </trkpt>
      <trkpt lat="45.83334" lon="4.68533">
        <ele>281.9046</ele>
        <time>2022-09-27T12:07:55.000Z</time>
      </trkpt>
      <trkpt lat="45.83337" lon="4.68536">
        <ele>282.27246</ele>
        <time>2022-09-27T12:07:56.000Z</time>
      </trkpt>
      <trkpt lat="45.8334" lon="4.68539">
        <ele>282.64215</ele>
        <time>2022-09-27T12:07:57.000Z</time>
      </trkpt>
      <trkpt lat="45.83342" lon="4.68542">
        <ele>282.82681</ele>
        <time>2022-09-27T12:07:58.000Z</time>
      </trkpt>
      <trkpt lat="45.83344" lon="4.68544">
        <ele>282.85394</ele>
        <time>2022-09-27T12:07:59.000Z</time>
      </trkpt>
      <trkpt lat="45.83346" lon="4.68545">
        <ele>282.77246</ele>
        <time>2022-09-27T12:08:00.000Z</time>
      </trkpt>
      <trkpt lat="45.83349" lon="4.68547">
        <ele>282.67975</ele>
        <time>2022-09-27T12:08:02.000Z</time>
      </trkpt>
      <trkpt lat="45.8335" lon="4.6855">
        <ele>282.63623</ele>
        <time>2022-09-27T12:08:04.000Z</time>
      </trkpt>
      <trkpt lat="45.83348" lon="4.68554">
        <ele>282.62909</ele>
        <time>2022-09-27T12:08:06.000Z</time>
      </trkpt>
      <trkpt lat="45.83347" lon="4.68553">
        <ele>282.69873</ele>
        <time>2022-09-27T12:08:07.000Z</time>
      </trkpt>
      <trkpt lat="45.83345" lon="4.68551">
        <ele>282.80295</ele>
        <time>2022-09-27T12:08:08.000Z</time>
      </trkpt>
      <trkpt lat="45.83343" lon="4.68548">
        <ele>282.89783</ele>
        <time>2022-09-27T12:08:09.000Z</time>
      </trkpt>
      <trkpt lat="45.83341" lon="4.68545">
        <ele>283.03452</ele>
        <time>2022-09-27T12:08:10.000Z</time>
      </trkpt>
      <trkpt lat="45.83338" lon="4.68543">
        <ele>283.16315</ele>
        <time>2022-09-27T12:08:11.000Z</time>
      </trkpt>
      <trkpt lat="45.83335" lon="4.68542">
        <ele>283.2731</ele>
        <time>2022-09-27T12:08:12.000Z</time>
      </trkpt>
      <trkpt lat="45.83333" lon="4.6854">
        <ele>283.24686</ele>
        <time>2022-09-27T12:08:13.000Z</time>
      </trkpt>
      <trkpt lat="45.83331" lon="4.68538">
        <ele>283.23792</ele>
        <time>2022-09-27T12:08:14.000Z</time>
      </trkpt>
      <trkpt lat="45.83328" lon="4.68536">
        <ele>283.20343</ele>
        <time>2022-09-27T12:08:15.000Z</time>
      </trkpt>
      <trkpt lat="45.83325" lon="4.68534">
        <ele>283.13681</ele>
        <time>2022-09-27T12:08:16.000Z</time>
      </trkpt>
      <trkpt lat="45.83321" lon="4.68533">
        <ele>283.06381</ele>
        <time>2022-09-27T12:08:17.000Z</time>
      </trkpt>
      <trkpt lat="45.83317" lon="4.68533">
        <ele>282.97919</ele>
        <time>2022-09-27T12:08:18.000Z</time>
      </trkpt>
      <trkpt lat="45.83313" lon="4.68533">
        <ele>282.84772</ele>
        <time>2022-09-27T12:08:19.000Z</time>
      </trkpt>
      <trkpt lat="45.83309" lon="4.68535">
        <ele>282.77484</ele>
        <time>2022-09-27T12:08:20.000Z</time>
      </trkpt>
      <trkpt lat="45.83306" lon="4.68538">
        <ele>282.72803</ele>
        <time>2022-09-27T12:08:21.000Z</time>
      </trkpt>
      <trkpt lat="45.83302" lon="4.6854">
        <ele>282.70816</ele>
        <time>2022-09-27T12:08:22.000Z</time>
      </trkpt>
      <trkpt lat="45.83299" lon="4.68542">
        <ele>282.72049</ele>
        <time>2022-09-27T12:08:23.000Z</time>
      </trkpt>
      <trkpt lat="45.83296" lon="4.68541">
        <ele>282.79123</ele>
        <time>2022-09-27T12:08:24.000Z</time>
      </trkpt>
      <trkpt lat="45.83293" lon="4.68539">
        <ele>282.89349</ele>
        <time>2022-09-27T12:08:25.000Z</time>
      </trkpt>
      <trkpt lat="45.8329" lon="4.68536">
        <ele>283.02136</ele>
        <time>2022-09-27T12:08:26.000Z</time>
      </trkpt>
      <trkpt lat="45.83288" lon="4.68533">
        <ele>283.08469</ele>
        <time>2022-09-27T12:08:27.000Z</time>
      </trkpt>
      <trkpt lat="45.83286" lon="4.68529">
        <ele>283.11383</ele>
        <time>2022-09-27T12:08:28.000Z</time>
      </trkpt>
      <trkpt lat="45.83283" lon="4.68526">
        <ele>283.16812</ele>
        <time>2022-09-27T12:08:29.000Z</time>
      </trkpt>
      <trkpt lat="45.83281" lon="4.68523">
        <ele>283.16766</ele>
        <time>2022-09-27T12:08:30.000Z</time>
      </trkpt>
      <trkpt lat="45.83278" lon="4.6852">
        <ele>283.15103</ele>
        <time>2022-09-27T12:08:31.000Z</time>
      </trkpt>
      <trkpt lat="45.83276" lon="4.68517">
        <ele>283.05341</ele>
        <time>2022-09-27T12:08:32.000Z</time>
      </trkpt>
      <trkpt lat="45.83273" lon="4.68514">
        <ele>283.14243</ele>
        <time>2022-09-27T12:08:33.000Z</time>
      </trkpt>
      <trkpt lat="45.83271" lon="4.68512">
        <ele>283.10342</ele>
        <time>2022-09-27T12:08:34.000Z</time>
      </trkpt>
      <trkpt lat="45.83269" lon="4.68509">
        <ele>283.11685</ele>
        <time>2022-09-27T12:08:35.000Z</time>
      </trkpt>
      <trkpt lat="45.83266" lon="4.68506">
        <ele>283.15598</ele>
        <time>2022-09-27T12:08:36.000Z</time>
      </trkpt>
      <trkpt lat="45.83264" lon="4.68504">
        <ele>283.27716</ele>
        <time>2022-09-27T12:08:37.000Z</time>
      </trkpt>
      <trkpt lat="45.83261" lon="4.68501">
        <ele>283.40454</ele>
        <time>2022-09-27T12:08:38.000Z</time>
      </trkpt>
      <trkpt lat="45.83258" lon="4.68498">
        <ele>283.53027</ele>
        <time>2022-09-27T12:08:39.000Z</time>
      </trkpt>
      <trkpt lat="45.83255" lon="4.68496">
        <ele>283.54776</ele>
        <time>2022-09-27T12:08:40.000Z</time>
      </trkpt>
      <trkpt lat="45.83252" lon="4.68492">
        <ele>283.5011</ele>
        <time>2022-09-27T12:08:41.000Z</time>
      </trkpt>
      <trkpt lat="45.83249" lon="4.68489">
        <ele>283.46219</ele>
        <time>2022-09-27T12:08:42.000Z</time>
      </trkpt>
      <trkpt lat="45.83246" lon="4.68486">
        <ele>283.43491</ele>
        <time>2022-09-27T12:08:43.000Z</time>
      </trkpt>
      <trkpt lat="45.83244" lon="4.68483">
        <ele>283.40201</ele>
        <time>2022-09-27T12:08:44.000Z</time>
      </trkpt>
      <trkpt lat="45.83241" lon="4.6848">
        <ele>283.28986</ele>
        <time>2022-09-27T12:08:45.000Z</time>
      </trkpt>
      <trkpt lat="45.83238" lon="4.68477">
        <ele>283.28491</ele>
        <time>2022-09-27T12:08:46.000Z</time>
      </trkpt>
      <trkpt lat="45.83234" lon="4.68474">
        <ele>283.37012</ele>
        <time>2022-09-27T12:08:47.000Z</time>
      </trkpt>
      <trkpt lat="45.83232" lon="4.68472">
        <ele>283.42056</ele>
        <time>2022-09-27T12:08:48.000Z</time>
      </trkpt>
      <trkpt lat="45.83229" lon="4.68469">
        <ele>283.465</ele>
        <time>2022-09-27T12:08:49.000Z</time>
      </trkpt>
      <trkpt lat="45.83227" lon="4.68466">
        <ele>283.55136</ele>
        <time>2022-09-27T12:08:50.000Z</time>
      </trkpt>
      <trkpt lat="45.83224" lon="4.68463">
        <ele>283.59869</ele>
        <time>2022-09-27T12:08:51.000Z</time>
      </trkpt>
      <trkpt lat="45.83221" lon="4.6846">
        <ele>283.74451</ele>
        <time>2022-09-27T12:08:52.000Z</time>
      </trkpt>
      <trkpt lat="45.83218" lon="4.68456">
        <ele>283.82803</ele>
        <time>2022-09-27T12:08:53.000Z</time>
      </trkpt>
      <trkpt lat="45.83216" lon="4.68452">
        <ele>284.07446</ele>
        <time>2022-09-27T12:08:54.000Z</time>
      </trkpt>
      <trkpt lat="45.83213" lon="4.68448">
        <ele>284.27878</ele>
        <time>2022-09-27T12:08:55.000Z</time>
      </trkpt>
      <trkpt lat="45.8321" lon="4.68444">
        <ele>284.58829</ele>
        <time>2022-09-27T12:08:56.000Z</time>
      </trkpt>
      <trkpt lat="45.83208" lon="4.68439">
        <ele>284.86255</ele>
        <time>2022-09-27T12:08:57.000Z</time>
      </trkpt>
      <trkpt lat="45.83206" lon="4.68435">
        <ele>285.10364</ele>
        <time>2022-09-27T12:08:58.000Z</time>
      </trkpt>
      <trkpt lat="45.83204" lon="4.68431">
        <ele>285.26855</ele>
        <time>2022-09-27T12:08:59.000Z</time>
      </trkpt>
      <trkpt lat="45.83202" lon="4.68427">
        <ele>285.52457</ele>
        <time>2022-09-27T12:09:00.000Z</time>
      </trkpt>
      <trkpt lat="45.832" lon="4.68424">
        <ele>285.87219</ele>
        <time>2022-09-27T12:09:01.000Z</time>
      </trkpt>
      <trkpt lat="45.83199" lon="4.68421">
        <ele>286.25177</ele>
        <time>2022-09-27T12:09:02.000Z</time>
      </trkpt>
      <trkpt lat="45.83197" lon="4.68417">
        <ele>286.60211</ele>
        <time>2022-09-27T12:09:03.000Z</time>
      </trkpt>
      <trkpt lat="45.83195" lon="4.68414">
        <ele>286.84979</ele>
        <time>2022-09-27T12:09:04.000Z</time>
      </trkpt>
      <trkpt lat="45.83193" lon="4.6841">
        <ele>287.14447</ele>
        <time>2022-09-27T12:09:05.000Z</time>
      </trkpt>
      <trkpt lat="45.83191" lon="4.68406">
        <ele>287.34549</ele>
        <time>2022-09-27T12:09:06.000Z</time>
      </trkpt>
      <trkpt lat="45.8319" lon="4.68402">
        <ele>287.54276</ele>
        <time>2022-09-27T12:09:07.000Z</time>
      </trkpt>
      <trkpt lat="45.83188" lon="4.68398">
        <ele>287.80936</ele>
        <time>2022-09-27T12:09:08.000Z</time>
      </trkpt>
      <trkpt lat="45.83186" lon="4.68394">
        <ele>288.05896</ele>
        <time>2022-09-27T12:09:09.000Z</time>
      </trkpt>
      <trkpt lat="45.83183" lon="4.6839">
        <ele>288.35135</ele>
        <time>2022-09-27T12:09:10.000Z</time>
      </trkpt>
      <trkpt lat="45.83181" lon="4.68385">
        <ele>288.74518</ele>
        <time>2022-09-27T12:09:11.000Z</time>
      </trkpt>
      <trkpt lat="45.83179" lon="4.68381">
        <ele>289.13004</ele>
        <time>2022-09-27T12:09:12.000Z</time>
      </trkpt>
      <trkpt lat="45.83177" lon="4.68377">
        <ele>289.54538</ele>
        <time>2022-09-27T12:09:13.000Z</time>
      </trkpt>
      <trkpt lat="45.83175" lon="4.68373">
        <ele>289.88455</ele>
        <time>2022-09-27T12:09:14.000Z</time>
      </trkpt>
      <trkpt lat="45.83173" lon="4.68369">
        <ele>290.1619</ele>
        <time>2022-09-27T12:09:15.000Z</time>
      </trkpt>
      <trkpt lat="45.83171" lon="4.68365">
        <ele>290.35001</ele>
        <time>2022-09-27T12:09:16.000Z</time>
      </trkpt>
      <trkpt lat="45.83169" lon="4.6836">
        <ele>290.47675</ele>
        <time>2022-09-27T12:09:17.000Z</time>
      </trkpt>
      <trkpt lat="45.83166" lon="4.68356">
        <ele>290.66574</ele>
        <time>2022-09-27T12:09:18.000Z</time>
      </trkpt>
      <trkpt lat="45.83164" lon="4.68352">
        <ele>290.95941</ele>
        <time>2022-09-27T12:09:19.000Z</time>
      </trkpt>
      <trkpt lat="45.83162" lon="4.68349">
        <ele>291.20621</ele>
        <time>2022-09-27T12:09:20.000Z</time>
      </trkpt>
      <trkpt lat="45.8316" lon="4.68345">
        <ele>291.4382</ele>
        <time>2022-09-27T12:09:21.000Z</time>
      </trkpt>
      <trkpt lat="45.83159" lon="4.68342">
        <ele>291.53485</ele>
        <time>2022-09-27T12:09:22.000Z</time>
      </trkpt>
      <trkpt lat="45.83157" lon="4.68339">
        <ele>291.61819</ele>
        <time>2022-09-27T12:09:23.000Z</time>
      </trkpt>
      <trkpt lat="45.83156" lon="4.68336">
        <ele>291.8205</ele>
        <time>2022-09-27T12:09:24.000Z</time>
      </trkpt>
      <trkpt lat="45.83154" lon="4.68333">
        <ele>292.01434</ele>
        <time>2022-09-27T12:09:25.000Z</time>
      </trkpt>
      <trkpt lat="45.83152" lon="4.68329">
        <ele>292.17108</ele>
        <time>2022-09-27T12:09:26.000Z</time>
      </trkpt>
      <trkpt lat="45.8315" lon="4.68325">
        <ele>292.24542</ele>
        <time>2022-09-27T12:09:27.000Z</time>
      </trkpt>
      <trkpt lat="45.83148" lon="4.68322">
        <ele>292.19049</ele>
        <time>2022-09-27T12:09:28.000Z</time>
      </trkpt>
      <trkpt lat="45.83147" lon="4.68318">
        <ele>292.16153</ele>
        <time>2022-09-27T12:09:29.000Z</time>
      </trkpt>
      <trkpt lat="45.83145" lon="4.68315">
        <ele>292.11343</ele>
        <time>2022-09-27T12:09:30.000Z</time>
      </trkpt>
      <trkpt lat="45.83143" lon="4.68311">
        <ele>291.98743</ele>
        <time>2022-09-27T12:09:31.000Z</time>
      </trkpt>
      <trkpt lat="45.83141" lon="4.68308">
        <ele>291.90457</ele>
        <time>2022-09-27T12:09:32.000Z</time>
      </trkpt>
      <trkpt lat="45.8314" lon="4.68305">
        <ele>291.82333</ele>
        <time>2022-09-27T12:09:33.000Z</time>
      </trkpt>
      <trkpt lat="45.83138" lon="4.68301">
        <ele>291.7453</ele>
        <time>2022-09-27T12:09:34.000Z</time>
      </trkpt>
      <trkpt lat="45.83137" lon="4.68297">
        <ele>291.72498</ele>
        <time>2022-09-27T12:09:35.000Z</time>
      </trkpt>
      <trkpt lat="45.83136" lon="4.68293">
        <ele>291.70526</ele>
        <time>2022-09-27T12:09:36.000Z</time>
      </trkpt>
      <trkpt lat="45.83134" lon="4.68288">
        <ele>291.70532</ele>
        <time>2022-09-27T12:09:37.000Z</time>
      </trkpt>
      <trkpt lat="45.83132" lon="4.68285">
        <ele>291.78799</ele>
        <time>2022-09-27T12:09:38.000Z</time>
      </trkpt>
      <trkpt lat="45.83131" lon="4.68282">
        <ele>291.87018</ele>
        <time>2022-09-27T12:09:39.000Z</time>
      </trkpt>
      <trkpt lat="45.83129" lon="4.68278">
        <ele>291.86987</ele>
        <time>2022-09-27T12:09:40.000Z</time>
      </trkpt>
      <trkpt lat="45.83128" lon="4.68274">
        <ele>291.97699</ele>
        <time>2022-09-27T12:09:41.000Z</time>
      </trkpt>
      <trkpt lat="45.83126" lon="4.6827">
        <ele>292.15131</ele>
        <time>2022-09-27T12:09:42.000Z</time>
      </trkpt>
      <trkpt lat="45.83124" lon="4.68266">
        <ele>292.34061</ele>
        <time>2022-09-27T12:09:43.000Z</time>
      </trkpt>
      <trkpt lat="45.83123" lon="4.68262">
        <ele>292.49832</ele>
        <time>2022-09-27T12:09:44.000Z</time>
      </trkpt>
      <trkpt lat="45.83121" lon="4.68258">
        <ele>292.56946</ele>
        <time>2022-09-27T12:09:45.000Z</time>
      </trkpt>
      <trkpt lat="45.8312" lon="4.68254">
        <ele>292.65952</ele>
        <time>2022-09-27T12:09:46.000Z</time>
      </trkpt>
      <trkpt lat="45.83118" lon="4.6825">
        <ele>292.79626</ele>
        <time>2022-09-27T12:09:47.000Z</time>
      </trkpt>
      <trkpt lat="45.83117" lon="4.68246">
        <ele>293.07339</ele>
        <time>2022-09-27T12:09:48.000Z</time>
      </trkpt>
      <trkpt lat="45.83115" lon="4.68241">
        <ele>293.30402</ele>
        <time>2022-09-27T12:09:49.000Z</time>
      </trkpt>
      <trkpt lat="45.83113" lon="4.68236">
        <ele>293.49741</ele>
        <time>2022-09-27T12:09:50.000Z</time>
      </trkpt>
      <trkpt lat="45.83112" lon="4.68232">
        <ele>293.65704</ele>
        <time>2022-09-27T12:09:51.000Z</time>
      </trkpt>
      <trkpt lat="45.8311" lon="4.68228">
        <ele>293.77252</ele>
        <time>2022-09-27T12:09:52.000Z</time>
      </trkpt>
      <trkpt lat="45.83108" lon="4.68223">
        <ele>293.8371</ele>
        <time>2022-09-27T12:09:53.000Z</time>
      </trkpt>
      <trkpt lat="45.83107" lon="4.68218">
        <ele>293.85736</ele>
        <time>2022-09-27T12:09:54.000Z</time>
      </trkpt>
      <trkpt lat="45.83106" lon="4.68212">
        <ele>293.86908</ele>
        <time>2022-09-27T12:09:55.000Z</time>
      </trkpt>
      <trkpt lat="45.83105" lon="4.68207">
        <ele>293.92426</ele>
        <time>2022-09-27T12:09:56.000Z</time>
      </trkpt>
      <trkpt lat="45.83104" lon="4.68201">
        <ele>294.10257</ele>
        <time>2022-09-27T12:09:57.000Z</time>
      </trkpt>
      <trkpt lat="45.83103" lon="4.68196">
        <ele>294.2146</ele>
        <time>2022-09-27T12:09:58.000Z</time>
      </trkpt>
      <trkpt lat="45.83102" lon="4.68191">
        <ele>294.30307</ele>
        <time>2022-09-27T12:09:59.000Z</time>
      </trkpt>
      <trkpt lat="45.83101" lon="4.68185">
        <ele>294.4975</ele>
        <time>2022-09-27T12:10:00.000Z</time>
      </trkpt>
      <trkpt lat="45.83101" lon="4.6818">
        <ele>294.59445</ele>
        <time>2022-09-27T12:10:01.000Z</time>
      </trkpt>
      <trkpt lat="45.83099" lon="4.68175">
        <ele>294.71179</ele>
        <time>2022-09-27T12:10:02.000Z</time>
      </trkpt>
      <trkpt lat="45.83098" lon="4.6817">
        <ele>294.88605</ele>
        <time>2022-09-27T12:10:03.000Z</time>
      </trkpt>
      <trkpt lat="45.83097" lon="4.68164">
        <ele>294.99695</ele>
        <time>2022-09-27T12:10:04.000Z</time>
      </trkpt>
      <trkpt lat="45.83096" lon="4.68159">
        <ele>295.20892</ele>
        <time>2022-09-27T12:10:05.000Z</time>
      </trkpt>
      <trkpt lat="45.83096" lon="4.68153">
        <ele>295.43558</ele>
        <time>2022-09-27T12:10:06.000Z</time>
      </trkpt>
      <trkpt lat="45.83095" lon="4.68149">
        <ele>295.63287</ele>
        <time>2022-09-27T12:10:07.000Z</time>
      </trkpt>
      <trkpt lat="45.83095" lon="4.68143">
        <ele>295.75076</ele>
        <time>2022-09-27T12:10:08.000Z</time>
      </trkpt>
      <trkpt lat="45.83094" lon="4.68138">
        <ele>295.88403</ele>
        <time>2022-09-27T12:10:09.000Z</time>
      </trkpt>
      <trkpt lat="45.83094" lon="4.68132">
        <ele>296.06537</ele>
        <time>2022-09-27T12:10:10.000Z</time>
      </trkpt>
      <trkpt lat="45.83093" lon="4.68127">
        <ele>296.30893</ele>
        <time>2022-09-27T12:10:11.000Z</time>
      </trkpt>
      <trkpt lat="45.83093" lon="4.68121">
        <ele>296.56769</ele>
        <time>2022-09-27T12:10:12.000Z</time>
      </trkpt>
      <trkpt lat="45.83092" lon="4.68115">
        <ele>296.83493</ele>
        <time>2022-09-27T12:10:13.000Z</time>
      </trkpt>
      <trkpt lat="45.83092" lon="4.6811">
        <ele>297.14563</ele>
        <time>2022-09-27T12:10:14.000Z</time>
      </trkpt>
      <trkpt lat="45.83091" lon="4.68104">
        <ele>297.46051</ele>
        <time>2022-09-27T12:10:15.000Z</time>
      </trkpt>
      <trkpt lat="45.83091" lon="4.68098">
        <ele>297.71359</ele>
        <time>2022-09-27T12:10:16.000Z</time>
      </trkpt>
      <trkpt lat="45.8309" lon="4.68092">
        <ele>297.78799</ele>
        <time>2022-09-27T12:10:17.000Z</time>
      </trkpt>
      <trkpt lat="45.83089" lon="4.68086">
        <ele>297.89856</ele>
        <time>2022-09-27T12:10:18.000Z</time>
      </trkpt>
      <trkpt lat="45.83089" lon="4.6808">
        <ele>297.99817</ele>
        <time>2022-09-27T12:10:19.000Z</time>
      </trkpt>
      <trkpt lat="45.83089" lon="4.68073">
        <ele>298.04266</ele>
        <time>2022-09-27T12:10:20.000Z</time>
      </trkpt>
      <trkpt lat="45.83089" lon="4.68067">
        <ele>298.07462</ele>
        <time>2022-09-27T12:10:21.000Z</time>
      </trkpt>
      <trkpt lat="45.83088" lon="4.6806">
        <ele>298.15103</ele>
        <time>2022-09-27T12:10:22.000Z</time>
      </trkpt>
      <trkpt lat="45.83088" lon="4.68053">
        <ele>298.10657</ele>
        <time>2022-09-27T12:10:23.000Z</time>
      </trkpt>
      <trkpt lat="45.83085" lon="4.68047">
        <ele>298.09607</ele>
        <time>2022-09-27T12:10:24.000Z</time>
      </trkpt>
      <trkpt lat="45.83085" lon="4.6804">
        <ele>298.02408</ele>
        <time>2022-09-27T12:10:25.000Z</time>
      </trkpt>
      <trkpt lat="45.83084" lon="4.68034">
        <ele>297.93137</ele>
        <time>2022-09-27T12:10:26.000Z</time>
      </trkpt>
      <trkpt lat="45.83084" lon="4.68029">
        <ele>297.76691</ele>
        <time>2022-09-27T12:10:27.000Z</time>
      </trkpt>
      <trkpt lat="45.83083" lon="4.68022">
        <ele>297.6637</ele>
        <time>2022-09-27T12:10:28.000Z</time>
      </trkpt>
      <trkpt lat="45.83082" lon="4.68018">
        <ele>297.5733</ele>
        <time>2022-09-27T12:10:29.000Z</time>
      </trkpt>
      <trkpt lat="45.83082" lon="4.68012">
        <ele>297.42279</ele>
        <time>2022-09-27T12:10:30.000Z</time>
      </trkpt>
      <trkpt lat="45.83081" lon="4.68004">
        <ele>297.24054</ele>
        <time>2022-09-27T12:10:31.000Z</time>
      </trkpt>
      <trkpt lat="45.83079" lon="4.67998">
        <ele>297.0896</ele>
        <time>2022-09-27T12:10:32.000Z</time>
      </trkpt>
      <trkpt lat="45.83079" lon="4.67993">
        <ele>296.91153</ele>
        <time>2022-09-27T12:10:33.000Z</time>
      </trkpt>
      <trkpt lat="45.83077" lon="4.67986">
        <ele>296.65314</ele>
        <time>2022-09-27T12:10:34.000Z</time>
      </trkpt>
      <trkpt lat="45.83076" lon="4.67978">
        <ele>296.41534</ele>
        <time>2022-09-27T12:10:35.000Z</time>
      </trkpt>
      <trkpt lat="45.83076" lon="4.67972">
        <ele>296.14215</ele>
        <time>2022-09-27T12:10:36.000Z</time>
      </trkpt>
      <trkpt lat="45.83073" lon="4.67965">
        <ele>295.92703</ele>
        <time>2022-09-27T12:10:37.000Z</time>
      </trkpt>
      <trkpt lat="45.83071" lon="4.67959">
        <ele>295.63821</ele>
        <time>2022-09-27T12:10:38.000Z</time>
      </trkpt>
      <trkpt lat="45.83071" lon="4.67952">
        <ele>295.46603</ele>
        <time>2022-09-27T12:10:39.000Z</time>
      </trkpt>
      <trkpt lat="45.83071" lon="4.67945">
        <ele>295.27048</ele>
        <time>2022-09-27T12:10:40.000Z</time>
      </trkpt>
      <trkpt lat="45.83068" lon="4.67936">
        <ele>295.06891</ele>
        <time>2022-09-27T12:10:41.000Z</time>
      </trkpt>
      <trkpt lat="45.83067" lon="4.67929">
        <ele>294.73352</ele>
        <time>2022-09-27T12:10:42.000Z</time>
      </trkpt>
      <trkpt lat="45.83066" lon="4.67921">
        <ele>294.56427</ele>
        <time>2022-09-27T12:10:43.000Z</time>
      </trkpt>
      <trkpt lat="45.83064" lon="4.67914">
        <ele>294.39642</ele>
        <time>2022-09-27T12:10:44.000Z</time>
      </trkpt>
      <trkpt lat="45.83061" lon="4.67907">
        <ele>294.25677</ele>
        <time>2022-09-27T12:10:45.000Z</time>
      </trkpt>
      <trkpt lat="45.83058" lon="4.67903">
        <ele>293.96295</ele>
        <time>2022-09-27T12:10:46.000Z</time>
      </trkpt>
      <trkpt lat="45.83058" lon="4.67896">
        <ele>293.686</ele>
        <time>2022-09-27T12:10:47.000Z</time>
      </trkpt>
      <trkpt lat="45.83056" lon="4.67889">
        <ele>293.43848</ele>
        <time>2022-09-27T12:10:48.000Z</time>
      </trkpt>
      <trkpt lat="45.83055" lon="4.67882">
        <ele>293.25729</ele>
        <time>2022-09-27T12:10:49.000Z</time>
      </trkpt>
      <trkpt lat="45.83054" lon="4.67878">
        <ele>293.043</ele>
        <time>2022-09-27T12:10:50.000Z</time>
      </trkpt>
      <trkpt lat="45.83053" lon="4.67873">
        <ele>292.80695</ele>
        <time>2022-09-27T12:10:51.000Z</time>
      </trkpt>
      <trkpt lat="45.83052" lon="4.67866">
        <ele>292.53421</ele>
        <time>2022-09-27T12:10:52.000Z</time>
      </trkpt>
      <trkpt lat="45.83048" lon="4.6786">
        <ele>292.31186</ele>
        <time>2022-09-27T12:10:53.000Z</time>
      </trkpt>
      <trkpt lat="45.83048" lon="4.67852">
        <ele>292.2182</ele>
        <time>2022-09-27T12:10:54.000Z</time>
      </trkpt>
      <trkpt lat="45.83047" lon="4.67846">
        <ele>292.1275</ele>
        <time>2022-09-27T12:10:55.000Z</time>
      </trkpt>
      <trkpt lat="45.83045" lon="4.67839">
        <ele>292.10199</ele>
        <time>2022-09-27T12:10:56.000Z</time>
      </trkpt>
      <trkpt lat="45.83044" lon="4.6783">
        <ele>292.1485</ele>
        <time>2022-09-27T12:10:57.000Z</time>
      </trkpt>
      <trkpt lat="45.83042" lon="4.6782">
        <ele>292.22491</ele>
        <time>2022-09-27T12:10:58.000Z</time>
      </trkpt>
      <trkpt lat="45.83039" lon="4.6781">
        <ele>292.20331</ele>
        <time>2022-09-27T12:10:59.000Z</time>
      </trkpt>
      <trkpt lat="45.83036" lon="4.67798">
        <ele>292.18738</ele>
        <time>2022-09-27T12:11:00.000Z</time>
      </trkpt>
      <trkpt lat="45.83034" lon="4.67781">
        <ele>292.1308</ele>
        <time>2022-09-27T12:11:01.000Z</time>
      </trkpt>
      <trkpt lat="45.83026" lon="4.67777">
        <ele>292.20703</ele>
        <time>2022-09-27T12:11:02.000Z</time>
      </trkpt>
      <trkpt lat="45.83024" lon="4.67766">
        <ele>292.10928</ele>
        <time>2022-09-27T12:11:03.000Z</time>
      </trkpt>
      <trkpt lat="45.83023" lon="4.6776">
        <ele>291.95114</ele>
        <time>2022-09-27T12:11:04.000Z</time>
      </trkpt>
      <trkpt lat="45.83021" lon="4.67748">
        <ele>291.73267</ele>
        <time>2022-09-27T12:11:05.000Z</time>
      </trkpt>
      <trkpt lat="45.8302" lon="4.6774">
        <ele>291.60504</ele>
        <time>2022-09-27T12:11:06.000Z</time>
      </trkpt>
      <trkpt lat="45.83021" lon="4.67732">
        <ele>291.51044</ele>
        <time>2022-09-27T12:11:07.000Z</time>
      </trkpt>
      <trkpt lat="45.83021" lon="4.67727">
        <ele>291.42303</ele>
        <time>2022-09-27T12:11:08.000Z</time>
      </trkpt>
      <trkpt lat="45.83022" lon="4.67722">
        <ele>291.1763</ele>
        <time>2022-09-27T12:11:09.000Z</time>
      </trkpt>
      <trkpt lat="45.83022" lon="4.67719">
        <ele>290.93472</ele>
        <time>2022-09-27T12:11:10.000Z</time>
      </trkpt>
      <trkpt lat="45.83022" lon="4.67714">
        <ele>290.73499</ele>
        <time>2022-09-27T12:11:11.000Z</time>
      </trkpt>
      <trkpt lat="45.83021" lon="4.67711">
        <ele>290.43198</ele>
        <time>2022-09-27T12:11:12.000Z</time>
      </trkpt>
      <trkpt lat="45.83019" lon="4.67707">
        <ele>290.15558</ele>
        <time>2022-09-27T12:11:13.000Z</time>
      </trkpt>
      <trkpt lat="45.83018" lon="4.67702">
        <ele>289.83536</ele>
        <time>2022-09-27T12:11:14.000Z</time>
      </trkpt>
      <trkpt lat="45.83016" lon="4.67693">
        <ele>289.41284</ele>
        <time>2022-09-27T12:11:15.000Z</time>
      </trkpt>
      <trkpt lat="45.83015" lon="4.67686">
        <ele>289.10193</ele>
        <time>2022-09-27T12:11:16.000Z</time>
      </trkpt>
      <trkpt lat="45.83016" lon="4.67678">
        <ele>288.73395</ele>
        <time>2022-09-27T12:11:17.000Z</time>
      </trkpt>
      <trkpt lat="45.83016" lon="4.67672">
        <ele>288.33405</ele>
        <time>2022-09-27T12:11:18.000Z</time>
      </trkpt>
      <trkpt lat="45.83016" lon="4.67632">
        <ele>287.99777</ele>
        <time>2022-09-27T12:11:24.000Z</time>
      </trkpt>
      <trkpt lat="45.83015" lon="4.67624">
        <ele>287.66055</ele>
        <time>2022-09-27T12:11:25.000Z</time>
      </trkpt>
      <trkpt lat="45.83015" lon="4.67619">
        <ele>287.27618</ele>
        <time>2022-09-27T12:11:26.000Z</time>
      </trkpt>
      <trkpt lat="45.83015" lon="4.67611">
        <ele>286.77582</ele>
        <time>2022-09-27T12:11:27.000Z</time>
      </trkpt>
      <trkpt lat="45.83016" lon="4.67603">
        <ele>286.47684</ele>
        <time>2022-09-27T12:11:28.000Z</time>
      </trkpt>
      <trkpt lat="45.83014" lon="4.67598">
        <ele>286.22919</ele>
        <time>2022-09-27T12:11:29.000Z</time>
      </trkpt>
      <trkpt lat="45.83014" lon="4.67591">
        <ele>286.04852</ele>
        <time>2022-09-27T12:11:30.000Z</time>
      </trkpt>
      <trkpt lat="45.83013" lon="4.67585">
        <ele>285.96274</ele>
        <time>2022-09-27T12:11:31.000Z</time>
      </trkpt>
      <trkpt lat="45.83011" lon="4.6758">
        <ele>285.90012</ele>
        <time>2022-09-27T12:11:32.000Z</time>
      </trkpt>
      <trkpt lat="45.83008" lon="4.67576">
        <ele>285.79343</ele>
        <time>2022-09-27T12:11:33.000Z</time>
      </trkpt>
      <trkpt lat="45.83004" lon="4.67575">
        <ele>285.91626</ele>
        <time>2022-09-27T12:11:34.000Z</time>
      </trkpt>
      <trkpt lat="45.82999" lon="4.67572">
        <ele>286.07367</ele>
        <time>2022-09-27T12:11:35.000Z</time>
      </trkpt>
      <trkpt lat="45.82994" lon="4.67571">
        <ele>286.22992</ele>
        <time>2022-09-27T12:11:36.000Z</time>
      </trkpt>
      <trkpt lat="45.8299" lon="4.67571">
        <ele>286.51486</ele>
        <time>2022-09-27T12:11:37.000Z</time>
      </trkpt>
      <trkpt lat="45.82985" lon="4.6757">
        <ele>286.78232</ele>
        <time>2022-09-27T12:11:38.000Z</time>
      </trkpt>
      <trkpt lat="45.82981" lon="4.67567">
        <ele>287.06976</ele>
        <time>2022-09-27T12:11:39.000Z</time>
      </trkpt>
      <trkpt lat="45.82976" lon="4.67565">
        <ele>287.45645</ele>
        <time>2022-09-27T12:11:40.000Z</time>
      </trkpt>
      <trkpt lat="45.82972" lon="4.67566">
        <ele>287.74823</ele>
        <time>2022-09-27T12:11:41.000Z</time>
      </trkpt>
      <trkpt lat="45.82969" lon="4.67566">
        <ele>288.08234</ele>
        <time>2022-09-27T12:11:42.000Z</time>
      </trkpt>
      <trkpt lat="45.82965" lon="4.67565">
        <ele>288.44089</ele>
        <time>2022-09-27T12:11:43.000Z</time>
      </trkpt>
      <trkpt lat="45.82961" lon="4.67563">
        <ele>288.75458</ele>
        <time>2022-09-27T12:11:44.000Z</time>
      </trkpt>
      <trkpt lat="45.82958" lon="4.67561">
        <ele>289.03943</ele>
        <time>2022-09-27T12:11:45.000Z</time>
      </trkpt>
      <trkpt lat="45.82954" lon="4.67561">
        <ele>289.38116</ele>
        <time>2022-09-27T12:11:46.000Z</time>
      </trkpt>
      <trkpt lat="45.8295" lon="4.6756">
        <ele>289.76337</ele>
        <time>2022-09-27T12:11:47.000Z</time>
      </trkpt>
      <trkpt lat="45.82947" lon="4.6756">
        <ele>289.97617</ele>
        <time>2022-09-27T12:11:48.000Z</time>
      </trkpt>
      <trkpt lat="45.82943" lon="4.67559">
        <ele>290.29065</ele>
        <time>2022-09-27T12:11:49.000Z</time>
      </trkpt>
      <trkpt lat="45.8294" lon="4.67558">
        <ele>290.61566</ele>
        <time>2022-09-27T12:11:50.000Z</time>
      </trkpt>
      <trkpt lat="45.82937" lon="4.67556">
        <ele>290.91772</ele>
        <time>2022-09-27T12:11:51.000Z</time>
      </trkpt>
      <trkpt lat="45.82933" lon="4.67555">
        <ele>291.15961</ele>
        <time>2022-09-27T12:11:52.000Z</time>
      </trkpt>
      <trkpt lat="45.8293" lon="4.67554">
        <ele>291.33582</ele>
        <time>2022-09-27T12:11:53.000Z</time>
      </trkpt>
      <trkpt lat="45.82927" lon="4.67553">
        <ele>291.41351</ele>
        <time>2022-09-27T12:11:54.000Z</time>
      </trkpt>
      <trkpt lat="45.82925" lon="4.67551">
        <ele>291.55615</ele>
        <time>2022-09-27T12:11:55.000Z</time>
      </trkpt>
      <trkpt lat="45.82922" lon="4.67549">
        <ele>291.80423</ele>
        <time>2022-09-27T12:11:56.000Z</time>
      </trkpt>
      <trkpt lat="45.82919" lon="4.67547">
        <ele>292.0379</ele>
        <time>2022-09-27T12:11:57.000Z</time>
      </trkpt>
      <trkpt lat="45.82916" lon="4.67544">
        <ele>292.25397</ele>
        <time>2022-09-27T12:11:58.000Z</time>
      </trkpt>
      <trkpt lat="45.82913" lon="4.67541">
        <ele>292.47705</ele>
        <time>2022-09-27T12:11:59.000Z</time>
      </trkpt>
      <trkpt lat="45.8291" lon="4.67538">
        <ele>292.64056</ele>
        <time>2022-09-27T12:12:00.000Z</time>
      </trkpt>
      <trkpt lat="45.82906" lon="4.67536">
        <ele>292.75125</ele>
        <time>2022-09-27T12:12:01.000Z</time>
      </trkpt>
      <trkpt lat="45.82903" lon="4.67533">
        <ele>292.79416</ele>
        <time>2022-09-27T12:12:02.000Z</time>
      </trkpt>
      <trkpt lat="45.82901" lon="4.6753">
        <ele>292.84662</ele>
        <time>2022-09-27T12:12:03.000Z</time>
      </trkpt>
      <trkpt lat="45.82898" lon="4.67526">
        <ele>292.96146</ele>
        <time>2022-09-27T12:12:04.000Z</time>
      </trkpt>
      <trkpt lat="45.82897" lon="4.67522">
        <ele>293.1431</ele>
        <time>2022-09-27T12:12:05.000Z</time>
      </trkpt>
      <trkpt lat="45.82898" lon="4.67516">
        <ele>293.32947</ele>
        <time>2022-09-27T12:12:06.000Z</time>
      </trkpt>
      <trkpt lat="45.82899" lon="4.6751">
        <ele>293.50372</ele>
        <time>2022-09-27T12:12:07.000Z</time>
      </trkpt>
      <trkpt lat="45.82905" lon="4.67502">
        <ele>293.68356</ele>
        <time>2022-09-27T12:12:08.000Z</time>
      </trkpt>
      <trkpt lat="45.82908" lon="4.67496">
        <ele>293.785</ele>
        <time>2022-09-27T12:12:09.000Z</time>
      </trkpt>
      <trkpt lat="45.82911" lon="4.67491">
        <ele>293.81943</ele>
        <time>2022-09-27T12:12:10.000Z</time>
      </trkpt>
      <trkpt lat="45.82914" lon="4.67485">
        <ele>293.83356</ele>
        <time>2022-09-27T12:12:11.000Z</time>
      </trkpt>
      <trkpt lat="45.82917" lon="4.67479">
        <ele>293.81793</ele>
        <time>2022-09-27T12:12:12.000Z</time>
      </trkpt>
      <trkpt lat="45.8292" lon="4.67472">
        <ele>293.8985</ele>
        <time>2022-09-27T12:12:13.000Z</time>
      </trkpt>
      <trkpt lat="45.82924" lon="4.67466">
        <ele>293.91187</ele>
        <time>2022-09-27T12:12:14.000Z</time>
      </trkpt>
      <trkpt lat="45.82927" lon="4.67459">
        <ele>293.90469</ele>
        <time>2022-09-27T12:12:15.000Z</time>
      </trkpt>
      <trkpt lat="45.82929" lon="4.67451">
        <ele>293.85101</ele>
        <time>2022-09-27T12:12:16.000Z</time>
      </trkpt>
      <trkpt lat="45.82933" lon="4.67444">
        <ele>293.8432</ele>
        <time>2022-09-27T12:12:17.000Z</time>
      </trkpt>
      <trkpt lat="45.82936" lon="4.67438">
        <ele>293.82941</ele>
        <time>2022-09-27T12:12:18.000Z</time>
      </trkpt>
      <trkpt lat="45.8294" lon="4.67432">
        <ele>293.76727</ele>
        <time>2022-09-27T12:12:19.000Z</time>
      </trkpt>
      <trkpt lat="45.82943" lon="4.67425">
        <ele>293.76358</ele>
        <time>2022-09-27T12:12:20.000Z</time>
      </trkpt>
      <trkpt lat="45.82947" lon="4.67418">
        <ele>293.78827</ele>
        <time>2022-09-27T12:12:21.000Z</time>
      </trkpt>
      <trkpt lat="45.82951" lon="4.6741">
        <ele>293.86124</ele>
        <time>2022-09-27T12:12:22.000Z</time>
      </trkpt>
      <trkpt lat="45.82955" lon="4.67403">
        <ele>293.88257</ele>
        <time>2022-09-27T12:12:23.000Z</time>
      </trkpt>
      <trkpt lat="45.82959" lon="4.67396">
        <ele>293.80676</ele>
        <time>2022-09-27T12:12:24.000Z</time>
      </trkpt>
      <trkpt lat="45.82962" lon="4.67388">
        <ele>293.71829</ele>
        <time>2022-09-27T12:12:25.000Z</time>
      </trkpt>
      <trkpt lat="45.82966" lon="4.67383">
        <ele>293.68918</ele>
        <time>2022-09-27T12:12:26.000Z</time>
      </trkpt>
      <trkpt lat="45.82969" lon="4.67375">
        <ele>293.66824</ele>
        <time>2022-09-27T12:12:27.000Z</time>
      </trkpt>
      <trkpt lat="45.82973" lon="4.67369">
        <ele>293.56665</ele>
        <time>2022-09-27T12:12:28.000Z</time>
      </trkpt>
      <trkpt lat="45.82977" lon="4.6736">
        <ele>293.48602</ele>
        <time>2022-09-27T12:12:29.000Z</time>
      </trkpt>
      <trkpt lat="45.8298" lon="4.67352">
        <ele>293.43182</ele>
        <time>2022-09-27T12:12:30.000Z</time>
      </trkpt>
      <trkpt lat="45.82984" lon="4.67344">
        <ele>293.39529</ele>
        <time>2022-09-27T12:12:31.000Z</time>
      </trkpt>
      <trkpt lat="45.82988" lon="4.67336">
        <ele>293.34903</ele>
        <time>2022-09-27T12:12:32.000Z</time>
      </trkpt>
      <trkpt lat="45.82992" lon="4.67328">
        <ele>293.28534</ele>
        <time>2022-09-27T12:12:33.000Z</time>
      </trkpt>
      <trkpt lat="45.82995" lon="4.6732">
        <ele>293.26724</ele>
        <time>2022-09-27T12:12:34.000Z</time>
      </trkpt>
      <trkpt lat="45.82997" lon="4.67314">
        <ele>293.21841</ele>
        <time>2022-09-27T12:12:35.000Z</time>
      </trkpt>
      <trkpt lat="45.83" lon="4.67307">
        <ele>293.0986</ele>
        <time>2022-09-27T12:12:36.000Z</time>
      </trkpt>
      <trkpt lat="45.83002" lon="4.67298">
        <ele>292.91443</ele>
        <time>2022-09-27T12:12:37.000Z</time>
      </trkpt>
      <trkpt lat="45.83004" lon="4.6729">
        <ele>292.70908</ele>
        <time>2022-09-27T12:12:38.000Z</time>
      </trkpt>
      <trkpt lat="45.83007" lon="4.67282">
        <ele>292.51172</ele>
        <time>2022-09-27T12:12:39.000Z</time>
      </trkpt>
      <trkpt lat="45.8301" lon="4.67276">
        <ele>292.3941</ele>
        <time>2022-09-27T12:12:40.000Z</time>
      </trkpt>
      <trkpt lat="45.83012" lon="4.67268">
        <ele>292.22491</ele>
        <time>2022-09-27T12:12:41.000Z</time>
      </trkpt>
      <trkpt lat="45.83014" lon="4.67261">
        <ele>292.05109</ele>
        <time>2022-09-27T12:12:42.000Z</time>
      </trkpt>
      <trkpt lat="45.83016" lon="4.67254">
        <ele>291.883</ele>
        <time>2022-09-27T12:12:43.000Z</time>
      </trkpt>
      <trkpt lat="45.83018" lon="4.67247">
        <ele>291.66403</ele>
        <time>2022-09-27T12:12:44.000Z</time>
      </trkpt>
      <trkpt lat="45.83019" lon="4.67241">
        <ele>291.4343</ele>
        <time>2022-09-27T12:12:45.000Z</time>
      </trkpt>
      <trkpt lat="45.83022" lon="4.67234">
        <ele>291.14825</ele>
        <time>2022-09-27T12:12:46.000Z</time>
      </trkpt>
      <trkpt lat="45.83023" lon="4.67227">
        <ele>290.84891</ele>
        <time>2022-09-27T12:12:47.000Z</time>
      </trkpt>
      <trkpt lat="45.83026" lon="4.67221">
        <ele>290.62201</ele>
        <time>2022-09-27T12:12:48.000Z</time>
      </trkpt>
      <trkpt lat="45.83028" lon="4.67214">
        <ele>290.35843</ele>
        <time>2022-09-27T12:12:49.000Z</time>
      </trkpt>
      <trkpt lat="45.83031" lon="4.67206">
        <ele>290.11212</ele>
        <time>2022-09-27T12:12:50.000Z</time>
      </trkpt>
      <trkpt lat="45.83031" lon="4.67201">
        <ele>289.88654</ele>
        <time>2022-09-27T12:12:51.000Z</time>
      </trkpt>
      <trkpt lat="45.83031" lon="4.67193">
        <ele>289.69095</ele>
        <time>2022-09-27T12:12:52.000Z</time>
      </trkpt>
      <trkpt lat="45.83029" lon="4.67186">
        <ele>289.51651</ele>
        <time>2022-09-27T12:12:53.000Z</time>
      </trkpt>
      <trkpt lat="45.83027" lon="4.6718">
        <ele>289.33026</ele>
        <time>2022-09-27T12:12:54.000Z</time>
      </trkpt>
      <trkpt lat="45.83025" lon="4.67173">
        <ele>289.18396</ele>
        <time>2022-09-27T12:12:55.000Z</time>
      </trkpt>
      <trkpt lat="45.83022" lon="4.67167">
        <ele>289.08899</ele>
        <time>2022-09-27T12:12:56.000Z</time>
      </trkpt>
      <trkpt lat="45.83018" lon="4.67161">
        <ele>289.04132</ele>
        <time>2022-09-27T12:12:57.000Z</time>
      </trkpt>
      <trkpt lat="45.83016" lon="4.67154">
        <ele>289.09125</ele>
        <time>2022-09-27T12:12:58.000Z</time>
      </trkpt>
      <trkpt lat="45.83013" lon="4.67147">
        <ele>289.21906</ele>
        <time>2022-09-27T12:12:59.000Z</time>
      </trkpt>
      <trkpt lat="45.83011" lon="4.67141">
        <ele>289.29318</ele>
        <time>2022-09-27T12:13:00.000Z</time>
      </trkpt>
      <trkpt lat="45.83008" lon="4.67135">
        <ele>289.3812</ele>
        <time>2022-09-27T12:13:01.000Z</time>
      </trkpt>
      <trkpt lat="45.83006" lon="4.6713">
        <ele>289.5535</ele>
        <time>2022-09-27T12:13:02.000Z</time>
      </trkpt>
      <trkpt lat="45.83004" lon="4.67123">
        <ele>289.76822</ele>
        <time>2022-09-27T12:13:03.000Z</time>
      </trkpt>
      <trkpt lat="45.83002" lon="4.67118">
        <ele>290.05292</ele>
        <time>2022-09-27T12:13:04.000Z</time>
      </trkpt>
      <trkpt lat="45.83" lon="4.67112">
        <ele>290.39655</ele>
        <time>2022-09-27T12:13:05.000Z</time>
      </trkpt>
      <trkpt lat="45.82999" lon="4.67105">
        <ele>290.72552</ele>
        <time>2022-09-27T12:13:06.000Z</time>
      </trkpt>
      <trkpt lat="45.82998" lon="4.671">
        <ele>291.1478</ele>
        <time>2022-09-27T12:13:07.000Z</time>
      </trkpt>
      <trkpt lat="45.82997" lon="4.67096">
        <ele>291.60187</ele>
        <time>2022-09-27T12:13:08.000Z</time>
      </trkpt>
      <trkpt lat="45.82998" lon="4.6709">
        <ele>292.11435</ele>
        <time>2022-09-27T12:13:09.000Z</time>
      </trkpt>
      <trkpt lat="45.82998" lon="4.67084">
        <ele>292.62958</ele>
        <time>2022-09-27T12:13:10.000Z</time>
      </trkpt>
      <trkpt lat="45.82999" lon="4.67079">
        <ele>293.11148</ele>
        <time>2022-09-27T12:13:11.000Z</time>
      </trkpt>
      <trkpt lat="45.82999" lon="4.67074">
        <ele>293.59973</ele>
        <time>2022-09-27T12:13:12.000Z</time>
      </trkpt>
      <trkpt lat="45.83002" lon="4.67067">
        <ele>294.07324</ele>
        <time>2022-09-27T12:13:13.000Z</time>
      </trkpt>
      <trkpt lat="45.83003" lon="4.67061">
        <ele>294.62668</ele>
        <time>2022-09-27T12:13:14.000Z</time>
      </trkpt>
      <trkpt lat="45.83004" lon="4.67055">
        <ele>295.14771</ele>
        <time>2022-09-27T12:13:15.000Z</time>
      </trkpt>
      <trkpt lat="45.83006" lon="4.67049">
        <ele>295.63943</ele>
        <time>2022-09-27T12:13:16.000Z</time>
      </trkpt>
      <trkpt lat="45.83007" lon="4.67043">
        <ele>296.17294</ele>
        <time>2022-09-27T12:13:17.000Z</time>
      </trkpt>
      <trkpt lat="45.83007" lon="4.67038">
        <ele>296.62497</ele>
        <time>2022-09-27T12:13:18.000Z</time>
      </trkpt>
      <trkpt lat="45.83005" lon="4.67032">
        <ele>297.04105</ele>
        <time>2022-09-27T12:13:19.000Z</time>
      </trkpt>
      <trkpt lat="45.83007" lon="4.67028">
        <ele>297.47034</ele>
        <time>2022-09-27T12:13:20.000Z</time>
      </trkpt>
      <trkpt lat="45.83007" lon="4.67023">
        <ele>297.91403</ele>
        <time>2022-09-27T12:13:21.000Z</time>
      </trkpt>
      <trkpt lat="45.83009" lon="4.67016">
        <ele>298.2457</ele>
        <time>2022-09-27T12:13:22.000Z</time>
      </trkpt>
      <trkpt lat="45.83009" lon="4.67009">
        <ele>298.55981</ele>
        <time>2022-09-27T12:13:23.000Z</time>
      </trkpt>
      <trkpt lat="45.8301" lon="4.67003">
        <ele>298.95975</ele>
        <time>2022-09-27T12:13:24.000Z</time>
      </trkpt>
      <trkpt lat="45.8301" lon="4.66996">
        <ele>299.35907</ele>
        <time>2022-09-27T12:13:25.000Z</time>
      </trkpt>
      <trkpt lat="45.8301" lon="4.6699">
        <ele>299.80826</ele>
        <time>2022-09-27T12:13:26.000Z</time>
      </trkpt>
      <trkpt lat="45.83009" lon="4.66984">
        <ele>300.16031</ele>
        <time>2022-09-27T12:13:27.000Z</time>
      </trkpt>
      <trkpt lat="45.83009" lon="4.66978">
        <ele>300.54242</ele>
        <time>2022-09-27T12:13:28.000Z</time>
      </trkpt>
      <trkpt lat="45.83009" lon="4.66972">
        <ele>300.85309</ele>
        <time>2022-09-27T12:13:29.000Z</time>
      </trkpt>
      <trkpt lat="45.83009" lon="4.66967">
        <ele>301.13229</ele>
        <time>2022-09-27T12:13:30.000Z</time>
      </trkpt>
      <trkpt lat="45.83009" lon="4.66961">
        <ele>301.35254</ele>
        <time>2022-09-27T12:13:31.000Z</time>
      </trkpt>
      <trkpt lat="45.83009" lon="4.66956">
        <ele>301.62354</ele>
        <time>2022-09-27T12:13:32.000Z</time>
      </trkpt>
      <trkpt lat="45.83009" lon="4.6695">
        <ele>301.91388</ele>
        <time>2022-09-27T12:13:33.000Z</time>
      </trkpt>
      <trkpt lat="45.83008" lon="4.66944">
        <ele>302.13364</ele>
        <time>2022-09-27T12:13:34.000Z</time>
      </trkpt>
      <trkpt lat="45.83008" lon="4.66938">
        <ele>302.39114</ele>
        <time>2022-09-27T12:13:35.000Z</time>
      </trkpt>
      <trkpt lat="45.83008" lon="4.66933">
        <ele>302.64825</ele>
        <time>2022-09-27T12:13:36.000Z</time>
      </trkpt>
      <trkpt lat="45.83008" lon="4.66927">
        <ele>302.8222</ele>
        <time>2022-09-27T12:13:37.000Z</time>
      </trkpt>
      <trkpt lat="45.83008" lon="4.66922">
        <ele>303.017</ele>
        <time>2022-09-27T12:13:38.000Z</time>
      </trkpt>
      <trkpt lat="45.83009" lon="4.66916">
        <ele>303.22003</ele>
        <time>2022-09-27T12:13:39.000Z</time>
      </trkpt>
      <trkpt lat="45.83009" lon="4.6691">
        <ele>303.3988</ele>
        <time>2022-09-27T12:13:40.000Z</time>
      </trkpt>
      <trkpt lat="45.8301" lon="4.66905">
        <ele>303.60181</ele>
        <time>2022-09-27T12:13:41.000Z</time>
      </trkpt>
      <trkpt lat="45.83011" lon="4.66899">
        <ele>303.88055</ele>
        <time>2022-09-27T12:13:42.000Z</time>
      </trkpt>
      <trkpt lat="45.83012" lon="4.66894">
        <ele>304.21158</ele>
        <time>2022-09-27T12:13:43.000Z</time>
      </trkpt>
      <trkpt lat="45.83012" lon="4.66888">
        <ele>304.49457</ele>
        <time>2022-09-27T12:13:44.000Z</time>
      </trkpt>
      <trkpt lat="45.83013" lon="4.66883">
        <ele>304.74661</ele>
        <time>2022-09-27T12:13:45.000Z</time>
      </trkpt>
      <trkpt lat="45.83013" lon="4.66878">
        <ele>304.98492</ele>
        <time>2022-09-27T12:13:46.000Z</time>
      </trkpt>
      <trkpt lat="45.83014" lon="4.66873">
        <ele>305.16229</ele>
        <time>2022-09-27T12:13:47.000Z</time>
      </trkpt>
      <trkpt lat="45.83014" lon="4.66869">
        <ele>305.31195</ele>
        <time>2022-09-27T12:13:48.000Z</time>
      </trkpt>
      <trkpt lat="45.83015" lon="4.66864">
        <ele>305.47516</ele>
        <time>2022-09-27T12:13:49.000Z</time>
      </trkpt>
      <trkpt lat="45.83016" lon="4.66859">
        <ele>305.68848</ele>
        <time>2022-09-27T12:13:50.000Z</time>
      </trkpt>
      <trkpt lat="45.83016" lon="4.66855">
        <ele>306.00485</ele>
        <time>2022-09-27T12:13:51.000Z</time>
      </trkpt>
      <trkpt lat="45.83017" lon="4.66852">
        <ele>306.33807</ele>
        <time>2022-09-27T12:13:52.000Z</time>
      </trkpt>
      <trkpt lat="45.83017" lon="4.66849">
        <ele>306.60638</ele>
        <time>2022-09-27T12:13:53.000Z</time>
      </trkpt>
      <trkpt lat="45.83019" lon="4.66847">
        <ele>306.91113</ele>
        <time>2022-09-27T12:13:54.000Z</time>
      </trkpt>
      <trkpt lat="45.83021" lon="4.66846">
        <ele>307.18085</ele>
        <time>2022-09-27T12:13:55.000Z</time>
      </trkpt>
      <trkpt lat="45.83024" lon="4.66846">
        <ele>307.4809</ele>
        <time>2022-09-27T12:13:56.000Z</time>
      </trkpt>
      <trkpt lat="45.83026" lon="4.66847">
        <ele>307.77972</ele>
        <time>2022-09-27T12:13:57.000Z</time>
      </trkpt>
      <trkpt lat="45.83029" lon="4.66848">
        <ele>308.06802</ele>
        <time>2022-09-27T12:13:58.000Z</time>
      </trkpt>
      <trkpt lat="45.83032" lon="4.6685">
        <ele>308.35513</ele>
        <time>2022-09-27T12:13:59.000Z</time>
      </trkpt>
      <trkpt lat="45.83035" lon="4.6685">
        <ele>308.58734</ele>
        <time>2022-09-27T12:14:00.000Z</time>
      </trkpt>
      <trkpt lat="45.83038" lon="4.66851">
        <ele>308.80219</ele>
        <time>2022-09-27T12:14:01.000Z</time>
      </trkpt>
      <trkpt lat="45.83042" lon="4.66852">
        <ele>308.88812</ele>
        <time>2022-09-27T12:14:02.000Z</time>
      </trkpt>
      <trkpt lat="45.83045" lon="4.66852">
        <ele>308.89334</ele>
        <time>2022-09-27T12:14:03.000Z</time>
      </trkpt>
      <trkpt lat="45.83048" lon="4.66853">
        <ele>308.85287</ele>
        <time>2022-09-27T12:14:04.000Z</time>
      </trkpt>
      <trkpt lat="45.83052" lon="4.66854">
        <ele>308.76141</ele>
        <time>2022-09-27T12:14:05.000Z</time>
      </trkpt>
      <trkpt lat="45.83055" lon="4.66855">
        <ele>308.67276</ele>
        <time>2022-09-27T12:14:06.000Z</time>
      </trkpt>
      <trkpt lat="45.83058" lon="4.66856">
        <ele>308.63693</ele>
        <time>2022-09-27T12:14:07.000Z</time>
      </trkpt>
      <trkpt lat="45.83062" lon="4.66856">
        <ele>308.60175</ele>
        <time>2022-09-27T12:14:08.000Z</time>
      </trkpt>
      <trkpt lat="45.83065" lon="4.66857">
        <ele>308.61395</ele>
        <time>2022-09-27T12:14:09.000Z</time>
      </trkpt>
      <trkpt lat="45.83069" lon="4.66858">
        <ele>308.57303</ele>
        <time>2022-09-27T12:14:10.000Z</time>
      </trkpt>
      <trkpt lat="45.83073" lon="4.66859">
        <ele>308.48596</ele>
        <time>2022-09-27T12:14:11.000Z</time>
      </trkpt>
      <trkpt lat="45.83076" lon="4.66861">
        <ele>308.32019</ele>
        <time>2022-09-27T12:14:12.000Z</time>
      </trkpt>
      <trkpt lat="45.8308" lon="4.66863">
        <ele>308.19196</ele>
        <time>2022-09-27T12:14:13.000Z</time>
      </trkpt>
      <trkpt lat="45.83084" lon="4.66866">
        <ele>308.05276</ele>
        <time>2022-09-27T12:14:14.000Z</time>
      </trkpt>
      <trkpt lat="45.83088" lon="4.66867">
        <ele>307.91022</ele>
        <time>2022-09-27T12:14:15.000Z</time>
      </trkpt>
      <trkpt lat="45.83092" lon="4.6687">
        <ele>307.77481</ele>
        <time>2022-09-27T12:14:16.000Z</time>
      </trkpt>
      <trkpt lat="45.83097" lon="4.66873">
        <ele>307.70044</ele>
        <time>2022-09-27T12:14:17.000Z</time>
      </trkpt>
      <trkpt lat="45.83102" lon="4.66876">
        <ele>307.65585</ele>
        <time>2022-09-27T12:14:18.000Z</time>
      </trkpt>
      <trkpt lat="45.83106" lon="4.66878">
        <ele>307.67242</ele>
        <time>2022-09-27T12:14:19.000Z</time>
      </trkpt>
      <trkpt lat="45.8311" lon="4.66881">
        <ele>307.75598</ele>
        <time>2022-09-27T12:14:20.000Z</time>
      </trkpt>
      <trkpt lat="45.83115" lon="4.66885">
        <ele>307.79901</ele>
        <time>2022-09-27T12:14:21.000Z</time>
      </trkpt>
      <trkpt lat="45.83119" lon="4.66888">
        <ele>307.9682</ele>
        <time>2022-09-27T12:14:22.000Z</time>
      </trkpt>
      <trkpt lat="45.83124" lon="4.66894">
        <ele>308.15009</ele>
        <time>2022-09-27T12:14:23.000Z</time>
      </trkpt>
      <trkpt lat="45.83129" lon="4.66897">
        <ele>308.3963</ele>
        <time>2022-09-27T12:14:24.000Z</time>
      </trkpt>
      <trkpt lat="45.83135" lon="4.66899">
        <ele>308.72003</ele>
        <time>2022-09-27T12:14:25.000Z</time>
      </trkpt>
      <trkpt lat="45.83139" lon="4.66902">
        <ele>308.9892</ele>
        <time>2022-09-27T12:14:26.000Z</time>
      </trkpt>
      <trkpt lat="45.83145" lon="4.66905">
        <ele>309.29922</ele>
        <time>2022-09-27T12:14:27.000Z</time>
      </trkpt>
      <trkpt lat="45.83151" lon="4.6691">
        <ele>309.70468</ele>
        <time>2022-09-27T12:14:28.000Z</time>
      </trkpt>
      <trkpt lat="45.83154" lon="4.66913">
        <ele>310.03729</ele>
        <time>2022-09-27T12:14:29.000Z</time>
      </trkpt>
      <trkpt lat="45.8316" lon="4.66917">
        <ele>310.34781</ele>
        <time>2022-09-27T12:14:30.000Z</time>
      </trkpt>
      <trkpt lat="45.83164" lon="4.6692">
        <ele>310.57745</ele>
        <time>2022-09-27T12:14:31.000Z</time>
      </trkpt>
      <trkpt lat="45.83171" lon="4.66922">
        <ele>310.84866</ele>
        <time>2022-09-27T12:14:32.000Z</time>
      </trkpt>
      <trkpt lat="45.83178" lon="4.66925">
        <ele>311.08911</ele>
        <time>2022-09-27T12:14:33.000Z</time>
      </trkpt>
      <trkpt lat="45.83184" lon="4.66928">
        <ele>311.34323</ele>
        <time>2022-09-27T12:14:34.000Z</time>
      </trkpt>
      <trkpt lat="45.83191" lon="4.66932">
        <ele>311.58453</ele>
        <time>2022-09-27T12:14:35.000Z</time>
      </trkpt>
      <trkpt lat="45.83198" lon="4.66934">
        <ele>311.83374</ele>
        <time>2022-09-27T12:14:36.000Z</time>
      </trkpt>
      <trkpt lat="45.83205" lon="4.66935">
        <ele>312.02191</ele>
        <time>2022-09-27T12:14:37.000Z</time>
      </trkpt>
      <trkpt lat="45.83212" lon="4.6694">
        <ele>312.16992</ele>
        <time>2022-09-27T12:14:38.000Z</time>
      </trkpt>
      <trkpt lat="45.83218" lon="4.66942">
        <ele>312.16229</ele>
        <time>2022-09-27T12:14:39.000Z</time>
      </trkpt>
      <trkpt lat="45.83224" lon="4.66943">
        <ele>312.12857</ele>
        <time>2022-09-27T12:14:40.000Z</time>
      </trkpt>
      <trkpt lat="45.83231" lon="4.66945">
        <ele>312.13824</ele>
        <time>2022-09-27T12:14:41.000Z</time>
      </trkpt>
      <trkpt lat="45.83237" lon="4.66949">
        <ele>312.18484</ele>
        <time>2022-09-27T12:14:42.000Z</time>
      </trkpt>
      <trkpt lat="45.83243" lon="4.66952">
        <ele>312.20624</ele>
        <time>2022-09-27T12:14:43.000Z</time>
      </trkpt>
      <trkpt lat="45.83249" lon="4.66957">
        <ele>312.1553</ele>
        <time>2022-09-27T12:14:44.000Z</time>
      </trkpt>
      <trkpt lat="45.83255" lon="4.66959">
        <ele>312.14142</ele>
        <time>2022-09-27T12:14:45.000Z</time>
      </trkpt>
      <trkpt lat="45.8326" lon="4.66961">
        <ele>312.22479</ele>
        <time>2022-09-27T12:14:46.000Z</time>
      </trkpt>
      <trkpt lat="45.83266" lon="4.66964">
        <ele>312.38147</ele>
        <time>2022-09-27T12:14:47.000Z</time>
      </trkpt>
      <trkpt lat="45.83274" lon="4.66967">
        <ele>312.38147</ele>
        <time>2022-09-27T12:14:48.000Z</time>
      </trkpt>
      <trkpt lat="45.83279" lon="4.6697">
        <ele>312.36765</ele>
        <time>2022-09-27T12:14:49.000Z</time>
      </trkpt>
      <trkpt lat="45.83285" lon="4.66972">
        <ele>312.38495</ele>
        <time>2022-09-27T12:14:50.000Z</time>
      </trkpt>
      <trkpt lat="45.83291" lon="4.66973">
        <ele>312.50815</ele>
        <time>2022-09-27T12:14:51.000Z</time>
      </trkpt>
      <trkpt lat="45.83298" lon="4.66975">
        <ele>312.66306</ele>
        <time>2022-09-27T12:14:52.000Z</time>
      </trkpt>
      <trkpt lat="45.83303" lon="4.66976">
        <ele>312.83987</ele>
        <time>2022-09-27T12:14:53.000Z</time>
      </trkpt>
      <trkpt lat="45.83309" lon="4.66976">
        <ele>312.92993</ele>
        <time>2022-09-27T12:14:54.000Z</time>
      </trkpt>
      <trkpt lat="45.83316" lon="4.66979">
        <ele>312.96219</ele>
        <time>2022-09-27T12:14:55.000Z</time>
      </trkpt>
      <trkpt lat="45.83321" lon="4.66979">
        <ele>312.88553</ele>
        <time>2022-09-27T12:14:56.000Z</time>
      </trkpt>
      <trkpt lat="45.83326" lon="4.66979">
        <ele>312.79742</ele>
        <time>2022-09-27T12:14:57.000Z</time>
      </trkpt>
      <trkpt lat="45.83333" lon="4.66979">
        <ele>312.89478</ele>
        <time>2022-09-27T12:14:58.000Z</time>
      </trkpt>
      <trkpt lat="45.83338" lon="4.66978">
        <ele>313.06067</ele>
        <time>2022-09-27T12:14:59.000Z</time>
      </trkpt>
      <trkpt lat="45.83344" lon="4.66978">
        <ele>313.20728</ele>
        <time>2022-09-27T12:15:00.000Z</time>
      </trkpt>
      <trkpt lat="45.83349" lon="4.66977">
        <ele>313.3494</ele>
        <time>2022-09-27T12:15:01.000Z</time>
      </trkpt>
      <trkpt lat="45.83353" lon="4.66976">
        <ele>313.44931</ele>
        <time>2022-09-27T12:15:02.000Z</time>
      </trkpt>
      <trkpt lat="45.83357" lon="4.66976">
        <ele>313.6048</ele>
        <time>2022-09-27T12:15:03.000Z</time>
      </trkpt>
      <trkpt lat="45.83363" lon="4.66977">
        <ele>313.81024</ele>
        <time>2022-09-27T12:15:04.000Z</time>
      </trkpt>
      <trkpt lat="45.83366" lon="4.66982">
        <ele>313.95883</ele>
        <time>2022-09-27T12:15:05.000Z</time>
      </trkpt>
      <trkpt lat="45.83369" lon="4.6699">
        <ele>314.22638</ele>
        <time>2022-09-27T12:15:06.000Z</time>
      </trkpt>
      <trkpt lat="45.83369" lon="4.66997">
        <ele>314.41296</ele>
        <time>2022-09-27T12:15:07.000Z</time>
      </trkpt>
      <trkpt lat="45.8337" lon="4.67003">
        <ele>314.7077</ele>
        <time>2022-09-27T12:15:08.000Z</time>
      </trkpt>
      <trkpt lat="45.83371" lon="4.67012">
        <ele>314.96799</ele>
        <time>2022-09-27T12:15:09.000Z</time>
      </trkpt>
      <trkpt lat="45.8337" lon="4.6702">
        <ele>315.23825</ele>
        <time>2022-09-27T12:15:10.000Z</time>
      </trkpt>
      <trkpt lat="45.83371" lon="4.67028">
        <ele>315.62805</ele>
        <time>2022-09-27T12:15:11.000Z</time>
      </trkpt>
      <trkpt lat="45.83373" lon="4.67037">
        <ele>315.89447</ele>
        <time>2022-09-27T12:15:12.000Z</time>
      </trkpt>
      <trkpt lat="45.83375" lon="4.67046">
        <ele>316.11279</ele>
        <time>2022-09-27T12:15:13.000Z</time>
      </trkpt>
      <trkpt lat="45.83381" lon="4.6705">
        <ele>316.31104</ele>
        <time>2022-09-27T12:15:14.000Z</time>
      </trkpt>
      <trkpt lat="45.83386" lon="4.67056">
        <ele>316.61005</ele>
        <time>2022-09-27T12:15:15.000Z</time>
      </trkpt>
      <trkpt lat="45.83391" lon="4.6706">
        <ele>316.99564</ele>
        <time>2022-09-27T12:15:16.000Z</time>
      </trkpt>
      <trkpt lat="45.83396" lon="4.67066">
        <ele>317.37628</ele>
        <time>2022-09-27T12:15:17.000Z</time>
      </trkpt>
      <trkpt lat="45.83402" lon="4.67072">
        <ele>317.60745</ele>
        <time>2022-09-27T12:15:18.000Z</time>
      </trkpt>
      <trkpt lat="45.83407" lon="4.67078">
        <ele>317.85696</ele>
        <time>2022-09-27T12:15:19.000Z</time>
      </trkpt>
      <trkpt lat="45.83412" lon="4.67085">
        <ele>318.07324</ele>
        <time>2022-09-27T12:15:20.000Z</time>
      </trkpt>
      <trkpt lat="45.83417" lon="4.6709">
        <ele>318.23578</ele>
        <time>2022-09-27T12:15:21.000Z</time>
      </trkpt>
      <trkpt lat="45.83421" lon="4.67095">
        <ele>318.37494</ele>
        <time>2022-09-27T12:15:22.000Z</time>
      </trkpt>
      <trkpt lat="45.83424" lon="4.671">
        <ele>318.5097</ele>
        <time>2022-09-27T12:15:23.000Z</time>
      </trkpt>
      <trkpt lat="45.83429" lon="4.67107">
        <ele>318.6376</ele>
        <time>2022-09-27T12:15:24.000Z</time>
      </trkpt>
      <trkpt lat="45.83434" lon="4.67113">
        <ele>318.6983</ele>
        <time>2022-09-27T12:15:25.000Z</time>
      </trkpt>
      <trkpt lat="45.83439" lon="4.67119">
        <ele>318.60611</ele>
        <time>2022-09-27T12:15:26.000Z</time>
      </trkpt>
      <trkpt lat="45.83443" lon="4.67125">
        <ele>318.48581</ele>
        <time>2022-09-27T12:15:27.000Z</time>
      </trkpt>
      <trkpt lat="45.83448" lon="4.67132">
        <ele>318.30707</ele>
        <time>2022-09-27T12:15:28.000Z</time>
      </trkpt>
      <trkpt lat="45.83453" lon="4.67139">
        <ele>318.17166</ele>
        <time>2022-09-27T12:15:29.000Z</time>
      </trkpt>
      <trkpt lat="45.83456" lon="4.67143">
        <ele>318.02475</ele>
        <time>2022-09-27T12:15:30.000Z</time>
      </trkpt>
      <trkpt lat="45.8346" lon="4.67151">
        <ele>317.72205</ele>
        <time>2022-09-27T12:15:31.000Z</time>
      </trkpt>
      <trkpt lat="45.83466" lon="4.67158">
        <ele>317.48566</ele>
        <time>2022-09-27T12:15:32.000Z</time>
      </trkpt>
      <trkpt lat="45.83471" lon="4.67164">
        <ele>317.28738</ele>
        <time>2022-09-27T12:15:33.000Z</time>
      </trkpt>
      <trkpt lat="45.83476" lon="4.67171">
        <ele>317.15521</ele>
        <time>2022-09-27T12:15:34.000Z</time>
      </trkpt>
      <trkpt lat="45.83482" lon="4.67179">
        <ele>317.00824</ele>
        <time>2022-09-27T12:15:35.000Z</time>
      </trkpt>
      <trkpt lat="45.83489" lon="4.67187">
        <ele>316.75912</ele>
        <time>2022-09-27T12:15:36.000Z</time>
      </trkpt>
      <trkpt lat="45.83495" lon="4.67196">
        <ele>316.39301</ele>
        <time>2022-09-27T12:15:37.000Z</time>
      </trkpt>
      <trkpt lat="45.83501" lon="4.67204">
        <ele>315.9169</ele>
        <time>2022-09-27T12:15:38.000Z</time>
      </trkpt>
      <trkpt lat="45.83509" lon="4.67213">
        <ele>315.41809</ele>
        <time>2022-09-27T12:15:39.000Z</time>
      </trkpt>
      <trkpt lat="45.83516" lon="4.6722">
        <ele>314.92065</ele>
        <time>2022-09-27T12:15:40.000Z</time>
      </trkpt>
      <trkpt lat="45.83524" lon="4.67227">
        <ele>314.48907</ele>
        <time>2022-09-27T12:15:41.000Z</time>
      </trkpt>
      <trkpt lat="45.83531" lon="4.67234">
        <ele>314.03235</ele>
        <time>2022-09-27T12:15:42.000Z</time>
      </trkpt>
      <trkpt lat="45.8354" lon="4.67241">
        <ele>313.60403</ele>
        <time>2022-09-27T12:15:43.000Z</time>
      </trkpt>
      <trkpt lat="45.83548" lon="4.67248">
        <ele>313.13239</ele>
        <time>2022-09-27T12:15:44.000Z</time>
      </trkpt>
      <trkpt lat="45.83557" lon="4.67256">
        <ele>312.65228</ele>
        <time>2022-09-27T12:15:45.000Z</time>
      </trkpt>
      <trkpt lat="45.83566" lon="4.67263">
        <ele>312.12186</ele>
        <time>2022-09-27T12:15:46.000Z</time>
      </trkpt>
      <trkpt lat="45.83573" lon="4.6727">
        <ele>311.56693</ele>
        <time>2022-09-27T12:15:47.000Z</time>
      </trkpt>
      <trkpt lat="45.83581" lon="4.67276">
        <ele>310.92258</ele>
        <time>2022-09-27T12:15:48.000Z</time>
      </trkpt>
      <trkpt lat="45.83588" lon="4.67283">
        <ele>310.31146</ele>
        <time>2022-09-27T12:15:49.000Z</time>
      </trkpt>
      <trkpt lat="45.83596" lon="4.67289">
        <ele>309.66315</ele>
        <time>2022-09-27T12:15:50.000Z</time>
      </trkpt>
      <trkpt lat="45.83605" lon="4.67295">
        <ele>309.06387</ele>
        <time>2022-09-27T12:15:51.000Z</time>
      </trkpt>
      <trkpt lat="45.83614" lon="4.673">
        <ele>308.43967</ele>
        <time>2022-09-27T12:15:52.000Z</time>
      </trkpt>
      <trkpt lat="45.83622" lon="4.67306">
        <ele>307.81992</ele>
        <time>2022-09-27T12:15:53.000Z</time>
      </trkpt>
      <trkpt lat="45.8363" lon="4.67308">
        <ele>307.24811</ele>
        <time>2022-09-27T12:15:54.000Z</time>
      </trkpt>
      <trkpt lat="45.83639" lon="4.67313">
        <ele>306.62277</ele>
        <time>2022-09-27T12:15:55.000Z</time>
      </trkpt>
      <trkpt lat="45.83647" lon="4.67318">
        <ele>306.159</ele>
        <time>2022-09-27T12:15:56.000Z</time>
      </trkpt>
      <trkpt lat="45.83654" lon="4.67322">
        <ele>305.84882</ele>
        <time>2022-09-27T12:15:57.000Z</time>
      </trkpt>
      <trkpt lat="45.83661" lon="4.67327">
        <ele>305.62439</ele>
        <time>2022-09-27T12:15:58.000Z</time>
      </trkpt>
      <trkpt lat="45.83668" lon="4.67332">
        <ele>305.4223</ele>
        <time>2022-09-27T12:15:59.000Z</time>
      </trkpt>
      <trkpt lat="45.83676" lon="4.67337">
        <ele>305.2981</ele>
        <time>2022-09-27T12:16:00.000Z</time>
      </trkpt>
      <trkpt lat="45.83683" lon="4.67343">
        <ele>305.11374</ele>
        <time>2022-09-27T12:16:01.000Z</time>
      </trkpt>
      <trkpt lat="45.83691" lon="4.67347">
        <ele>304.80933</ele>
        <time>2022-09-27T12:16:02.000Z</time>
      </trkpt>
      <trkpt lat="45.83699" lon="4.67351">
        <ele>304.50333</ele>
        <time>2022-09-27T12:16:03.000Z</time>
      </trkpt>
      <trkpt lat="45.83706" lon="4.67357">
        <ele>304.13934</ele>
        <time>2022-09-27T12:16:04.000Z</time>
      </trkpt>
      <trkpt lat="45.83714" lon="4.67362">
        <ele>303.79208</ele>
        <time>2022-09-27T12:16:05.000Z</time>
      </trkpt>
      <trkpt lat="45.83721" lon="4.67366">
        <ele>303.37009</ele>
        <time>2022-09-27T12:16:06.000Z</time>
      </trkpt>
      <trkpt lat="45.83728" lon="4.67372">
        <ele>303.00385</ele>
        <time>2022-09-27T12:16:07.000Z</time>
      </trkpt>
      <trkpt lat="45.83735" lon="4.67377">
        <ele>302.54773</ele>
        <time>2022-09-27T12:16:08.000Z</time>
      </trkpt>
      <trkpt lat="45.83741" lon="4.67382">
        <ele>302.03989</ele>
        <time>2022-09-27T12:16:09.000Z</time>
      </trkpt>
      <trkpt lat="45.83749" lon="4.67386">
        <ele>301.54156</ele>
        <time>2022-09-27T12:16:10.000Z</time>
      </trkpt>
      <trkpt lat="45.83756" lon="4.67391">
        <ele>301.02588</ele>
        <time>2022-09-27T12:16:11.000Z</time>
      </trkpt>
      <trkpt lat="45.83765" lon="4.67396">
        <ele>300.48483</ele>
        <time>2022-09-27T12:16:12.000Z</time>
      </trkpt>
      <trkpt lat="45.83772" lon="4.67401">
        <ele>299.94659</ele>
        <time>2022-09-27T12:16:13.000Z</time>
      </trkpt>
      <trkpt lat="45.8378" lon="4.67405">
        <ele>299.26059</ele>
        <time>2022-09-27T12:16:14.000Z</time>
      </trkpt>
      <trkpt lat="45.83787" lon="4.67408">
        <ele>298.51266</ele>
        <time>2022-09-27T12:16:15.000Z</time>
      </trkpt>
      <trkpt lat="45.83796" lon="4.67411">
        <ele>297.72491</ele>
        <time>2022-09-27T12:16:16.000Z</time>
      </trkpt>
      <trkpt lat="45.83804" lon="4.67413">
        <ele>296.97302</ele>
        <time>2022-09-27T12:16:17.000Z</time>
      </trkpt>
      <trkpt lat="45.83813" lon="4.67416">
        <ele>296.38538</ele>
        <time>2022-09-27T12:16:18.000Z</time>
      </trkpt>
      <trkpt lat="45.83822" lon="4.6742">
        <ele>295.78302</ele>
        <time>2022-09-27T12:16:19.000Z</time>
      </trkpt>
      <trkpt lat="45.83829" lon="4.67423">
        <ele>295.07791</ele>
        <time>2022-09-27T12:16:20.000Z</time>
      </trkpt>
      <trkpt lat="45.83877" lon="4.67444">
        <ele>294.53818</ele>
        <time>2022-09-27T12:16:26.000Z</time>
      </trkpt>
      <trkpt lat="45.83885" lon="4.67448">
        <ele>294.05792</ele>
        <time>2022-09-27T12:16:27.000Z</time>
      </trkpt>
      <trkpt lat="45.83893" lon="4.67451">
        <ele>293.52347</ele>
        <time>2022-09-27T12:16:28.000Z</time>
      </trkpt>
      <trkpt lat="45.839" lon="4.67455">
        <ele>293.02979</ele>
        <time>2022-09-27T12:16:29.000Z</time>
      </trkpt>
      <trkpt lat="45.83909" lon="4.67457">
        <ele>292.52148</ele>
        <time>2022-09-27T12:16:30.000Z</time>
      </trkpt>
      <trkpt lat="45.83917" lon="4.6746">
        <ele>292.09485</ele>
        <time>2022-09-27T12:16:31.000Z</time>
      </trkpt>
      <trkpt lat="45.83926" lon="4.67463">
        <ele>291.78192</ele>
        <time>2022-09-27T12:16:32.000Z</time>
      </trkpt>
      <trkpt lat="45.83934" lon="4.67465">
        <ele>291.6041</ele>
        <time>2022-09-27T12:16:33.000Z</time>
      </trkpt>
      <trkpt lat="45.83943" lon="4.67468">
        <ele>291.43488</ele>
        <time>2022-09-27T12:16:34.000Z</time>
      </trkpt>
      <trkpt lat="45.83951" lon="4.67468">
        <ele>291.2933</ele>
        <time>2022-09-27T12:16:35.000Z</time>
      </trkpt>
      <trkpt lat="45.83959" lon="4.6747">
        <ele>291.05798</ele>
        <time>2022-09-27T12:16:36.000Z</time>
      </trkpt>
      <trkpt lat="45.83968" lon="4.67472">
        <ele>290.97418</ele>
        <time>2022-09-27T12:16:37.000Z</time>
      </trkpt>
      <trkpt lat="45.83975" lon="4.67474">
        <ele>290.90231</ele>
        <time>2022-09-27T12:16:38.000Z</time>
      </trkpt>
      <trkpt lat="45.83984" lon="4.67476">
        <ele>290.98553</ele>
        <time>2022-09-27T12:16:39.000Z</time>
      </trkpt>
      <trkpt lat="45.83993" lon="4.67478">
        <ele>291.20148</ele>
        <time>2022-09-27T12:16:40.000Z</time>
      </trkpt>
      <trkpt lat="45.84001" lon="4.67481">
        <ele>291.38269</ele>
        <time>2022-09-27T12:16:41.000Z</time>
      </trkpt>
      <trkpt lat="45.8401" lon="4.67484">
        <ele>291.49051</ele>
        <time>2022-09-27T12:16:42.000Z</time>
      </trkpt>
      <trkpt lat="45.84017" lon="4.67486">
        <ele>291.46292</ele>
        <time>2022-09-27T12:16:43.000Z</time>
      </trkpt>
      <trkpt lat="45.84025" lon="4.67487">
        <ele>291.37741</ele>
        <time>2022-09-27T12:16:44.000Z</time>
      </trkpt>
      <trkpt lat="45.84032" lon="4.67489">
        <ele>291.3494</ele>
        <time>2022-09-27T12:16:45.000Z</time>
      </trkpt>
      <trkpt lat="45.8404" lon="4.67491">
        <ele>291.17648</ele>
        <time>2022-09-27T12:16:46.000Z</time>
      </trkpt>
      <trkpt lat="45.84049" lon="4.67493">
        <ele>291.0235</ele>
        <time>2022-09-27T12:16:47.000Z</time>
      </trkpt>
      <trkpt lat="45.84057" lon="4.67494">
        <ele>290.89252</ele>
        <time>2022-09-27T12:16:48.000Z</time>
      </trkpt>
      <trkpt lat="45.84066" lon="4.67496">
        <ele>290.77264</ele>
        <time>2022-09-27T12:16:49.000Z</time>
      </trkpt>
      <trkpt lat="45.84074" lon="4.67499">
        <ele>290.66507</ele>
        <time>2022-09-27T12:16:50.000Z</time>
      </trkpt>
      <trkpt lat="45.84082" lon="4.675">
        <ele>290.61948</ele>
        <time>2022-09-27T12:16:51.000Z</time>
      </trkpt>
      <trkpt lat="45.8409" lon="4.67503">
        <ele>290.47183</ele>
        <time>2022-09-27T12:16:52.000Z</time>
      </trkpt>
      <trkpt lat="45.84095" lon="4.67507">
        <ele>290.28714</ele>
        <time>2022-09-27T12:16:53.000Z</time>
      </trkpt>
      <trkpt lat="45.84103" lon="4.6751">
        <ele>290.16562</ele>
        <time>2022-09-27T12:16:54.000Z</time>
      </trkpt>
      <trkpt lat="45.84108" lon="4.67516">
        <ele>290.01697</ele>
        <time>2022-09-27T12:16:55.000Z</time>
      </trkpt>
      <trkpt lat="45.84115" lon="4.67523">
        <ele>289.9758</ele>
        <time>2022-09-27T12:16:56.000Z</time>
      </trkpt>
      <trkpt lat="45.8412" lon="4.67529">
        <ele>289.86105</ele>
        <time>2022-09-27T12:16:57.000Z</time>
      </trkpt>
      <trkpt lat="45.84125" lon="4.67536">
        <ele>289.81833</ele>
        <time>2022-09-27T12:16:58.000Z</time>
      </trkpt>
      <trkpt lat="45.84132" lon="4.67542">
        <ele>289.57736</ele>
        <time>2022-09-27T12:16:59.000Z</time>
      </trkpt>
      <trkpt lat="45.84137" lon="4.67548">
        <ele>289.25137</ele>
        <time>2022-09-27T12:17:00.000Z</time>
      </trkpt>
      <trkpt lat="45.84142" lon="4.67555">
        <ele>288.92426</ele>
        <time>2022-09-27T12:17:01.000Z</time>
      </trkpt>
      <trkpt lat="45.84149" lon="4.67562">
        <ele>288.73196</ele>
        <time>2022-09-27T12:17:02.000Z</time>
      </trkpt>
      <trkpt lat="45.84154" lon="4.67569">
        <ele>288.50766</ele>
        <time>2022-09-27T12:17:03.000Z</time>
      </trkpt>
      <trkpt lat="45.84161" lon="4.67575">
        <ele>288.32986</ele>
        <time>2022-09-27T12:17:04.000Z</time>
      </trkpt>
      <trkpt lat="45.84166" lon="4.67581">
        <ele>288.12692</ele>
        <time>2022-09-27T12:17:05.000Z</time>
      </trkpt>
      <trkpt lat="45.84172" lon="4.67587">
        <ele>287.94022</ele>
        <time>2022-09-27T12:17:06.000Z</time>
      </trkpt>
      <trkpt lat="45.84177" lon="4.67593">
        <ele>287.83252</ele>
        <time>2022-09-27T12:17:07.000Z</time>
      </trkpt>
      <trkpt lat="45.84183" lon="4.67599">
        <ele>287.69101</ele>
        <time>2022-09-27T12:17:08.000Z</time>
      </trkpt>
      <trkpt lat="45.84189" lon="4.67604">
        <ele>287.64948</ele>
        <time>2022-09-27T12:17:09.000Z</time>
      </trkpt>
      <trkpt lat="45.84195" lon="4.67609">
        <ele>287.64056</ele>
        <time>2022-09-27T12:17:10.000Z</time>
      </trkpt>
      <trkpt lat="45.842" lon="4.67615">
        <ele>287.55392</ele>
        <time>2022-09-27T12:17:11.000Z</time>
      </trkpt>
      <trkpt lat="45.84204" lon="4.67622">
        <ele>287.46365</ele>
        <time>2022-09-27T12:17:12.000Z</time>
      </trkpt>
      <trkpt lat="45.84211" lon="4.67629">
        <ele>287.45615</ele>
        <time>2022-09-27T12:17:13.000Z</time>
      </trkpt>
      <trkpt lat="45.84215" lon="4.67635">
        <ele>287.41034</ele>
        <time>2022-09-27T12:17:14.000Z</time>
      </trkpt>
      <trkpt lat="45.84221" lon="4.67642">
        <ele>287.33054</ele>
        <time>2022-09-27T12:17:15.000Z</time>
      </trkpt>
      <trkpt lat="45.84228" lon="4.67645">
        <ele>287.22052</ele>
        <time>2022-09-27T12:17:16.000Z</time>
      </trkpt>
      <trkpt lat="45.84234" lon="4.67646">
        <ele>287.18054</ele>
        <time>2022-09-27T12:17:17.000Z</time>
      </trkpt>
      <trkpt lat="45.84242" lon="4.6765">
        <ele>286.98795</ele>
        <time>2022-09-27T12:17:18.000Z</time>
      </trkpt>
      <trkpt lat="45.84249" lon="4.67651">
        <ele>286.92319</ele>
        <time>2022-09-27T12:17:19.000Z</time>
      </trkpt>
      <trkpt lat="45.84255" lon="4.67651">
        <ele>286.8793</ele>
        <time>2022-09-27T12:17:20.000Z</time>
      </trkpt>
      <trkpt lat="45.84262" lon="4.67652">
        <ele>286.8421</ele>
        <time>2022-09-27T12:17:21.000Z</time>
      </trkpt>
      <trkpt lat="45.84269" lon="4.67653">
        <ele>286.71143</ele>
        <time>2022-09-27T12:17:22.000Z</time>
      </trkpt>
      <trkpt lat="45.8429" lon="4.6765">
        <ele>286.47903</ele>
        <time>2022-09-27T12:17:25.000Z</time>
      </trkpt>
      <trkpt lat="45.84295" lon="4.67646">
        <ele>286.31439</ele>
        <time>2022-09-27T12:17:26.000Z</time>
      </trkpt>
      <trkpt lat="45.84301" lon="4.67644">
        <ele>286.16678</ele>
        <time>2022-09-27T12:17:27.000Z</time>
      </trkpt>
      <trkpt lat="45.84306" lon="4.67639">
        <ele>286.14398</ele>
        <time>2022-09-27T12:17:28.000Z</time>
      </trkpt>
      <trkpt lat="45.84313" lon="4.67636">
        <ele>286.1344</ele>
        <time>2022-09-27T12:17:29.000Z</time>
      </trkpt>
      <trkpt lat="45.84318" lon="4.67631">
        <ele>286.16455</ele>
        <time>2022-09-27T12:17:30.000Z</time>
      </trkpt>
      <trkpt lat="45.84325" lon="4.67628">
        <ele>286.06134</ele>
        <time>2022-09-27T12:17:31.000Z</time>
      </trkpt>
      <trkpt lat="45.8433" lon="4.67624">
        <ele>285.94601</ele>
        <time>2022-09-27T12:17:32.000Z</time>
      </trkpt>
      <trkpt lat="45.84341" lon="4.67617">
        <ele>285.87579</ele>
        <time>2022-09-27T12:17:34.000Z</time>
      </trkpt>
      <trkpt lat="45.84345" lon="4.67613">
        <ele>285.79413</ele>
        <time>2022-09-27T12:17:35.000Z</time>
      </trkpt>
      <trkpt lat="45.8435" lon="4.67609">
        <ele>285.67108</ele>
        <time>2022-09-27T12:17:36.000Z</time>
      </trkpt>
      <trkpt lat="45.84356" lon="4.67606">
        <ele>285.54608</ele>
        <time>2022-09-27T12:17:37.000Z</time>
      </trkpt>
      <trkpt lat="45.84362" lon="4.67604">
        <ele>285.40778</ele>
        <time>2022-09-27T12:17:38.000Z</time>
      </trkpt>
      <trkpt lat="45.84367" lon="4.67601">
        <ele>285.23138</ele>
        <time>2022-09-27T12:17:39.000Z</time>
      </trkpt>
      <trkpt lat="45.84371" lon="4.67599">
        <ele>284.99396</ele>
        <time>2022-09-27T12:17:40.000Z</time>
      </trkpt>
      <trkpt lat="45.84377" lon="4.67599">
        <ele>284.84299</ele>
        <time>2022-09-27T12:17:41.000Z</time>
      </trkpt>
      <trkpt lat="45.84382" lon="4.67599">
        <ele>284.68024</ele>
        <time>2022-09-27T12:17:42.000Z</time>
      </trkpt>
      <trkpt lat="45.84387" lon="4.67599">
        <ele>284.52899</ele>
        <time>2022-09-27T12:17:43.000Z</time>
      </trkpt>
      <trkpt lat="45.84393" lon="4.67598">
        <ele>284.35236</ele>
        <time>2022-09-27T12:17:44.000Z</time>
      </trkpt>
      <trkpt lat="45.84398" lon="4.67598">
        <ele>284.16339</ele>
        <time>2022-09-27T12:17:45.000Z</time>
      </trkpt>
      <trkpt lat="45.84403" lon="4.67597">
        <ele>284.24496</ele>
        <time>2022-09-27T12:17:46.000Z</time>
      </trkpt>
      <trkpt lat="45.84408" lon="4.67595">
        <ele>284.31903</ele>
        <time>2022-09-27T12:17:47.000Z</time>
      </trkpt>
      <trkpt lat="45.84412" lon="4.67596">
        <ele>284.39154</ele>
        <time>2022-09-27T12:17:48.000Z</time>
      </trkpt>
      <trkpt lat="45.84417" lon="4.67597">
        <ele>284.33636</ele>
        <time>2022-09-27T12:17:49.000Z</time>
      </trkpt>
      <trkpt lat="45.84422" lon="4.67599">
        <ele>284.23904</ele>
        <time>2022-09-27T12:17:50.000Z</time>
      </trkpt>
      <trkpt lat="45.84427" lon="4.67601">
        <ele>284.05499</ele>
        <time>2022-09-27T12:17:51.000Z</time>
      </trkpt>
      <trkpt lat="45.84434" lon="4.67601">
        <ele>283.8916</ele>
        <time>2022-09-27T12:17:52.000Z</time>
      </trkpt>
      <trkpt lat="45.84438" lon="4.676">
        <ele>283.72311</ele>
        <time>2022-09-27T12:17:53.000Z</time>
      </trkpt>
      <trkpt lat="45.84442" lon="4.67596">
        <ele>283.56067</ele>
        <time>2022-09-27T12:17:54.000Z</time>
      </trkpt>
      <trkpt lat="45.84446" lon="4.67592">
        <ele>283.42242</ele>
        <time>2022-09-27T12:17:55.000Z</time>
      </trkpt>
      <trkpt lat="45.84449" lon="4.67589">
        <ele>283.30719</ele>
        <time>2022-09-27T12:17:56.000Z</time>
      </trkpt>
      <trkpt lat="45.84453" lon="4.67585">
        <ele>283.22894</ele>
        <time>2022-09-27T12:17:57.000Z</time>
      </trkpt>
      <trkpt lat="45.84457" lon="4.67582">
        <ele>283.31076</ele>
        <time>2022-09-27T12:17:58.000Z</time>
      </trkpt>
      <trkpt lat="45.84462" lon="4.67579">
        <ele>283.44028</ele>
        <time>2022-09-27T12:17:59.000Z</time>
      </trkpt>
      <trkpt lat="45.84464" lon="4.67575">
        <ele>283.66748</ele>
        <time>2022-09-27T12:18:00.000Z</time>
      </trkpt>
      <trkpt lat="45.84467" lon="4.67573">
        <ele>283.85168</ele>
        <time>2022-09-27T12:18:01.000Z</time>
      </trkpt>
      <trkpt lat="45.84473" lon="4.67572">
        <ele>284.01764</ele>
        <time>2022-09-27T12:18:02.000Z</time>
      </trkpt>
      <trkpt lat="45.84476" lon="4.67568">
        <ele>284.34161</ele>
        <time>2022-09-27T12:18:03.000Z</time>
      </trkpt>
      <trkpt lat="45.8448" lon="4.67564">
        <ele>284.68045</ele>
        <time>2022-09-27T12:18:04.000Z</time>
      </trkpt>
      <trkpt lat="45.84485" lon="4.67562">
        <ele>284.90225</ele>
        <time>2022-09-27T12:18:05.000Z</time>
      </trkpt>
      <trkpt lat="45.84489" lon="4.67558">
        <ele>284.94604</ele>
        <time>2022-09-27T12:18:06.000Z</time>
      </trkpt>
      <trkpt lat="45.84494" lon="4.67557">
        <ele>284.84436</ele>
        <time>2022-09-27T12:18:07.000Z</time>
      </trkpt>
      <trkpt lat="45.84498" lon="4.67556">
        <ele>284.8681</ele>
        <time>2022-09-27T12:18:08.000Z</time>
      </trkpt>
      <trkpt lat="45.84502" lon="4.67557">
        <ele>284.97171</ele>
        <time>2022-09-27T12:18:09.000Z</time>
      </trkpt>
      <trkpt lat="45.84505" lon="4.6756">
        <ele>285.11218</ele>
        <time>2022-09-27T12:18:10.000Z</time>
      </trkpt>
      <trkpt lat="45.84509" lon="4.67564">
        <ele>285.27762</ele>
        <time>2022-09-27T12:18:11.000Z</time>
      </trkpt>
      <trkpt lat="45.84514" lon="4.67568">
        <ele>285.35928</ele>
        <time>2022-09-27T12:18:12.000Z</time>
      </trkpt>
      <trkpt lat="45.84518" lon="4.67572">
        <ele>285.439</ele>
        <time>2022-09-27T12:18:13.000Z</time>
      </trkpt>
      <trkpt lat="45.84524" lon="4.67578">
        <ele>285.48749</ele>
        <time>2022-09-27T12:18:14.000Z</time>
      </trkpt>
      <trkpt lat="45.84528" lon="4.67581">
        <ele>285.52573</ele>
        <time>2022-09-27T12:18:15.000Z</time>
      </trkpt>
      <trkpt lat="45.84532" lon="4.67584">
        <ele>285.61151</ele>
        <time>2022-09-27T12:18:16.000Z</time>
      </trkpt>
      <trkpt lat="45.84537" lon="4.67585">
        <ele>285.75183</ele>
        <time>2022-09-27T12:18:17.000Z</time>
      </trkpt>
      <trkpt lat="45.84542" lon="4.67586">
        <ele>285.8428</ele>
        <time>2022-09-27T12:18:18.000Z</time>
      </trkpt>
      <trkpt lat="45.84546" lon="4.67588">
        <ele>285.87445</ele>
        <time>2022-09-27T12:18:19.000Z</time>
      </trkpt>
      <trkpt lat="45.84552" lon="4.6759">
        <ele>285.73737</ele>
        <time>2022-09-27T12:18:20.000Z</time>
      </trkpt>
      <trkpt lat="45.84557" lon="4.67591">
        <ele>285.69913</ele>
        <time>2022-09-27T12:18:21.000Z</time>
      </trkpt>
      <trkpt lat="45.84563" lon="4.67593">
        <ele>285.57455</ele>
        <time>2022-09-27T12:18:22.000Z</time>
      </trkpt>
      <trkpt lat="45.84569" lon="4.67594">
        <ele>285.18463</ele>
        <time>2022-09-27T12:18:23.000Z</time>
      </trkpt>
      <trkpt lat="45.84576" lon="4.67596">
        <ele>284.70645</ele>
        <time>2022-09-27T12:18:24.000Z</time>
      </trkpt>
      <trkpt lat="45.84581" lon="4.67595">
        <ele>284.30042</ele>
        <time>2022-09-27T12:18:25.000Z</time>
      </trkpt>
      <trkpt lat="45.84586" lon="4.67595">
        <ele>283.95535</ele>
        <time>2022-09-27T12:18:26.000Z</time>
      </trkpt>
      <trkpt lat="45.84591" lon="4.67594">
        <ele>283.69461</ele>
        <time>2022-09-27T12:18:27.000Z</time>
      </trkpt>
      <trkpt lat="45.84596" lon="4.67592">
        <ele>283.25922</ele>
        <time>2022-09-27T12:18:28.000Z</time>
      </trkpt>
      <trkpt lat="45.846" lon="4.6759">
        <ele>282.8067</ele>
        <time>2022-09-27T12:18:29.000Z</time>
      </trkpt>
      <trkpt lat="45.84605" lon="4.67587">
        <ele>282.28363</ele>
        <time>2022-09-27T12:18:30.000Z</time>
      </trkpt>
      <trkpt lat="45.8461" lon="4.67585">
        <ele>281.79486</ele>
        <time>2022-09-27T12:18:31.000Z</time>
      </trkpt>
      <trkpt lat="45.84614" lon="4.67582">
        <ele>281.48746</ele>
        <time>2022-09-27T12:18:32.000Z</time>
      </trkpt>
      <trkpt lat="45.8462" lon="4.6758">
        <ele>281.23468</ele>
        <time>2022-09-27T12:18:33.000Z</time>
      </trkpt>
      <trkpt lat="45.84624" lon="4.67576">
        <ele>280.96054</ele>
        <time>2022-09-27T12:18:34.000Z</time>
      </trkpt>
      <trkpt lat="45.84629" lon="4.67573">
        <ele>280.78479</ele>
        <time>2022-09-27T12:18:35.000Z</time>
      </trkpt>
      <trkpt lat="45.84634" lon="4.67569">
        <ele>280.50436</ele>
        <time>2022-09-27T12:18:36.000Z</time>
      </trkpt>
      <trkpt lat="45.84639" lon="4.67564">
        <ele>280.18399</ele>
        <time>2022-09-27T12:18:37.000Z</time>
      </trkpt>
      <trkpt lat="45.84641" lon="4.67558">
        <ele>279.91931</ele>
        <time>2022-09-27T12:18:38.000Z</time>
      </trkpt>
      <trkpt lat="45.84647" lon="4.67555">
        <ele>279.72183</ele>
        <time>2022-09-27T12:18:39.000Z</time>
      </trkpt>
      <trkpt lat="45.84651" lon="4.67548">
        <ele>279.61441</ele>
        <time>2022-09-27T12:18:40.000Z</time>
      </trkpt>
      <trkpt lat="45.84654" lon="4.67542">
        <ele>279.49448</ele>
        <time>2022-09-27T12:18:41.000Z</time>
      </trkpt>
      <trkpt lat="45.84657" lon="4.67537">
        <ele>279.45218</ele>
        <time>2022-09-27T12:18:42.000Z</time>
      </trkpt>
      <trkpt lat="45.84661" lon="4.6753">
        <ele>279.57208</ele>
        <time>2022-09-27T12:18:43.000Z</time>
      </trkpt>
      <trkpt lat="45.84664" lon="4.67523">
        <ele>279.82761</ele>
        <time>2022-09-27T12:18:44.000Z</time>
      </trkpt>
      <trkpt lat="45.84668" lon="4.67518">
        <ele>280.21277</ele>
        <time>2022-09-27T12:18:45.000Z</time>
      </trkpt>
      <trkpt lat="45.8467" lon="4.67511">
        <ele>280.62747</ele>
        <time>2022-09-27T12:18:46.000Z</time>
      </trkpt>
      <trkpt lat="45.84673" lon="4.67504">
        <ele>281.0253</ele>
        <time>2022-09-27T12:18:47.000Z</time>
      </trkpt>
      <trkpt lat="45.84677" lon="4.67499">
        <ele>281.44501</ele>
        <time>2022-09-27T12:18:48.000Z</time>
      </trkpt>
      <trkpt lat="45.8468" lon="4.67493">
        <ele>281.76678</ele>
        <time>2022-09-27T12:18:49.000Z</time>
      </trkpt>
      <trkpt lat="45.84684" lon="4.67487">
        <ele>282.01111</ele>
        <time>2022-09-27T12:18:50.000Z</time>
      </trkpt>
      <trkpt lat="45.84687" lon="4.67481">
        <ele>282.20831</ele>
        <time>2022-09-27T12:18:51.000Z</time>
      </trkpt>
      <trkpt lat="45.8469" lon="4.67474">
        <ele>282.29227</ele>
        <time>2022-09-27T12:18:52.000Z</time>
      </trkpt>
      <trkpt lat="45.84696" lon="4.67468">
        <ele>282.27887</ele>
        <time>2022-09-27T12:18:53.000Z</time>
      </trkpt>
      <trkpt lat="45.84703" lon="4.67465">
        <ele>282.29745</ele>
        <time>2022-09-27T12:18:54.000Z</time>
      </trkpt>
      <trkpt lat="45.84709" lon="4.67464">
        <ele>282.28192</ele>
        <time>2022-09-27T12:18:55.000Z</time>
      </trkpt>
      <trkpt lat="45.84716" lon="4.67463">
        <ele>282.32346</ele>
        <time>2022-09-27T12:18:56.000Z</time>
      </trkpt>
      <trkpt lat="45.84723" lon="4.67462">
        <ele>282.33893</ele>
        <time>2022-09-27T12:18:57.000Z</time>
      </trkpt>
      <trkpt lat="45.84729" lon="4.67462">
        <ele>282.24292</ele>
        <time>2022-09-27T12:18:58.000Z</time>
      </trkpt>
      <trkpt lat="45.84735" lon="4.6746">
        <ele>282.17313</ele>
        <time>2022-09-27T12:18:59.000Z</time>
      </trkpt>
      <trkpt lat="45.84741" lon="4.67458">
        <ele>282.13376</ele>
        <time>2022-09-27T12:19:00.000Z</time>
      </trkpt>
      <trkpt lat="45.84748" lon="4.67457">
        <ele>282.03986</ele>
        <time>2022-09-27T12:19:01.000Z</time>
      </trkpt>
      <trkpt lat="45.84754" lon="4.67455">
        <ele>282.09506</ele>
        <time>2022-09-27T12:19:02.000Z</time>
      </trkpt>
      <trkpt lat="45.84761" lon="4.67454">
        <ele>282.09332</ele>
        <time>2022-09-27T12:19:03.000Z</time>
      </trkpt>
      <trkpt lat="45.84767" lon="4.67454">
        <ele>282.03113</ele>
        <time>2022-09-27T12:19:04.000Z</time>
      </trkpt>
      <trkpt lat="45.84773" lon="4.67454">
        <ele>281.87286</ele>
        <time>2022-09-27T12:19:05.000Z</time>
      </trkpt>
      <trkpt lat="45.84779" lon="4.67453">
        <ele>281.63168</ele>
        <time>2022-09-27T12:19:06.000Z</time>
      </trkpt>
      <trkpt lat="45.84785" lon="4.67453">
        <ele>281.41275</ele>
        <time>2022-09-27T12:19:07.000Z</time>
      </trkpt>
      <trkpt lat="45.8479" lon="4.67452">
        <ele>281.19766</ele>
        <time>2022-09-27T12:19:08.000Z</time>
      </trkpt>
      <trkpt lat="45.84796" lon="4.67451">
        <ele>281.10849</ele>
        <time>2022-09-27T12:19:09.000Z</time>
      </trkpt>
      <trkpt lat="45.84802" lon="4.6745">
        <ele>281.16888</ele>
        <time>2022-09-27T12:19:10.000Z</time>
      </trkpt>
      <trkpt lat="45.84808" lon="4.6745">
        <ele>281.23709</ele>
        <time>2022-09-27T12:19:11.000Z</time>
      </trkpt>
      <trkpt lat="45.84814" lon="4.6745">
        <ele>281.31522</ele>
        <time>2022-09-27T12:19:12.000Z</time>
      </trkpt>
      <trkpt lat="45.84821" lon="4.67451">
        <ele>281.34918</ele>
        <time>2022-09-27T12:19:13.000Z</time>
      </trkpt>
      <trkpt lat="45.84827" lon="4.6745">
        <ele>281.33777</ele>
        <time>2022-09-27T12:19:14.000Z</time>
      </trkpt>
      <trkpt lat="45.84832" lon="4.6745">
        <ele>281.23767</ele>
        <time>2022-09-27T12:19:15.000Z</time>
      </trkpt>
      <trkpt lat="45.8484" lon="4.67451">
        <ele>280.98761</ele>
        <time>2022-09-27T12:19:16.000Z</time>
      </trkpt>
      <trkpt lat="45.84845" lon="4.67451">
        <ele>280.70505</ele>
        <time>2022-09-27T12:19:17.000Z</time>
      </trkpt>
      <trkpt lat="45.84852" lon="4.67451">
        <ele>280.41229</ele>
        <time>2022-09-27T12:19:18.000Z</time>
      </trkpt>
      <trkpt lat="45.84857" lon="4.67451">
        <ele>280.06622</ele>
        <time>2022-09-27T12:19:19.000Z</time>
      </trkpt>
      <trkpt lat="45.84862" lon="4.6745">
        <ele>279.6633</ele>
        <time>2022-09-27T12:19:20.000Z</time>
      </trkpt>
      <trkpt lat="45.84868" lon="4.67449">
        <ele>279.32269</ele>
        <time>2022-09-27T12:19:21.000Z</time>
      </trkpt>
      <trkpt lat="45.84874" lon="4.6745">
        <ele>278.789</ele>
        <time>2022-09-27T12:19:22.000Z</time>
      </trkpt>
      <trkpt lat="45.84879" lon="4.67449">
        <ele>278.3653</ele>
        <time>2022-09-27T12:19:23.000Z</time>
      </trkpt>
      <trkpt lat="45.84885" lon="4.67448">
        <ele>277.9938</ele>
        <time>2022-09-27T12:19:24.000Z</time>
      </trkpt>
      <trkpt lat="45.84891" lon="4.67446">
        <ele>277.65649</ele>
        <time>2022-09-27T12:19:25.000Z</time>
      </trkpt>
      <trkpt lat="45.84898" lon="4.67448">
        <ele>277.29901</ele>
        <time>2022-09-27T12:19:26.000Z</time>
      </trkpt>
      <trkpt lat="45.84904" lon="4.67446">
        <ele>276.98172</ele>
        <time>2022-09-27T12:19:27.000Z</time>
      </trkpt>
      <trkpt lat="45.8491" lon="4.67444">
        <ele>276.70944</ele>
        <time>2022-09-27T12:19:28.000Z</time>
      </trkpt>
      <trkpt lat="45.84916" lon="4.67442">
        <ele>276.33832</ele>
        <time>2022-09-27T12:19:29.000Z</time>
      </trkpt>
      <trkpt lat="45.84922" lon="4.67442">
        <ele>275.94766</ele>
        <time>2022-09-27T12:19:30.000Z</time>
      </trkpt>
      <trkpt lat="45.84928" lon="4.67442">
        <ele>275.68121</ele>
        <time>2022-09-27T12:19:31.000Z</time>
      </trkpt>
      <trkpt lat="45.84934" lon="4.67441">
        <ele>275.44553</ele>
        <time>2022-09-27T12:19:32.000Z</time>
      </trkpt>
      <trkpt lat="45.8494" lon="4.6744">
        <ele>275.42627</ele>
        <time>2022-09-27T12:19:33.000Z</time>
      </trkpt>
      <trkpt lat="45.84945" lon="4.67442">
        <ele>275.36691</ele>
        <time>2022-09-27T12:19:34.000Z</time>
      </trkpt>
      <trkpt lat="45.8495" lon="4.67444">
        <ele>275.32806</ele>
        <time>2022-09-27T12:19:35.000Z</time>
      </trkpt>
      <trkpt lat="45.84956" lon="4.67442">
        <ele>275.42938</ele>
        <time>2022-09-27T12:19:36.000Z</time>
      </trkpt>
      <trkpt lat="45.84961" lon="4.67439">
        <ele>275.5116</ele>
        <time>2022-09-27T12:19:37.000Z</time>
      </trkpt>
      <trkpt lat="45.84967" lon="4.67436">
        <ele>275.73398</ele>
        <time>2022-09-27T12:19:38.000Z</time>
      </trkpt>
      <trkpt lat="45.84973" lon="4.67434">
        <ele>275.97781</ele>
        <time>2022-09-27T12:19:39.000Z</time>
      </trkpt>
      <trkpt lat="45.84979" lon="4.67434">
        <ele>276.21893</ele>
        <time>2022-09-27T12:19:40.000Z</time>
      </trkpt>
      <trkpt lat="45.84984" lon="4.67433">
        <ele>276.39307</ele>
        <time>2022-09-27T12:19:41.000Z</time>
      </trkpt>
      <trkpt lat="45.84989" lon="4.67432">
        <ele>276.73291</ele>
        <time>2022-09-27T12:19:42.000Z</time>
      </trkpt>
      <trkpt lat="45.84994" lon="4.67431">
        <ele>277.00458</ele>
        <time>2022-09-27T12:19:43.000Z</time>
      </trkpt>
      <trkpt lat="45.85" lon="4.67432">
        <ele>277.25662</ele>
        <time>2022-09-27T12:19:44.000Z</time>
      </trkpt>
      <trkpt lat="45.85005" lon="4.67431">
        <ele>277.46161</ele>
        <time>2022-09-27T12:19:45.000Z</time>
      </trkpt>
      <trkpt lat="45.85011" lon="4.67431">
        <ele>277.68179</ele>
        <time>2022-09-27T12:19:46.000Z</time>
      </trkpt>
      <trkpt lat="45.85017" lon="4.67428">
        <ele>277.84521</ele>
        <time>2022-09-27T12:19:47.000Z</time>
      </trkpt>
      <trkpt lat="45.85022" lon="4.67426">
        <ele>278.00409</ele>
        <time>2022-09-27T12:19:48.000Z</time>
      </trkpt>
      <trkpt lat="45.85026" lon="4.67423">
        <ele>278.15906</ele>
        <time>2022-09-27T12:19:49.000Z</time>
      </trkpt>
      <trkpt lat="45.85031" lon="4.67421">
        <ele>278.31757</ele>
        <time>2022-09-27T12:19:50.000Z</time>
      </trkpt>
      <trkpt lat="45.85037" lon="4.6742">
        <ele>278.38831</ele>
        <time>2022-09-27T12:19:51.000Z</time>
      </trkpt>
      <trkpt lat="45.85043" lon="4.67415">
        <ele>278.55334</ele>
        <time>2022-09-27T12:19:52.000Z</time>
      </trkpt>
      <trkpt lat="45.8505" lon="4.67414">
        <ele>278.44354</ele>
        <time>2022-09-27T12:19:53.000Z</time>
      </trkpt>
      <trkpt lat="45.85055" lon="4.6741">
        <ele>278.4581</ele>
        <time>2022-09-27T12:19:54.000Z</time>
      </trkpt>
      <trkpt lat="45.85062" lon="4.67405">
        <ele>278.45621</ele>
        <time>2022-09-27T12:19:55.000Z</time>
      </trkpt>
      <trkpt lat="45.85068" lon="4.674">
        <ele>278.5191</ele>
        <time>2022-09-27T12:19:56.000Z</time>
      </trkpt>
      <trkpt lat="45.85074" lon="4.67396">
        <ele>278.62607</ele>
        <time>2022-09-27T12:19:57.000Z</time>
      </trkpt>
      <trkpt lat="45.85081" lon="4.67394">
        <ele>278.57886</ele>
        <time>2022-09-27T12:19:58.000Z</time>
      </trkpt>
      <trkpt lat="45.85088" lon="4.67388">
        <ele>278.54617</ele>
        <time>2022-09-27T12:19:59.000Z</time>
      </trkpt>
      <trkpt lat="45.85095" lon="4.67385">
        <ele>278.54337</ele>
        <time>2022-09-27T12:20:00.000Z</time>
      </trkpt>
      <trkpt lat="45.85101" lon="4.67382">
        <ele>278.52292</ele>
        <time>2022-09-27T12:20:01.000Z</time>
      </trkpt>
      <trkpt lat="45.85108" lon="4.67377">
        <ele>278.40466</ele>
        <time>2022-09-27T12:20:02.000Z</time>
      </trkpt>
      <trkpt lat="45.85114" lon="4.67372">
        <ele>278.27438</ele>
        <time>2022-09-27T12:20:03.000Z</time>
      </trkpt>
      <trkpt lat="45.8512" lon="4.67367">
        <ele>278.09229</ele>
        <time>2022-09-27T12:20:04.000Z</time>
      </trkpt>
      <trkpt lat="45.85125" lon="4.67363">
        <ele>277.88568</ele>
        <time>2022-09-27T12:20:05.000Z</time>
      </trkpt>
      <trkpt lat="45.8513" lon="4.67357">
        <ele>277.6665</ele>
        <time>2022-09-27T12:20:06.000Z</time>
      </trkpt>
      <trkpt lat="45.85137" lon="4.67352">
        <ele>277.41718</ele>
        <time>2022-09-27T12:20:07.000Z</time>
      </trkpt>
      <trkpt lat="45.85143" lon="4.67348">
        <ele>277.09784</ele>
        <time>2022-09-27T12:20:08.000Z</time>
      </trkpt>
      <trkpt lat="45.8515" lon="4.67344">
        <ele>276.89343</ele>
        <time>2022-09-27T12:20:09.000Z</time>
      </trkpt>
      <trkpt lat="45.85155" lon="4.67343">
        <ele>276.57721</ele>
        <time>2022-09-27T12:20:10.000Z</time>
      </trkpt>
      <trkpt lat="45.85161" lon="4.67339">
        <ele>276.28476</ele>
        <time>2022-09-27T12:20:11.000Z</time>
      </trkpt>
      <trkpt lat="45.85167" lon="4.67337">
        <ele>275.93552</ele>
        <time>2022-09-27T12:20:12.000Z</time>
      </trkpt>
      <trkpt lat="45.85172" lon="4.67333">
        <ele>275.74704</ele>
        <time>2022-09-27T12:20:13.000Z</time>
      </trkpt>
      <trkpt lat="45.85178" lon="4.67329">
        <ele>275.49026</ele>
        <time>2022-09-27T12:20:14.000Z</time>
      </trkpt>
      <trkpt lat="45.85183" lon="4.67326">
        <ele>275.30435</ele>
        <time>2022-09-27T12:20:15.000Z</time>
      </trkpt>
      <trkpt lat="45.85188" lon="4.67324">
        <ele>275.03961</ele>
        <time>2022-09-27T12:20:16.000Z</time>
      </trkpt>
      <trkpt lat="45.85193" lon="4.67321">
        <ele>274.77386</ele>
        <time>2022-09-27T12:20:17.000Z</time>
      </trkpt>
      <trkpt lat="45.85198" lon="4.67318">
        <ele>274.56482</ele>
        <time>2022-09-27T12:20:18.000Z</time>
      </trkpt>
      <trkpt lat="45.85202" lon="4.6732">
        <ele>274.28491</ele>
        <time>2022-09-27T12:20:19.000Z</time>
      </trkpt>
      <trkpt lat="45.85207" lon="4.67322">
        <ele>273.97427</ele>
        <time>2022-09-27T12:20:20.000Z</time>
      </trkpt>
      <trkpt lat="45.85208" lon="4.67326">
        <ele>273.68808</ele>
        <time>2022-09-27T12:20:21.000Z</time>
      </trkpt>
      <trkpt lat="45.8521" lon="4.67329">
        <ele>273.47253</ele>
        <time>2022-09-27T12:20:22.000Z</time>
      </trkpt>
      <trkpt lat="45.85212" lon="4.67332">
        <ele>273.20343</ele>
        <time>2022-09-27T12:20:23.000Z</time>
      </trkpt>
      <trkpt lat="45.85214" lon="4.67337">
        <ele>272.90558</ele>
        <time>2022-09-27T12:20:24.000Z</time>
      </trkpt>
      <trkpt lat="45.85216" lon="4.67341">
        <ele>272.62311</ele>
        <time>2022-09-27T12:20:25.000Z</time>
      </trkpt>
      <trkpt lat="45.85219" lon="4.67345">
        <ele>272.37943</ele>
        <time>2022-09-27T12:20:26.000Z</time>
      </trkpt>
      <trkpt lat="45.8522" lon="4.67348">
        <ele>272.18179</ele>
        <time>2022-09-27T12:20:27.000Z</time>
      </trkpt>
      <trkpt lat="45.85225" lon="4.67349">
        <ele>271.98511</ele>
        <time>2022-09-27T12:20:28.000Z</time>
      </trkpt>
      <trkpt lat="45.85229" lon="4.6735">
        <ele>271.68939</ele>
        <time>2022-09-27T12:20:29.000Z</time>
      </trkpt>
      <trkpt lat="45.85232" lon="4.6735">
        <ele>271.47244</ele>
        <time>2022-09-27T12:20:30.000Z</time>
      </trkpt>
      <trkpt lat="45.85235" lon="4.6735">
        <ele>271.25922</ele>
        <time>2022-09-27T12:20:31.000Z</time>
      </trkpt>
      <trkpt lat="45.85238" lon="4.67349">
        <ele>271.07309</ele>
        <time>2022-09-27T12:20:32.000Z</time>
      </trkpt>
      <trkpt lat="45.85241" lon="4.67348">
        <ele>270.92059</ele>
        <time>2022-09-27T12:20:33.000Z</time>
      </trkpt>
      <trkpt lat="45.85244" lon="4.67346">
        <ele>270.76837</ele>
        <time>2022-09-27T12:20:34.000Z</time>
      </trkpt>
      <trkpt lat="45.85247" lon="4.67346">
        <ele>270.68509</ele>
        <time>2022-09-27T12:20:35.000Z</time>
      </trkpt>
      <trkpt lat="45.85251" lon="4.67343">
        <ele>270.6391</ele>
        <time>2022-09-27T12:20:36.000Z</time>
      </trkpt>
      <trkpt lat="45.85254" lon="4.67341">
        <ele>270.63141</ele>
        <time>2022-09-27T12:20:37.000Z</time>
      </trkpt>
      <trkpt lat="45.85257" lon="4.67338">
        <ele>270.59222</ele>
        <time>2022-09-27T12:20:38.000Z</time>
      </trkpt>
      <trkpt lat="45.85261" lon="4.67336">
        <ele>270.61801</ele>
        <time>2022-09-27T12:20:39.000Z</time>
      </trkpt>
      <trkpt lat="45.85265" lon="4.67334">
        <ele>270.55753</ele>
        <time>2022-09-27T12:20:40.000Z</time>
      </trkpt>
      <trkpt lat="45.85269" lon="4.67333">
        <ele>270.55432</ele>
        <time>2022-09-27T12:20:41.000Z</time>
      </trkpt>
      <trkpt lat="45.85272" lon="4.67332">
        <ele>270.40002</ele>
        <time>2022-09-27T12:20:42.000Z</time>
      </trkpt>
      <trkpt lat="45.85275" lon="4.6733">
        <ele>270.30151</ele>
        <time>2022-09-27T12:20:43.000Z</time>
      </trkpt>
      <trkpt lat="45.85278" lon="4.67329">
        <ele>270.35455</ele>
        <time>2022-09-27T12:20:44.000Z</time>
      </trkpt>
      <trkpt lat="45.85281" lon="4.67327">
        <ele>270.44684</ele>
        <time>2022-09-27T12:20:45.000Z</time>
      </trkpt>
      <trkpt lat="45.85284" lon="4.67324">
        <ele>270.54413</ele>
        <time>2022-09-27T12:20:46.000Z</time>
      </trkpt>
      <trkpt lat="45.85285" lon="4.67321">
        <ele>270.66977</ele>
        <time>2022-09-27T12:20:47.000Z</time>
      </trkpt>
      <trkpt lat="45.85286" lon="4.67316">
        <ele>270.79764</ele>
        <time>2022-09-27T12:20:48.000Z</time>
      </trkpt>
      <trkpt lat="45.85286" lon="4.67311">
        <ele>270.93948</ele>
        <time>2022-09-27T12:20:49.000Z</time>
      </trkpt>
      <trkpt lat="45.85285" lon="4.67305">
        <ele>271.02319</ele>
        <time>2022-09-27T12:20:50.000Z</time>
      </trkpt>
      <trkpt lat="45.85284" lon="4.67299">
        <ele>271.05399</ele>
        <time>2022-09-27T12:20:51.000Z</time>
      </trkpt>
      <trkpt lat="45.85283" lon="4.67294">
        <ele>270.98883</ele>
        <time>2022-09-27T12:20:52.000Z</time>
      </trkpt>
      <trkpt lat="45.85282" lon="4.67289">
        <ele>270.88904</ele>
        <time>2022-09-27T12:20:53.000Z</time>
      </trkpt>
      <trkpt lat="45.85281" lon="4.67284">
        <ele>270.80984</ele>
        <time>2022-09-27T12:20:54.000Z</time>
      </trkpt>
      <trkpt lat="45.85281" lon="4.67278">
        <ele>270.58038</ele>
        <time>2022-09-27T12:20:55.000Z</time>
      </trkpt>
      <trkpt lat="45.8528" lon="4.67273">
        <ele>270.30621</ele>
        <time>2022-09-27T12:20:56.000Z</time>
      </trkpt>
      <trkpt lat="45.85277" lon="4.67267">
        <ele>269.99377</ele>
        <time>2022-09-27T12:20:57.000Z</time>
      </trkpt>
      <trkpt lat="45.85277" lon="4.6726">
        <ele>269.65363</ele>
        <time>2022-09-27T12:20:58.000Z</time>
      </trkpt>
      <trkpt lat="45.85276" lon="4.67252">
        <ele>269.26495</ele>
        <time>2022-09-27T12:20:59.000Z</time>
      </trkpt>
      <trkpt lat="45.85276" lon="4.67243">
        <ele>268.89453</ele>
        <time>2022-09-27T12:21:00.000Z</time>
      </trkpt>
      <trkpt lat="45.85274" lon="4.67234">
        <ele>268.39648</ele>
        <time>2022-09-27T12:21:01.000Z</time>
      </trkpt>
      <trkpt lat="45.85273" lon="4.67225">
        <ele>267.97919</ele>
        <time>2022-09-27T12:21:02.000Z</time>
      </trkpt>
      <trkpt lat="45.85273" lon="4.67214">
        <ele>267.49664</ele>
        <time>2022-09-27T12:21:03.000Z</time>
      </trkpt>
      <trkpt lat="45.85271" lon="4.67205">
        <ele>266.77655</ele>
        <time>2022-09-27T12:21:04.000Z</time>
      </trkpt>
      <trkpt lat="45.8527" lon="4.67195">
        <ele>266.07257</ele>
        <time>2022-09-27T12:21:05.000Z</time>
      </trkpt>
      <trkpt lat="45.85271" lon="4.67187">
        <ele>265.28232</ele>
        <time>2022-09-27T12:21:06.000Z</time>
      </trkpt>
      <trkpt lat="45.85271" lon="4.6718">
        <ele>264.47815</ele>
        <time>2022-09-27T12:21:07.000Z</time>
      </trkpt>
      <trkpt lat="45.8527" lon="4.67173">
        <ele>263.6528</ele>
        <time>2022-09-27T12:21:08.000Z</time>
      </trkpt>
      <trkpt lat="45.85267" lon="4.67166">
        <ele>262.79706</ele>
        <time>2022-09-27T12:21:09.000Z</time>
      </trkpt>
      <trkpt lat="45.85263" lon="4.67161">
        <ele>262.00995</ele>
        <time>2022-09-27T12:21:10.000Z</time>
      </trkpt>
      <trkpt lat="45.85259" lon="4.67156">
        <ele>261.18961</ele>
        <time>2022-09-27T12:21:11.000Z</time>
      </trkpt>
      <trkpt lat="45.85253" lon="4.67154">
        <ele>260.30829</ele>
        <time>2022-09-27T12:21:12.000Z</time>
      </trkpt>
      <trkpt lat="45.85248" lon="4.67149">
        <ele>259.42905</ele>
        <time>2022-09-27T12:21:13.000Z</time>
      </trkpt>
      <trkpt lat="45.85241" lon="4.67145">
        <ele>258.52115</ele>
        <time>2022-09-27T12:21:14.000Z</time>
      </trkpt>
      <trkpt lat="45.85234" lon="4.67141">
        <ele>257.60019</ele>
        <time>2022-09-27T12:21:15.000Z</time>
      </trkpt>
      <trkpt lat="45.85228" lon="4.67137">
        <ele>256.71661</ele>
        <time>2022-09-27T12:21:16.000Z</time>
      </trkpt>
      <trkpt lat="45.85223" lon="4.67132">
        <ele>255.71216</ele>
        <time>2022-09-27T12:21:17.000Z</time>
      </trkpt>
      <trkpt lat="45.85214" lon="4.67127">
        <ele>254.70029</ele>
        <time>2022-09-27T12:21:18.000Z</time>
      </trkpt>
      <trkpt lat="45.85207" lon="4.67121">
        <ele>253.64131</ele>
        <time>2022-09-27T12:21:19.000Z</time>
      </trkpt>
      <trkpt lat="45.85199" lon="4.67115">
        <ele>252.62582</ele>
        <time>2022-09-27T12:21:20.000Z</time>
      </trkpt>
      <trkpt lat="45.85191" lon="4.67109">
        <ele>251.62944</ele>
        <time>2022-09-27T12:21:21.000Z</time>
      </trkpt>
      <trkpt lat="45.85183" lon="4.67104">
        <ele>250.64963</ele>
        <time>2022-09-27T12:21:22.000Z</time>
      </trkpt>
      <trkpt lat="45.85175" lon="4.67098">
        <ele>249.71793</ele>
        <time>2022-09-27T12:21:23.000Z</time>
      </trkpt>
      <trkpt lat="45.85167" lon="4.67094">
        <ele>248.93692</ele>
        <time>2022-09-27T12:21:24.000Z</time>
      </trkpt>
      <trkpt lat="45.85135" lon="4.67077">
        <ele>248.04256</ele>
        <time>2022-09-27T12:21:29.000Z</time>
      </trkpt>
      <trkpt lat="45.85134" lon="4.6708">
        <ele>247.08823</ele>
        <time>2022-09-27T12:21:30.000Z</time>
      </trkpt>
      <trkpt lat="45.85129" lon="4.67078">
        <ele>246.13155</ele>
        <time>2022-09-27T12:21:31.000Z</time>
      </trkpt>
      <trkpt lat="45.85126" lon="4.67076">
        <ele>245.29782</ele>
        <time>2022-09-27T12:21:32.000Z</time>
      </trkpt>
      <trkpt lat="45.85121" lon="4.67074">
        <ele>244.52385</ele>
        <time>2022-09-27T12:21:33.000Z</time>
      </trkpt>
      <trkpt lat="45.85118" lon="4.67071">
        <ele>243.81767</ele>
        <time>2022-09-27T12:21:34.000Z</time>
      </trkpt>
      <trkpt lat="45.8512" lon="4.67066">
        <ele>243.16472</ele>
        <time>2022-09-27T12:21:35.000Z</time>
      </trkpt>
      <trkpt lat="45.8512" lon="4.67062">
        <ele>242.56763</ele>
        <time>2022-09-27T12:21:36.000Z</time>
      </trkpt>
      <trkpt lat="45.8512" lon="4.67057">
        <ele>241.72464</ele>
        <time>2022-09-27T12:21:37.000Z</time>
      </trkpt>
      <trkpt lat="45.85122" lon="4.67054">
        <ele>240.91953</ele>
        <time>2022-09-27T12:21:38.000Z</time>
      </trkpt>
      <trkpt lat="45.85125" lon="4.67051">
        <ele>240.15506</ele>
        <time>2022-09-27T12:21:39.000Z</time>
      </trkpt>
      <trkpt lat="45.85127" lon="4.67048">
        <ele>239.37871</ele>
        <time>2022-09-27T12:21:40.000Z</time>
      </trkpt>
      <trkpt lat="45.85129" lon="4.67043">
        <ele>238.73128</ele>
        <time>2022-09-27T12:21:41.000Z</time>
      </trkpt>
      <trkpt lat="45.85131" lon="4.6704">
        <ele>238.0488</ele>
        <time>2022-09-27T12:21:42.000Z</time>
      </trkpt>
      <trkpt lat="45.85133" lon="4.67037">
        <ele>237.44402</ele>
        <time>2022-09-27T12:21:43.000Z</time>
      </trkpt>
      <trkpt lat="45.85136" lon="4.67034">
        <ele>236.79544</ele>
        <time>2022-09-27T12:21:44.000Z</time>
      </trkpt>
      <trkpt lat="45.85138" lon="4.67032">
        <ele>236.15292</ele>
        <time>2022-09-27T12:21:45.000Z</time>
      </trkpt>
      <trkpt lat="45.85141" lon="4.6703">
        <ele>235.49576</ele>
        <time>2022-09-27T12:21:46.000Z</time>
      </trkpt>
      <trkpt lat="45.85143" lon="4.67029">
        <ele>234.80762</ele>
        <time>2022-09-27T12:21:47.000Z</time>
      </trkpt>
      <trkpt lat="45.85146" lon="4.67028">
        <ele>234.05478</ele>
        <time>2022-09-27T12:21:48.000Z</time>
      </trkpt>
      <trkpt lat="45.85149" lon="4.67028">
        <ele>233.37613</ele>
        <time>2022-09-27T12:21:49.000Z</time>
      </trkpt>
      <trkpt lat="45.85152" lon="4.67028">
        <ele>232.81192</ele>
        <time>2022-09-27T12:21:50.000Z</time>
      </trkpt>
      <trkpt lat="45.85154" lon="4.67029">
        <ele>232.25439</ele>
        <time>2022-09-27T12:21:51.000Z</time>
      </trkpt>
      <trkpt lat="45.85157" lon="4.67029">
        <ele>231.6665</ele>
        <time>2022-09-27T12:21:52.000Z</time>
      </trkpt>
      <trkpt lat="45.8516" lon="4.67029">
        <ele>231.03674</ele>
        <time>2022-09-27T12:21:53.000Z</time>
      </trkpt>
      <trkpt lat="45.85162" lon="4.67029">
        <ele>230.34427</ele>
        <time>2022-09-27T12:21:54.000Z</time>
      </trkpt>
      <trkpt lat="45.85165" lon="4.6703">
        <ele>229.59509</ele>
        <time>2022-09-27T12:21:55.000Z</time>
      </trkpt>
      <trkpt lat="45.85169" lon="4.6703">
        <ele>228.87216</ele>
        <time>2022-09-27T12:21:56.000Z</time>
      </trkpt>
      <trkpt lat="45.85172" lon="4.67031">
        <ele>228.39926</ele>
        <time>2022-09-27T12:21:57.000Z</time>
      </trkpt>
      <trkpt lat="45.85175" lon="4.67033">
        <ele>227.93576</ele>
        <time>2022-09-27T12:21:58.000Z</time>
      </trkpt>
      <trkpt lat="45.85179" lon="4.67034">
        <ele>227.43921</ele>
        <time>2022-09-27T12:21:59.000Z</time>
      </trkpt>
      <trkpt lat="45.85182" lon="4.67036">
        <ele>226.96294</ele>
        <time>2022-09-27T12:22:00.000Z</time>
      </trkpt>
      <trkpt lat="45.85186" lon="4.67037">
        <ele>226.49332</ele>
        <time>2022-09-27T12:22:01.000Z</time>
      </trkpt>
      <trkpt lat="45.85189" lon="4.67037">
        <ele>226.15813</ele>
        <time>2022-09-27T12:22:02.000Z</time>
      </trkpt>
      <trkpt lat="45.85191" lon="4.67037">
        <ele>225.81479</ele>
        <time>2022-09-27T12:22:03.000Z</time>
      </trkpt>
      <trkpt lat="45.85193" lon="4.67037">
        <ele>225.57413</ele>
        <time>2022-09-27T12:22:04.000Z</time>
      </trkpt>
      <trkpt lat="45.85195" lon="4.67036">
        <ele>225.38249</ele>
        <time>2022-09-27T12:22:05.000Z</time>
      </trkpt>
      <trkpt lat="45.85197" lon="4.67036">
        <ele>225.14554</ele>
        <time>2022-09-27T12:22:06.000Z</time>
      </trkpt>
      <trkpt lat="45.852" lon="4.67036">
        <ele>224.9512</ele>
        <time>2022-09-27T12:22:07.000Z</time>
      </trkpt>
      <trkpt lat="45.85203" lon="4.67036">
        <ele>224.74228</ele>
        <time>2022-09-27T12:22:08.000Z</time>
      </trkpt>
      <trkpt lat="45.85205" lon="4.67035">
        <ele>224.56589</ele>
        <time>2022-09-27T12:22:09.000Z</time>
      </trkpt>
      <trkpt lat="45.85208" lon="4.67036">
        <ele>224.42729</ele>
        <time>2022-09-27T12:22:11.000Z</time>
      </trkpt>
      <trkpt lat="45.85207" lon="4.67038">
        <ele>224.23178</ele>
        <time>2022-09-27T12:22:23.000Z</time>
      </trkpt>
      <trkpt lat="45.85208" lon="4.67036">
        <ele>224.15701</ele>
        <time>2022-09-27T12:23:09.000Z</time>
      </trkpt>
      <trkpt lat="45.85207" lon="4.67033">
        <ele>224.1907</ele>
        <time>2022-09-27T12:23:22.000Z</time>
      </trkpt>
      <trkpt lat="45.85208" lon="4.67036">
        <ele>224.2782</ele>
        <time>2022-09-27T12:24:00.000Z</time>
      </trkpt>
      <trkpt lat="45.8521" lon="4.67034">
        <ele>224.49643</ele>
        <time>2022-09-27T12:24:57.000Z</time>
      </trkpt>
      <trkpt lat="45.85213" lon="4.67034">
        <ele>224.79221</ele>
        <time>2022-09-27T12:24:58.000Z</time>
      </trkpt>
      <trkpt lat="45.85216" lon="4.67035">
        <ele>225.08826</ele>
        <time>2022-09-27T12:24:59.000Z</time>
      </trkpt>
      <trkpt lat="45.8522" lon="4.67035">
        <ele>225.4257</ele>
        <time>2022-09-27T12:25:00.000Z</time>
      </trkpt>
      <trkpt lat="45.85224" lon="4.67035">
        <ele>225.75894</ele>
        <time>2022-09-27T12:25:01.000Z</time>
      </trkpt>
      <trkpt lat="45.85228" lon="4.67036">
        <ele>226.07446</ele>
        <time>2022-09-27T12:25:02.000Z</time>
      </trkpt>
      <trkpt lat="45.85232" lon="4.67036">
        <ele>226.38347</ele>
        <time>2022-09-27T12:25:03.000Z</time>
      </trkpt>
      <trkpt lat="45.8524" lon="4.67036">
        <ele>226.6001</ele>
        <time>2022-09-27T12:25:04.000Z</time>
      </trkpt>
      <trkpt lat="45.85246" lon="4.67037">
        <ele>226.80588</ele>
        <time>2022-09-27T12:25:05.000Z</time>
      </trkpt>
      <trkpt lat="45.85251" lon="4.67035">
        <ele>226.95158</ele>
        <time>2022-09-27T12:25:06.000Z</time>
      </trkpt>
      <trkpt lat="45.85255" lon="4.67035">
        <ele>227.04549</ele>
        <time>2022-09-27T12:25:07.000Z</time>
      </trkpt>
      <trkpt lat="45.85262" lon="4.67035">
        <ele>227.1617</ele>
        <time>2022-09-27T12:25:08.000Z</time>
      </trkpt>
      <trkpt lat="45.85267" lon="4.67033">
        <ele>227.33028</ele>
        <time>2022-09-27T12:25:09.000Z</time>
      </trkpt>
      <trkpt lat="45.85273" lon="4.67031">
        <ele>227.53702</ele>
        <time>2022-09-27T12:25:10.000Z</time>
      </trkpt>
      <trkpt lat="45.85279" lon="4.67031">
        <ele>227.54544</ele>
        <time>2022-09-27T12:25:11.000Z</time>
      </trkpt>
      <trkpt lat="45.85286" lon="4.6703">
        <ele>227.42253</ele>
        <time>2022-09-27T12:25:12.000Z</time>
      </trkpt>
      <trkpt lat="45.85293" lon="4.67027">
        <ele>227.33072</ele>
        <time>2022-09-27T12:25:13.000Z</time>
      </trkpt>
      <trkpt lat="45.853" lon="4.67026">
        <ele>227.12737</ele>
        <time>2022-09-27T12:25:14.000Z</time>
      </trkpt>
      <trkpt lat="45.85307" lon="4.67024">
        <ele>226.85051</ele>
        <time>2022-09-27T12:25:15.000Z</time>
      </trkpt>
      <trkpt lat="45.85314" lon="4.67023">
        <ele>226.36259</ele>
        <time>2022-09-27T12:25:16.000Z</time>
      </trkpt>
      <trkpt lat="45.85321" lon="4.67019">
        <ele>225.85017</ele>
        <time>2022-09-27T12:25:17.000Z</time>
      </trkpt>
      <trkpt lat="45.85328" lon="4.67017">
        <ele>225.26797</ele>
        <time>2022-09-27T12:25:18.000Z</time>
      </trkpt>
      <trkpt lat="45.85335" lon="4.67013">
        <ele>224.67265</ele>
        <time>2022-09-27T12:25:19.000Z</time>
      </trkpt>
      <trkpt lat="45.85343" lon="4.67011">
        <ele>223.99617</ele>
        <time>2022-09-27T12:25:20.000Z</time>
      </trkpt>
      <trkpt lat="45.85349" lon="4.67007">
        <ele>223.32674</ele>
        <time>2022-09-27T12:25:21.000Z</time>
      </trkpt>
      <trkpt lat="45.85355" lon="4.67001">
        <ele>222.67471</ele>
        <time>2022-09-27T12:25:22.000Z</time>
      </trkpt>
      <trkpt lat="45.85361" lon="4.66997">
        <ele>222.06511</ele>
        <time>2022-09-27T12:25:23.000Z</time>
      </trkpt>
      <trkpt lat="45.85367" lon="4.66993">
        <ele>221.49187</ele>
        <time>2022-09-27T12:25:24.000Z</time>
      </trkpt>
      <trkpt lat="45.85371" lon="4.66986">
        <ele>220.96835</ele>
        <time>2022-09-27T12:25:25.000Z</time>
      </trkpt>
      <trkpt lat="45.85377" lon="4.66981">
        <ele>220.4677</ele>
        <time>2022-09-27T12:25:26.000Z</time>
      </trkpt>
      <trkpt lat="45.85384" lon="4.66977">
        <ele>219.97334</ele>
        <time>2022-09-27T12:25:27.000Z</time>
      </trkpt>
      <trkpt lat="45.85392" lon="4.66975">
        <ele>219.43552</ele>
        <time>2022-09-27T12:25:28.000Z</time>
      </trkpt>
      <trkpt lat="45.85399" lon="4.66971">
        <ele>218.82588</ele>
        <time>2022-09-27T12:25:29.000Z</time>
      </trkpt>
      <trkpt lat="45.85406" lon="4.66969">
        <ele>218.31599</ele>
        <time>2022-09-27T12:25:30.000Z</time>
      </trkpt>
      <trkpt lat="45.85414" lon="4.66968">
        <ele>217.92111</ele>
        <time>2022-09-27T12:25:31.000Z</time>
      </trkpt>
      <trkpt lat="45.85421" lon="4.66967">
        <ele>217.48618</ele>
        <time>2022-09-27T12:25:32.000Z</time>
      </trkpt>
      <trkpt lat="45.85428" lon="4.66968">
        <ele>217.04984</ele>
        <time>2022-09-27T12:25:33.000Z</time>
      </trkpt>
      <trkpt lat="45.85436" lon="4.66969">
        <ele>216.54492</ele>
        <time>2022-09-27T12:25:34.000Z</time>
      </trkpt>
      <trkpt lat="45.85442" lon="4.6697">
        <ele>215.99362</ele>
        <time>2022-09-27T12:25:35.000Z</time>
      </trkpt>
      <trkpt lat="45.8545" lon="4.66972">
        <ele>215.5146</ele>
        <time>2022-09-27T12:25:36.000Z</time>
      </trkpt>
      <trkpt lat="45.85458" lon="4.66973">
        <ele>215.0024</ele>
        <time>2022-09-27T12:25:37.000Z</time>
      </trkpt>
      <trkpt lat="45.85466" lon="4.6697">
        <ele>214.60889</ele>
        <time>2022-09-27T12:25:38.000Z</time>
      </trkpt>
      <trkpt lat="45.85472" lon="4.66969">
        <ele>214.2664</ele>
        <time>2022-09-27T12:25:39.000Z</time>
      </trkpt>
      <trkpt lat="45.85479" lon="4.66966">
        <ele>213.96941</ele>
        <time>2022-09-27T12:25:40.000Z</time>
      </trkpt>
      <trkpt lat="45.85486" lon="4.66965">
        <ele>213.74612</ele>
        <time>2022-09-27T12:25:41.000Z</time>
      </trkpt>
      <trkpt lat="45.85493" lon="4.66963">
        <ele>213.53125</ele>
        <time>2022-09-27T12:25:42.000Z</time>
      </trkpt>
      <trkpt lat="45.855" lon="4.66961">
        <ele>213.28128</ele>
        <time>2022-09-27T12:25:43.000Z</time>
      </trkpt>
      <trkpt lat="45.85507" lon="4.6696">
        <ele>213.03159</ele>
        <time>2022-09-27T12:25:44.000Z</time>
      </trkpt>
      <trkpt lat="45.85512" lon="4.66959">
        <ele>212.74268</ele>
        <time>2022-09-27T12:25:45.000Z</time>
      </trkpt>
      <trkpt lat="45.8552" lon="4.66958">
        <ele>212.37923</ele>
        <time>2022-09-27T12:25:46.000Z</time>
      </trkpt>
      <trkpt lat="45.85525" lon="4.66957">
        <ele>212.06247</ele>
        <time>2022-09-27T12:25:47.000Z</time>
      </trkpt>
      <trkpt lat="45.85531" lon="4.66957">
        <ele>211.83195</ele>
        <time>2022-09-27T12:25:48.000Z</time>
      </trkpt>
      <trkpt lat="45.85539" lon="4.66957">
        <ele>211.57268</ele>
        <time>2022-09-27T12:25:49.000Z</time>
      </trkpt>
      <trkpt lat="45.85543" lon="4.66957">
        <ele>211.23108</ele>
        <time>2022-09-27T12:25:50.000Z</time>
      </trkpt>
      <trkpt lat="45.85548" lon="4.66955">
        <ele>210.91035</ele>
        <time>2022-09-27T12:25:51.000Z</time>
      </trkpt>
      <trkpt lat="45.85554" lon="4.66955">
        <ele>210.7336</ele>
        <time>2022-09-27T12:25:52.000Z</time>
      </trkpt>
      <trkpt lat="45.85561" lon="4.66953">
        <ele>210.55099</ele>
        <time>2022-09-27T12:25:53.000Z</time>
      </trkpt>
      <trkpt lat="45.85564" lon="4.66952">
        <ele>210.46512</ele>
        <time>2022-09-27T12:25:54.000Z</time>
      </trkpt>
      <trkpt lat="45.8557" lon="4.6695">
        <ele>210.34982</ele>
        <time>2022-09-27T12:25:55.000Z</time>
      </trkpt>
      <trkpt lat="45.85577" lon="4.6695">
        <ele>210.37454</ele>
        <time>2022-09-27T12:25:56.000Z</time>
      </trkpt>
      <trkpt lat="45.85584" lon="4.66947">
        <ele>210.38766</ele>
        <time>2022-09-27T12:25:57.000Z</time>
      </trkpt>
      <trkpt lat="45.85589" lon="4.66944">
        <ele>210.25357</ele>
        <time>2022-09-27T12:25:58.000Z</time>
      </trkpt>
      <trkpt lat="45.85595" lon="4.66942">
        <ele>210.05435</ele>
        <time>2022-09-27T12:25:59.000Z</time>
      </trkpt>
      <trkpt lat="45.856" lon="4.6694">
        <ele>209.96335</ele>
        <time>2022-09-27T12:26:00.000Z</time>
      </trkpt>
      <trkpt lat="45.85607" lon="4.66939">
        <ele>209.74776</ele>
        <time>2022-09-27T12:26:01.000Z</time>
      </trkpt>
      <trkpt lat="45.85611" lon="4.66937">
        <ele>209.51624</ele>
        <time>2022-09-27T12:26:02.000Z</time>
      </trkpt>
      <trkpt lat="45.85617" lon="4.66936">
        <ele>209.26494</ele>
        <time>2022-09-27T12:26:03.000Z</time>
      </trkpt>
      <trkpt lat="45.85621" lon="4.66935">
        <ele>209.08443</ele>
        <time>2022-09-27T12:26:04.000Z</time>
      </trkpt>
      <trkpt lat="45.85627" lon="4.66935">
        <ele>208.91165</ele>
        <time>2022-09-27T12:26:05.000Z</time>
      </trkpt>
      <trkpt lat="45.85632" lon="4.66933">
        <ele>208.80533</ele>
        <time>2022-09-27T12:26:06.000Z</time>
      </trkpt>
      <trkpt lat="45.85637" lon="4.66932">
        <ele>208.71555</ele>
        <time>2022-09-27T12:26:07.000Z</time>
      </trkpt>
      <trkpt lat="45.85642" lon="4.66931">
        <ele>208.6199</ele>
        <time>2022-09-27T12:26:08.000Z</time>
      </trkpt>
      <trkpt lat="45.85647" lon="4.66932">
        <ele>208.57881</ele>
        <time>2022-09-27T12:26:09.000Z</time>
      </trkpt>
      <trkpt lat="45.85652" lon="4.6693">
        <ele>208.57817</ele>
        <time>2022-09-27T12:26:10.000Z</time>
      </trkpt>
      <trkpt lat="45.85657" lon="4.66929">
        <ele>208.61052</ele>
        <time>2022-09-27T12:26:11.000Z</time>
      </trkpt>
      <trkpt lat="45.85663" lon="4.66927">
        <ele>208.61966</ele>
        <time>2022-09-27T12:26:12.000Z</time>
      </trkpt>
      <trkpt lat="45.85668" lon="4.66925">
        <ele>208.65662</ele>
        <time>2022-09-27T12:26:13.000Z</time>
      </trkpt>
      <trkpt lat="45.85671" lon="4.66925">
        <ele>208.64511</ele>
        <time>2022-09-27T12:26:14.000Z</time>
      </trkpt>
      <trkpt lat="45.85676" lon="4.66924">
        <ele>208.69662</ele>
        <time>2022-09-27T12:26:15.000Z</time>
      </trkpt>
      <trkpt lat="45.85681" lon="4.66923">
        <ele>208.70491</ele>
        <time>2022-09-27T12:26:16.000Z</time>
      </trkpt>
      <trkpt lat="45.85686" lon="4.66924">
        <ele>208.71078</ele>
        <time>2022-09-27T12:26:17.000Z</time>
      </trkpt>
      <trkpt lat="45.85692" lon="4.66925">
        <ele>208.76709</ele>
        <time>2022-09-27T12:26:18.000Z</time>
      </trkpt>
      <trkpt lat="45.85696" lon="4.66925">
        <ele>208.8344</ele>
        <time>2022-09-27T12:26:19.000Z</time>
      </trkpt>
      <trkpt lat="45.85701" lon="4.66926">
        <ele>208.81018</ele>
        <time>2022-09-27T12:26:20.000Z</time>
      </trkpt>
      <trkpt lat="45.85705" lon="4.66925">
        <ele>208.95699</ele>
        <time>2022-09-27T12:26:21.000Z</time>
      </trkpt>
      <trkpt lat="45.8571" lon="4.66926">
        <ele>209.18742</ele>
        <time>2022-09-27T12:26:22.000Z</time>
      </trkpt>
      <trkpt lat="45.85716" lon="4.66928">
        <ele>209.42119</ele>
        <time>2022-09-27T12:26:23.000Z</time>
      </trkpt>
      <trkpt lat="45.85721" lon="4.66931">
        <ele>209.59879</ele>
        <time>2022-09-27T12:26:24.000Z</time>
      </trkpt>
      <trkpt lat="45.85757" lon="4.66944">
        <ele>209.78232</ele>
        <time>2022-09-27T12:26:30.000Z</time>
      </trkpt>
      <trkpt lat="45.85762" lon="4.66946">
        <ele>209.96106</ele>
        <time>2022-09-27T12:26:31.000Z</time>
      </trkpt>
      <trkpt lat="45.85768" lon="4.66946">
        <ele>210.05424</ele>
        <time>2022-09-27T12:26:32.000Z</time>
      </trkpt>
      <trkpt lat="45.85775" lon="4.66946">
        <ele>210.08577</ele>
        <time>2022-09-27T12:26:33.000Z</time>
      </trkpt>
      <trkpt lat="45.8578" lon="4.66946">
        <ele>210.10352</ele>
        <time>2022-09-27T12:26:34.000Z</time>
      </trkpt>
      <trkpt lat="45.85787" lon="4.66945">
        <ele>210.11919</ele>
        <time>2022-09-27T12:26:35.000Z</time>
      </trkpt>
      <trkpt lat="45.85794" lon="4.66944">
        <ele>210.16891</ele>
        <time>2022-09-27T12:26:36.000Z</time>
      </trkpt>
      <trkpt lat="45.858" lon="4.66943">
        <ele>210.35454</ele>
        <time>2022-09-27T12:26:37.000Z</time>
      </trkpt>
      <trkpt lat="45.85806" lon="4.66942">
        <ele>210.57565</ele>
        <time>2022-09-27T12:26:38.000Z</time>
      </trkpt>
      <trkpt lat="45.85811" lon="4.6694">
        <ele>210.78938</ele>
        <time>2022-09-27T12:26:39.000Z</time>
      </trkpt>
      <trkpt lat="45.85818" lon="4.66939">
        <ele>211.0396</ele>
        <time>2022-09-27T12:26:40.000Z</time>
      </trkpt>
      <trkpt lat="45.85825" lon="4.6694">
        <ele>211.30368</ele>
        <time>2022-09-27T12:26:41.000Z</time>
      </trkpt>
      <trkpt lat="45.85832" lon="4.66942">
        <ele>211.54561</ele>
        <time>2022-09-27T12:26:42.000Z</time>
      </trkpt>
      <trkpt lat="45.8584" lon="4.66947">
        <ele>211.77527</ele>
        <time>2022-09-27T12:26:43.000Z</time>
      </trkpt>
      <trkpt lat="45.85846" lon="4.6695">
        <ele>211.93222</ele>
        <time>2022-09-27T12:26:44.000Z</time>
      </trkpt>
      <trkpt lat="45.85852" lon="4.66952">
        <ele>212.10181</ele>
        <time>2022-09-27T12:26:45.000Z</time>
      </trkpt>
      <trkpt lat="45.85857" lon="4.66953">
        <ele>212.17566</ele>
        <time>2022-09-27T12:26:46.000Z</time>
      </trkpt>
      <trkpt lat="45.85862" lon="4.66954">
        <ele>212.07463</ele>
        <time>2022-09-27T12:26:47.000Z</time>
      </trkpt>
      <trkpt lat="45.85868" lon="4.66956">
        <ele>212.00876</ele>
        <time>2022-09-27T12:26:48.000Z</time>
      </trkpt>
      <trkpt lat="45.85875" lon="4.66959">
        <ele>212.00113</ele>
        <time>2022-09-27T12:26:49.000Z</time>
      </trkpt>
      <trkpt lat="45.85881" lon="4.6696">
        <ele>211.98404</ele>
        <time>2022-09-27T12:26:50.000Z</time>
      </trkpt>
      <trkpt lat="45.85887" lon="4.66964">
        <ele>211.97131</ele>
        <time>2022-09-27T12:26:51.000Z</time>
      </trkpt>
      <trkpt lat="45.85893" lon="4.6697">
        <ele>212.04639</ele>
        <time>2022-09-27T12:26:52.000Z</time>
      </trkpt>
      <trkpt lat="45.85897" lon="4.66977">
        <ele>212.26334</ele>
        <time>2022-09-27T12:26:53.000Z</time>
      </trkpt>
      <trkpt lat="45.85901" lon="4.66983">
        <ele>212.44954</ele>
        <time>2022-09-27T12:26:54.000Z</time>
      </trkpt>
      <trkpt lat="45.85904" lon="4.66989">
        <ele>212.56897</ele>
        <time>2022-09-27T12:26:55.000Z</time>
      </trkpt>
      <trkpt lat="45.85908" lon="4.66994">
        <ele>212.66275</ele>
        <time>2022-09-27T12:26:56.000Z</time>
      </trkpt>
      <trkpt lat="45.85913" lon="4.66995">
        <ele>212.68987</ele>
        <time>2022-09-27T12:26:57.000Z</time>
      </trkpt>
      <trkpt lat="45.85918" lon="4.66995">
        <ele>212.68839</ele>
        <time>2022-09-27T12:26:58.000Z</time>
      </trkpt>
      <trkpt lat="45.85922" lon="4.66992">
        <ele>212.73032</ele>
        <time>2022-09-27T12:26:59.000Z</time>
      </trkpt>
      <trkpt lat="45.85926" lon="4.66988">
        <ele>212.73865</ele>
        <time>2022-09-27T12:27:00.000Z</time>
      </trkpt>
      <trkpt lat="45.85929" lon="4.66982">
        <ele>212.69193</ele>
        <time>2022-09-27T12:27:01.000Z</time>
      </trkpt>
      <trkpt lat="45.8593" lon="4.66975">
        <ele>212.642</ele>
        <time>2022-09-27T12:27:02.000Z</time>
      </trkpt>
      <trkpt lat="45.85929" lon="4.66968">
        <ele>212.5518</ele>
        <time>2022-09-27T12:27:03.000Z</time>
      </trkpt>
      <trkpt lat="45.85926" lon="4.66962">
        <ele>212.5041</ele>
        <time>2022-09-27T12:27:04.000Z</time>
      </trkpt>
      <trkpt lat="45.85924" lon="4.66954">
        <ele>212.40987</ele>
        <time>2022-09-27T12:27:05.000Z</time>
      </trkpt>
      <trkpt lat="45.85923" lon="4.66946">
        <ele>212.24435</ele>
        <time>2022-09-27T12:27:06.000Z</time>
      </trkpt>
      <trkpt lat="45.85924" lon="4.66938">
        <ele>212.14835</ele>
        <time>2022-09-27T12:27:07.000Z</time>
      </trkpt>
      <trkpt lat="45.85925" lon="4.66929">
        <ele>212.02641</ele>
        <time>2022-09-27T12:27:08.000Z</time>
      </trkpt>
      <trkpt lat="45.85926" lon="4.66921">
        <ele>211.86458</ele>
        <time>2022-09-27T12:27:09.000Z</time>
      </trkpt>
      <trkpt lat="45.85927" lon="4.66912">
        <ele>211.7502</ele>
        <time>2022-09-27T12:27:10.000Z</time>
      </trkpt>
      <trkpt lat="45.85929" lon="4.66904">
        <ele>211.63445</ele>
        <time>2022-09-27T12:27:11.000Z</time>
      </trkpt>
      <trkpt lat="45.8593" lon="4.66897">
        <ele>211.49478</ele>
        <time>2022-09-27T12:27:12.000Z</time>
      </trkpt>
      <trkpt lat="45.85932" lon="4.66889">
        <ele>211.29475</ele>
        <time>2022-09-27T12:27:13.000Z</time>
      </trkpt>
      <trkpt lat="45.85934" lon="4.66882">
        <ele>211.07382</ele>
        <time>2022-09-27T12:27:14.000Z</time>
      </trkpt>
      <trkpt lat="45.85934" lon="4.66873">
        <ele>210.89462</ele>
        <time>2022-09-27T12:27:15.000Z</time>
      </trkpt>
      <trkpt lat="45.85936" lon="4.66866">
        <ele>210.70334</ele>
        <time>2022-09-27T12:27:16.000Z</time>
      </trkpt>
      <trkpt lat="45.85938" lon="4.66858">
        <ele>210.4938</ele>
        <time>2022-09-27T12:27:17.000Z</time>
      </trkpt>
      <trkpt lat="45.8594" lon="4.66852">
        <ele>210.23563</ele>
        <time>2022-09-27T12:27:18.000Z</time>
      </trkpt>
      <trkpt lat="45.85943" lon="4.66845">
        <ele>209.95541</ele>
        <time>2022-09-27T12:27:19.000Z</time>
      </trkpt>
      <trkpt lat="45.85945" lon="4.66839">
        <ele>209.6082</ele>
        <time>2022-09-27T12:27:20.000Z</time>
      </trkpt>
      <trkpt lat="45.85946" lon="4.6683">
        <ele>209.21948</ele>
        <time>2022-09-27T12:27:21.000Z</time>
      </trkpt>
      <trkpt lat="45.85948" lon="4.66823">
        <ele>208.89392</ele>
        <time>2022-09-27T12:27:22.000Z</time>
      </trkpt>
      <trkpt lat="45.8595" lon="4.66816">
        <ele>208.62874</ele>
        <time>2022-09-27T12:27:23.000Z</time>
      </trkpt>
      <trkpt lat="45.85951" lon="4.66809">
        <ele>208.43999</ele>
        <time>2022-09-27T12:27:24.000Z</time>
      </trkpt>
      <trkpt lat="45.85953" lon="4.668">
        <ele>208.24345</ele>
        <time>2022-09-27T12:27:25.000Z</time>
      </trkpt>
      <trkpt lat="45.85955" lon="4.66793">
        <ele>208.10599</ele>
        <time>2022-09-27T12:27:26.000Z</time>
      </trkpt>
      <trkpt lat="45.85957" lon="4.66785">
        <ele>207.98308</ele>
        <time>2022-09-27T12:27:27.000Z</time>
      </trkpt>
      <trkpt lat="45.85959" lon="4.66777">
        <ele>207.8945</ele>
        <time>2022-09-27T12:27:28.000Z</time>
      </trkpt>
      <trkpt lat="45.85961" lon="4.6677">
        <ele>207.80038</ele>
        <time>2022-09-27T12:27:29.000Z</time>
      </trkpt>
      <trkpt lat="45.85962" lon="4.66763">
        <ele>207.60965</ele>
        <time>2022-09-27T12:27:30.000Z</time>
      </trkpt>
      <trkpt lat="45.85965" lon="4.66756">
        <ele>207.41365</ele>
        <time>2022-09-27T12:27:31.000Z</time>
      </trkpt>
      <trkpt lat="45.85967" lon="4.6675">
        <ele>207.23401</ele>
        <time>2022-09-27T12:27:32.000Z</time>
      </trkpt>
      <trkpt lat="45.85973" lon="4.66744">
        <ele>207.02446</ele>
        <time>2022-09-27T12:27:33.000Z</time>
      </trkpt>
      <trkpt lat="45.85976" lon="4.66739">
        <ele>206.85153</ele>
        <time>2022-09-27T12:27:34.000Z</time>
      </trkpt>
      <trkpt lat="45.85979" lon="4.66735">
        <ele>206.70532</ele>
        <time>2022-09-27T12:27:35.000Z</time>
      </trkpt>
      <trkpt lat="45.85983" lon="4.66732">
        <ele>206.55258</ele>
        <time>2022-09-27T12:27:36.000Z</time>
      </trkpt>
      <trkpt lat="45.85985" lon="4.66726">
        <ele>206.36594</ele>
        <time>2022-09-27T12:27:37.000Z</time>
      </trkpt>
      <trkpt lat="45.85988" lon="4.6672">
        <ele>206.22192</ele>
        <time>2022-09-27T12:27:38.000Z</time>
      </trkpt>
      <trkpt lat="45.85992" lon="4.66714">
        <ele>206.10139</ele>
        <time>2022-09-27T12:27:39.000Z</time>
      </trkpt>
      <trkpt lat="45.85995" lon="4.66708">
        <ele>206.06937</ele>
        <time>2022-09-27T12:27:40.000Z</time>
      </trkpt>
      <trkpt lat="45.85998" lon="4.66703">
        <ele>206.0551</ele>
        <time>2022-09-27T12:27:41.000Z</time>
      </trkpt>
      <trkpt lat="45.86002" lon="4.66696">
        <ele>205.96941</ele>
        <time>2022-09-27T12:27:42.000Z</time>
      </trkpt>
      <trkpt lat="45.86007" lon="4.6669">
        <ele>205.92105</ele>
        <time>2022-09-27T12:27:43.000Z</time>
      </trkpt>
      <trkpt lat="45.86012" lon="4.66685">
        <ele>205.86655</ele>
        <time>2022-09-27T12:27:44.000Z</time>
      </trkpt>
      <trkpt lat="45.86015" lon="4.66679">
        <ele>205.84213</ele>
        <time>2022-09-27T12:27:45.000Z</time>
      </trkpt>
      <trkpt lat="45.8602" lon="4.66674">
        <ele>205.83549</ele>
        <time>2022-09-27T12:27:46.000Z</time>
      </trkpt>
      <trkpt lat="45.86023" lon="4.6667">
        <ele>205.87387</ele>
        <time>2022-09-27T12:27:47.000Z</time>
      </trkpt>
      <trkpt lat="45.86028" lon="4.66664">
        <ele>205.8418</ele>
        <time>2022-09-27T12:27:48.000Z</time>
      </trkpt>
      <trkpt lat="45.86032" lon="4.6666">
        <ele>205.8206</ele>
        <time>2022-09-27T12:27:49.000Z</time>
      </trkpt>
      <trkpt lat="45.86037" lon="4.66656">
        <ele>205.94743</ele>
        <time>2022-09-27T12:27:50.000Z</time>
      </trkpt>
      <trkpt lat="45.86042" lon="4.66651">
        <ele>206.0968</ele>
        <time>2022-09-27T12:27:51.000Z</time>
      </trkpt>
      <trkpt lat="45.86046" lon="4.66646">
        <ele>206.2133</ele>
        <time>2022-09-27T12:27:52.000Z</time>
      </trkpt>
      <trkpt lat="45.86051" lon="4.66641">
        <ele>206.34702</ele>
        <time>2022-09-27T12:27:53.000Z</time>
      </trkpt>
      <trkpt lat="45.86055" lon="4.66638">
        <ele>206.45544</ele>
        <time>2022-09-27T12:27:54.000Z</time>
      </trkpt>
      <trkpt lat="45.86061" lon="4.66634">
        <ele>206.5666</ele>
        <time>2022-09-27T12:27:55.000Z</time>
      </trkpt>
      <trkpt lat="45.86066" lon="4.66629">
        <ele>206.71176</ele>
        <time>2022-09-27T12:27:56.000Z</time>
      </trkpt>
      <trkpt lat="45.8607" lon="4.66624">
        <ele>206.88094</ele>
        <time>2022-09-27T12:27:57.000Z</time>
      </trkpt>
      <trkpt lat="45.86076" lon="4.66621">
        <ele>207.05643</ele>
        <time>2022-09-27T12:27:58.000Z</time>
      </trkpt>
      <trkpt lat="45.86081" lon="4.66618">
        <ele>207.23637</ele>
        <time>2022-09-27T12:27:59.000Z</time>
      </trkpt>
      <trkpt lat="45.86086" lon="4.66615">
        <ele>207.35129</ele>
        <time>2022-09-27T12:28:00.000Z</time>
      </trkpt>
      <trkpt lat="45.86091" lon="4.66611">
        <ele>207.53952</ele>
        <time>2022-09-27T12:28:01.000Z</time>
      </trkpt>
      <trkpt lat="45.86096" lon="4.66607">
        <ele>207.8333</ele>
        <time>2022-09-27T12:28:02.000Z</time>
      </trkpt>
      <trkpt lat="45.86102" lon="4.66605">
        <ele>208.08777</ele>
        <time>2022-09-27T12:28:03.000Z</time>
      </trkpt>
      <trkpt lat="45.86108" lon="4.66602">
        <ele>208.27371</ele>
        <time>2022-09-27T12:28:04.000Z</time>
      </trkpt>
      <trkpt lat="45.86115" lon="4.666">
        <ele>208.46109</ele>
        <time>2022-09-27T12:28:05.000Z</time>
      </trkpt>
      <trkpt lat="45.86121" lon="4.66596">
        <ele>208.6915</ele>
        <time>2022-09-27T12:28:06.000Z</time>
      </trkpt>
      <trkpt lat="45.86123" lon="4.66591">
        <ele>208.88411</ele>
        <time>2022-09-27T12:28:07.000Z</time>
      </trkpt>
      <trkpt lat="45.86127" lon="4.66587">
        <ele>209.17094</ele>
        <time>2022-09-27T12:28:08.000Z</time>
      </trkpt>
      <trkpt lat="45.86133" lon="4.66582">
        <ele>209.46622</ele>
        <time>2022-09-27T12:28:09.000Z</time>
      </trkpt>
      <trkpt lat="45.86137" lon="4.66578">
        <ele>209.65747</ele>
        <time>2022-09-27T12:28:10.000Z</time>
      </trkpt>
      <trkpt lat="45.86142" lon="4.66573">
        <ele>209.86259</ele>
        <time>2022-09-27T12:28:11.000Z</time>
      </trkpt>
      <trkpt lat="45.86145" lon="4.66568">
        <ele>210.04959</ele>
        <time>2022-09-27T12:28:12.000Z</time>
      </trkpt>
      <trkpt lat="45.86151" lon="4.66563">
        <ele>210.28198</ele>
        <time>2022-09-27T12:28:13.000Z</time>
      </trkpt>
      <trkpt lat="45.86155" lon="4.66557">
        <ele>210.69063</ele>
        <time>2022-09-27T12:28:14.000Z</time>
      </trkpt>
      <trkpt lat="45.86161" lon="4.66551">
        <ele>211.13525</ele>
        <time>2022-09-27T12:28:15.000Z</time>
      </trkpt>
      <trkpt lat="45.86166" lon="4.66545">
        <ele>211.56686</ele>
        <time>2022-09-27T12:28:16.000Z</time>
      </trkpt>
      <trkpt lat="45.86169" lon="4.66538">
        <ele>212.01624</ele>
        <time>2022-09-27T12:28:17.000Z</time>
      </trkpt>
      <trkpt lat="45.86172" lon="4.6653">
        <ele>212.51309</ele>
        <time>2022-09-27T12:28:18.000Z</time>
      </trkpt>
      <trkpt lat="45.86174" lon="4.66523">
        <ele>212.88571</ele>
        <time>2022-09-27T12:28:19.000Z</time>
      </trkpt>
      <trkpt lat="45.86178" lon="4.66517">
        <ele>213.24805</ele>
        <time>2022-09-27T12:28:20.000Z</time>
      </trkpt>
      <trkpt lat="45.86182" lon="4.6651">
        <ele>213.57535</ele>
        <time>2022-09-27T12:28:21.000Z</time>
      </trkpt>
      <trkpt lat="45.86186" lon="4.66505">
        <ele>213.81387</ele>
        <time>2022-09-27T12:28:22.000Z</time>
      </trkpt>
      <trkpt lat="45.8619" lon="4.66498">
        <ele>214.02066</ele>
        <time>2022-09-27T12:28:23.000Z</time>
      </trkpt>
      <trkpt lat="45.86195" lon="4.66491">
        <ele>214.31731</ele>
        <time>2022-09-27T12:28:24.000Z</time>
      </trkpt>
      <trkpt lat="45.86198" lon="4.66485">
        <ele>214.59387</ele>
        <time>2022-09-27T12:28:25.000Z</time>
      </trkpt>
      <trkpt lat="45.86201" lon="4.66478">
        <ele>214.77951</ele>
        <time>2022-09-27T12:28:26.000Z</time>
      </trkpt>
      <trkpt lat="45.86205" lon="4.66472">
        <ele>214.953</ele>
        <time>2022-09-27T12:28:27.000Z</time>
      </trkpt>
      <trkpt lat="45.86209" lon="4.66466">
        <ele>215.05229</ele>
        <time>2022-09-27T12:28:28.000Z</time>
      </trkpt>
      <trkpt lat="45.86212" lon="4.66459">
        <ele>215.11203</ele>
        <time>2022-09-27T12:28:29.000Z</time>
      </trkpt>
      <trkpt lat="45.86215" lon="4.66451">
        <ele>215.19812</ele>
        <time>2022-09-27T12:28:30.000Z</time>
      </trkpt>
      <trkpt lat="45.86219" lon="4.66446">
        <ele>215.22351</ele>
        <time>2022-09-27T12:28:31.000Z</time>
      </trkpt>
      <trkpt lat="45.86222" lon="4.66438">
        <ele>215.3282</ele>
        <time>2022-09-27T12:28:32.000Z</time>
      </trkpt>
      <trkpt lat="45.86224" lon="4.66432">
        <ele>215.33902</ele>
        <time>2022-09-27T12:28:33.000Z</time>
      </trkpt>
      <trkpt lat="45.8623" lon="4.66429">
        <ele>215.15254</ele>
        <time>2022-09-27T12:28:34.000Z</time>
      </trkpt>
      <trkpt lat="45.86234" lon="4.66424">
        <ele>214.89397</ele>
        <time>2022-09-27T12:28:35.000Z</time>
      </trkpt>
      <trkpt lat="45.86236" lon="4.66416">
        <ele>214.62747</ele>
        <time>2022-09-27T12:28:36.000Z</time>
      </trkpt>
      <trkpt lat="45.86237" lon="4.6641">
        <ele>214.23978</ele>
        <time>2022-09-27T12:28:37.000Z</time>
      </trkpt>
      <trkpt lat="45.86242" lon="4.66406">
        <ele>213.7948</ele>
        <time>2022-09-27T12:28:38.000Z</time>
      </trkpt>
      <trkpt lat="45.86246" lon="4.66398">
        <ele>213.46072</ele>
        <time>2022-09-27T12:28:39.000Z</time>
      </trkpt>
      <trkpt lat="45.8625" lon="4.66392">
        <ele>213.20845</ele>
        <time>2022-09-27T12:28:40.000Z</time>
      </trkpt>
      <trkpt lat="45.86253" lon="4.66385">
        <ele>212.98108</ele>
        <time>2022-09-27T12:28:41.000Z</time>
      </trkpt>
      <trkpt lat="45.86257" lon="4.66378">
        <ele>212.80981</ele>
        <time>2022-09-27T12:28:42.000Z</time>
      </trkpt>
      <trkpt lat="45.86261" lon="4.66372">
        <ele>212.6691</ele>
        <time>2022-09-27T12:28:43.000Z</time>
      </trkpt>
      <trkpt lat="45.86264" lon="4.66365">
        <ele>212.4782</ele>
        <time>2022-09-27T12:28:44.000Z</time>
      </trkpt>
      <trkpt lat="45.86268" lon="4.6636">
        <ele>212.31721</ele>
        <time>2022-09-27T12:28:45.000Z</time>
      </trkpt>
      <trkpt lat="45.86272" lon="4.66353">
        <ele>212.17769</ele>
        <time>2022-09-27T12:28:46.000Z</time>
      </trkpt>
      <trkpt lat="45.86277" lon="4.66349">
        <ele>212.0675</ele>
        <time>2022-09-27T12:28:47.000Z</time>
      </trkpt>
      <trkpt lat="45.8628" lon="4.66342">
        <ele>211.98357</ele>
        <time>2022-09-27T12:28:48.000Z</time>
      </trkpt>
      <trkpt lat="45.86284" lon="4.66339">
        <ele>211.89468</ele>
        <time>2022-09-27T12:28:49.000Z</time>
      </trkpt>
      <trkpt lat="45.86289" lon="4.66335">
        <ele>211.81595</ele>
        <time>2022-09-27T12:28:50.000Z</time>
      </trkpt>
      <trkpt lat="45.86292" lon="4.66329">
        <ele>211.80594</ele>
        <time>2022-09-27T12:28:51.000Z</time>
      </trkpt>
      <trkpt lat="45.86296" lon="4.66326">
        <ele>211.65836</ele>
        <time>2022-09-27T12:28:52.000Z</time>
      </trkpt>
      <trkpt lat="45.863" lon="4.66321">
        <ele>211.53264</ele>
        <time>2022-09-27T12:28:53.000Z</time>
      </trkpt>
      <trkpt lat="45.86303" lon="4.66316">
        <ele>211.46968</ele>
        <time>2022-09-27T12:28:54.000Z</time>
      </trkpt>
      <trkpt lat="45.86307" lon="4.6631">
        <ele>211.49011</ele>
        <time>2022-09-27T12:28:55.000Z</time>
      </trkpt>
      <trkpt lat="45.86312" lon="4.66306">
        <ele>211.50024</ele>
        <time>2022-09-27T12:28:56.000Z</time>
      </trkpt>
      <trkpt lat="45.86317" lon="4.66303">
        <ele>211.64096</ele>
        <time>2022-09-27T12:28:57.000Z</time>
      </trkpt>
      <trkpt lat="45.86321" lon="4.66299">
        <ele>211.75839</ele>
        <time>2022-09-27T12:28:58.000Z</time>
      </trkpt>
      <trkpt lat="45.86325" lon="4.66294">
        <ele>211.84526</ele>
        <time>2022-09-27T12:28:59.000Z</time>
      </trkpt>
      <trkpt lat="45.86329" lon="4.66289">
        <ele>211.85788</ele>
        <time>2022-09-27T12:29:00.000Z</time>
      </trkpt>
      <trkpt lat="45.86334" lon="4.66283">
        <ele>211.86006</ele>
        <time>2022-09-27T12:29:01.000Z</time>
      </trkpt>
      <trkpt lat="45.86339" lon="4.66279">
        <ele>211.82571</ele>
        <time>2022-09-27T12:29:02.000Z</time>
      </trkpt>
      <trkpt lat="45.86343" lon="4.66275">
        <ele>211.79434</ele>
        <time>2022-09-27T12:29:03.000Z</time>
      </trkpt>
      <trkpt lat="45.86349" lon="4.6627">
        <ele>211.77412</ele>
        <time>2022-09-27T12:29:04.000Z</time>
      </trkpt>
      <trkpt lat="45.86354" lon="4.66267">
        <ele>211.7253</ele>
        <time>2022-09-27T12:29:05.000Z</time>
      </trkpt>
      <trkpt lat="45.86359" lon="4.66263">
        <ele>211.668</ele>
        <time>2022-09-27T12:29:06.000Z</time>
      </trkpt>
      <trkpt lat="45.86364" lon="4.66261">
        <ele>211.54721</ele>
        <time>2022-09-27T12:29:07.000Z</time>
      </trkpt>
      <trkpt lat="45.86369" lon="4.66262">
        <ele>211.38994</ele>
        <time>2022-09-27T12:29:08.000Z</time>
      </trkpt>
      <trkpt lat="45.86374" lon="4.66257">
        <ele>211.30173</ele>
        <time>2022-09-27T12:29:09.000Z</time>
      </trkpt>
      <trkpt lat="45.86379" lon="4.66253">
        <ele>211.25516</ele>
        <time>2022-09-27T12:29:10.000Z</time>
      </trkpt>
      <trkpt lat="45.86385" lon="4.66249">
        <ele>211.19461</ele>
        <time>2022-09-27T12:29:11.000Z</time>
      </trkpt>
      <trkpt lat="45.86389" lon="4.66247">
        <ele>211.26645</ele>
        <time>2022-09-27T12:29:12.000Z</time>
      </trkpt>
      <trkpt lat="45.86394" lon="4.66243">
        <ele>211.4043</ele>
        <time>2022-09-27T12:29:13.000Z</time>
      </trkpt>
      <trkpt lat="45.864" lon="4.66241">
        <ele>211.51485</ele>
        <time>2022-09-27T12:29:14.000Z</time>
      </trkpt>
      <trkpt lat="45.86405" lon="4.66238">
        <ele>211.62265</ele>
        <time>2022-09-27T12:29:15.000Z</time>
      </trkpt>
      <trkpt lat="45.8641" lon="4.66235">
        <ele>211.75098</ele>
        <time>2022-09-27T12:29:16.000Z</time>
      </trkpt>
      <trkpt lat="45.86415" lon="4.66234">
        <ele>211.88655</ele>
        <time>2022-09-27T12:29:17.000Z</time>
      </trkpt>
      <trkpt lat="45.8642" lon="4.66233">
        <ele>212.03854</ele>
        <time>2022-09-27T12:29:18.000Z</time>
      </trkpt>
      <trkpt lat="45.86425" lon="4.66232">
        <ele>212.18526</ele>
        <time>2022-09-27T12:29:19.000Z</time>
      </trkpt>
      <trkpt lat="45.86431" lon="4.66232">
        <ele>212.29697</ele>
        <time>2022-09-27T12:29:20.000Z</time>
      </trkpt>
      <trkpt lat="45.86436" lon="4.66228">
        <ele>212.37427</ele>
        <time>2022-09-27T12:29:21.000Z</time>
      </trkpt>
      <trkpt lat="45.86441" lon="4.66226">
        <ele>212.4668</ele>
        <time>2022-09-27T12:29:22.000Z</time>
      </trkpt>
      <trkpt lat="45.86447" lon="4.66224">
        <ele>212.52463</ele>
        <time>2022-09-27T12:29:23.000Z</time>
      </trkpt>
      <trkpt lat="45.86451" lon="4.66219">
        <ele>212.57666</ele>
        <time>2022-09-27T12:29:24.000Z</time>
      </trkpt>
      <trkpt lat="45.86457" lon="4.66218">
        <ele>212.63699</ele>
        <time>2022-09-27T12:29:25.000Z</time>
      </trkpt>
      <trkpt lat="45.86462" lon="4.66217">
        <ele>212.70198</ele>
        <time>2022-09-27T12:29:26.000Z</time>
      </trkpt>
      <trkpt lat="45.86467" lon="4.66216">
        <ele>212.82463</ele>
        <time>2022-09-27T12:29:27.000Z</time>
      </trkpt>
      <trkpt lat="45.86472" lon="4.66214">
        <ele>213.00842</ele>
        <time>2022-09-27T12:29:28.000Z</time>
      </trkpt>
      <trkpt lat="45.86477" lon="4.66212">
        <ele>213.15332</ele>
        <time>2022-09-27T12:29:29.000Z</time>
      </trkpt>
      <trkpt lat="45.86482" lon="4.66211">
        <ele>213.25977</ele>
        <time>2022-09-27T12:29:30.000Z</time>
      </trkpt>
      <trkpt lat="45.86487" lon="4.66209">
        <ele>213.32211</ele>
        <time>2022-09-27T12:29:31.000Z</time>
      </trkpt>
      <trkpt lat="45.86492" lon="4.66208">
        <ele>213.31677</ele>
        <time>2022-09-27T12:29:32.000Z</time>
      </trkpt>
      <trkpt lat="45.86497" lon="4.66204">
        <ele>213.30466</ele>
        <time>2022-09-27T12:29:33.000Z</time>
      </trkpt>
      <trkpt lat="45.86501" lon="4.66201">
        <ele>213.37808</ele>
        <time>2022-09-27T12:29:34.000Z</time>
      </trkpt>
      <trkpt lat="45.86507" lon="4.662">
        <ele>213.35677</ele>
        <time>2022-09-27T12:29:35.000Z</time>
      </trkpt>
      <trkpt lat="45.86511" lon="4.66198">
        <ele>213.38745</ele>
        <time>2022-09-27T12:29:36.000Z</time>
      </trkpt>
      <trkpt lat="45.86515" lon="4.66193">
        <ele>213.48093</ele>
        <time>2022-09-27T12:29:37.000Z</time>
      </trkpt>
      <trkpt lat="45.86521" lon="4.6619">
        <ele>213.61685</ele>
        <time>2022-09-27T12:29:38.000Z</time>
      </trkpt>
      <trkpt lat="45.86525" lon="4.66186">
        <ele>213.80061</ele>
        <time>2022-09-27T12:29:39.000Z</time>
      </trkpt>
      <trkpt lat="45.8653" lon="4.66183">
        <ele>214.08426</ele>
        <time>2022-09-27T12:29:40.000Z</time>
      </trkpt>
      <trkpt lat="45.86535" lon="4.66179">
        <ele>214.39832</ele>
        <time>2022-09-27T12:29:41.000Z</time>
      </trkpt>
      <trkpt lat="45.86539" lon="4.66175">
        <ele>214.7081</ele>
        <time>2022-09-27T12:29:42.000Z</time>
      </trkpt>
      <trkpt lat="45.86544" lon="4.66172">
        <ele>215.02725</ele>
        <time>2022-09-27T12:29:43.000Z</time>
      </trkpt>
      <trkpt lat="45.86549" lon="4.66169">
        <ele>215.28906</ele>
        <time>2022-09-27T12:29:44.000Z</time>
      </trkpt>
      <trkpt lat="45.86554" lon="4.66164">
        <ele>215.5645</ele>
        <time>2022-09-27T12:29:45.000Z</time>
      </trkpt>
      <trkpt lat="45.86559" lon="4.6616">
        <ele>215.82352</ele>
        <time>2022-09-27T12:29:46.000Z</time>
      </trkpt>
      <trkpt lat="45.86564" lon="4.66156">
        <ele>216.05679</ele>
        <time>2022-09-27T12:29:47.000Z</time>
      </trkpt>
      <trkpt lat="45.86567" lon="4.66151">
        <ele>216.26859</ele>
        <time>2022-09-27T12:29:48.000Z</time>
      </trkpt>
      <trkpt lat="45.86571" lon="4.66146">
        <ele>216.54727</ele>
        <time>2022-09-27T12:29:49.000Z</time>
      </trkpt>
      <trkpt lat="45.86576" lon="4.66141">
        <ele>216.87183</ele>
        <time>2022-09-27T12:29:50.000Z</time>
      </trkpt>
      <trkpt lat="45.86582" lon="4.66136">
        <ele>217.25696</ele>
        <time>2022-09-27T12:29:51.000Z</time>
      </trkpt>
      <trkpt lat="45.86588" lon="4.66132">
        <ele>217.68167</ele>
        <time>2022-09-27T12:29:52.000Z</time>
      </trkpt>
      <trkpt lat="45.86594" lon="4.66128">
        <ele>218.06198</ele>
        <time>2022-09-27T12:29:53.000Z</time>
      </trkpt>
      <trkpt lat="45.86599" lon="4.66123">
        <ele>218.33981</ele>
        <time>2022-09-27T12:29:54.000Z</time>
      </trkpt>
      <trkpt lat="45.86603" lon="4.66119">
        <ele>218.55228</ele>
        <time>2022-09-27T12:29:55.000Z</time>
      </trkpt>
      <trkpt lat="45.86608" lon="4.66116">
        <ele>218.72791</ele>
        <time>2022-09-27T12:29:56.000Z</time>
      </trkpt>
      <trkpt lat="45.86615" lon="4.66113">
        <ele>218.83</ele>
        <time>2022-09-27T12:29:57.000Z</time>
      </trkpt>
      <trkpt lat="45.86621" lon="4.66111">
        <ele>218.92549</ele>
        <time>2022-09-27T12:29:58.000Z</time>
      </trkpt>
      <trkpt lat="45.86627" lon="4.66108">
        <ele>218.98721</ele>
        <time>2022-09-27T12:29:59.000Z</time>
      </trkpt>
      <trkpt lat="45.86632" lon="4.66104">
        <ele>219.0208</ele>
        <time>2022-09-27T12:30:00.000Z</time>
      </trkpt>
      <trkpt lat="45.86639" lon="4.66102">
        <ele>219.09085</ele>
        <time>2022-09-27T12:30:01.000Z</time>
      </trkpt>
      <trkpt lat="45.86644" lon="4.66099">
        <ele>219.17148</ele>
        <time>2022-09-27T12:30:02.000Z</time>
      </trkpt>
      <trkpt lat="45.8665" lon="4.66097">
        <ele>219.26555</ele>
        <time>2022-09-27T12:30:03.000Z</time>
      </trkpt>
      <trkpt lat="45.86655" lon="4.66094">
        <ele>219.36502</ele>
        <time>2022-09-27T12:30:04.000Z</time>
      </trkpt>
      <trkpt lat="45.8666" lon="4.66092">
        <ele>219.41483</ele>
        <time>2022-09-27T12:30:05.000Z</time>
      </trkpt>
      <trkpt lat="45.86666" lon="4.66088">
        <ele>219.55807</ele>
        <time>2022-09-27T12:30:06.000Z</time>
      </trkpt>
      <trkpt lat="45.86671" lon="4.66084">
        <ele>219.76355</ele>
        <time>2022-09-27T12:30:07.000Z</time>
      </trkpt>
      <trkpt lat="45.86678" lon="4.66083">
        <ele>220.01114</ele>
        <time>2022-09-27T12:30:08.000Z</time>
      </trkpt>
      <trkpt lat="45.86683" lon="4.66081">
        <ele>220.19388</ele>
        <time>2022-09-27T12:30:09.000Z</time>
      </trkpt>
      <trkpt lat="45.8669" lon="4.66079">
        <ele>220.27998</ele>
        <time>2022-09-27T12:30:10.000Z</time>
      </trkpt>
      <trkpt lat="45.86696" lon="4.66077">
        <ele>220.29251</ele>
        <time>2022-09-27T12:30:11.000Z</time>
      </trkpt>
      <trkpt lat="45.86701" lon="4.66075">
        <ele>220.23189</ele>
        <time>2022-09-27T12:30:12.000Z</time>
      </trkpt>
      <trkpt lat="45.86706" lon="4.66071">
        <ele>220.19485</ele>
        <time>2022-09-27T12:30:13.000Z</time>
      </trkpt>
      <trkpt lat="45.86712" lon="4.66068">
        <ele>220.27048</ele>
        <time>2022-09-27T12:30:14.000Z</time>
      </trkpt>
      <trkpt lat="45.86718" lon="4.66065">
        <ele>220.48148</ele>
        <time>2022-09-27T12:30:15.000Z</time>
      </trkpt>
      <trkpt lat="45.86724" lon="4.66063">
        <ele>220.68161</ele>
        <time>2022-09-27T12:30:16.000Z</time>
      </trkpt>
      <trkpt lat="45.86729" lon="4.66058">
        <ele>220.87387</ele>
        <time>2022-09-27T12:30:17.000Z</time>
      </trkpt>
      <trkpt lat="45.86734" lon="4.66055">
        <ele>220.99707</ele>
        <time>2022-09-27T12:30:18.000Z</time>
      </trkpt>
      <trkpt lat="45.86738" lon="4.6605">
        <ele>221.13252</ele>
        <time>2022-09-27T12:30:19.000Z</time>
      </trkpt>
      <trkpt lat="45.86744" lon="4.66044">
        <ele>221.27165</ele>
        <time>2022-09-27T12:30:20.000Z</time>
      </trkpt>
      <trkpt lat="45.86749" lon="4.66039">
        <ele>221.3942</ele>
        <time>2022-09-27T12:30:21.000Z</time>
      </trkpt>
      <trkpt lat="45.86754" lon="4.66037">
        <ele>221.50684</ele>
        <time>2022-09-27T12:30:22.000Z</time>
      </trkpt>
      <trkpt lat="45.86761" lon="4.66033">
        <ele>221.69563</ele>
        <time>2022-09-27T12:30:23.000Z</time>
      </trkpt>
      <trkpt lat="45.86766" lon="4.66028">
        <ele>221.95845</ele>
        <time>2022-09-27T12:30:24.000Z</time>
      </trkpt>
      <trkpt lat="45.86768" lon="4.6602">
        <ele>222.24263</ele>
        <time>2022-09-27T12:30:25.000Z</time>
      </trkpt>
      <trkpt lat="45.86774" lon="4.66014">
        <ele>222.4762</ele>
        <time>2022-09-27T12:30:26.000Z</time>
      </trkpt>
      <trkpt lat="45.86775" lon="4.66008">
        <ele>222.63443</ele>
        <time>2022-09-27T12:30:27.000Z</time>
      </trkpt>
      <trkpt lat="45.86782" lon="4.66001">
        <ele>222.87625</ele>
        <time>2022-09-27T12:30:28.000Z</time>
      </trkpt>
      <trkpt lat="45.86786" lon="4.65996">
        <ele>223.08841</ele>
        <time>2022-09-27T12:30:29.000Z</time>
      </trkpt>
      <trkpt lat="45.86789" lon="4.6599">
        <ele>223.30038</ele>
        <time>2022-09-27T12:30:30.000Z</time>
      </trkpt>
      <trkpt lat="45.86794" lon="4.65984">
        <ele>223.53984</ele>
        <time>2022-09-27T12:30:31.000Z</time>
      </trkpt>
      <trkpt lat="45.86797" lon="4.65979">
        <ele>223.71236</ele>
        <time>2022-09-27T12:30:32.000Z</time>
      </trkpt>
      <trkpt lat="45.86801" lon="4.65973">
        <ele>223.84241</ele>
        <time>2022-09-27T12:30:33.000Z</time>
      </trkpt>
      <trkpt lat="45.86804" lon="4.65965">
        <ele>223.93623</ele>
        <time>2022-09-27T12:30:34.000Z</time>
      </trkpt>
      <trkpt lat="45.86808" lon="4.6596">
        <ele>223.96513</ele>
        <time>2022-09-27T12:30:35.000Z</time>
      </trkpt>
      <trkpt lat="45.86811" lon="4.65952">
        <ele>223.97127</ele>
        <time>2022-09-27T12:30:36.000Z</time>
      </trkpt>
      <trkpt lat="45.86815" lon="4.65945">
        <ele>223.94394</ele>
        <time>2022-09-27T12:30:37.000Z</time>
      </trkpt>
      <trkpt lat="45.86819" lon="4.65938">
        <ele>223.9572</ele>
        <time>2022-09-27T12:30:38.000Z</time>
      </trkpt>
      <trkpt lat="45.86824" lon="4.6593">
        <ele>223.92937</ele>
        <time>2022-09-27T12:30:39.000Z</time>
      </trkpt>
      <trkpt lat="45.86828" lon="4.65924">
        <ele>223.86421</ele>
        <time>2022-09-27T12:30:40.000Z</time>
      </trkpt>
      <trkpt lat="45.86832" lon="4.65918">
        <ele>223.73898</ele>
        <time>2022-09-27T12:30:41.000Z</time>
      </trkpt>
      <trkpt lat="45.86837" lon="4.65911">
        <ele>223.63354</ele>
        <time>2022-09-27T12:30:42.000Z</time>
      </trkpt>
      <trkpt lat="45.86841" lon="4.65906">
        <ele>223.38594</ele>
        <time>2022-09-27T12:30:43.000Z</time>
      </trkpt>
      <trkpt lat="45.86845" lon="4.65899">
        <ele>223.07214</ele>
        <time>2022-09-27T12:30:44.000Z</time>
      </trkpt>
      <trkpt lat="45.86849" lon="4.65891">
        <ele>222.7388</ele>
        <time>2022-09-27T12:30:45.000Z</time>
      </trkpt>
      <trkpt lat="45.86851" lon="4.65881">
        <ele>222.44754</ele>
        <time>2022-09-27T12:30:46.000Z</time>
      </trkpt>
      <trkpt lat="45.86854" lon="4.65874">
        <ele>222.17172</ele>
        <time>2022-09-27T12:30:47.000Z</time>
      </trkpt>
      <trkpt lat="45.86858" lon="4.65866">
        <ele>221.79337</ele>
        <time>2022-09-27T12:30:48.000Z</time>
      </trkpt>
      <trkpt lat="45.86862" lon="4.65862">
        <ele>221.37398</ele>
        <time>2022-09-27T12:30:49.000Z</time>
      </trkpt>
      <trkpt lat="45.86866" lon="4.65854">
        <ele>220.97493</ele>
        <time>2022-09-27T12:30:50.000Z</time>
      </trkpt>
      <trkpt lat="45.86869" lon="4.65845">
        <ele>220.60263</ele>
        <time>2022-09-27T12:30:51.000Z</time>
      </trkpt>
      <trkpt lat="45.86872" lon="4.65838">
        <ele>220.347</ele>
        <time>2022-09-27T12:30:52.000Z</time>
      </trkpt>
      <trkpt lat="45.86875" lon="4.65829">
        <ele>220.12724</ele>
        <time>2022-09-27T12:30:53.000Z</time>
      </trkpt>
      <trkpt lat="45.86877" lon="4.65819">
        <ele>219.83098</ele>
        <time>2022-09-27T12:30:54.000Z</time>
      </trkpt>
      <trkpt lat="45.86879" lon="4.65809">
        <ele>219.53796</ele>
        <time>2022-09-27T12:30:55.000Z</time>
      </trkpt>
      <trkpt lat="45.8688" lon="4.65801">
        <ele>219.30354</ele>
        <time>2022-09-27T12:30:56.000Z</time>
      </trkpt>
      <trkpt lat="45.86881" lon="4.65792">
        <ele>219.04367</ele>
        <time>2022-09-27T12:30:57.000Z</time>
      </trkpt>
      <trkpt lat="45.86882" lon="4.65784">
        <ele>218.74492</ele>
        <time>2022-09-27T12:30:58.000Z</time>
      </trkpt>
      <trkpt lat="45.86884" lon="4.65776">
        <ele>218.47371</ele>
        <time>2022-09-27T12:30:59.000Z</time>
      </trkpt>
      <trkpt lat="45.86885" lon="4.65768">
        <ele>218.24393</ele>
        <time>2022-09-27T12:31:00.000Z</time>
      </trkpt>
      <trkpt lat="45.86885" lon="4.65759">
        <ele>218.07773</ele>
        <time>2022-09-27T12:31:01.000Z</time>
      </trkpt>
      <trkpt lat="45.86886" lon="4.6575">
        <ele>217.89993</ele>
        <time>2022-09-27T12:31:02.000Z</time>
      </trkpt>
      <trkpt lat="45.86888" lon="4.65742">
        <ele>217.72672</ele>
        <time>2022-09-27T12:31:03.000Z</time>
      </trkpt>
      <trkpt lat="45.86889" lon="4.65732">
        <ele>217.55322</ele>
        <time>2022-09-27T12:31:04.000Z</time>
      </trkpt>
      <trkpt lat="45.8689" lon="4.65722">
        <ele>217.34146</ele>
        <time>2022-09-27T12:31:05.000Z</time>
      </trkpt>
      <trkpt lat="45.86891" lon="4.65713">
        <ele>217.05264</ele>
        <time>2022-09-27T12:31:06.000Z</time>
      </trkpt>
      <trkpt lat="45.86892" lon="4.65703">
        <ele>216.79794</ele>
        <time>2022-09-27T12:31:07.000Z</time>
      </trkpt>
      <trkpt lat="45.86893" lon="4.65693">
        <ele>216.51688</ele>
        <time>2022-09-27T12:31:08.000Z</time>
      </trkpt>
      <trkpt lat="45.86894" lon="4.65684">
        <ele>216.24345</ele>
        <time>2022-09-27T12:31:09.000Z</time>
      </trkpt>
      <trkpt lat="45.86893" lon="4.65674">
        <ele>215.97844</ele>
        <time>2022-09-27T12:31:10.000Z</time>
      </trkpt>
      <trkpt lat="45.86893" lon="4.65666">
        <ele>215.67908</ele>
        <time>2022-09-27T12:31:11.000Z</time>
      </trkpt>
      <trkpt lat="45.86892" lon="4.65656">
        <ele>215.38419</ele>
        <time>2022-09-27T12:31:12.000Z</time>
      </trkpt>
      <trkpt lat="45.86893" lon="4.65647">
        <ele>215.01485</ele>
        <time>2022-09-27T12:31:13.000Z</time>
      </trkpt>
      <trkpt lat="45.86894" lon="4.65639">
        <ele>214.66324</ele>
        <time>2022-09-27T12:31:14.000Z</time>
      </trkpt>
      <trkpt lat="45.86897" lon="4.65629">
        <ele>214.31165</ele>
        <time>2022-09-27T12:31:15.000Z</time>
      </trkpt>
      <trkpt lat="45.86899" lon="4.65619">
        <ele>213.922</ele>
        <time>2022-09-27T12:31:16.000Z</time>
      </trkpt>
      <trkpt lat="45.86901" lon="4.6561">
        <ele>213.56355</ele>
        <time>2022-09-27T12:31:17.000Z</time>
      </trkpt>
      <trkpt lat="45.86904" lon="4.656">
        <ele>213.26973</ele>
        <time>2022-09-27T12:31:18.000Z</time>
      </trkpt>
      <trkpt lat="45.86906" lon="4.6559">
        <ele>212.97771</ele>
        <time>2022-09-27T12:31:19.000Z</time>
      </trkpt>
      <trkpt lat="45.86908" lon="4.6558">
        <ele>212.64326</ele>
        <time>2022-09-27T12:31:20.000Z</time>
      </trkpt>
      <trkpt lat="45.86912" lon="4.6557">
        <ele>212.26167</ele>
        <time>2022-09-27T12:31:21.000Z</time>
      </trkpt>
      <trkpt lat="45.86916" lon="4.65561">
        <ele>211.98215</ele>
        <time>2022-09-27T12:31:22.000Z</time>
      </trkpt>
      <trkpt lat="45.86919" lon="4.65552">
        <ele>211.70593</ele>
        <time>2022-09-27T12:31:23.000Z</time>
      </trkpt>
      <trkpt lat="45.86923" lon="4.65543">
        <ele>211.49988</ele>
        <time>2022-09-27T12:31:24.000Z</time>
      </trkpt>
      <trkpt lat="45.86927" lon="4.65534">
        <ele>211.33379</ele>
        <time>2022-09-27T12:31:25.000Z</time>
      </trkpt>
      <trkpt lat="45.8693" lon="4.65526">
        <ele>211.25528</ele>
        <time>2022-09-27T12:31:26.000Z</time>
      </trkpt>
      <trkpt lat="45.86934" lon="4.65518">
        <ele>211.14445</ele>
        <time>2022-09-27T12:31:27.000Z</time>
      </trkpt>
      <trkpt lat="45.86938" lon="4.65511">
        <ele>211.03777</ele>
        <time>2022-09-27T12:31:28.000Z</time>
      </trkpt>
      <trkpt lat="45.86942" lon="4.65503">
        <ele>211.02075</ele>
        <time>2022-09-27T12:31:29.000Z</time>
      </trkpt>
      <trkpt lat="45.86945" lon="4.65495">
        <ele>210.98543</ele>
        <time>2022-09-27T12:31:30.000Z</time>
      </trkpt>
      <trkpt lat="45.86949" lon="4.65488">
        <ele>210.95683</ele>
        <time>2022-09-27T12:31:31.000Z</time>
      </trkpt>
      <trkpt lat="45.86953" lon="4.65481">
        <ele>210.90413</ele>
        <time>2022-09-27T12:31:32.000Z</time>
      </trkpt>
      <trkpt lat="45.86958" lon="4.65475">
        <ele>210.91275</ele>
        <time>2022-09-27T12:31:33.000Z</time>
      </trkpt>
      <trkpt lat="45.86963" lon="4.65469">
        <ele>211.02609</ele>
        <time>2022-09-27T12:31:34.000Z</time>
      </trkpt>
      <trkpt lat="45.86968" lon="4.65463">
        <ele>211.16658</ele>
        <time>2022-09-27T12:31:35.000Z</time>
      </trkpt>
      <trkpt lat="45.86972" lon="4.65456">
        <ele>211.3134</ele>
        <time>2022-09-27T12:31:36.000Z</time>
      </trkpt>
      <trkpt lat="45.86976" lon="4.6545">
        <ele>211.50705</ele>
        <time>2022-09-27T12:31:37.000Z</time>
      </trkpt>
      <trkpt lat="45.86983" lon="4.65445">
        <ele>211.59494</ele>
        <time>2022-09-27T12:31:38.000Z</time>
      </trkpt>
      <trkpt lat="45.86988" lon="4.65439">
        <ele>211.63623</ele>
        <time>2022-09-27T12:31:39.000Z</time>
      </trkpt>
      <trkpt lat="45.86994" lon="4.65434">
        <ele>211.7178</ele>
        <time>2022-09-27T12:31:40.000Z</time>
      </trkpt>
      <trkpt lat="45.86999" lon="4.65428">
        <ele>211.85596</ele>
        <time>2022-09-27T12:31:41.000Z</time>
      </trkpt>
      <trkpt lat="45.87004" lon="4.65422">
        <ele>211.86885</ele>
        <time>2022-09-27T12:31:42.000Z</time>
      </trkpt>
      <trkpt lat="45.87009" lon="4.65416">
        <ele>211.96301</ele>
        <time>2022-09-27T12:31:43.000Z</time>
      </trkpt>
      <trkpt lat="45.87014" lon="4.65409">
        <ele>212.02458</ele>
        <time>2022-09-27T12:31:44.000Z</time>
      </trkpt>
      <trkpt lat="45.8702" lon="4.65404">
        <ele>212.0802</ele>
        <time>2022-09-27T12:31:45.000Z</time>
      </trkpt>
      <trkpt lat="45.87025" lon="4.65399">
        <ele>211.9888</ele>
        <time>2022-09-27T12:31:46.000Z</time>
      </trkpt>
      <trkpt lat="45.8703" lon="4.65394">
        <ele>211.88728</ele>
        <time>2022-09-27T12:31:47.000Z</time>
      </trkpt>
      <trkpt lat="45.87033" lon="4.65387">
        <ele>211.77621</ele>
        <time>2022-09-27T12:31:48.000Z</time>
      </trkpt>
      <trkpt lat="45.87035" lon="4.65381">
        <ele>211.53935</ele>
        <time>2022-09-27T12:31:49.000Z</time>
      </trkpt>
      <trkpt lat="45.87039" lon="4.65373">
        <ele>211.33597</ele>
        <time>2022-09-27T12:31:50.000Z</time>
      </trkpt>
      <trkpt lat="45.87041" lon="4.65366">
        <ele>211.12668</ele>
        <time>2022-09-27T12:31:51.000Z</time>
      </trkpt>
      <trkpt lat="45.87046" lon="4.65357">
        <ele>210.93672</ele>
        <time>2022-09-27T12:31:52.000Z</time>
      </trkpt>
      <trkpt lat="45.87047" lon="4.65346">
        <ele>210.81123</ele>
        <time>2022-09-27T12:31:53.000Z</time>
      </trkpt>
      <trkpt lat="45.87053" lon="4.65338">
        <ele>210.66499</ele>
        <time>2022-09-27T12:31:54.000Z</time>
      </trkpt>
      <trkpt lat="45.87061" lon="4.65332">
        <ele>210.60083</ele>
        <time>2022-09-27T12:31:55.000Z</time>
      </trkpt>
      <trkpt lat="45.87064" lon="4.65327">
        <ele>210.43562</ele>
        <time>2022-09-27T12:31:56.000Z</time>
      </trkpt>
      <trkpt lat="45.87068" lon="4.65319">
        <ele>210.27592</ele>
        <time>2022-09-27T12:31:57.000Z</time>
      </trkpt>
      <trkpt lat="45.87072" lon="4.65312">
        <ele>210.19585</ele>
        <time>2022-09-27T12:31:58.000Z</time>
      </trkpt>
      <trkpt lat="45.87096" lon="4.65265">
        <ele>210.1082</ele>
        <time>2022-09-27T12:32:04.000Z</time>
      </trkpt>
      <trkpt lat="45.871" lon="4.65257">
        <ele>209.99612</ele>
        <time>2022-09-27T12:32:05.000Z</time>
      </trkpt>
      <trkpt lat="45.87105" lon="4.65251">
        <ele>209.83585</ele>
        <time>2022-09-27T12:32:06.000Z</time>
      </trkpt>
      <trkpt lat="45.87109" lon="4.65243">
        <ele>209.69527</ele>
        <time>2022-09-27T12:32:07.000Z</time>
      </trkpt>
      <trkpt lat="45.87112" lon="4.65235">
        <ele>209.53491</ele>
        <time>2022-09-27T12:32:08.000Z</time>
      </trkpt>
      <trkpt lat="45.87116" lon="4.65228">
        <ele>209.40352</ele>
        <time>2022-09-27T12:32:09.000Z</time>
      </trkpt>
      <trkpt lat="45.8712" lon="4.65221">
        <ele>209.35403</ele>
        <time>2022-09-27T12:32:10.000Z</time>
      </trkpt>
      <trkpt lat="45.87125" lon="4.65215">
        <ele>209.43253</ele>
        <time>2022-09-27T12:32:11.000Z</time>
      </trkpt>
      <trkpt lat="45.8713" lon="4.65207">
        <ele>209.54916</ele>
        <time>2022-09-27T12:32:12.000Z</time>
      </trkpt>
      <trkpt lat="45.87133" lon="4.65201">
        <ele>209.69868</ele>
        <time>2022-09-27T12:32:13.000Z</time>
      </trkpt>
      <trkpt lat="45.87138" lon="4.65195">
        <ele>210.00237</ele>
        <time>2022-09-27T12:32:14.000Z</time>
      </trkpt>
      <trkpt lat="45.87143" lon="4.65189">
        <ele>210.31099</ele>
        <time>2022-09-27T12:32:15.000Z</time>
      </trkpt>
      <trkpt lat="45.87149" lon="4.65184">
        <ele>210.68181</ele>
        <time>2022-09-27T12:32:16.000Z</time>
      </trkpt>
      <trkpt lat="45.87154" lon="4.65178">
        <ele>211.11435</ele>
        <time>2022-09-27T12:32:17.000Z</time>
      </trkpt>
      <trkpt lat="45.87159" lon="4.65172">
        <ele>211.54868</ele>
        <time>2022-09-27T12:32:18.000Z</time>
      </trkpt>
      <trkpt lat="45.87165" lon="4.65168">
        <ele>211.85689</ele>
        <time>2022-09-27T12:32:19.000Z</time>
      </trkpt>
      <trkpt lat="45.87168" lon="4.65162">
        <ele>212.08427</ele>
        <time>2022-09-27T12:32:20.000Z</time>
      </trkpt>
      <trkpt lat="45.87174" lon="4.65156">
        <ele>212.41521</ele>
        <time>2022-09-27T12:32:21.000Z</time>
      </trkpt>
      <trkpt lat="45.8718" lon="4.65152">
        <ele>212.66605</ele>
        <time>2022-09-27T12:32:22.000Z</time>
      </trkpt>
      <trkpt lat="45.87186" lon="4.65149">
        <ele>212.92783</ele>
        <time>2022-09-27T12:32:23.000Z</time>
      </trkpt>
      <trkpt lat="45.87191" lon="4.65143">
        <ele>213.22256</ele>
        <time>2022-09-27T12:32:24.000Z</time>
      </trkpt>
      <trkpt lat="45.87197" lon="4.65139">
        <ele>213.5361</ele>
        <time>2022-09-27T12:32:25.000Z</time>
      </trkpt>
      <trkpt lat="45.87203" lon="4.65135">
        <ele>213.8992</ele>
        <time>2022-09-27T12:32:26.000Z</time>
      </trkpt>
      <trkpt lat="45.87209" lon="4.65132">
        <ele>214.20654</ele>
        <time>2022-09-27T12:32:27.000Z</time>
      </trkpt>
      <trkpt lat="45.87213" lon="4.65127">
        <ele>214.49199</ele>
        <time>2022-09-27T12:32:28.000Z</time>
      </trkpt>
      <trkpt lat="45.8722" lon="4.65123">
        <ele>214.78174</ele>
        <time>2022-09-27T12:32:29.000Z</time>
      </trkpt>
      <trkpt lat="45.87223" lon="4.65116">
        <ele>215.02275</ele>
        <time>2022-09-27T12:32:30.000Z</time>
      </trkpt>
      <trkpt lat="45.87228" lon="4.65113">
        <ele>215.23911</ele>
        <time>2022-09-27T12:32:31.000Z</time>
      </trkpt>
      <trkpt lat="45.87233" lon="4.65109">
        <ele>215.47629</ele>
        <time>2022-09-27T12:32:32.000Z</time>
      </trkpt>
      <trkpt lat="45.87237" lon="4.65106">
        <ele>215.66879</ele>
        <time>2022-09-27T12:32:33.000Z</time>
      </trkpt>
      <trkpt lat="45.87242" lon="4.65101">
        <ele>215.77908</ele>
        <time>2022-09-27T12:32:34.000Z</time>
      </trkpt>
      <trkpt lat="45.87248" lon="4.65095">
        <ele>215.87497</ele>
        <time>2022-09-27T12:32:35.000Z</time>
      </trkpt>
      <trkpt lat="45.87254" lon="4.65092">
        <ele>215.92989</ele>
        <time>2022-09-27T12:32:36.000Z</time>
      </trkpt>
      <trkpt lat="45.87259" lon="4.65086">
        <ele>215.96884</ele>
        <time>2022-09-27T12:32:37.000Z</time>
      </trkpt>
      <trkpt lat="45.87264" lon="4.6508">
        <ele>216.03989</ele>
        <time>2022-09-27T12:32:38.000Z</time>
      </trkpt>
      <trkpt lat="45.87268" lon="4.65074">
        <ele>216.22977</ele>
        <time>2022-09-27T12:32:39.000Z</time>
      </trkpt>
      <trkpt lat="45.87272" lon="4.65068">
        <ele>216.40263</ele>
        <time>2022-09-27T12:32:40.000Z</time>
      </trkpt>
      <trkpt lat="45.87276" lon="4.65063">
        <ele>216.57715</ele>
        <time>2022-09-27T12:32:41.000Z</time>
      </trkpt>
      <trkpt lat="45.8728" lon="4.65056">
        <ele>216.77068</ele>
        <time>2022-09-27T12:32:42.000Z</time>
      </trkpt>
      <trkpt lat="45.87283" lon="4.6505">
        <ele>216.93204</ele>
        <time>2022-09-27T12:32:43.000Z</time>
      </trkpt>
      <trkpt lat="45.87286" lon="4.65043">
        <ele>217.10088</ele>
        <time>2022-09-27T12:32:44.000Z</time>
      </trkpt>
      <trkpt lat="45.8729" lon="4.65038">
        <ele>217.21713</ele>
        <time>2022-09-27T12:32:45.000Z</time>
      </trkpt>
      <trkpt lat="45.87294" lon="4.65031">
        <ele>217.37204</ele>
        <time>2022-09-27T12:32:46.000Z</time>
      </trkpt>
      <trkpt lat="45.87297" lon="4.65026">
        <ele>217.51282</ele>
        <time>2022-09-27T12:32:47.000Z</time>
      </trkpt>
      <trkpt lat="45.873" lon="4.65019">
        <ele>217.63689</ele>
        <time>2022-09-27T12:32:48.000Z</time>
      </trkpt>
      <trkpt lat="45.87305" lon="4.65012">
        <ele>217.73898</ele>
        <time>2022-09-27T12:32:49.000Z</time>
      </trkpt>
      <trkpt lat="45.8731" lon="4.65005">
        <ele>217.83316</ele>
        <time>2022-09-27T12:32:50.000Z</time>
      </trkpt>
      <trkpt lat="45.87314" lon="4.65002">
        <ele>217.77971</ele>
        <time>2022-09-27T12:32:51.000Z</time>
      </trkpt>
      <trkpt lat="45.87318" lon="4.64996">
        <ele>217.67081</ele>
        <time>2022-09-27T12:32:52.000Z</time>
      </trkpt>
      <trkpt lat="45.87322" lon="4.64989">
        <ele>217.67322</ele>
        <time>2022-09-27T12:32:53.000Z</time>
      </trkpt>
      <trkpt lat="45.87324" lon="4.64983">
        <ele>217.68913</ele>
        <time>2022-09-27T12:32:54.000Z</time>
      </trkpt>
      <trkpt lat="45.87328" lon="4.64975">
        <ele>217.71074</ele>
        <time>2022-09-27T12:32:55.000Z</time>
      </trkpt>
      <trkpt lat="45.87331" lon="4.64968">
        <ele>217.72592</ele>
        <time>2022-09-27T12:32:56.000Z</time>
      </trkpt>
      <trkpt lat="45.87336" lon="4.64962">
        <ele>217.67216</ele>
        <time>2022-09-27T12:32:57.000Z</time>
      </trkpt>
      <trkpt lat="45.87339" lon="4.64955">
        <ele>217.49353</ele>
        <time>2022-09-27T12:32:58.000Z</time>
      </trkpt>
      <trkpt lat="45.87344" lon="4.64949">
        <ele>217.25635</ele>
        <time>2022-09-27T12:32:59.000Z</time>
      </trkpt>
      <trkpt lat="45.87347" lon="4.64943">
        <ele>216.97873</ele>
        <time>2022-09-27T12:33:00.000Z</time>
      </trkpt>
      <trkpt lat="45.87352" lon="4.64937">
        <ele>216.78317</ele>
        <time>2022-09-27T12:33:01.000Z</time>
      </trkpt>
      <trkpt lat="45.87357" lon="4.6493">
        <ele>216.62265</ele>
        <time>2022-09-27T12:33:02.000Z</time>
      </trkpt>
      <trkpt lat="45.8736" lon="4.64923">
        <ele>216.49268</ele>
        <time>2022-09-27T12:33:03.000Z</time>
      </trkpt>
      <trkpt lat="45.87364" lon="4.64917">
        <ele>216.37862</ele>
        <time>2022-09-27T12:33:04.000Z</time>
      </trkpt>
      <trkpt lat="45.87368" lon="4.64911">
        <ele>216.24179</ele>
        <time>2022-09-27T12:33:05.000Z</time>
      </trkpt>
      <trkpt lat="45.87371" lon="4.64904">
        <ele>216.01563</ele>
        <time>2022-09-27T12:33:06.000Z</time>
      </trkpt>
      <trkpt lat="45.87376" lon="4.64897">
        <ele>215.9202</ele>
        <time>2022-09-27T12:33:07.000Z</time>
      </trkpt>
      <trkpt lat="45.87381" lon="4.64891">
        <ele>215.82193</ele>
        <time>2022-09-27T12:33:08.000Z</time>
      </trkpt>
      <trkpt lat="45.87388" lon="4.64885">
        <ele>215.73752</ele>
        <time>2022-09-27T12:33:09.000Z</time>
      </trkpt>
      <trkpt lat="45.87392" lon="4.6488">
        <ele>215.66133</ele>
        <time>2022-09-27T12:33:10.000Z</time>
      </trkpt>
      <trkpt lat="45.87397" lon="4.64875">
        <ele>215.72852</ele>
        <time>2022-09-27T12:33:11.000Z</time>
      </trkpt>
      <trkpt lat="45.87402" lon="4.6487">
        <ele>215.85294</ele>
        <time>2022-09-27T12:33:12.000Z</time>
      </trkpt>
      <trkpt lat="45.87407" lon="4.64865">
        <ele>215.88017</ele>
        <time>2022-09-27T12:33:13.000Z</time>
      </trkpt>
      <trkpt lat="45.87411" lon="4.6486">
        <ele>215.9052</ele>
        <time>2022-09-27T12:33:14.000Z</time>
      </trkpt>
      <trkpt lat="45.87415" lon="4.64854">
        <ele>215.90938</ele>
        <time>2022-09-27T12:33:15.000Z</time>
      </trkpt>
      <trkpt lat="45.87419" lon="4.64849">
        <ele>215.91069</ele>
        <time>2022-09-27T12:33:16.000Z</time>
      </trkpt>
      <trkpt lat="45.87423" lon="4.64845">
        <ele>215.93164</ele>
        <time>2022-09-27T12:33:17.000Z</time>
      </trkpt>
      <trkpt lat="45.87427" lon="4.64839">
        <ele>215.97534</ele>
        <time>2022-09-27T12:33:18.000Z</time>
      </trkpt>
      <trkpt lat="45.8743" lon="4.64833">
        <ele>216.00974</ele>
        <time>2022-09-27T12:33:19.000Z</time>
      </trkpt>
      <trkpt lat="45.87434" lon="4.64828">
        <ele>216.08167</ele>
        <time>2022-09-27T12:33:20.000Z</time>
      </trkpt>
      <trkpt lat="45.87439" lon="4.64824">
        <ele>216.0168</ele>
        <time>2022-09-27T12:33:21.000Z</time>
      </trkpt>
      <trkpt lat="45.87444" lon="4.64818">
        <ele>215.90031</ele>
        <time>2022-09-27T12:33:22.000Z</time>
      </trkpt>
      <trkpt lat="45.87448" lon="4.64813">
        <ele>215.85764</ele>
        <time>2022-09-27T12:33:23.000Z</time>
      </trkpt>
      <trkpt lat="45.87452" lon="4.64808">
        <ele>215.78789</ele>
        <time>2022-09-27T12:33:24.000Z</time>
      </trkpt>
      <trkpt lat="45.87455" lon="4.64803">
        <ele>215.72282</ele>
        <time>2022-09-27T12:33:25.000Z</time>
      </trkpt>
      <trkpt lat="45.87459" lon="4.64797">
        <ele>215.76273</ele>
        <time>2022-09-27T12:33:26.000Z</time>
      </trkpt>
      <trkpt lat="45.87464" lon="4.64791">
        <ele>215.73396</ele>
        <time>2022-09-27T12:33:27.000Z</time>
      </trkpt>
      <trkpt lat="45.87468" lon="4.64785">
        <ele>215.70605</ele>
        <time>2022-09-27T12:33:28.000Z</time>
      </trkpt>
      <trkpt lat="45.87472" lon="4.6478">
        <ele>215.59378</ele>
        <time>2022-09-27T12:33:29.000Z</time>
      </trkpt>
      <trkpt lat="45.87476" lon="4.64773">
        <ele>215.46591</ele>
        <time>2022-09-27T12:33:30.000Z</time>
      </trkpt>
      <trkpt lat="45.87479" lon="4.64767">
        <ele>215.3372</ele>
        <time>2022-09-27T12:33:31.000Z</time>
      </trkpt>
      <trkpt lat="45.87483" lon="4.64762">
        <ele>215.18242</ele>
        <time>2022-09-27T12:33:32.000Z</time>
      </trkpt>
      <trkpt lat="45.87488" lon="4.64756">
        <ele>215.00839</ele>
        <time>2022-09-27T12:33:33.000Z</time>
      </trkpt>
      <trkpt lat="45.87492" lon="4.64751">
        <ele>214.80185</ele>
        <time>2022-09-27T12:33:34.000Z</time>
      </trkpt>
      <trkpt lat="45.87497" lon="4.64746">
        <ele>214.54436</ele>
        <time>2022-09-27T12:33:35.000Z</time>
      </trkpt>
      <trkpt lat="45.87499" lon="4.64739">
        <ele>214.34213</ele>
        <time>2022-09-27T12:33:36.000Z</time>
      </trkpt>
      <trkpt lat="45.87506" lon="4.64734">
        <ele>214.31474</ele>
        <time>2022-09-27T12:33:37.000Z</time>
      </trkpt>
      <trkpt lat="45.87509" lon="4.64727">
        <ele>214.38333</ele>
        <time>2022-09-27T12:33:38.000Z</time>
      </trkpt>
      <trkpt lat="45.87514" lon="4.64722">
        <ele>214.43352</ele>
        <time>2022-09-27T12:33:39.000Z</time>
      </trkpt>
      <trkpt lat="45.87519" lon="4.64717">
        <ele>214.44678</ele>
        <time>2022-09-27T12:33:40.000Z</time>
      </trkpt>
      <trkpt lat="45.87523" lon="4.64712">
        <ele>214.50537</ele>
        <time>2022-09-27T12:33:41.000Z</time>
      </trkpt>
      <trkpt lat="45.87528" lon="4.64706">
        <ele>214.58134</ele>
        <time>2022-09-27T12:33:42.000Z</time>
      </trkpt>
      <trkpt lat="45.87534" lon="4.64701">
        <ele>214.57248</ele>
        <time>2022-09-27T12:33:43.000Z</time>
      </trkpt>
      <trkpt lat="45.87538" lon="4.64695">
        <ele>214.66382</ele>
        <time>2022-09-27T12:33:44.000Z</time>
      </trkpt>
      <trkpt lat="45.87541" lon="4.64688">
        <ele>214.84981</ele>
        <time>2022-09-27T12:33:45.000Z</time>
      </trkpt>
      <trkpt lat="45.87546" lon="4.64683">
        <ele>214.95586</ele>
        <time>2022-09-27T12:33:46.000Z</time>
      </trkpt>
      <trkpt lat="45.8755" lon="4.64677">
        <ele>215.11853</ele>
        <time>2022-09-27T12:33:47.000Z</time>
      </trkpt>
      <trkpt lat="45.87552" lon="4.64671">
        <ele>215.27251</ele>
        <time>2022-09-27T12:33:48.000Z</time>
      </trkpt>
      <trkpt lat="45.87555" lon="4.64665">
        <ele>215.47229</ele>
        <time>2022-09-27T12:33:49.000Z</time>
      </trkpt>
      <trkpt lat="45.87559" lon="4.64661">
        <ele>215.67859</ele>
        <time>2022-09-27T12:33:50.000Z</time>
      </trkpt>
      <trkpt lat="45.87563" lon="4.64654">
        <ele>215.96109</ele>
        <time>2022-09-27T12:33:51.000Z</time>
      </trkpt>
      <trkpt lat="45.87568" lon="4.64649">
        <ele>216.2852</ele>
        <time>2022-09-27T12:33:52.000Z</time>
      </trkpt>
      <trkpt lat="45.87573" lon="4.64644">
        <ele>216.55722</ele>
        <time>2022-09-27T12:33:53.000Z</time>
      </trkpt>
      <trkpt lat="45.87577" lon="4.64638">
        <ele>216.82224</ele>
        <time>2022-09-27T12:33:54.000Z</time>
      </trkpt>
      <trkpt lat="45.87581" lon="4.64636">
        <ele>217.09537</ele>
        <time>2022-09-27T12:33:55.000Z</time>
      </trkpt>
      <trkpt lat="45.87584" lon="4.6463">
        <ele>217.35161</ele>
        <time>2022-09-27T12:33:56.000Z</time>
      </trkpt>
      <trkpt lat="45.87588" lon="4.64624">
        <ele>217.42813</ele>
        <time>2022-09-27T12:33:57.000Z</time>
      </trkpt>
      <trkpt lat="45.87593" lon="4.64617">
        <ele>217.50674</ele>
        <time>2022-09-27T12:33:58.000Z</time>
      </trkpt>
      <trkpt lat="45.87597" lon="4.64611">
        <ele>217.58769</ele>
        <time>2022-09-27T12:33:59.000Z</time>
      </trkpt>
      <trkpt lat="45.87602" lon="4.64608">
        <ele>217.7137</ele>
        <time>2022-09-27T12:34:00.000Z</time>
      </trkpt>
      <trkpt lat="45.87607" lon="4.64603">
        <ele>217.84415</ele>
        <time>2022-09-27T12:34:01.000Z</time>
      </trkpt>
      <trkpt lat="45.87611" lon="4.64599">
        <ele>218.00943</ele>
        <time>2022-09-27T12:34:02.000Z</time>
      </trkpt>
      <trkpt lat="45.87614" lon="4.64593">
        <ele>218.10245</ele>
        <time>2022-09-27T12:34:03.000Z</time>
      </trkpt>
      <trkpt lat="45.87618" lon="4.64588">
        <ele>218.10364</ele>
        <time>2022-09-27T12:34:04.000Z</time>
      </trkpt>
      <trkpt lat="45.87621" lon="4.64583">
        <ele>218.05566</ele>
        <time>2022-09-27T12:34:05.000Z</time>
      </trkpt>
      <trkpt lat="45.87627" lon="4.64579">
        <ele>217.95369</ele>
        <time>2022-09-27T12:34:06.000Z</time>
      </trkpt>
      <trkpt lat="45.87631" lon="4.64573">
        <ele>217.77011</ele>
        <time>2022-09-27T12:34:07.000Z</time>
      </trkpt>
      <trkpt lat="45.87636" lon="4.64567">
        <ele>217.63867</ele>
        <time>2022-09-27T12:34:08.000Z</time>
      </trkpt>
      <trkpt lat="45.87638" lon="4.64561">
        <ele>217.55637</ele>
        <time>2022-09-27T12:34:09.000Z</time>
      </trkpt>
      <trkpt lat="45.87645" lon="4.64558">
        <ele>217.52637</ele>
        <time>2022-09-27T12:34:10.000Z</time>
      </trkpt>
      <trkpt lat="45.87647" lon="4.64549">
        <ele>217.38712</ele>
        <time>2022-09-27T12:34:11.000Z</time>
      </trkpt>
      <trkpt lat="45.87651" lon="4.64542">
        <ele>217.15889</ele>
        <time>2022-09-27T12:34:12.000Z</time>
      </trkpt>
      <trkpt lat="45.87655" lon="4.64536">
        <ele>216.95039</ele>
        <time>2022-09-27T12:34:13.000Z</time>
      </trkpt>
      <trkpt lat="45.87662" lon="4.64531">
        <ele>216.80302</ele>
        <time>2022-09-27T12:34:14.000Z</time>
      </trkpt>
      <trkpt lat="45.87666" lon="4.64527">
        <ele>216.634</ele>
        <time>2022-09-27T12:34:15.000Z</time>
      </trkpt>
      <trkpt lat="45.87671" lon="4.64522">
        <ele>216.47351</ele>
        <time>2022-09-27T12:34:16.000Z</time>
      </trkpt>
      <trkpt lat="45.87675" lon="4.64514">
        <ele>216.35593</ele>
        <time>2022-09-27T12:34:17.000Z</time>
      </trkpt>
      <trkpt lat="45.87679" lon="4.64509">
        <ele>216.13261</ele>
        <time>2022-09-27T12:34:18.000Z</time>
      </trkpt>
      <trkpt lat="45.87682" lon="4.64504">
        <ele>215.94502</ele>
        <time>2022-09-27T12:34:19.000Z</time>
      </trkpt>
      <trkpt lat="45.87687" lon="4.645">
        <ele>215.70322</ele>
        <time>2022-09-27T12:34:20.000Z</time>
      </trkpt>
      <trkpt lat="45.8769" lon="4.64494">
        <ele>215.46672</ele>
        <time>2022-09-27T12:34:21.000Z</time>
      </trkpt>
      <trkpt lat="45.87694" lon="4.64487">
        <ele>215.26627</ele>
        <time>2022-09-27T12:34:22.000Z</time>
      </trkpt>
      <trkpt lat="45.87698" lon="4.64483">
        <ele>215.15495</ele>
        <time>2022-09-27T12:34:23.000Z</time>
      </trkpt>
      <trkpt lat="45.87701" lon="4.64475">
        <ele>215.01953</ele>
        <time>2022-09-27T12:34:24.000Z</time>
      </trkpt>
      <trkpt lat="45.87705" lon="4.64469">
        <ele>214.93684</ele>
        <time>2022-09-27T12:34:25.000Z</time>
      </trkpt>
      <trkpt lat="45.87708" lon="4.64464">
        <ele>214.92004</ele>
        <time>2022-09-27T12:34:26.000Z</time>
      </trkpt>
      <trkpt lat="45.87713" lon="4.6446">
        <ele>214.8584</ele>
        <time>2022-09-27T12:34:27.000Z</time>
      </trkpt>
      <trkpt lat="45.87719" lon="4.64454">
        <ele>214.78821</ele>
        <time>2022-09-27T12:34:28.000Z</time>
      </trkpt>
      <trkpt lat="45.87723" lon="4.64448">
        <ele>214.63986</ele>
        <time>2022-09-27T12:34:29.000Z</time>
      </trkpt>
      <trkpt lat="45.87727" lon="4.64445">
        <ele>214.4528</ele>
        <time>2022-09-27T12:34:30.000Z</time>
      </trkpt>
      <trkpt lat="45.8773" lon="4.64438">
        <ele>214.42969</ele>
        <time>2022-09-27T12:34:31.000Z</time>
      </trkpt>
      <trkpt lat="45.87738" lon="4.64435">
        <ele>214.43161</ele>
        <time>2022-09-27T12:34:32.000Z</time>
      </trkpt>
      <trkpt lat="45.87741" lon="4.64427">
        <ele>214.47783</ele>
        <time>2022-09-27T12:34:33.000Z</time>
      </trkpt>
      <trkpt lat="45.87747" lon="4.64424">
        <ele>214.51587</ele>
        <time>2022-09-27T12:34:34.000Z</time>
      </trkpt>
      <trkpt lat="45.87749" lon="4.64418">
        <ele>214.56723</ele>
        <time>2022-09-27T12:34:35.000Z</time>
      </trkpt>
      <trkpt lat="45.87755" lon="4.64413">
        <ele>214.55</ele>
        <time>2022-09-27T12:34:36.000Z</time>
      </trkpt>
      <trkpt lat="45.87762" lon="4.64413">
        <ele>214.50784</ele>
        <time>2022-09-27T12:34:37.000Z</time>
      </trkpt>
      <trkpt lat="45.87765" lon="4.64405">
        <ele>214.49297</ele>
        <time>2022-09-27T12:34:38.000Z</time>
      </trkpt>
      <trkpt lat="45.8777" lon="4.64399">
        <ele>214.51099</ele>
        <time>2022-09-27T12:34:39.000Z</time>
      </trkpt>
      <trkpt lat="45.87772" lon="4.64393">
        <ele>214.55925</ele>
        <time>2022-09-27T12:34:40.000Z</time>
      </trkpt>
      <trkpt lat="45.87777" lon="4.64387">
        <ele>214.58984</ele>
        <time>2022-09-27T12:34:41.000Z</time>
      </trkpt>
      <trkpt lat="45.87783" lon="4.64385">
        <ele>214.58028</ele>
        <time>2022-09-27T12:34:42.000Z</time>
      </trkpt>
      <trkpt lat="45.87787" lon="4.64378">
        <ele>214.62817</ele>
        <time>2022-09-27T12:34:43.000Z</time>
      </trkpt>
      <trkpt lat="45.87793" lon="4.64372">
        <ele>214.70761</ele>
        <time>2022-09-27T12:34:44.000Z</time>
      </trkpt>
      <trkpt lat="45.87799" lon="4.64366">
        <ele>214.83659</ele>
        <time>2022-09-27T12:34:45.000Z</time>
      </trkpt>
      <trkpt lat="45.87802" lon="4.64361">
        <ele>214.87837</ele>
        <time>2022-09-27T12:34:46.000Z</time>
      </trkpt>
      <trkpt lat="45.87806" lon="4.64352">
        <ele>215.06018</ele>
        <time>2022-09-27T12:34:47.000Z</time>
      </trkpt>
      <trkpt lat="45.8781" lon="4.64345">
        <ele>215.28899</ele>
        <time>2022-09-27T12:34:48.000Z</time>
      </trkpt>
      <trkpt lat="45.87813" lon="4.64338">
        <ele>215.55086</ele>
        <time>2022-09-27T12:34:49.000Z</time>
      </trkpt>
      <trkpt lat="45.87816" lon="4.64331">
        <ele>215.81747</ele>
        <time>2022-09-27T12:34:50.000Z</time>
      </trkpt>
      <trkpt lat="45.87819" lon="4.64323">
        <ele>215.9491</ele>
        <time>2022-09-27T12:34:51.000Z</time>
      </trkpt>
      <trkpt lat="45.87825" lon="4.64317">
        <ele>216.12019</ele>
        <time>2022-09-27T12:34:52.000Z</time>
      </trkpt>
      <trkpt lat="45.87829" lon="4.64312">
        <ele>216.3031</ele>
        <time>2022-09-27T12:34:53.000Z</time>
      </trkpt>
      <trkpt lat="45.87835" lon="4.64306">
        <ele>216.4758</ele>
        <time>2022-09-27T12:34:54.000Z</time>
      </trkpt>
      <trkpt lat="45.87838" lon="4.64297">
        <ele>216.6982</ele>
        <time>2022-09-27T12:34:55.000Z</time>
      </trkpt>
      <trkpt lat="45.87841" lon="4.6429">
        <ele>216.98149</ele>
        <time>2022-09-27T12:34:56.000Z</time>
      </trkpt>
      <trkpt lat="45.87846" lon="4.64283">
        <ele>217.26396</ele>
        <time>2022-09-27T12:34:57.000Z</time>
      </trkpt>
      <trkpt lat="45.87849" lon="4.64277">
        <ele>217.51729</ele>
        <time>2022-09-27T12:34:58.000Z</time>
      </trkpt>
      <trkpt lat="45.87854" lon="4.6427">
        <ele>217.80061</ele>
        <time>2022-09-27T12:34:59.000Z</time>
      </trkpt>
      <trkpt lat="45.87885" lon="4.6424">
        <ele>218.03557</ele>
        <time>2022-09-27T12:35:05.000Z</time>
      </trkpt>
      <trkpt lat="45.87887" lon="4.64233">
        <ele>218.25703</ele>
        <time>2022-09-27T12:35:06.000Z</time>
      </trkpt>
      <trkpt lat="45.87892" lon="4.64227">
        <ele>218.48544</ele>
        <time>2022-09-27T12:35:07.000Z</time>
      </trkpt>
      <trkpt lat="45.87897" lon="4.6422">
        <ele>218.7303</ele>
        <time>2022-09-27T12:35:08.000Z</time>
      </trkpt>
      <trkpt lat="45.87901" lon="4.64214">
        <ele>218.90417</ele>
        <time>2022-09-27T12:35:09.000Z</time>
      </trkpt>
      <trkpt lat="45.87903" lon="4.64206">
        <ele>219.0341</ele>
        <time>2022-09-27T12:35:10.000Z</time>
      </trkpt>
      <trkpt lat="45.87908" lon="4.64201">
        <ele>219.20496</ele>
        <time>2022-09-27T12:35:11.000Z</time>
      </trkpt>
      <trkpt lat="45.87908" lon="4.64195">
        <ele>219.35202</ele>
        <time>2022-09-27T12:35:12.000Z</time>
      </trkpt>
      <trkpt lat="45.87915" lon="4.6419">
        <ele>219.47261</ele>
        <time>2022-09-27T12:35:13.000Z</time>
      </trkpt>
      <trkpt lat="45.87922" lon="4.64185">
        <ele>219.65262</ele>
        <time>2022-09-27T12:35:14.000Z</time>
      </trkpt>
      <trkpt lat="45.87921" lon="4.64175">
        <ele>219.76643</ele>
        <time>2022-09-27T12:35:15.000Z</time>
      </trkpt>
      <trkpt lat="45.87927" lon="4.6417">
        <ele>219.94287</ele>
        <time>2022-09-27T12:35:16.000Z</time>
      </trkpt>
      <trkpt lat="45.87929" lon="4.64163">
        <ele>220.06656</ele>
        <time>2022-09-27T12:35:17.000Z</time>
      </trkpt>
      <trkpt lat="45.87934" lon="4.64159">
        <ele>220.19431</ele>
        <time>2022-09-27T12:35:18.000Z</time>
      </trkpt>
      <trkpt lat="45.8794" lon="4.64152">
        <ele>220.36316</ele>
        <time>2022-09-27T12:35:19.000Z</time>
      </trkpt>
      <trkpt lat="45.87944" lon="4.64148">
        <ele>220.51433</ele>
        <time>2022-09-27T12:35:20.000Z</time>
      </trkpt>
      <trkpt lat="45.87949" lon="4.64141">
        <ele>220.71956</ele>
        <time>2022-09-27T12:35:21.000Z</time>
      </trkpt>
      <trkpt lat="45.87953" lon="4.64136">
        <ele>220.88945</ele>
        <time>2022-09-27T12:35:22.000Z</time>
      </trkpt>
      <trkpt lat="45.87956" lon="4.64127">
        <ele>221.10226</ele>
        <time>2022-09-27T12:35:23.000Z</time>
      </trkpt>
      <trkpt lat="45.87961" lon="4.64121">
        <ele>221.22554</ele>
        <time>2022-09-27T12:35:24.000Z</time>
      </trkpt>
      <trkpt lat="45.87966" lon="4.64117">
        <ele>221.34802</ele>
        <time>2022-09-27T12:35:25.000Z</time>
      </trkpt>
      <trkpt lat="45.87971" lon="4.64111">
        <ele>221.46481</ele>
        <time>2022-09-27T12:35:26.000Z</time>
      </trkpt>
      <trkpt lat="45.87972" lon="4.64105">
        <ele>221.52133</ele>
        <time>2022-09-27T12:35:27.000Z</time>
      </trkpt>
      <trkpt lat="45.87977" lon="4.64099">
        <ele>221.44205</ele>
        <time>2022-09-27T12:35:28.000Z</time>
      </trkpt>
      <trkpt lat="45.87982" lon="4.64093">
        <ele>221.46892</ele>
        <time>2022-09-27T12:35:29.000Z</time>
      </trkpt>
      <trkpt lat="45.87985" lon="4.64087">
        <ele>221.53841</ele>
        <time>2022-09-27T12:35:30.000Z</time>
      </trkpt>
      <trkpt lat="45.8799" lon="4.64082">
        <ele>221.5759</ele>
        <time>2022-09-27T12:35:31.000Z</time>
      </trkpt>
      <trkpt lat="45.87994" lon="4.64076">
        <ele>221.56924</ele>
        <time>2022-09-27T12:35:32.000Z</time>
      </trkpt>
      <trkpt lat="45.87998" lon="4.6407">
        <ele>221.55386</ele>
        <time>2022-09-27T12:35:33.000Z</time>
      </trkpt>
      <trkpt lat="45.88002" lon="4.64064">
        <ele>221.51785</ele>
        <time>2022-09-27T12:35:34.000Z</time>
      </trkpt>
      <trkpt lat="45.88007" lon="4.64059">
        <ele>221.50089</ele>
        <time>2022-09-27T12:35:35.000Z</time>
      </trkpt>
      <trkpt lat="45.88014" lon="4.64054">
        <ele>221.44467</ele>
        <time>2022-09-27T12:35:36.000Z</time>
      </trkpt>
      <trkpt lat="45.88017" lon="4.64047">
        <ele>221.4313</ele>
        <time>2022-09-27T12:35:37.000Z</time>
      </trkpt>
      <trkpt lat="45.88021" lon="4.64042">
        <ele>221.38083</ele>
        <time>2022-09-27T12:35:38.000Z</time>
      </trkpt>
      <trkpt lat="45.88025" lon="4.64037">
        <ele>221.27853</ele>
        <time>2022-09-27T12:35:39.000Z</time>
      </trkpt>
      <trkpt lat="45.88028" lon="4.64032">
        <ele>221.24088</ele>
        <time>2022-09-27T12:35:40.000Z</time>
      </trkpt>
      <trkpt lat="45.88033" lon="4.64026">
        <ele>221.12509</ele>
        <time>2022-09-27T12:35:41.000Z</time>
      </trkpt>
      <trkpt lat="45.88035" lon="4.6402">
        <ele>221.01852</ele>
        <time>2022-09-27T12:35:42.000Z</time>
      </trkpt>
      <trkpt lat="45.88039" lon="4.64014">
        <ele>220.89348</ele>
        <time>2022-09-27T12:35:43.000Z</time>
      </trkpt>
      <trkpt lat="45.88043" lon="4.64009">
        <ele>220.78854</ele>
        <time>2022-09-27T12:35:44.000Z</time>
      </trkpt>
      <trkpt lat="45.88047" lon="4.64002">
        <ele>220.71175</ele>
        <time>2022-09-27T12:35:45.000Z</time>
      </trkpt>
      <trkpt lat="45.88052" lon="4.63999">
        <ele>220.62109</ele>
        <time>2022-09-27T12:35:46.000Z</time>
      </trkpt>
      <trkpt lat="45.88058" lon="4.63994">
        <ele>220.47758</ele>
        <time>2022-09-27T12:35:47.000Z</time>
      </trkpt>
      <trkpt lat="45.88063" lon="4.63988">
        <ele>220.43796</ele>
        <time>2022-09-27T12:35:48.000Z</time>
      </trkpt>
      <trkpt lat="45.88069" lon="4.63982">
        <ele>220.42497</ele>
        <time>2022-09-27T12:35:49.000Z</time>
      </trkpt>
      <trkpt lat="45.88073" lon="4.63976">
        <ele>220.32072</ele>
        <time>2022-09-27T12:35:50.000Z</time>
      </trkpt>
      <trkpt lat="45.88076" lon="4.6397">
        <ele>220.31572</ele>
        <time>2022-09-27T12:35:51.000Z</time>
      </trkpt>
      <trkpt lat="45.8808" lon="4.63964">
        <ele>220.31406</ele>
        <time>2022-09-27T12:35:52.000Z</time>
      </trkpt>
      <trkpt lat="45.88084" lon="4.63958">
        <ele>220.32976</ele>
        <time>2022-09-27T12:35:53.000Z</time>
      </trkpt>
      <trkpt lat="45.88088" lon="4.63953">
        <ele>220.328</ele>
        <time>2022-09-27T12:35:54.000Z</time>
      </trkpt>
      <trkpt lat="45.88093" lon="4.63948">
        <ele>220.33127</ele>
        <time>2022-09-27T12:35:55.000Z</time>
      </trkpt>
      <trkpt lat="45.88096" lon="4.6394">
        <ele>220.25481</ele>
        <time>2022-09-27T12:35:56.000Z</time>
      </trkpt>
      <trkpt lat="45.88099" lon="4.63935">
        <ele>220.18823</ele>
        <time>2022-09-27T12:35:57.000Z</time>
      </trkpt>
      <trkpt lat="45.88103" lon="4.63928">
        <ele>220.1895</ele>
        <time>2022-09-27T12:35:58.000Z</time>
      </trkpt>
      <trkpt lat="45.88108" lon="4.63924">
        <ele>220.27312</ele>
        <time>2022-09-27T12:35:59.000Z</time>
      </trkpt>
      <trkpt lat="45.88113" lon="4.63919">
        <ele>220.32971</ele>
        <time>2022-09-27T12:36:00.000Z</time>
      </trkpt>
      <trkpt lat="45.88116" lon="4.63913">
        <ele>220.41243</ele>
        <time>2022-09-27T12:36:01.000Z</time>
      </trkpt>
      <trkpt lat="45.88122" lon="4.63908">
        <ele>220.52771</ele>
        <time>2022-09-27T12:36:02.000Z</time>
      </trkpt>
      <trkpt lat="45.88126" lon="4.63903">
        <ele>220.67094</ele>
        <time>2022-09-27T12:36:03.000Z</time>
      </trkpt>
      <trkpt lat="45.8813" lon="4.63897">
        <ele>220.8009</ele>
        <time>2022-09-27T12:36:04.000Z</time>
      </trkpt>
      <trkpt lat="45.88135" lon="4.63892">
        <ele>220.95541</ele>
        <time>2022-09-27T12:36:05.000Z</time>
      </trkpt>
      <trkpt lat="45.8814" lon="4.63887">
        <ele>221.17786</ele>
        <time>2022-09-27T12:36:06.000Z</time>
      </trkpt>
      <trkpt lat="45.88145" lon="4.63882">
        <ele>221.53215</ele>
        <time>2022-09-27T12:36:07.000Z</time>
      </trkpt>
      <trkpt lat="45.88149" lon="4.63876">
        <ele>221.84427</ele>
        <time>2022-09-27T12:36:08.000Z</time>
      </trkpt>
      <trkpt lat="45.88154" lon="4.63871">
        <ele>222.1301</ele>
        <time>2022-09-27T12:36:09.000Z</time>
      </trkpt>
      <trkpt lat="45.88159" lon="4.63865">
        <ele>222.44766</ele>
        <time>2022-09-27T12:36:10.000Z</time>
      </trkpt>
      <trkpt lat="45.88163" lon="4.6386">
        <ele>222.68762</ele>
        <time>2022-09-27T12:36:11.000Z</time>
      </trkpt>
      <trkpt lat="45.88167" lon="4.63854">
        <ele>222.89163</ele>
        <time>2022-09-27T12:36:12.000Z</time>
      </trkpt>
      <trkpt lat="45.88171" lon="4.63848">
        <ele>223.04402</ele>
        <time>2022-09-27T12:36:13.000Z</time>
      </trkpt>
      <trkpt lat="45.88176" lon="4.63844">
        <ele>223.17168</ele>
        <time>2022-09-27T12:36:14.000Z</time>
      </trkpt>
      <trkpt lat="45.88181" lon="4.63837">
        <ele>223.27229</ele>
        <time>2022-09-27T12:36:15.000Z</time>
      </trkpt>
      <trkpt lat="45.88185" lon="4.6383">
        <ele>223.49789</ele>
        <time>2022-09-27T12:36:16.000Z</time>
      </trkpt>
      <trkpt lat="45.88187" lon="4.63824">
        <ele>223.69345</ele>
        <time>2022-09-27T12:36:17.000Z</time>
      </trkpt>
      <trkpt lat="45.8819" lon="4.63816">
        <ele>223.87302</ele>
        <time>2022-09-27T12:36:18.000Z</time>
      </trkpt>
      <trkpt lat="45.88192" lon="4.63808">
        <ele>224.03206</ele>
        <time>2022-09-27T12:36:19.000Z</time>
      </trkpt>
      <trkpt lat="45.88195" lon="4.63802">
        <ele>224.18184</ele>
        <time>2022-09-27T12:36:20.000Z</time>
      </trkpt>
      <trkpt lat="45.88198" lon="4.63796">
        <ele>224.23889</ele>
        <time>2022-09-27T12:36:21.000Z</time>
      </trkpt>
      <trkpt lat="45.882" lon="4.63789">
        <ele>224.29497</ele>
        <time>2022-09-27T12:36:22.000Z</time>
      </trkpt>
      <trkpt lat="45.88203" lon="4.63781">
        <ele>224.30289</ele>
        <time>2022-09-27T12:36:23.000Z</time>
      </trkpt>
      <trkpt lat="45.88206" lon="4.63775">
        <ele>224.3457</ele>
        <time>2022-09-27T12:36:24.000Z</time>
      </trkpt>
      <trkpt lat="45.88208" lon="4.63767">
        <ele>224.40567</ele>
        <time>2022-09-27T12:36:25.000Z</time>
      </trkpt>
      <trkpt lat="45.88209" lon="4.6376">
        <ele>224.40425</ele>
        <time>2022-09-27T12:36:26.000Z</time>
      </trkpt>
      <trkpt lat="45.8821" lon="4.63751">
        <ele>224.32793</ele>
        <time>2022-09-27T12:36:27.000Z</time>
      </trkpt>
      <trkpt lat="45.88212" lon="4.63744">
        <ele>224.21651</ele>
        <time>2022-09-27T12:36:28.000Z</time>
      </trkpt>
      <trkpt lat="45.88214" lon="4.63736">
        <ele>224.0419</ele>
        <time>2022-09-27T12:36:29.000Z</time>
      </trkpt>
      <trkpt lat="45.88216" lon="4.63727">
        <ele>223.87988</ele>
        <time>2022-09-27T12:36:30.000Z</time>
      </trkpt>
      <trkpt lat="45.88217" lon="4.63719">
        <ele>223.74051</ele>
        <time>2022-09-27T12:36:31.000Z</time>
      </trkpt>
      <trkpt lat="45.8822" lon="4.63711">
        <ele>223.66226</ele>
        <time>2022-09-27T12:36:32.000Z</time>
      </trkpt>
      <trkpt lat="45.88221" lon="4.63703">
        <ele>223.58891</ele>
        <time>2022-09-27T12:36:33.000Z</time>
      </trkpt>
      <trkpt lat="45.88222" lon="4.63694">
        <ele>223.52974</ele>
        <time>2022-09-27T12:36:34.000Z</time>
      </trkpt>
      <trkpt lat="45.88224" lon="4.63686">
        <ele>223.57414</ele>
        <time>2022-09-27T12:36:35.000Z</time>
      </trkpt>
      <trkpt lat="45.88226" lon="4.63678">
        <ele>223.55998</ele>
        <time>2022-09-27T12:36:36.000Z</time>
      </trkpt>
      <trkpt lat="45.88227" lon="4.6367">
        <ele>223.53679</ele>
        <time>2022-09-27T12:36:37.000Z</time>
      </trkpt>
      <trkpt lat="45.8823" lon="4.63661">
        <ele>223.45381</ele>
        <time>2022-09-27T12:36:38.000Z</time>
      </trkpt>
      <trkpt lat="45.88231" lon="4.63654">
        <ele>223.36031</ele>
        <time>2022-09-27T12:36:39.000Z</time>
      </trkpt>
      <trkpt lat="45.88233" lon="4.63646">
        <ele>223.28987</ele>
        <time>2022-09-27T12:36:40.000Z</time>
      </trkpt>
      <trkpt lat="45.88235" lon="4.63637">
        <ele>223.27975</ele>
        <time>2022-09-27T12:36:41.000Z</time>
      </trkpt>
      <trkpt lat="45.88236" lon="4.6363">
        <ele>223.27377</ele>
        <time>2022-09-27T12:36:42.000Z</time>
      </trkpt>
      <trkpt lat="45.88238" lon="4.63623">
        <ele>223.21387</ele>
        <time>2022-09-27T12:36:43.000Z</time>
      </trkpt>
      <trkpt lat="45.88239" lon="4.63616">
        <ele>223.17717</ele>
        <time>2022-09-27T12:36:44.000Z</time>
      </trkpt>
      <trkpt lat="45.88242" lon="4.63608">
        <ele>223.10376</ele>
        <time>2022-09-27T12:36:45.000Z</time>
      </trkpt>
      <trkpt lat="45.88244" lon="4.636">
        <ele>223.06357</ele>
        <time>2022-09-27T12:36:46.000Z</time>
      </trkpt>
      <trkpt lat="45.88246" lon="4.63593">
        <ele>223.03801</ele>
        <time>2022-09-27T12:36:47.000Z</time>
      </trkpt>
      <trkpt lat="45.88248" lon="4.63586">
        <ele>223.04651</ele>
        <time>2022-09-27T12:36:48.000Z</time>
      </trkpt>
      <trkpt lat="45.88249" lon="4.63578">
        <ele>223.04048</ele>
        <time>2022-09-27T12:36:49.000Z</time>
      </trkpt>
      <trkpt lat="45.88251" lon="4.6357">
        <ele>222.98343</ele>
        <time>2022-09-27T12:36:50.000Z</time>
      </trkpt>
      <trkpt lat="45.88253" lon="4.63563">
        <ele>222.90073</ele>
        <time>2022-09-27T12:36:51.000Z</time>
      </trkpt>
      <trkpt lat="45.88255" lon="4.63554">
        <ele>222.78548</ele>
        <time>2022-09-27T12:36:52.000Z</time>
      </trkpt>
      <trkpt lat="45.88258" lon="4.63545">
        <ele>222.61797</ele>
        <time>2022-09-27T12:36:53.000Z</time>
      </trkpt>
      <trkpt lat="45.88259" lon="4.63538">
        <ele>222.4552</ele>
        <time>2022-09-27T12:36:54.000Z</time>
      </trkpt>
      <trkpt lat="45.8826" lon="4.63531">
        <ele>222.20956</ele>
        <time>2022-09-27T12:36:55.000Z</time>
      </trkpt>
      <trkpt lat="45.88262" lon="4.63523">
        <ele>221.99312</ele>
        <time>2022-09-27T12:36:56.000Z</time>
      </trkpt>
      <trkpt lat="45.88263" lon="4.63517">
        <ele>221.72092</ele>
        <time>2022-09-27T12:36:57.000Z</time>
      </trkpt>
      <trkpt lat="45.88265" lon="4.63509">
        <ele>221.50237</ele>
        <time>2022-09-27T12:36:58.000Z</time>
      </trkpt>
      <trkpt lat="45.88267" lon="4.635">
        <ele>221.22737</ele>
        <time>2022-09-27T12:36:59.000Z</time>
      </trkpt>
      <trkpt lat="45.88269" lon="4.63492">
        <ele>220.89734</ele>
        <time>2022-09-27T12:37:00.000Z</time>
      </trkpt>
      <trkpt lat="45.88271" lon="4.63483">
        <ele>220.56662</ele>
        <time>2022-09-27T12:37:01.000Z</time>
      </trkpt>
      <trkpt lat="45.88272" lon="4.63476">
        <ele>220.26839</ele>
        <time>2022-09-27T12:37:02.000Z</time>
      </trkpt>
      <trkpt lat="45.88273" lon="4.63467">
        <ele>220.04819</ele>
        <time>2022-09-27T12:37:03.000Z</time>
      </trkpt>
      <trkpt lat="45.88274" lon="4.63458">
        <ele>219.78152</ele>
        <time>2022-09-27T12:37:04.000Z</time>
      </trkpt>
      <trkpt lat="45.88276" lon="4.63451">
        <ele>219.55798</ele>
        <time>2022-09-27T12:37:05.000Z</time>
      </trkpt>
      <trkpt lat="45.88277" lon="4.63442">
        <ele>219.33411</ele>
        <time>2022-09-27T12:37:06.000Z</time>
      </trkpt>
      <trkpt lat="45.88278" lon="4.63433">
        <ele>219.12012</ele>
        <time>2022-09-27T12:37:07.000Z</time>
      </trkpt>
      <trkpt lat="45.88279" lon="4.63426">
        <ele>218.89046</ele>
        <time>2022-09-27T12:37:08.000Z</time>
      </trkpt>
      <trkpt lat="45.8828" lon="4.63418">
        <ele>218.68784</ele>
        <time>2022-09-27T12:37:09.000Z</time>
      </trkpt>
      <trkpt lat="45.88281" lon="4.63409">
        <ele>218.57394</ele>
        <time>2022-09-27T12:37:10.000Z</time>
      </trkpt>
      <trkpt lat="45.88282" lon="4.63401">
        <ele>218.46252</ele>
        <time>2022-09-27T12:37:11.000Z</time>
      </trkpt>
      <trkpt lat="45.88283" lon="4.63395">
        <ele>218.3499</ele>
        <time>2022-09-27T12:37:12.000Z</time>
      </trkpt>
      <trkpt lat="45.88285" lon="4.63387">
        <ele>218.23308</ele>
        <time>2022-09-27T12:37:13.000Z</time>
      </trkpt>
      <trkpt lat="45.88286" lon="4.6338">
        <ele>218.13545</ele>
        <time>2022-09-27T12:37:14.000Z</time>
      </trkpt>
      <trkpt lat="45.88287" lon="4.63371">
        <ele>218.07462</ele>
        <time>2022-09-27T12:37:15.000Z</time>
      </trkpt>
      <trkpt lat="45.88289" lon="4.63362">
        <ele>217.93604</ele>
        <time>2022-09-27T12:37:16.000Z</time>
      </trkpt>
      <trkpt lat="45.8829" lon="4.63354">
        <ele>217.89075</ele>
        <time>2022-09-27T12:37:17.000Z</time>
      </trkpt>
      <trkpt lat="45.88292" lon="4.63346">
        <ele>217.87297</ele>
        <time>2022-09-27T12:37:18.000Z</time>
      </trkpt>
      <trkpt lat="45.88292" lon="4.63337">
        <ele>217.95183</ele>
        <time>2022-09-27T12:37:19.000Z</time>
      </trkpt>
      <trkpt lat="45.88294" lon="4.63329">
        <ele>218.07063</ele>
        <time>2022-09-27T12:37:20.000Z</time>
      </trkpt>
      <trkpt lat="45.88295" lon="4.63321">
        <ele>218.20988</ele>
        <time>2022-09-27T12:37:21.000Z</time>
      </trkpt>
      <trkpt lat="45.88297" lon="4.63313">
        <ele>218.28223</ele>
        <time>2022-09-27T12:37:22.000Z</time>
      </trkpt>
      <trkpt lat="45.88298" lon="4.63304">
        <ele>218.3978</ele>
        <time>2022-09-27T12:37:23.000Z</time>
      </trkpt>
      <trkpt lat="45.88299" lon="4.63298">
        <ele>218.51482</ele>
        <time>2022-09-27T12:37:24.000Z</time>
      </trkpt>
      <trkpt lat="45.883" lon="4.6329">
        <ele>218.64774</ele>
        <time>2022-09-27T12:37:25.000Z</time>
      </trkpt>
      <trkpt lat="45.88301" lon="4.63284">
        <ele>218.86641</ele>
        <time>2022-09-27T12:37:26.000Z</time>
      </trkpt>
      <trkpt lat="45.88302" lon="4.63278">
        <ele>219.09785</ele>
        <time>2022-09-27T12:37:27.000Z</time>
      </trkpt>
      <trkpt lat="45.88305" lon="4.63269">
        <ele>219.3145</ele>
        <time>2022-09-27T12:37:28.000Z</time>
      </trkpt>
      <trkpt lat="45.88306" lon="4.63265">
        <ele>219.57706</ele>
        <time>2022-09-27T12:37:29.000Z</time>
      </trkpt>
      <trkpt lat="45.88306" lon="4.63257">
        <ele>219.80135</ele>
        <time>2022-09-27T12:37:30.000Z</time>
      </trkpt>
      <trkpt lat="45.88306" lon="4.6325">
        <ele>220.08765</ele>
        <time>2022-09-27T12:37:31.000Z</time>
      </trkpt>
      <trkpt lat="45.88307" lon="4.63243">
        <ele>220.32797</ele>
        <time>2022-09-27T12:37:32.000Z</time>
      </trkpt>
      <trkpt lat="45.88307" lon="4.63237">
        <ele>220.69272</ele>
        <time>2022-09-27T12:37:33.000Z</time>
      </trkpt>
      <trkpt lat="45.88308" lon="4.63231">
        <ele>221.09665</ele>
        <time>2022-09-27T12:37:34.000Z</time>
      </trkpt>
      <trkpt lat="45.88307" lon="4.63226">
        <ele>221.53195</ele>
        <time>2022-09-27T12:37:35.000Z</time>
      </trkpt>
      <trkpt lat="45.88308" lon="4.63221">
        <ele>222.01099</ele>
        <time>2022-09-27T12:37:36.000Z</time>
      </trkpt>
      <trkpt lat="45.88309" lon="4.63214">
        <ele>222.52209</ele>
        <time>2022-09-27T12:37:37.000Z</time>
      </trkpt>
      <trkpt lat="45.8831" lon="4.63209">
        <ele>222.98813</ele>
        <time>2022-09-27T12:37:38.000Z</time>
      </trkpt>
      <trkpt lat="45.88311" lon="4.63203">
        <ele>223.36215</ele>
        <time>2022-09-27T12:37:39.000Z</time>
      </trkpt>
      <trkpt lat="45.88312" lon="4.63196">
        <ele>223.71396</ele>
        <time>2022-09-27T12:37:40.000Z</time>
      </trkpt>
      <trkpt lat="45.88313" lon="4.6319">
        <ele>224.03792</ele>
        <time>2022-09-27T12:37:41.000Z</time>
      </trkpt>
      <trkpt lat="45.88313" lon="4.63184">
        <ele>224.36804</ele>
        <time>2022-09-27T12:37:42.000Z</time>
      </trkpt>
      <trkpt lat="45.88315" lon="4.63179">
        <ele>224.69199</ele>
        <time>2022-09-27T12:37:43.000Z</time>
      </trkpt>
      <trkpt lat="45.88315" lon="4.63174">
        <ele>225.03474</ele>
        <time>2022-09-27T12:37:44.000Z</time>
      </trkpt>
      <trkpt lat="45.88316" lon="4.63169">
        <ele>225.40886</ele>
        <time>2022-09-27T12:37:45.000Z</time>
      </trkpt>
      <trkpt lat="45.88316" lon="4.63165">
        <ele>225.67192</ele>
        <time>2022-09-27T12:37:46.000Z</time>
      </trkpt>
      <trkpt lat="45.88317" lon="4.6316">
        <ele>225.86612</ele>
        <time>2022-09-27T12:37:47.000Z</time>
      </trkpt>
      <trkpt lat="45.88318" lon="4.63155">
        <ele>226.09219</ele>
        <time>2022-09-27T12:37:48.000Z</time>
      </trkpt>
      <trkpt lat="45.88319" lon="4.63149">
        <ele>226.33841</ele>
        <time>2022-09-27T12:37:49.000Z</time>
      </trkpt>
      <trkpt lat="45.88321" lon="4.63144">
        <ele>226.5304</ele>
        <time>2022-09-27T12:37:50.000Z</time>
      </trkpt>
      <trkpt lat="45.88323" lon="4.63139">
        <ele>226.7421</ele>
        <time>2022-09-27T12:37:51.000Z</time>
      </trkpt>
      <trkpt lat="45.88324" lon="4.63134">
        <ele>226.83928</ele>
        <time>2022-09-27T12:37:52.000Z</time>
      </trkpt>
      <trkpt lat="45.88326" lon="4.63129">
        <ele>226.85916</ele>
        <time>2022-09-27T12:37:53.000Z</time>
      </trkpt>
      <trkpt lat="45.88328" lon="4.63125">
        <ele>226.86716</ele>
        <time>2022-09-27T12:37:54.000Z</time>
      </trkpt>
      <trkpt lat="45.8833" lon="4.63121">
        <ele>226.84769</ele>
        <time>2022-09-27T12:37:55.000Z</time>
      </trkpt>
      <trkpt lat="45.88332" lon="4.63116">
        <ele>226.83353</ele>
        <time>2022-09-27T12:37:56.000Z</time>
      </trkpt>
      <trkpt lat="45.88334" lon="4.63112">
        <ele>226.77042</ele>
        <time>2022-09-27T12:37:57.000Z</time>
      </trkpt>
      <trkpt lat="45.88336" lon="4.63107">
        <ele>226.72249</ele>
        <time>2022-09-27T12:37:58.000Z</time>
      </trkpt>
      <trkpt lat="45.88337" lon="4.63103">
        <ele>226.67691</ele>
        <time>2022-09-27T12:37:59.000Z</time>
      </trkpt>
      <trkpt lat="45.8834" lon="4.63098">
        <ele>226.56497</ele>
        <time>2022-09-27T12:38:00.000Z</time>
      </trkpt>
      <trkpt lat="45.88342" lon="4.63094">
        <ele>226.54691</ele>
        <time>2022-09-27T12:38:01.000Z</time>
      </trkpt>
      <trkpt lat="45.88345" lon="4.6309">
        <ele>226.4908</ele>
        <time>2022-09-27T12:38:02.000Z</time>
      </trkpt>
      <trkpt lat="45.88348" lon="4.63087">
        <ele>226.39156</ele>
        <time>2022-09-27T12:38:03.000Z</time>
      </trkpt>
      <trkpt lat="45.8835" lon="4.63082">
        <ele>226.20996</ele>
        <time>2022-09-27T12:38:04.000Z</time>
      </trkpt>
      <trkpt lat="45.88353" lon="4.63078">
        <ele>226.02225</ele>
        <time>2022-09-27T12:38:05.000Z</time>
      </trkpt>
      <trkpt lat="45.88355" lon="4.63073">
        <ele>225.90622</ele>
        <time>2022-09-27T12:38:06.000Z</time>
      </trkpt>
      <trkpt lat="45.88357" lon="4.63068">
        <ele>225.85263</ele>
        <time>2022-09-27T12:38:07.000Z</time>
      </trkpt>
      <trkpt lat="45.88359" lon="4.63063">
        <ele>225.81332</ele>
        <time>2022-09-27T12:38:08.000Z</time>
      </trkpt>
      <trkpt lat="45.88362" lon="4.63059">
        <ele>225.7048</ele>
        <time>2022-09-27T12:38:09.000Z</time>
      </trkpt>
      <trkpt lat="45.88364" lon="4.63054">
        <ele>225.56937</ele>
        <time>2022-09-27T12:38:10.000Z</time>
      </trkpt>
      <trkpt lat="45.88367" lon="4.6305">
        <ele>225.42244</ele>
        <time>2022-09-27T12:38:11.000Z</time>
      </trkpt>
      <trkpt lat="45.8837" lon="4.63045">
        <ele>225.401</ele>
        <time>2022-09-27T12:38:12.000Z</time>
      </trkpt>
      <trkpt lat="45.88373" lon="4.6304">
        <ele>225.37827</ele>
        <time>2022-09-27T12:38:13.000Z</time>
      </trkpt>
      <trkpt lat="45.88376" lon="4.63036">
        <ele>225.30386</ele>
        <time>2022-09-27T12:38:14.000Z</time>
      </trkpt>
      <trkpt lat="45.88381" lon="4.6303">
        <ele>225.27234</ele>
        <time>2022-09-27T12:38:15.000Z</time>
      </trkpt>
      <trkpt lat="45.88387" lon="4.63029">
        <ele>225.2373</ele>
        <time>2022-09-27T12:38:16.000Z</time>
      </trkpt>
      <trkpt lat="45.88389" lon="4.63025">
        <ele>225.16336</ele>
        <time>2022-09-27T12:38:17.000Z</time>
      </trkpt>
      <trkpt lat="45.88392" lon="4.63021">
        <ele>225.06778</ele>
        <time>2022-09-27T12:38:18.000Z</time>
      </trkpt>
      <trkpt lat="45.88397" lon="4.6302">
        <ele>224.99887</ele>
        <time>2022-09-27T12:38:19.000Z</time>
      </trkpt>
      <trkpt lat="45.88399" lon="4.63016">
        <ele>225.02341</ele>
        <time>2022-09-27T12:38:20.000Z</time>
      </trkpt>
      <trkpt lat="45.88403" lon="4.63013">
        <ele>224.97066</ele>
        <time>2022-09-27T12:38:21.000Z</time>
      </trkpt>
      <trkpt lat="45.88407" lon="4.6301">
        <ele>224.98267</ele>
        <time>2022-09-27T12:38:22.000Z</time>
      </trkpt>
      <trkpt lat="45.8841" lon="4.63005">
        <ele>225.04282</ele>
        <time>2022-09-27T12:38:23.000Z</time>
      </trkpt>
      <trkpt lat="45.88414" lon="4.63001">
        <ele>225.17068</ele>
        <time>2022-09-27T12:38:24.000Z</time>
      </trkpt>
      <trkpt lat="45.88419" lon="4.62999">
        <ele>225.24973</ele>
        <time>2022-09-27T12:38:25.000Z</time>
      </trkpt>
      <trkpt lat="45.88423" lon="4.62995">
        <ele>225.27548</ele>
        <time>2022-09-27T12:38:26.000Z</time>
      </trkpt>
      <trkpt lat="45.88427" lon="4.62989">
        <ele>225.29944</ele>
        <time>2022-09-27T12:38:27.000Z</time>
      </trkpt>
      <trkpt lat="45.88432" lon="4.62986">
        <ele>225.27628</ele>
        <time>2022-09-27T12:38:28.000Z</time>
      </trkpt>
      <trkpt lat="45.88437" lon="4.62981">
        <ele>225.28287</ele>
        <time>2022-09-27T12:38:29.000Z</time>
      </trkpt>
      <trkpt lat="45.88441" lon="4.62978">
        <ele>225.35889</ele>
        <time>2022-09-27T12:38:30.000Z</time>
      </trkpt>
      <trkpt lat="45.88446" lon="4.62975">
        <ele>225.38557</ele>
        <time>2022-09-27T12:38:31.000Z</time>
      </trkpt>
      <trkpt lat="45.88449" lon="4.62972">
        <ele>225.56575</ele>
        <time>2022-09-27T12:38:32.000Z</time>
      </trkpt>
      <trkpt lat="45.88454" lon="4.62968">
        <ele>225.75273</ele>
        <time>2022-09-27T12:38:33.000Z</time>
      </trkpt>
      <trkpt lat="45.88459" lon="4.62964">
        <ele>225.94466</ele>
        <time>2022-09-27T12:38:34.000Z</time>
      </trkpt>
      <trkpt lat="45.88465" lon="4.6296">
        <ele>226.16983</ele>
        <time>2022-09-27T12:38:35.000Z</time>
      </trkpt>
      <trkpt lat="45.88471" lon="4.62959">
        <ele>226.38721</ele>
        <time>2022-09-27T12:38:36.000Z</time>
      </trkpt>
      <trkpt lat="45.88477" lon="4.62955">
        <ele>226.68399</ele>
        <time>2022-09-27T12:38:37.000Z</time>
      </trkpt>
      <trkpt lat="45.88483" lon="4.62953">
        <ele>227.00623</ele>
        <time>2022-09-27T12:38:38.000Z</time>
      </trkpt>
      <trkpt lat="45.88488" lon="4.62952">
        <ele>227.20247</ele>
        <time>2022-09-27T12:38:39.000Z</time>
      </trkpt>
      <trkpt lat="45.88492" lon="4.62948">
        <ele>227.37048</ele>
        <time>2022-09-27T12:38:40.000Z</time>
      </trkpt>
      <trkpt lat="45.88497" lon="4.62946">
        <ele>227.52193</ele>
        <time>2022-09-27T12:38:41.000Z</time>
      </trkpt>
      <trkpt lat="45.88501" lon="4.62944">
        <ele>227.68115</ele>
        <time>2022-09-27T12:38:42.000Z</time>
      </trkpt>
      <trkpt lat="45.88506" lon="4.62941">
        <ele>227.78923</ele>
        <time>2022-09-27T12:38:43.000Z</time>
      </trkpt>
      <trkpt lat="45.88509" lon="4.62937">
        <ele>227.83755</ele>
        <time>2022-09-27T12:38:44.000Z</time>
      </trkpt>
      <trkpt lat="45.88513" lon="4.62933">
        <ele>227.83965</ele>
        <time>2022-09-27T12:38:45.000Z</time>
      </trkpt>
      <trkpt lat="45.88516" lon="4.62927">
        <ele>227.92236</ele>
        <time>2022-09-27T12:38:46.000Z</time>
      </trkpt>
      <trkpt lat="45.88518" lon="4.62923">
        <ele>227.98438</ele>
        <time>2022-09-27T12:38:47.000Z</time>
      </trkpt>
      <trkpt lat="45.8852" lon="4.62918">
        <ele>227.9847</ele>
        <time>2022-09-27T12:38:48.000Z</time>
      </trkpt>
      <trkpt lat="45.88521" lon="4.62912">
        <ele>227.95039</ele>
        <time>2022-09-27T12:38:49.000Z</time>
      </trkpt>
      <trkpt lat="45.88521" lon="4.62906">
        <ele>227.85918</ele>
        <time>2022-09-27T12:38:50.000Z</time>
      </trkpt>
      <trkpt lat="45.88521" lon="4.62901">
        <ele>227.78633</ele>
        <time>2022-09-27T12:38:51.000Z</time>
      </trkpt>
      <trkpt lat="45.8852" lon="4.62897">
        <ele>227.60019</ele>
        <time>2022-09-27T12:38:52.000Z</time>
      </trkpt>
      <trkpt lat="45.88522" lon="4.6289">
        <ele>227.41269</ele>
        <time>2022-09-27T12:38:53.000Z</time>
      </trkpt>
      <trkpt lat="45.88523" lon="4.62883">
        <ele>227.22543</ele>
        <time>2022-09-27T12:38:54.000Z</time>
      </trkpt>
      <trkpt lat="45.88525" lon="4.62877">
        <ele>226.9333</ele>
        <time>2022-09-27T12:38:55.000Z</time>
      </trkpt>
      <trkpt lat="45.88525" lon="4.62869">
        <ele>226.63181</ele>
        <time>2022-09-27T12:38:56.000Z</time>
      </trkpt>
      <trkpt lat="45.88526" lon="4.62861">
        <ele>226.29419</ele>
        <time>2022-09-27T12:38:57.000Z</time>
      </trkpt>
      <trkpt lat="45.88527" lon="4.62853">
        <ele>225.94356</ele>
        <time>2022-09-27T12:38:58.000Z</time>
      </trkpt>
      <trkpt lat="45.88528" lon="4.62846">
        <ele>225.68625</ele>
        <time>2022-09-27T12:38:59.000Z</time>
      </trkpt>
      <trkpt lat="45.88527" lon="4.62838">
        <ele>225.46579</ele>
        <time>2022-09-27T12:39:00.000Z</time>
      </trkpt>
      <trkpt lat="45.88528" lon="4.62832">
        <ele>225.21745</ele>
        <time>2022-09-27T12:39:01.000Z</time>
      </trkpt>
      <trkpt lat="45.88529" lon="4.62824">
        <ele>224.94601</ele>
        <time>2022-09-27T12:39:02.000Z</time>
      </trkpt>
      <trkpt lat="45.88529" lon="4.62817">
        <ele>224.67395</ele>
        <time>2022-09-27T12:39:03.000Z</time>
      </trkpt>
      <trkpt lat="45.8853" lon="4.6281">
        <ele>224.46892</ele>
        <time>2022-09-27T12:39:04.000Z</time>
      </trkpt>
      <trkpt lat="45.88531" lon="4.62803">
        <ele>224.32425</ele>
        <time>2022-09-27T12:39:05.000Z</time>
      </trkpt>
      <trkpt lat="45.88533" lon="4.62796">
        <ele>224.11588</ele>
        <time>2022-09-27T12:39:06.000Z</time>
      </trkpt>
      <trkpt lat="45.88533" lon="4.62789">
        <ele>223.97519</ele>
        <time>2022-09-27T12:39:07.000Z</time>
      </trkpt>
      <trkpt lat="45.88533" lon="4.62782">
        <ele>223.84981</ele>
        <time>2022-09-27T12:39:08.000Z</time>
      </trkpt>
      <trkpt lat="45.88534" lon="4.62774">
        <ele>223.7673</ele>
        <time>2022-09-27T12:39:09.000Z</time>
      </trkpt>
      <trkpt lat="45.88535" lon="4.62767">
        <ele>223.71896</ele>
        <time>2022-09-27T12:39:10.000Z</time>
      </trkpt>
      <trkpt lat="45.88536" lon="4.62759">
        <ele>223.6375</ele>
        <time>2022-09-27T12:39:11.000Z</time>
      </trkpt>
      <trkpt lat="45.88537" lon="4.62751">
        <ele>223.56059</ele>
        <time>2022-09-27T12:39:12.000Z</time>
      </trkpt>
      <trkpt lat="45.88538" lon="4.62744">
        <ele>223.51262</ele>
        <time>2022-09-27T12:39:13.000Z</time>
      </trkpt>
      <trkpt lat="45.88539" lon="4.62737">
        <ele>223.47131</ele>
        <time>2022-09-27T12:39:14.000Z</time>
      </trkpt>
      <trkpt lat="45.8854" lon="4.62731">
        <ele>223.45137</ele>
        <time>2022-09-27T12:39:15.000Z</time>
      </trkpt>
      <trkpt lat="45.88542" lon="4.62726">
        <ele>223.43381</ele>
        <time>2022-09-27T12:39:16.000Z</time>
      </trkpt>
      <trkpt lat="45.88543" lon="4.6272">
        <ele>223.39082</ele>
        <time>2022-09-27T12:39:17.000Z</time>
      </trkpt>
      <trkpt lat="45.88544" lon="4.62714">
        <ele>223.33081</ele>
        <time>2022-09-27T12:39:18.000Z</time>
      </trkpt>
      <trkpt lat="45.88545" lon="4.62707">
        <ele>223.2699</ele>
        <time>2022-09-27T12:39:19.000Z</time>
      </trkpt>
      <trkpt lat="45.88546" lon="4.627">
        <ele>223.17058</ele>
        <time>2022-09-27T12:39:20.000Z</time>
      </trkpt>
      <trkpt lat="45.88545" lon="4.62694">
        <ele>223.1512</ele>
        <time>2022-09-27T12:39:21.000Z</time>
      </trkpt>
      <trkpt lat="45.88543" lon="4.6269">
        <ele>223.17793</ele>
        <time>2022-09-27T12:39:22.000Z</time>
      </trkpt>
      <trkpt lat="45.88545" lon="4.62682">
        <ele>223.1937</ele>
        <time>2022-09-27T12:39:23.000Z</time>
      </trkpt>
      <trkpt lat="45.88545" lon="4.62674">
        <ele>223.08118</ele>
        <time>2022-09-27T12:39:24.000Z</time>
      </trkpt>
      <trkpt lat="45.88545" lon="4.62665">
        <ele>222.91411</ele>
        <time>2022-09-27T12:39:25.000Z</time>
      </trkpt>
      <trkpt lat="45.88547" lon="4.62656">
        <ele>222.6812</ele>
        <time>2022-09-27T12:39:26.000Z</time>
      </trkpt>
      <trkpt lat="45.88549" lon="4.62649">
        <ele>222.33565</ele>
        <time>2022-09-27T12:39:27.000Z</time>
      </trkpt>
      <trkpt lat="45.88547" lon="4.62637">
        <ele>221.96196</ele>
        <time>2022-09-27T12:39:28.000Z</time>
      </trkpt>
      <trkpt lat="45.88548" lon="4.62628">
        <ele>221.50754</ele>
        <time>2022-09-27T12:39:29.000Z</time>
      </trkpt>
      <trkpt lat="45.88548" lon="4.62619">
        <ele>221.06474</ele>
        <time>2022-09-27T12:39:30.000Z</time>
      </trkpt>
      <trkpt lat="45.88549" lon="4.6261">
        <ele>220.65417</ele>
        <time>2022-09-27T12:39:31.000Z</time>
      </trkpt>
      <trkpt lat="45.88552" lon="4.62602">
        <ele>220.618</ele>
        <time>2022-09-27T12:39:32.000Z</time>
      </trkpt>
      <trkpt lat="45.88551" lon="4.62594">
        <ele>220.48213</ele>
        <time>2022-09-27T12:39:33.000Z</time>
      </trkpt>
      <trkpt lat="45.88551" lon="4.62586">
        <ele>220.27249</ele>
        <time>2022-09-27T12:39:34.000Z</time>
      </trkpt>
      <trkpt lat="45.88552" lon="4.62577">
        <ele>220.03816</ele>
        <time>2022-09-27T12:39:35.000Z</time>
      </trkpt>
      <trkpt lat="45.88553" lon="4.62569">
        <ele>219.778</ele>
        <time>2022-09-27T12:39:36.000Z</time>
      </trkpt>
      <trkpt lat="45.88554" lon="4.62559">
        <ele>219.45088</ele>
        <time>2022-09-27T12:39:37.000Z</time>
      </trkpt>
      <trkpt lat="45.88554" lon="4.62553">
        <ele>219.10222</ele>
        <time>2022-09-27T12:39:38.000Z</time>
      </trkpt>
      <trkpt lat="45.88555" lon="4.62544">
        <ele>218.74275</ele>
        <time>2022-09-27T12:39:39.000Z</time>
      </trkpt>
      <trkpt lat="45.88554" lon="4.62536">
        <ele>218.35359</ele>
        <time>2022-09-27T12:39:40.000Z</time>
      </trkpt>
      <trkpt lat="45.88556" lon="4.62526">
        <ele>217.87012</ele>
        <time>2022-09-27T12:39:41.000Z</time>
      </trkpt>
      <trkpt lat="45.88559" lon="4.62514">
        <ele>217.26566</ele>
        <time>2022-09-27T12:39:42.000Z</time>
      </trkpt>
      <trkpt lat="45.8856" lon="4.62507">
        <ele>216.6741</ele>
        <time>2022-09-27T12:39:43.000Z</time>
      </trkpt>
      <trkpt lat="45.88562" lon="4.62499">
        <ele>216.22598</ele>
        <time>2022-09-27T12:39:44.000Z</time>
      </trkpt>
      <trkpt lat="45.88565" lon="4.62491">
        <ele>215.81418</ele>
        <time>2022-09-27T12:39:45.000Z</time>
      </trkpt>
      <trkpt lat="45.88566" lon="4.62483">
        <ele>215.45866</ele>
        <time>2022-09-27T12:39:46.000Z</time>
      </trkpt>
      <trkpt lat="45.88567" lon="4.62475">
        <ele>215.1438</ele>
        <time>2022-09-27T12:39:47.000Z</time>
      </trkpt>
      <trkpt lat="45.8857" lon="4.62467">
        <ele>214.9664</ele>
        <time>2022-09-27T12:39:48.000Z</time>
      </trkpt>
      <trkpt lat="45.88572" lon="4.62459">
        <ele>214.85759</ele>
        <time>2022-09-27T12:39:49.000Z</time>
      </trkpt>
      <trkpt lat="45.88575" lon="4.62452">
        <ele>214.78287</ele>
        <time>2022-09-27T12:39:50.000Z</time>
      </trkpt>
      <trkpt lat="45.88578" lon="4.62445">
        <ele>214.78772</ele>
        <time>2022-09-27T12:39:51.000Z</time>
      </trkpt>
      <trkpt lat="45.8858" lon="4.62438">
        <ele>214.38655</ele>
        <time>2022-09-27T12:39:52.000Z</time>
      </trkpt>
      <trkpt lat="45.88583" lon="4.62433">
        <ele>214.16882</ele>
        <time>2022-09-27T12:39:53.000Z</time>
      </trkpt>
      <trkpt lat="45.88586" lon="4.62429">
        <ele>214.35632</ele>
        <time>2022-09-27T12:39:54.000Z</time>
      </trkpt>
      <trkpt lat="45.88588" lon="4.62425">
        <ele>214.49886</ele>
        <time>2022-09-27T12:39:55.000Z</time>
      </trkpt>
      <trkpt lat="45.8859" lon="4.6242">
        <ele>214.6335</ele>
        <time>2022-09-27T12:39:56.000Z</time>
      </trkpt>
      <trkpt lat="45.88592" lon="4.62414">
        <ele>214.80351</ele>
        <time>2022-09-27T12:39:57.000Z</time>
      </trkpt>
      <trkpt lat="45.88594" lon="4.62408">
        <ele>214.99809</ele>
        <time>2022-09-27T12:39:58.000Z</time>
      </trkpt>
      <trkpt lat="45.88596" lon="4.62402">
        <ele>215.20499</ele>
        <time>2022-09-27T12:39:59.000Z</time>
      </trkpt>
      <trkpt lat="45.88598" lon="4.62396">
        <ele>215.42252</ele>
        <time>2022-09-27T12:40:00.000Z</time>
      </trkpt>
      <trkpt lat="45.88601" lon="4.6239">
        <ele>215.66057</ele>
        <time>2022-09-27T12:40:01.000Z</time>
      </trkpt>
      <trkpt lat="45.88602" lon="4.62385">
        <ele>215.95432</ele>
        <time>2022-09-27T12:40:02.000Z</time>
      </trkpt>
      <trkpt lat="45.88604" lon="4.6238">
        <ele>216.24487</ele>
        <time>2022-09-27T12:40:03.000Z</time>
      </trkpt>
      <trkpt lat="45.88608" lon="4.62375">
        <ele>216.46709</ele>
        <time>2022-09-27T12:40:04.000Z</time>
      </trkpt>
      <trkpt lat="45.88612" lon="4.6237">
        <ele>216.66951</ele>
        <time>2022-09-27T12:40:05.000Z</time>
      </trkpt>
      <trkpt lat="45.88614" lon="4.62364">
        <ele>216.85458</ele>
        <time>2022-09-27T12:40:06.000Z</time>
      </trkpt>
      <trkpt lat="45.88616" lon="4.62358">
        <ele>217.11252</ele>
        <time>2022-09-27T12:40:07.000Z</time>
      </trkpt>
      <trkpt lat="45.88618" lon="4.62352">
        <ele>217.34505</ele>
        <time>2022-09-27T12:40:08.000Z</time>
      </trkpt>
      <trkpt lat="45.88621" lon="4.62344">
        <ele>217.45377</ele>
        <time>2022-09-27T12:40:09.000Z</time>
      </trkpt>
      <trkpt lat="45.88622" lon="4.62338">
        <ele>217.54529</ele>
        <time>2022-09-27T12:40:10.000Z</time>
      </trkpt>
      <trkpt lat="45.88625" lon="4.62331">
        <ele>217.5173</ele>
        <time>2022-09-27T12:40:11.000Z</time>
      </trkpt>
      <trkpt lat="45.88627" lon="4.62324">
        <ele>217.52681</ele>
        <time>2022-09-27T12:40:12.000Z</time>
      </trkpt>
      <trkpt lat="45.88629" lon="4.62315">
        <ele>217.42297</ele>
        <time>2022-09-27T12:40:13.000Z</time>
      </trkpt>
      <trkpt lat="45.88629" lon="4.62308">
        <ele>217.43619</ele>
        <time>2022-09-27T12:40:14.000Z</time>
      </trkpt>
      <trkpt lat="45.88631" lon="4.62299">
        <ele>217.41589</ele>
        <time>2022-09-27T12:40:15.000Z</time>
      </trkpt>
      <trkpt lat="45.88633" lon="4.6229">
        <ele>217.35258</ele>
        <time>2022-09-27T12:40:16.000Z</time>
      </trkpt>
      <trkpt lat="45.88634" lon="4.62283">
        <ele>217.26761</ele>
        <time>2022-09-27T12:40:17.000Z</time>
      </trkpt>
      <trkpt lat="45.88635" lon="4.62277">
        <ele>217.13828</ele>
        <time>2022-09-27T12:40:18.000Z</time>
      </trkpt>
      <trkpt lat="45.88637" lon="4.6227">
        <ele>217.04837</ele>
        <time>2022-09-27T12:40:19.000Z</time>
      </trkpt>
      <trkpt lat="45.88639" lon="4.62264">
        <ele>216.94238</ele>
        <time>2022-09-27T12:40:20.000Z</time>
      </trkpt>
      <trkpt lat="45.88639" lon="4.62258">
        <ele>216.80852</ele>
        <time>2022-09-27T12:40:21.000Z</time>
      </trkpt>
      <trkpt lat="45.88641" lon="4.62251">
        <ele>216.72115</ele>
        <time>2022-09-27T12:40:22.000Z</time>
      </trkpt>
      <trkpt lat="45.88642" lon="4.62245">
        <ele>216.67508</ele>
        <time>2022-09-27T12:40:23.000Z</time>
      </trkpt>
      <trkpt lat="45.88644" lon="4.62241">
        <ele>216.7106</ele>
        <time>2022-09-27T12:40:24.000Z</time>
      </trkpt>
      <trkpt lat="45.88647" lon="4.62234">
        <ele>216.79619</ele>
        <time>2022-09-27T12:40:25.000Z</time>
      </trkpt>
      <trkpt lat="45.88648" lon="4.62228">
        <ele>216.91177</ele>
        <time>2022-09-27T12:40:26.000Z</time>
      </trkpt>
      <trkpt lat="45.88649" lon="4.62223">
        <ele>217.04707</ele>
        <time>2022-09-27T12:40:27.000Z</time>
      </trkpt>
      <trkpt lat="45.88651" lon="4.62218">
        <ele>217.16682</ele>
        <time>2022-09-27T12:40:28.000Z</time>
      </trkpt>
      <trkpt lat="45.88652" lon="4.62213">
        <ele>217.49211</ele>
        <time>2022-09-27T12:40:29.000Z</time>
      </trkpt>
      <trkpt lat="45.88654" lon="4.62209">
        <ele>217.80818</ele>
        <time>2022-09-27T12:40:30.000Z</time>
      </trkpt>
      <trkpt lat="45.88656" lon="4.62204">
        <ele>218.20642</ele>
        <time>2022-09-27T12:40:31.000Z</time>
      </trkpt>
      <trkpt lat="45.88658" lon="4.62201">
        <ele>218.60214</ele>
        <time>2022-09-27T12:40:32.000Z</time>
      </trkpt>
      <trkpt lat="45.88659" lon="4.62197">
        <ele>219.0219</ele>
        <time>2022-09-27T12:40:33.000Z</time>
      </trkpt>
      <trkpt lat="45.88661" lon="4.62193">
        <ele>218.96497</ele>
        <time>2022-09-27T12:40:34.000Z</time>
      </trkpt>
      <trkpt lat="45.88662" lon="4.62188">
        <ele>219.05193</ele>
        <time>2022-09-27T12:40:35.000Z</time>
      </trkpt>
      <trkpt lat="45.88663" lon="4.62185">
        <ele>219.3374</ele>
        <time>2022-09-27T12:40:36.000Z</time>
      </trkpt>
      <trkpt lat="45.88664" lon="4.62182">
        <ele>219.69766</ele>
        <time>2022-09-27T12:40:37.000Z</time>
      </trkpt>
      <trkpt lat="45.88665" lon="4.62178">
        <ele>220.12833</ele>
        <time>2022-09-27T12:40:39.000Z</time>
      </trkpt>
      <trkpt lat="45.88664" lon="4.62175">
        <ele>220.49666</ele>
        <time>2022-09-27T12:40:40.000Z</time>
      </trkpt>
      <trkpt lat="45.88663" lon="4.62173">
        <ele>220.90739</ele>
        <time>2022-09-27T12:40:41.000Z</time>
      </trkpt>
      <trkpt lat="45.88661" lon="4.62171">
        <ele>221.34827</ele>
        <time>2022-09-27T12:40:42.000Z</time>
      </trkpt>
      <trkpt lat="45.88659" lon="4.62169">
        <ele>221.72229</ele>
        <time>2022-09-27T12:40:43.000Z</time>
      </trkpt>
      <trkpt lat="45.88657" lon="4.62168">
        <ele>222.05981</ele>
        <time>2022-09-27T12:40:44.000Z</time>
      </trkpt>
      <trkpt lat="45.88655" lon="4.62166">
        <ele>222.37483</ele>
        <time>2022-09-27T12:40:45.000Z</time>
      </trkpt>
      <trkpt lat="45.88653" lon="4.62165">
        <ele>222.67636</ele>
        <time>2022-09-27T12:40:46.000Z</time>
      </trkpt>
      <trkpt lat="45.88651" lon="4.62163">
        <ele>222.92575</ele>
        <time>2022-09-27T12:40:47.000Z</time>
      </trkpt>
      <trkpt lat="45.88649" lon="4.62161">
        <ele>223.12334</ele>
        <time>2022-09-27T12:40:48.000Z</time>
      </trkpt>
      <trkpt lat="45.88647" lon="4.62159">
        <ele>223.3271</ele>
        <time>2022-09-27T12:40:49.000Z</time>
      </trkpt>
      <trkpt lat="45.88645" lon="4.62158">
        <ele>223.43872</ele>
        <time>2022-09-27T12:40:50.000Z</time>
      </trkpt>
      <trkpt lat="45.88642" lon="4.62157">
        <ele>223.52725</ele>
        <time>2022-09-27T12:40:51.000Z</time>
      </trkpt>
      <trkpt lat="45.8864" lon="4.62156">
        <ele>223.58142</ele>
        <time>2022-09-27T12:40:52.000Z</time>
      </trkpt>
      <trkpt lat="45.88638" lon="4.62156">
        <ele>223.71233</ele>
        <time>2022-09-27T12:40:53.000Z</time>
      </trkpt>
      <trkpt lat="45.88636" lon="4.62155">
        <ele>223.8407</ele>
        <time>2022-09-27T12:40:54.000Z</time>
      </trkpt>
      <trkpt lat="45.88635" lon="4.62153">
        <ele>224.04947</ele>
        <time>2022-09-27T12:40:55.000Z</time>
      </trkpt>
      <trkpt lat="45.88633" lon="4.62151">
        <ele>224.19803</ele>
        <time>2022-09-27T12:40:56.000Z</time>
      </trkpt>
      <trkpt lat="45.88632" lon="4.62148">
        <ele>224.18904</ele>
        <time>2022-09-27T12:40:57.000Z</time>
      </trkpt>
      <trkpt lat="45.8863" lon="4.62145">
        <ele>224.15665</ele>
        <time>2022-09-27T12:40:59.000Z</time>
      </trkpt>
      <trkpt lat="45.88628" lon="4.62143">
        <ele>224.18484</ele>
        <time>2022-09-27T12:41:01.000Z</time>
      </trkpt>
      <trkpt lat="45.8863" lon="4.62145">
        <ele>224.23953</ele>
        <time>2022-09-27T12:41:05.000Z</time>
      </trkpt>
      <trkpt lat="45.88632" lon="4.62146">
        <ele>224.30225</ele>
        <time>2022-09-27T12:41:07.000Z</time>
      </trkpt>
      <trkpt lat="45.8863" lon="4.62145">
        <ele>224.29965</ele>
        <time>2022-09-27T12:41:20.000Z</time>
      </trkpt>
      <trkpt lat="45.88628" lon="4.62143">
        <ele>224.35416</ele>
        <time>2022-09-27T12:41:22.000Z</time>
      </trkpt>
      <trkpt lat="45.88627" lon="4.62141">
        <ele>224.36743</ele>
        <time>2022-09-27T12:41:25.000Z</time>
      </trkpt>
      <trkpt lat="45.88629" lon="4.62144">
        <ele>224.36406</ele>
        <time>2022-09-27T12:41:47.000Z</time>
      </trkpt>
      <trkpt lat="45.8863" lon="4.62147">
        <ele>224.33366</ele>
        <time>2022-09-27T12:41:52.000Z</time>
      </trkpt>
      <trkpt lat="45.88628" lon="4.62146">
        <ele>224.36882</ele>
        <time>2022-09-27T12:42:03.000Z</time>
      </trkpt>
      <trkpt lat="45.88625" lon="4.62143">
        <ele>224.28206</ele>
        <time>2022-09-27T12:42:04.000Z</time>
      </trkpt>
      <trkpt lat="45.88623" lon="4.62138">
        <ele>224.14478</ele>
        <time>2022-09-27T12:42:05.000Z</time>
      </trkpt>
      <trkpt lat="45.8862" lon="4.62135">
        <ele>224.00203</ele>
        <time>2022-09-27T12:42:06.000Z</time>
      </trkpt>
      <trkpt lat="45.88617" lon="4.62131">
        <ele>223.91426</ele>
        <time>2022-09-27T12:42:07.000Z</time>
      </trkpt>
      <trkpt lat="45.88615" lon="4.62129">
        <ele>223.79105</ele>
        <time>2022-09-27T12:42:08.000Z</time>
      </trkpt>
      <trkpt lat="45.88611" lon="4.62127">
        <ele>223.55168</ele>
        <time>2022-09-27T12:42:09.000Z</time>
      </trkpt>
      <trkpt lat="45.88608" lon="4.62126">
        <ele>223.35217</ele>
        <time>2022-09-27T12:42:10.000Z</time>
      </trkpt>
      <trkpt lat="45.88604" lon="4.62126">
        <ele>223.11958</ele>
        <time>2022-09-27T12:42:11.000Z</time>
      </trkpt>
      <trkpt lat="45.88601" lon="4.62126">
        <ele>222.89084</ele>
        <time>2022-09-27T12:42:12.000Z</time>
      </trkpt>
      <trkpt lat="45.88598" lon="4.62125">
        <ele>222.68649</ele>
        <time>2022-09-27T12:42:13.000Z</time>
      </trkpt>
      <trkpt lat="45.88595" lon="4.62123">
        <ele>222.47954</ele>
        <time>2022-09-27T12:42:14.000Z</time>
      </trkpt>
      <trkpt lat="45.88593" lon="4.6212">
        <ele>222.29932</ele>
        <time>2022-09-27T12:42:15.000Z</time>
      </trkpt>
      <trkpt lat="45.8859" lon="4.62116">
        <ele>222.1539</ele>
        <time>2022-09-27T12:42:16.000Z</time>
      </trkpt>
      <trkpt lat="45.88588" lon="4.62113">
        <ele>222.08435</ele>
        <time>2022-09-27T12:42:17.000Z</time>
      </trkpt>
      <trkpt lat="45.88585" lon="4.62109">
        <ele>222.08569</ele>
        <time>2022-09-27T12:42:18.000Z</time>
      </trkpt>
      <trkpt lat="45.88581" lon="4.62105">
        <ele>222.08147</ele>
        <time>2022-09-27T12:42:19.000Z</time>
      </trkpt>
      <trkpt lat="45.88578" lon="4.62102">
        <ele>222.10173</ele>
        <time>2022-09-27T12:42:20.000Z</time>
      </trkpt>
      <trkpt lat="45.88575" lon="4.62099">
        <ele>222.09724</ele>
        <time>2022-09-27T12:42:21.000Z</time>
      </trkpt>
      <trkpt lat="45.88572" lon="4.62097">
        <ele>222.07243</ele>
        <time>2022-09-27T12:42:22.000Z</time>
      </trkpt>
      <trkpt lat="45.88571" lon="4.62095">
        <ele>221.84712</ele>
        <time>2022-09-27T12:42:23.000Z</time>
      </trkpt>
      <trkpt lat="45.88571" lon="4.62092">
        <ele>221.73015</ele>
        <time>2022-09-27T12:42:25.000Z</time>
      </trkpt>
      <trkpt lat="45.88568" lon="4.62091">
        <ele>221.65747</ele>
        <time>2022-09-27T12:43:42.000Z</time>
      </trkpt>
      <trkpt lat="45.88566" lon="4.62091">
        <ele>221.57552</ele>
        <time>2022-09-27T12:43:43.000Z</time>
      </trkpt>
      <trkpt lat="45.88563" lon="4.6209">
        <ele>221.4635</ele>
        <time>2022-09-27T12:43:44.000Z</time>
      </trkpt>
      <trkpt lat="45.88561" lon="4.62089">
        <ele>221.37646</ele>
        <time>2022-09-27T12:43:45.000Z</time>
      </trkpt>
      <trkpt lat="45.88558" lon="4.62088">
        <ele>221.32321</ele>
        <time>2022-09-27T12:43:46.000Z</time>
      </trkpt>
      <trkpt lat="45.88556" lon="4.62086">
        <ele>221.25754</ele>
        <time>2022-09-27T12:43:47.000Z</time>
      </trkpt>
      <trkpt lat="45.88554" lon="4.62083">
        <ele>221.32019</ele>
        <time>2022-09-27T12:43:48.000Z</time>
      </trkpt>
      <trkpt lat="45.88552" lon="4.62081">
        <ele>221.40498</ele>
        <time>2022-09-27T12:43:49.000Z</time>
      </trkpt>
      <trkpt lat="45.8855" lon="4.62078">
        <ele>221.47908</ele>
        <time>2022-09-27T12:43:50.000Z</time>
      </trkpt>
      <trkpt lat="45.88547" lon="4.62075">
        <ele>221.55222</ele>
        <time>2022-09-27T12:43:51.000Z</time>
      </trkpt>
      <trkpt lat="45.88544" lon="4.62073">
        <ele>221.52017</ele>
        <time>2022-09-27T12:43:52.000Z</time>
      </trkpt>
      <trkpt lat="45.8854" lon="4.62071">
        <ele>221.44852</ele>
        <time>2022-09-27T12:43:53.000Z</time>
      </trkpt>
      <trkpt lat="45.88537" lon="4.62068">
        <ele>221.34578</ele>
        <time>2022-09-27T12:43:54.000Z</time>
      </trkpt>
      <trkpt lat="45.88533" lon="4.62065">
        <ele>221.26665</ele>
        <time>2022-09-27T12:43:55.000Z</time>
      </trkpt>
      <trkpt lat="45.88517" lon="4.62049">
        <ele>221.81555</ele>
        <time>2022-09-27T12:43:56.000Z</time>
      </trkpt>
      <trkpt lat="45.88511" lon="4.6204">
        <ele>222.98198</ele>
        <time>2022-09-27T12:43:57.000Z</time>
      </trkpt>
      <trkpt lat="45.88509" lon="4.62037">
        <ele>223.99736</ele>
        <time>2022-09-27T12:43:58.000Z</time>
      </trkpt>
      <trkpt lat="45.88505" lon="4.62036">
        <ele>224.75778</ele>
        <time>2022-09-27T12:44:00.000Z</time>
      </trkpt>
      <trkpt lat="45.88502" lon="4.62033">
        <ele>225.56564</ele>
        <time>2022-09-27T12:44:01.000Z</time>
      </trkpt>
      <trkpt lat="45.88498" lon="4.62031">
        <ele>226.43396</ele>
        <time>2022-09-27T12:44:02.000Z</time>
      </trkpt>
      <trkpt lat="45.88495" lon="4.6203">
        <ele>227.13889</ele>
        <time>2022-09-27T12:44:03.000Z</time>
      </trkpt>
      <trkpt lat="45.88491" lon="4.62027">
        <ele>227.88297</ele>
        <time>2022-09-27T12:44:04.000Z</time>
      </trkpt>
      <trkpt lat="45.88489" lon="4.62025">
        <ele>228.58731</ele>
        <time>2022-09-27T12:44:05.000Z</time>
      </trkpt>
      <trkpt lat="45.88487" lon="4.62023">
        <ele>229.27811</ele>
        <time>2022-09-27T12:44:06.000Z</time>
      </trkpt>
      <trkpt lat="45.88484" lon="4.62023">
        <ele>229.98132</ele>
        <time>2022-09-27T12:44:07.000Z</time>
      </trkpt>
      <trkpt lat="45.88482" lon="4.62024">
        <ele>230.6084</ele>
        <time>2022-09-27T12:44:08.000Z</time>
      </trkpt>
      <trkpt lat="45.8848" lon="4.62027">
        <ele>230.89629</ele>
        <time>2022-09-27T12:44:10.000Z</time>
      </trkpt>
      <trkpt lat="45.8848" lon="4.62031">
        <ele>231.19833</ele>
        <time>2022-09-27T12:44:12.000Z</time>
      </trkpt>
      <trkpt lat="45.8848" lon="4.62034">
        <ele>231.48235</ele>
        <time>2022-09-27T12:44:13.000Z</time>
      </trkpt>
      <trkpt lat="45.8848" lon="4.62037">
        <ele>231.75728</ele>
        <time>2022-09-27T12:44:14.000Z</time>
      </trkpt>
      <trkpt lat="45.88482" lon="4.62039">
        <ele>232.02939</ele>
        <time>2022-09-27T12:44:15.000Z</time>
      </trkpt>
      <trkpt lat="45.88484" lon="4.6204">
        <ele>232.32393</ele>
        <time>2022-09-27T12:44:16.000Z</time>
      </trkpt>
      <trkpt lat="45.88487" lon="4.62038">
        <ele>232.51775</ele>
        <time>2022-09-27T12:44:17.000Z</time>
      </trkpt>
      <trkpt lat="45.88488" lon="4.62033">
        <ele>232.72566</ele>
        <time>2022-09-27T12:44:18.000Z</time>
      </trkpt>
      <trkpt lat="45.88488" lon="4.62029">
        <ele>232.20821</ele>
        <time>2022-09-27T12:44:19.000Z</time>
      </trkpt>
      <trkpt lat="45.88487" lon="4.62024">
        <ele>231.103</ele>
        <time>2022-09-27T12:44:20.000Z</time>
      </trkpt>
      <trkpt lat="45.88487" lon="4.6202">
        <ele>230.14275</ele>
        <time>2022-09-27T12:44:21.000Z</time>
      </trkpt>
      <trkpt lat="45.88486" lon="4.62015">
        <ele>229.43819</ele>
        <time>2022-09-27T12:44:22.000Z</time>
      </trkpt>
      <trkpt lat="45.88484" lon="4.62012">
        <ele>228.74492</ele>
        <time>2022-09-27T12:44:23.000Z</time>
      </trkpt>
      <trkpt lat="45.88482" lon="4.62009">
        <ele>227.98904</ele>
        <time>2022-09-27T12:44:24.000Z</time>
      </trkpt>
      <trkpt lat="45.88479" lon="4.62007">
        <ele>227.35995</ele>
        <time>2022-09-27T12:44:25.000Z</time>
      </trkpt>
      <trkpt lat="45.88477" lon="4.62005">
        <ele>226.73398</ele>
        <time>2022-09-27T12:44:26.000Z</time>
      </trkpt>
      <trkpt lat="45.88475" lon="4.62004">
        <ele>226.12485</ele>
        <time>2022-09-27T12:44:27.000Z</time>
      </trkpt>
      <trkpt lat="45.88472" lon="4.62002">
        <ele>225.56992</ele>
        <time>2022-09-27T12:44:28.000Z</time>
      </trkpt>
      <trkpt lat="45.88469" lon="4.62001">
        <ele>224.99431</ele>
        <time>2022-09-27T12:44:29.000Z</time>
      </trkpt>
      <trkpt lat="45.88465" lon="4.61999">
        <ele>224.4644</ele>
        <time>2022-09-27T12:44:30.000Z</time>
      </trkpt>
      <trkpt lat="45.88462" lon="4.61997">
        <ele>224.13289</ele>
        <time>2022-09-27T12:44:31.000Z</time>
      </trkpt>
      <trkpt lat="45.88459" lon="4.61995">
        <ele>223.81551</ele>
        <time>2022-09-27T12:44:32.000Z</time>
      </trkpt>
      <trkpt lat="45.88455" lon="4.61993">
        <ele>223.53909</ele>
        <time>2022-09-27T12:44:33.000Z</time>
      </trkpt>
      <trkpt lat="45.88452" lon="4.6199">
        <ele>223.32767</ele>
        <time>2022-09-27T12:44:34.000Z</time>
      </trkpt>
      <trkpt lat="45.88449" lon="4.61988">
        <ele>223.15373</ele>
        <time>2022-09-27T12:44:35.000Z</time>
      </trkpt>
      <trkpt lat="45.88445" lon="4.61985">
        <ele>223.00925</ele>
        <time>2022-09-27T12:44:36.000Z</time>
      </trkpt>
      <trkpt lat="45.88442" lon="4.61983">
        <ele>222.89771</ele>
        <time>2022-09-27T12:44:37.000Z</time>
      </trkpt>
      <trkpt lat="45.88439" lon="4.61981">
        <ele>222.79587</ele>
        <time>2022-09-27T12:44:38.000Z</time>
      </trkpt>
      <trkpt lat="45.88436" lon="4.61978">
        <ele>222.90793</ele>
        <time>2022-09-27T12:44:39.000Z</time>
      </trkpt>
      <trkpt lat="45.88433" lon="4.61976">
        <ele>222.95935</ele>
        <time>2022-09-27T12:44:40.000Z</time>
      </trkpt>
      <trkpt lat="45.8843" lon="4.61973">
        <ele>223.08167</ele>
        <time>2022-09-27T12:44:41.000Z</time>
      </trkpt>
      <trkpt lat="45.88426" lon="4.61971">
        <ele>223.28787</ele>
        <time>2022-09-27T12:44:42.000Z</time>
      </trkpt>
      <trkpt lat="45.88423" lon="4.61968">
        <ele>223.5916</ele>
        <time>2022-09-27T12:44:43.000Z</time>
      </trkpt>
      <trkpt lat="45.88419" lon="4.61965">
        <ele>223.91934</ele>
        <time>2022-09-27T12:44:44.000Z</time>
      </trkpt>
      <trkpt lat="45.88416" lon="4.61963">
        <ele>224.36002</ele>
        <time>2022-09-27T12:44:45.000Z</time>
      </trkpt>
      <trkpt lat="45.88413" lon="4.6196">
        <ele>224.78813</ele>
        <time>2022-09-27T12:44:46.000Z</time>
      </trkpt>
      <trkpt lat="45.88409" lon="4.61958">
        <ele>225.22217</ele>
        <time>2022-09-27T12:44:47.000Z</time>
      </trkpt>
      <trkpt lat="45.88405" lon="4.61955">
        <ele>225.59891</ele>
        <time>2022-09-27T12:44:48.000Z</time>
      </trkpt>
      <trkpt lat="45.88401" lon="4.61953">
        <ele>225.94695</ele>
        <time>2022-09-27T12:44:49.000Z</time>
      </trkpt>
      <trkpt lat="45.88398" lon="4.61952">
        <ele>226.15683</ele>
        <time>2022-09-27T12:44:50.000Z</time>
      </trkpt>
      <trkpt lat="45.88394" lon="4.61951">
        <ele>226.37646</ele>
        <time>2022-09-27T12:44:51.000Z</time>
      </trkpt>
      <trkpt lat="45.8839" lon="4.61951">
        <ele>226.64371</ele>
        <time>2022-09-27T12:44:52.000Z</time>
      </trkpt>
      <trkpt lat="45.88386" lon="4.61952">
        <ele>226.8739</ele>
        <time>2022-09-27T12:44:53.000Z</time>
      </trkpt>
      <trkpt lat="45.88382" lon="4.61952">
        <ele>227.03918</ele>
        <time>2022-09-27T12:44:54.000Z</time>
      </trkpt>
      <trkpt lat="45.88378" lon="4.61952">
        <ele>227.16252</ele>
        <time>2022-09-27T12:44:55.000Z</time>
      </trkpt>
      <trkpt lat="45.88374" lon="4.61952">
        <ele>227.44942</ele>
        <time>2022-09-27T12:44:56.000Z</time>
      </trkpt>
      <trkpt lat="45.88371" lon="4.61951">
        <ele>227.77156</ele>
        <time>2022-09-27T12:44:57.000Z</time>
      </trkpt>
      <trkpt lat="45.88367" lon="4.6195">
        <ele>228.08179</ele>
        <time>2022-09-27T12:44:58.000Z</time>
      </trkpt>
      <trkpt lat="45.88364" lon="4.61949">
        <ele>228.26639</ele>
        <time>2022-09-27T12:44:59.000Z</time>
      </trkpt>
      <trkpt lat="45.88361" lon="4.61947">
        <ele>228.53751</ele>
        <time>2022-09-27T12:45:00.000Z</time>
      </trkpt>
      <trkpt lat="45.88358" lon="4.61946">
        <ele>228.72122</ele>
        <time>2022-09-27T12:45:01.000Z</time>
      </trkpt>
      <trkpt lat="45.88354" lon="4.61944">
        <ele>228.84668</ele>
        <time>2022-09-27T12:45:02.000Z</time>
      </trkpt>
      <trkpt lat="45.88351" lon="4.61942">
        <ele>228.95195</ele>
        <time>2022-09-27T12:45:03.000Z</time>
      </trkpt>
      <trkpt lat="45.88348" lon="4.61941">
        <ele>229.03745</ele>
        <time>2022-09-27T12:45:04.000Z</time>
      </trkpt>
      <trkpt lat="45.88344" lon="4.61938">
        <ele>229.02986</ele>
        <time>2022-09-27T12:45:05.000Z</time>
      </trkpt>
      <trkpt lat="45.8834" lon="4.61936">
        <ele>229.1364</ele>
        <time>2022-09-27T12:45:06.000Z</time>
      </trkpt>
      <trkpt lat="45.88336" lon="4.61936">
        <ele>229.13445</ele>
        <time>2022-09-27T12:45:07.000Z</time>
      </trkpt>
      <trkpt lat="45.88331" lon="4.61938">
        <ele>229.17691</ele>
        <time>2022-09-27T12:45:08.000Z</time>
      </trkpt>
      <trkpt lat="45.88328" lon="4.61941">
        <ele>229.27312</ele>
        <time>2022-09-27T12:45:09.000Z</time>
      </trkpt>
      <trkpt lat="45.88325" lon="4.61946">
        <ele>229.49268</ele>
        <time>2022-09-27T12:45:10.000Z</time>
      </trkpt>
      <trkpt lat="45.88322" lon="4.6195">
        <ele>229.68294</ele>
        <time>2022-09-27T12:45:11.000Z</time>
      </trkpt>
      <trkpt lat="45.88319" lon="4.61954">
        <ele>229.81877</ele>
        <time>2022-09-27T12:45:12.000Z</time>
      </trkpt>
      <trkpt lat="45.88315" lon="4.61959">
        <ele>229.96989</ele>
        <time>2022-09-27T12:45:13.000Z</time>
      </trkpt>
      <trkpt lat="45.88313" lon="4.61963">
        <ele>230.18173</ele>
        <time>2022-09-27T12:45:14.000Z</time>
      </trkpt>
      <trkpt lat="45.8831" lon="4.61968">
        <ele>230.4731</ele>
        <time>2022-09-27T12:45:15.000Z</time>
      </trkpt>
      <trkpt lat="45.88308" lon="4.61972">
        <ele>230.57639</ele>
        <time>2022-09-27T12:45:16.000Z</time>
      </trkpt>
      <trkpt lat="45.88306" lon="4.61977">
        <ele>230.60068</ele>
        <time>2022-09-27T12:45:17.000Z</time>
      </trkpt>
      <trkpt lat="45.88304" lon="4.61982">
        <ele>230.56087</ele>
        <time>2022-09-27T12:45:18.000Z</time>
      </trkpt>
      <trkpt lat="45.88302" lon="4.61986">
        <ele>230.4653</ele>
        <time>2022-09-27T12:45:19.000Z</time>
      </trkpt>
      <trkpt lat="45.88301" lon="4.61991">
        <ele>230.30135</ele>
        <time>2022-09-27T12:45:20.000Z</time>
      </trkpt>
      <trkpt lat="45.883" lon="4.61996">
        <ele>230.15347</ele>
        <time>2022-09-27T12:45:21.000Z</time>
      </trkpt>
      <trkpt lat="45.88298" lon="4.62001">
        <ele>230.00911</ele>
        <time>2022-09-27T12:45:22.000Z</time>
      </trkpt>
      <trkpt lat="45.88296" lon="4.62005">
        <ele>229.90848</ele>
        <time>2022-09-27T12:45:23.000Z</time>
      </trkpt>
      <trkpt lat="45.88294" lon="4.6201">
        <ele>229.84317</ele>
        <time>2022-09-27T12:45:24.000Z</time>
      </trkpt>
      <trkpt lat="45.88293" lon="4.62014">
        <ele>229.77495</ele>
        <time>2022-09-27T12:45:25.000Z</time>
      </trkpt>
      <trkpt lat="45.88291" lon="4.62019">
        <ele>229.58829</ele>
        <time>2022-09-27T12:45:26.000Z</time>
      </trkpt>
      <trkpt lat="45.88289" lon="4.62023">
        <ele>229.51199</ele>
        <time>2022-09-27T12:45:27.000Z</time>
      </trkpt>
      <trkpt lat="45.88287" lon="4.62028">
        <ele>229.3741</ele>
        <time>2022-09-27T12:45:28.000Z</time>
      </trkpt>
      <trkpt lat="45.88285" lon="4.62031">
        <ele>229.20674</ele>
        <time>2022-09-27T12:45:29.000Z</time>
      </trkpt>
      <trkpt lat="45.88282" lon="4.62036">
        <ele>229.08</ele>
        <time>2022-09-27T12:45:30.000Z</time>
      </trkpt>
      <trkpt lat="45.88279" lon="4.62039">
        <ele>228.94002</ele>
        <time>2022-09-27T12:45:31.000Z</time>
      </trkpt>
      <trkpt lat="45.88277" lon="4.62043">
        <ele>228.79575</ele>
        <time>2022-09-27T12:45:32.000Z</time>
      </trkpt>
      <trkpt lat="45.88274" lon="4.62046">
        <ele>228.70895</ele>
        <time>2022-09-27T12:45:33.000Z</time>
      </trkpt>
      <trkpt lat="45.88271" lon="4.62049">
        <ele>228.54668</ele>
        <time>2022-09-27T12:45:34.000Z</time>
      </trkpt>
      <trkpt lat="45.88268" lon="4.62052">
        <ele>228.33682</ele>
        <time>2022-09-27T12:45:35.000Z</time>
      </trkpt>
      <trkpt lat="45.88265" lon="4.62055">
        <ele>228.1805</ele>
        <time>2022-09-27T12:45:36.000Z</time>
      </trkpt>
      <trkpt lat="45.88262" lon="4.62058">
        <ele>228.15518</ele>
        <time>2022-09-27T12:45:37.000Z</time>
      </trkpt>
      <trkpt lat="45.88259" lon="4.6206">
        <ele>228.22598</ele>
        <time>2022-09-27T12:45:38.000Z</time>
      </trkpt>
      <trkpt lat="45.88255" lon="4.62063">
        <ele>228.43681</ele>
        <time>2022-09-27T12:45:39.000Z</time>
      </trkpt>
      <trkpt lat="45.88252" lon="4.62065">
        <ele>228.6768</ele>
        <time>2022-09-27T12:45:40.000Z</time>
      </trkpt>
      <trkpt lat="45.88249" lon="4.62067">
        <ele>228.9677</ele>
        <time>2022-09-27T12:45:41.000Z</time>
      </trkpt>
      <trkpt lat="45.88245" lon="4.6207">
        <ele>229.32515</ele>
        <time>2022-09-27T12:45:42.000Z</time>
      </trkpt>
      <trkpt lat="45.88242" lon="4.62072">
        <ele>229.77519</ele>
        <time>2022-09-27T12:45:43.000Z</time>
      </trkpt>
      <trkpt lat="45.88239" lon="4.62074">
        <ele>230.1757</ele>
        <time>2022-09-27T12:45:44.000Z</time>
      </trkpt>
      <trkpt lat="45.88236" lon="4.62076">
        <ele>230.58611</ele>
        <time>2022-09-27T12:45:45.000Z</time>
      </trkpt>
      <trkpt lat="45.88233" lon="4.62079">
        <ele>230.99435</ele>
        <time>2022-09-27T12:45:46.000Z</time>
      </trkpt>
      <trkpt lat="45.88231" lon="4.62082">
        <ele>231.40292</ele>
        <time>2022-09-27T12:45:47.000Z</time>
      </trkpt>
      <trkpt lat="45.88229" lon="4.62085">
        <ele>231.87027</ele>
        <time>2022-09-27T12:45:48.000Z</time>
      </trkpt>
      <trkpt lat="45.88226" lon="4.62087">
        <ele>232.38423</ele>
        <time>2022-09-27T12:45:49.000Z</time>
      </trkpt>
      <trkpt lat="45.88224" lon="4.62091">
        <ele>232.98979</ele>
        <time>2022-09-27T12:45:50.000Z</time>
      </trkpt>
      <trkpt lat="45.88222" lon="4.62095">
        <ele>233.70584</ele>
        <time>2022-09-27T12:45:51.000Z</time>
      </trkpt>
      <trkpt lat="45.88219" lon="4.62098">
        <ele>234.45052</ele>
        <time>2022-09-27T12:45:52.000Z</time>
      </trkpt>
      <trkpt lat="45.88217" lon="4.62101">
        <ele>235.18286</ele>
        <time>2022-09-27T12:45:53.000Z</time>
      </trkpt>
      <trkpt lat="45.88214" lon="4.62104">
        <ele>236.01855</ele>
        <time>2022-09-27T12:45:54.000Z</time>
      </trkpt>
      <trkpt lat="45.88212" lon="4.62107">
        <ele>236.83273</ele>
        <time>2022-09-27T12:45:55.000Z</time>
      </trkpt>
      <trkpt lat="45.88209" lon="4.6211">
        <ele>237.50833</ele>
        <time>2022-09-27T12:45:56.000Z</time>
      </trkpt>
      <trkpt lat="45.88207" lon="4.62112">
        <ele>238.15207</ele>
        <time>2022-09-27T12:45:57.000Z</time>
      </trkpt>
      <trkpt lat="45.88204" lon="4.62115">
        <ele>238.82596</ele>
        <time>2022-09-27T12:45:58.000Z</time>
      </trkpt>
      <trkpt lat="45.88202" lon="4.62118">
        <ele>239.43509</ele>
        <time>2022-09-27T12:45:59.000Z</time>
      </trkpt>
      <trkpt lat="45.88199" lon="4.6212">
        <ele>240.04431</ele>
        <time>2022-09-27T12:46:00.000Z</time>
      </trkpt>
      <trkpt lat="45.88197" lon="4.62122">
        <ele>240.63394</ele>
        <time>2022-09-27T12:46:01.000Z</time>
      </trkpt>
      <trkpt lat="45.88195" lon="4.62123">
        <ele>241.22542</ele>
        <time>2022-09-27T12:46:02.000Z</time>
      </trkpt>
      <trkpt lat="45.88192" lon="4.62125">
        <ele>241.69023</ele>
        <time>2022-09-27T12:46:03.000Z</time>
      </trkpt>
      <trkpt lat="45.8819" lon="4.62127">
        <ele>242.21872</ele>
        <time>2022-09-27T12:46:04.000Z</time>
      </trkpt>
      <trkpt lat="45.88187" lon="4.62128">
        <ele>242.79887</ele>
        <time>2022-09-27T12:46:05.000Z</time>
      </trkpt>
      <trkpt lat="45.88184" lon="4.62131">
        <ele>243.44876</ele>
        <time>2022-09-27T12:46:06.000Z</time>
      </trkpt>
      <trkpt lat="45.88182" lon="4.62133">
        <ele>244.18652</ele>
        <time>2022-09-27T12:46:07.000Z</time>
      </trkpt>
      <trkpt lat="45.88179" lon="4.62135">
        <ele>244.923</ele>
        <time>2022-09-27T12:46:08.000Z</time>
      </trkpt>
      <trkpt lat="45.88176" lon="4.62136">
        <ele>245.6949</ele>
        <time>2022-09-27T12:46:09.000Z</time>
      </trkpt>
      <trkpt lat="45.88173" lon="4.62138">
        <ele>246.31877</ele>
        <time>2022-09-27T12:46:10.000Z</time>
      </trkpt>
      <trkpt lat="45.8817" lon="4.62139">
        <ele>246.87517</ele>
        <time>2022-09-27T12:46:11.000Z</time>
      </trkpt>
      <trkpt lat="45.88167" lon="4.62139">
        <ele>247.41306</ele>
        <time>2022-09-27T12:46:12.000Z</time>
      </trkpt>
      <trkpt lat="45.88165" lon="4.62139">
        <ele>247.96599</ele>
        <time>2022-09-27T12:46:13.000Z</time>
      </trkpt>
      <trkpt lat="45.88162" lon="4.6214">
        <ele>248.44205</ele>
        <time>2022-09-27T12:46:14.000Z</time>
      </trkpt>
      <trkpt lat="45.8816" lon="4.62141">
        <ele>248.88806</ele>
        <time>2022-09-27T12:46:15.000Z</time>
      </trkpt>
      <trkpt lat="45.88157" lon="4.62141">
        <ele>249.42947</ele>
        <time>2022-09-27T12:46:16.000Z</time>
      </trkpt>
      <trkpt lat="45.88155" lon="4.62141">
        <ele>249.85054</ele>
        <time>2022-09-27T12:46:17.000Z</time>
      </trkpt>
      <trkpt lat="45.88152" lon="4.62141">
        <ele>250.12361</ele>
        <time>2022-09-27T12:46:18.000Z</time>
      </trkpt>
      <trkpt lat="45.8815" lon="4.62142">
        <ele>250.37961</ele>
        <time>2022-09-27T12:46:19.000Z</time>
      </trkpt>
      <trkpt lat="45.88147" lon="4.62142">
        <ele>250.64487</ele>
        <time>2022-09-27T12:46:20.000Z</time>
      </trkpt>
      <trkpt lat="45.88145" lon="4.62142">
        <ele>250.94707</ele>
        <time>2022-09-27T12:46:21.000Z</time>
      </trkpt>
      <trkpt lat="45.88143" lon="4.62143">
        <ele>251.26254</ele>
        <time>2022-09-27T12:46:22.000Z</time>
      </trkpt>
      <trkpt lat="45.88141" lon="4.62145">
        <ele>251.67606</ele>
        <time>2022-09-27T12:46:23.000Z</time>
      </trkpt>
      <trkpt lat="45.88139" lon="4.62146">
        <ele>252.04582</ele>
        <time>2022-09-27T12:46:24.000Z</time>
      </trkpt>
      <trkpt lat="45.88137" lon="4.62148">
        <ele>252.36349</ele>
        <time>2022-09-27T12:46:25.000Z</time>
      </trkpt>
      <trkpt lat="45.88136" lon="4.62151">
        <ele>252.56364</ele>
        <time>2022-09-27T12:46:26.000Z</time>
      </trkpt>
      <trkpt lat="45.88135" lon="4.62154">
        <ele>252.69504</ele>
        <time>2022-09-27T12:46:27.000Z</time>
      </trkpt>
      <trkpt lat="45.88135" lon="4.62157">
        <ele>252.80489</ele>
        <time>2022-09-27T12:46:28.000Z</time>
      </trkpt>
      <trkpt lat="45.88136" lon="4.6216">
        <ele>252.84964</ele>
        <time>2022-09-27T12:46:29.000Z</time>
      </trkpt>
      <trkpt lat="45.88138" lon="4.62161">
        <ele>253.14136</ele>
        <time>2022-09-27T12:46:32.000Z</time>
      </trkpt>
      <trkpt lat="45.88138" lon="4.62165">
        <ele>253.16516</ele>
        <time>2022-09-27T12:47:44.000Z</time>
      </trkpt>
      <trkpt lat="45.88138" lon="4.62168">
        <ele>253.19312</ele>
        <time>2022-09-27T12:47:45.000Z</time>
      </trkpt>
      <trkpt lat="45.88138" lon="4.62171">
        <ele>253.09782</ele>
        <time>2022-09-27T12:47:46.000Z</time>
      </trkpt>
      <trkpt lat="45.88138" lon="4.62175">
        <ele>253.02885</ele>
        <time>2022-09-27T12:47:47.000Z</time>
      </trkpt>
      <trkpt lat="45.88137" lon="4.62178">
        <ele>252.99576</ele>
        <time>2022-09-27T12:47:48.000Z</time>
      </trkpt>
      <trkpt lat="45.88136" lon="4.62182">
        <ele>253.02869</ele>
        <time>2022-09-27T12:47:49.000Z</time>
      </trkpt>
      <trkpt lat="45.88135" lon="4.62186">
        <ele>253.17746</ele>
        <time>2022-09-27T12:47:50.000Z</time>
      </trkpt>
      <trkpt lat="45.88134" lon="4.6219">
        <ele>253.64597</ele>
        <time>2022-09-27T12:47:51.000Z</time>
      </trkpt>
      <trkpt lat="45.88133" lon="4.62194">
        <ele>254.0728</ele>
        <time>2022-09-27T12:47:52.000Z</time>
      </trkpt>
      <trkpt lat="45.88132" lon="4.62198">
        <ele>254.45969</ele>
        <time>2022-09-27T12:47:53.000Z</time>
      </trkpt>
      <trkpt lat="45.88132" lon="4.62202">
        <ele>254.8438</ele>
        <time>2022-09-27T12:47:54.000Z</time>
      </trkpt>
      <trkpt lat="45.88131" lon="4.62206">
        <ele>255.15622</ele>
        <time>2022-09-27T12:47:55.000Z</time>
      </trkpt>
      <trkpt lat="45.8813" lon="4.6221">
        <ele>255.40256</ele>
        <time>2022-09-27T12:47:56.000Z</time>
      </trkpt>
      <trkpt lat="45.88129" lon="4.62215">
        <ele>255.71684</ele>
        <time>2022-09-27T12:47:57.000Z</time>
      </trkpt>
      <trkpt lat="45.88128" lon="4.6222">
        <ele>256.06567</ele>
        <time>2022-09-27T12:47:58.000Z</time>
      </trkpt>
      <trkpt lat="45.88126" lon="4.62225">
        <ele>256.4754</ele>
        <time>2022-09-27T12:47:59.000Z</time>
      </trkpt>
      <trkpt lat="45.88125" lon="4.62229">
        <ele>256.8652</ele>
        <time>2022-09-27T12:48:00.000Z</time>
      </trkpt>
      <trkpt lat="45.88124" lon="4.62233">
        <ele>257.185</ele>
        <time>2022-09-27T12:48:01.000Z</time>
      </trkpt>
      <trkpt lat="45.88123" lon="4.62237">
        <ele>257.42401</ele>
        <time>2022-09-27T12:48:02.000Z</time>
      </trkpt>
      <trkpt lat="45.88122" lon="4.62241">
        <ele>257.41873</ele>
        <time>2022-09-27T12:48:03.000Z</time>
      </trkpt>
      <trkpt lat="45.88121" lon="4.62245">
        <ele>257.68549</ele>
        <time>2022-09-27T12:48:04.000Z</time>
      </trkpt>
      <trkpt lat="45.8812" lon="4.62249">
        <ele>257.90009</ele>
        <time>2022-09-27T12:48:05.000Z</time>
      </trkpt>
      <trkpt lat="45.8812" lon="4.62252">
        <ele>258.19702</ele>
        <time>2022-09-27T12:48:06.000Z</time>
      </trkpt>
      <trkpt lat="45.88119" lon="4.62256">
        <ele>258.47733</ele>
        <time>2022-09-27T12:48:07.000Z</time>
      </trkpt>
      <trkpt lat="45.88119" lon="4.6226">
        <ele>258.8331</ele>
        <time>2022-09-27T12:48:08.000Z</time>
      </trkpt>
      <trkpt lat="45.88118" lon="4.62264">
        <ele>259.07254</ele>
        <time>2022-09-27T12:48:09.000Z</time>
      </trkpt>
      <trkpt lat="45.88117" lon="4.62268">
        <ele>259.30222</ele>
        <time>2022-09-27T12:48:10.000Z</time>
      </trkpt>
      <trkpt lat="45.88116" lon="4.62273">
        <ele>259.40741</ele>
        <time>2022-09-27T12:48:11.000Z</time>
      </trkpt>
      <trkpt lat="45.88114" lon="4.62278">
        <ele>259.55338</ele>
        <time>2022-09-27T12:48:12.000Z</time>
      </trkpt>
      <trkpt lat="45.88112" lon="4.62283">
        <ele>259.73734</ele>
        <time>2022-09-27T12:48:13.000Z</time>
      </trkpt>
      <trkpt lat="45.88111" lon="4.62288">
        <ele>259.87408</ele>
        <time>2022-09-27T12:48:14.000Z</time>
      </trkpt>
      <trkpt lat="45.8811" lon="4.62293">
        <ele>259.96045</ele>
        <time>2022-09-27T12:48:15.000Z</time>
      </trkpt>
      <trkpt lat="45.88108" lon="4.62298">
        <ele>260.10083</ele>
        <time>2022-09-27T12:48:16.000Z</time>
      </trkpt>
      <trkpt lat="45.88107" lon="4.62303">
        <ele>260.09534</ele>
        <time>2022-09-27T12:48:17.000Z</time>
      </trkpt>
      <trkpt lat="45.88105" lon="4.6231">
        <ele>259.99118</ele>
        <time>2022-09-27T12:48:18.000Z</time>
      </trkpt>
      <trkpt lat="45.88102" lon="4.62319">
        <ele>259.88263</ele>
        <time>2022-09-27T12:48:19.000Z</time>
      </trkpt>
      <trkpt lat="45.881" lon="4.62324">
        <ele>259.7294</ele>
        <time>2022-09-27T12:48:20.000Z</time>
      </trkpt>
      <trkpt lat="45.88098" lon="4.62328">
        <ele>259.50757</ele>
        <time>2022-09-27T12:48:21.000Z</time>
      </trkpt>
      <trkpt lat="45.88094" lon="4.62336">
        <ele>259.41043</ele>
        <time>2022-09-27T12:48:22.000Z</time>
      </trkpt>
      <trkpt lat="45.8809" lon="4.62341">
        <ele>259.26477</ele>
        <time>2022-09-27T12:48:23.000Z</time>
      </trkpt>
      <trkpt lat="45.88089" lon="4.62344">
        <ele>259.06482</ele>
        <time>2022-09-27T12:48:24.000Z</time>
      </trkpt>
      <trkpt lat="45.88086" lon="4.62349">
        <ele>258.82477</ele>
        <time>2022-09-27T12:48:25.000Z</time>
      </trkpt>
      <trkpt lat="45.88083" lon="4.62353">
        <ele>258.62772</ele>
        <time>2022-09-27T12:48:26.000Z</time>
      </trkpt>
      <trkpt lat="45.88077" lon="4.62354">
        <ele>258.39423</ele>
        <time>2022-09-27T12:48:27.000Z</time>
      </trkpt>
      <trkpt lat="45.88073" lon="4.62357">
        <ele>258.03302</ele>
        <time>2022-09-27T12:48:28.000Z</time>
      </trkpt>
      <trkpt lat="45.88068" lon="4.62359">
        <ele>257.66565</ele>
        <time>2022-09-27T12:48:29.000Z</time>
      </trkpt>
      <trkpt lat="45.88065" lon="4.6236">
        <ele>257.31979</ele>
        <time>2022-09-27T12:48:30.000Z</time>
      </trkpt>
      <trkpt lat="45.88061" lon="4.62361">
        <ele>256.83795</ele>
        <time>2022-09-27T12:48:31.000Z</time>
      </trkpt>
      <trkpt lat="45.88057" lon="4.62362">
        <ele>256.25958</ele>
        <time>2022-09-27T12:48:32.000Z</time>
      </trkpt>
      <trkpt lat="45.88053" lon="4.62363">
        <ele>255.80254</ele>
        <time>2022-09-27T12:48:33.000Z</time>
      </trkpt>
      <trkpt lat="45.88048" lon="4.62363">
        <ele>255.51062</ele>
        <time>2022-09-27T12:48:34.000Z</time>
      </trkpt>
      <trkpt lat="45.88044" lon="4.6236">
        <ele>255.25403</ele>
        <time>2022-09-27T12:48:36.000Z</time>
      </trkpt>
      <trkpt lat="45.8804" lon="4.62359">
        <ele>255.04691</ele>
        <time>2022-09-27T12:48:37.000Z</time>
      </trkpt>
      <trkpt lat="45.88037" lon="4.62358">
        <ele>254.90076</ele>
        <time>2022-09-27T12:48:38.000Z</time>
      </trkpt>
      <trkpt lat="45.88034" lon="4.62357">
        <ele>254.89966</ele>
        <time>2022-09-27T12:48:39.000Z</time>
      </trkpt>
      <trkpt lat="45.88031" lon="4.62355">
        <ele>254.8591</ele>
        <time>2022-09-27T12:48:40.000Z</time>
      </trkpt>
      <trkpt lat="45.88028" lon="4.62354">
        <ele>254.91158</ele>
        <time>2022-09-27T12:48:41.000Z</time>
      </trkpt>
      <trkpt lat="45.88025" lon="4.62352">
        <ele>255.1619</ele>
        <time>2022-09-27T12:48:42.000Z</time>
      </trkpt>
      <trkpt lat="45.88022" lon="4.62351">
        <ele>255.35515</ele>
        <time>2022-09-27T12:48:43.000Z</time>
      </trkpt>
      <trkpt lat="45.88019" lon="4.6235">
        <ele>255.67973</ele>
        <time>2022-09-27T12:48:44.000Z</time>
      </trkpt>
      <trkpt lat="45.88016" lon="4.62348">
        <ele>256.01624</ele>
        <time>2022-09-27T12:48:45.000Z</time>
      </trkpt>
      <trkpt lat="45.88014" lon="4.62347">
        <ele>256.37686</ele>
        <time>2022-09-27T12:48:46.000Z</time>
      </trkpt>
      <trkpt lat="45.8801" lon="4.62346">
        <ele>256.71686</ele>
        <time>2022-09-27T12:48:47.000Z</time>
      </trkpt>
      <trkpt lat="45.88007" lon="4.62345">
        <ele>257.10266</ele>
        <time>2022-09-27T12:48:48.000Z</time>
      </trkpt>
      <trkpt lat="45.88003" lon="4.62345">
        <ele>257.50464</ele>
        <time>2022-09-27T12:48:49.000Z</time>
      </trkpt>
      <trkpt lat="45.87999" lon="4.62346">
        <ele>257.94177</ele>
        <time>2022-09-27T12:48:50.000Z</time>
      </trkpt>
      <trkpt lat="45.87996" lon="4.62347">
        <ele>258.40375</ele>
        <time>2022-09-27T12:48:51.000Z</time>
      </trkpt>
      <trkpt lat="45.87993" lon="4.62348">
        <ele>258.87283</ele>
        <time>2022-09-27T12:48:52.000Z</time>
      </trkpt>
      <trkpt lat="45.8799" lon="4.62349">
        <ele>259.44241</ele>
        <time>2022-09-27T12:48:53.000Z</time>
      </trkpt>
      <trkpt lat="45.87988" lon="4.6235">
        <ele>259.87946</ele>
        <time>2022-09-27T12:48:54.000Z</time>
      </trkpt>
      <trkpt lat="45.87986" lon="4.62352">
        <ele>260.13007</ele>
        <time>2022-09-27T12:48:55.000Z</time>
      </trkpt>
      <trkpt lat="45.87983" lon="4.62354">
        <ele>260.48141</ele>
        <time>2022-09-27T12:48:56.000Z</time>
      </trkpt>
      <trkpt lat="45.8798" lon="4.62357">
        <ele>260.73874</ele>
        <time>2022-09-27T12:48:57.000Z</time>
      </trkpt>
      <trkpt lat="45.87976" lon="4.62361">
        <ele>261.00558</ele>
        <time>2022-09-27T12:48:58.000Z</time>
      </trkpt>
      <trkpt lat="45.87973" lon="4.62368">
        <ele>261.20511</ele>
        <time>2022-09-27T12:48:59.000Z</time>
      </trkpt>
      <trkpt lat="45.87967" lon="4.62373">
        <ele>261.3725</ele>
        <time>2022-09-27T12:49:00.000Z</time>
      </trkpt>
      <trkpt lat="45.87963" lon="4.62379">
        <ele>261.44901</ele>
        <time>2022-09-27T12:49:01.000Z</time>
      </trkpt>
      <trkpt lat="45.87957" lon="4.62382">
        <ele>261.37622</ele>
        <time>2022-09-27T12:49:02.000Z</time>
      </trkpt>
      <trkpt lat="45.87952" lon="4.62386">
        <ele>261.3526</ele>
        <time>2022-09-27T12:49:03.000Z</time>
      </trkpt>
      <trkpt lat="45.87946" lon="4.62389">
        <ele>261.32251</ele>
        <time>2022-09-27T12:49:04.000Z</time>
      </trkpt>
      <trkpt lat="45.87941" lon="4.6239">
        <ele>261.28122</ele>
        <time>2022-09-27T12:49:05.000Z</time>
      </trkpt>
      <trkpt lat="45.87937" lon="4.62394">
        <ele>261.24054</ele>
        <time>2022-09-27T12:49:06.000Z</time>
      </trkpt>
      <trkpt lat="45.87932" lon="4.62397">
        <ele>261.17761</ele>
        <time>2022-09-27T12:49:07.000Z</time>
      </trkpt>
      <trkpt lat="45.87922" lon="4.62396">
        <ele>261.3071</ele>
        <time>2022-09-27T12:49:08.000Z</time>
      </trkpt>
      <trkpt lat="45.8792" lon="4.62397">
        <ele>261.60089</ele>
        <time>2022-09-27T12:49:09.000Z</time>
      </trkpt>
      <trkpt lat="45.87917" lon="4.62397">
        <ele>261.92892</ele>
        <time>2022-09-27T12:49:10.000Z</time>
      </trkpt>
      <trkpt lat="45.87914" lon="4.62395">
        <ele>262.20392</ele>
        <time>2022-09-27T12:49:11.000Z</time>
      </trkpt>
      <trkpt lat="45.87911" lon="4.6239">
        <ele>262.45093</ele>
        <time>2022-09-27T12:49:13.000Z</time>
      </trkpt>
      <trkpt lat="45.87908" lon="4.6239">
        <ele>262.72614</ele>
        <time>2022-09-27T12:49:14.000Z</time>
      </trkpt>
      <trkpt lat="45.87906" lon="4.6239">
        <ele>263.02261</ele>
        <time>2022-09-27T12:49:15.000Z</time>
      </trkpt>
      <trkpt lat="45.87904" lon="4.62395">
        <ele>263.47345</ele>
        <time>2022-09-27T12:49:16.000Z</time>
      </trkpt>
      <trkpt lat="45.87902" lon="4.62397">
        <ele>263.84964</ele>
        <time>2022-09-27T12:49:17.000Z</time>
      </trkpt>
      <trkpt lat="45.87899" lon="4.62401">
        <ele>264.22198</ele>
        <time>2022-09-27T12:49:18.000Z</time>
      </trkpt>
      <trkpt lat="45.87897" lon="4.62404">
        <ele>264.62213</ele>
        <time>2022-09-27T12:49:19.000Z</time>
      </trkpt>
      <trkpt lat="45.87895" lon="4.62408">
        <ele>265.01675</ele>
        <time>2022-09-27T12:49:20.000Z</time>
      </trkpt>
      <trkpt lat="45.87893" lon="4.62411">
        <ele>265.48126</ele>
        <time>2022-09-27T12:49:21.000Z</time>
      </trkpt>
      <trkpt lat="45.87891" lon="4.62415">
        <ele>265.94461</ele>
        <time>2022-09-27T12:49:22.000Z</time>
      </trkpt>
      <trkpt lat="45.87889" lon="4.62419">
        <ele>266.52097</ele>
        <time>2022-09-27T12:49:23.000Z</time>
      </trkpt>
      <trkpt lat="45.87888" lon="4.62423">
        <ele>267.10355</ele>
        <time>2022-09-27T12:49:24.000Z</time>
      </trkpt>
      <trkpt lat="45.87886" lon="4.62426">
        <ele>267.61987</ele>
        <time>2022-09-27T12:49:25.000Z</time>
      </trkpt>
      <trkpt lat="45.87885" lon="4.62431">
        <ele>268.22089</ele>
        <time>2022-09-27T12:49:26.000Z</time>
      </trkpt>
      <trkpt lat="45.87883" lon="4.62435">
        <ele>268.90668</ele>
        <time>2022-09-27T12:49:27.000Z</time>
      </trkpt>
      <trkpt lat="45.8788" lon="4.62439">
        <ele>269.61276</ele>
        <time>2022-09-27T12:49:28.000Z</time>
      </trkpt>
      <trkpt lat="45.87878" lon="4.62444">
        <ele>270.11655</ele>
        <time>2022-09-27T12:49:29.000Z</time>
      </trkpt>
      <trkpt lat="45.87876" lon="4.62448">
        <ele>270.54529</ele>
        <time>2022-09-27T12:49:30.000Z</time>
      </trkpt>
      <trkpt lat="45.87874" lon="4.62452">
        <ele>270.97339</ele>
        <time>2022-09-27T12:49:31.000Z</time>
      </trkpt>
      <trkpt lat="45.87873" lon="4.62456">
        <ele>271.42154</ele>
        <time>2022-09-27T12:49:32.000Z</time>
      </trkpt>
      <trkpt lat="45.87871" lon="4.6246">
        <ele>271.90704</ele>
        <time>2022-09-27T12:49:33.000Z</time>
      </trkpt>
      <trkpt lat="45.87869" lon="4.62464">
        <ele>272.41174</ele>
        <time>2022-09-27T12:49:34.000Z</time>
      </trkpt>
      <trkpt lat="45.87867" lon="4.62468">
        <ele>272.99884</ele>
        <time>2022-09-27T12:49:35.000Z</time>
      </trkpt>
      <trkpt lat="45.87866" lon="4.62472">
        <ele>273.43207</ele>
        <time>2022-09-27T12:49:36.000Z</time>
      </trkpt>
      <trkpt lat="45.87864" lon="4.62476">
        <ele>273.89081</ele>
        <time>2022-09-27T12:49:37.000Z</time>
      </trkpt>
      <trkpt lat="45.87862" lon="4.6248">
        <ele>274.32159</ele>
        <time>2022-09-27T12:49:38.000Z</time>
      </trkpt>
      <trkpt lat="45.8786" lon="4.62484">
        <ele>274.76001</ele>
        <time>2022-09-27T12:49:39.000Z</time>
      </trkpt>
      <trkpt lat="45.87858" lon="4.62487">
        <ele>275.20047</ele>
        <time>2022-09-27T12:49:40.000Z</time>
      </trkpt>
      <trkpt lat="45.87857" lon="4.62491">
        <ele>275.65289</ele>
        <time>2022-09-27T12:49:41.000Z</time>
      </trkpt>
      <trkpt lat="45.87855" lon="4.62494">
        <ele>276.0871</ele>
        <time>2022-09-27T12:49:42.000Z</time>
      </trkpt>
      <trkpt lat="45.87853" lon="4.62497">
        <ele>276.5192</ele>
        <time>2022-09-27T12:49:43.000Z</time>
      </trkpt>
      <trkpt lat="45.87851" lon="4.625">
        <ele>276.92493</ele>
        <time>2022-09-27T12:49:44.000Z</time>
      </trkpt>
      <trkpt lat="45.87849" lon="4.62504">
        <ele>277.34625</ele>
        <time>2022-09-27T12:49:45.000Z</time>
      </trkpt>
      <trkpt lat="45.87848" lon="4.62508">
        <ele>277.72</ele>
        <time>2022-09-27T12:49:46.000Z</time>
      </trkpt>
      <trkpt lat="45.87845" lon="4.62511">
        <ele>278.01547</ele>
        <time>2022-09-27T12:49:47.000Z</time>
      </trkpt>
      <trkpt lat="45.87843" lon="4.62515">
        <ele>278.27304</ele>
        <time>2022-09-27T12:49:48.000Z</time>
      </trkpt>
      <trkpt lat="45.8784" lon="4.62518">
        <ele>278.54068</ele>
        <time>2022-09-27T12:49:49.000Z</time>
      </trkpt>
      <trkpt lat="45.87837" lon="4.6252">
        <ele>278.70377</ele>
        <time>2022-09-27T12:49:50.000Z</time>
      </trkpt>
      <trkpt lat="45.87834" lon="4.62521">
        <ele>278.69766</ele>
        <time>2022-09-27T12:49:51.000Z</time>
      </trkpt>
      <trkpt lat="45.8783" lon="4.62522">
        <ele>278.67667</ele>
        <time>2022-09-27T12:49:52.000Z</time>
      </trkpt>
      <trkpt lat="45.87827" lon="4.62522">
        <ele>278.65048</ele>
        <time>2022-09-27T12:49:53.000Z</time>
      </trkpt>
      <trkpt lat="45.87823" lon="4.62522">
        <ele>278.57874</ele>
        <time>2022-09-27T12:49:54.000Z</time>
      </trkpt>
      <trkpt lat="45.8782" lon="4.62521">
        <ele>278.40704</ele>
        <time>2022-09-27T12:49:55.000Z</time>
      </trkpt>
      <trkpt lat="45.87817" lon="4.62519">
        <ele>278.29507</ele>
        <time>2022-09-27T12:49:56.000Z</time>
      </trkpt>
      <trkpt lat="45.87813" lon="4.62518">
        <ele>278.17694</ele>
        <time>2022-09-27T12:49:57.000Z</time>
      </trkpt>
      <trkpt lat="45.87811" lon="4.62516">
        <ele>278.0842</ele>
        <time>2022-09-27T12:49:58.000Z</time>
      </trkpt>
      <trkpt lat="45.87808" lon="4.62514">
        <ele>277.98834</ele>
        <time>2022-09-27T12:49:59.000Z</time>
      </trkpt>
      <trkpt lat="45.87805" lon="4.62512">
        <ele>277.96573</ele>
        <time>2022-09-27T12:50:00.000Z</time>
      </trkpt>
      <trkpt lat="45.87802" lon="4.6251">
        <ele>277.94437</ele>
        <time>2022-09-27T12:50:01.000Z</time>
      </trkpt>
      <trkpt lat="45.878" lon="4.62508">
        <ele>277.97968</ele>
        <time>2022-09-27T12:50:02.000Z</time>
      </trkpt>
      <trkpt lat="45.87797" lon="4.62507">
        <ele>277.95169</ele>
        <time>2022-09-27T12:50:03.000Z</time>
      </trkpt>
      <trkpt lat="45.87795" lon="4.62505">
        <ele>277.91687</ele>
        <time>2022-09-27T12:50:04.000Z</time>
      </trkpt>
      <trkpt lat="45.87792" lon="4.62504">
        <ele>277.92303</ele>
        <time>2022-09-27T12:50:05.000Z</time>
      </trkpt>
      <trkpt lat="45.87789" lon="4.62501">
        <ele>277.979</ele>
        <time>2022-09-27T12:50:06.000Z</time>
      </trkpt>
      <trkpt lat="45.87785" lon="4.62498">
        <ele>278.10785</ele>
        <time>2022-09-27T12:50:07.000Z</time>
      </trkpt>
      <trkpt lat="45.87782" lon="4.62494">
        <ele>278.25418</ele>
        <time>2022-09-27T12:50:08.000Z</time>
      </trkpt>
      <trkpt lat="45.87779" lon="4.62489">
        <ele>278.39423</ele>
        <time>2022-09-27T12:50:09.000Z</time>
      </trkpt>
      <trkpt lat="45.87776" lon="4.62487">
        <ele>278.58704</ele>
        <time>2022-09-27T12:50:10.000Z</time>
      </trkpt>
      <trkpt lat="45.87775" lon="4.62484">
        <ele>278.94562</ele>
        <time>2022-09-27T12:50:11.000Z</time>
      </trkpt>
      <trkpt lat="45.87773" lon="4.62485">
        <ele>279.68488</ele>
        <time>2022-09-27T12:50:12.000Z</time>
      </trkpt>
      <trkpt lat="45.8777" lon="4.62488">
        <ele>280.29901</ele>
        <time>2022-09-27T12:50:13.000Z</time>
      </trkpt>
      <trkpt lat="45.87769" lon="4.62493">
        <ele>280.81879</ele>
        <time>2022-09-27T12:50:14.000Z</time>
      </trkpt>
      <trkpt lat="45.87769" lon="4.62498">
        <ele>281.30292</ele>
        <time>2022-09-27T12:50:15.000Z</time>
      </trkpt>
      <trkpt lat="45.87769" lon="4.62503">
        <ele>281.75214</ele>
        <time>2022-09-27T12:50:16.000Z</time>
      </trkpt>
      <trkpt lat="45.87768" lon="4.62509">
        <ele>282.22543</ele>
        <time>2022-09-27T12:50:17.000Z</time>
      </trkpt>
      <trkpt lat="45.87767" lon="4.62514">
        <ele>282.62827</ele>
        <time>2022-09-27T12:50:18.000Z</time>
      </trkpt>
      <trkpt lat="45.87766" lon="4.6252">
        <ele>282.92966</ele>
        <time>2022-09-27T12:50:19.000Z</time>
      </trkpt>
      <trkpt lat="45.87764" lon="4.62526">
        <ele>283.12067</ele>
        <time>2022-09-27T12:50:20.000Z</time>
      </trkpt>
      <trkpt lat="45.87762" lon="4.62532">
        <ele>283.29196</ele>
        <time>2022-09-27T12:50:21.000Z</time>
      </trkpt>
      <trkpt lat="45.8776" lon="4.62538">
        <ele>283.5108</ele>
        <time>2022-09-27T12:50:22.000Z</time>
      </trkpt>
      <trkpt lat="45.87758" lon="4.62544">
        <ele>283.7674</ele>
        <time>2022-09-27T12:50:23.000Z</time>
      </trkpt>
      <trkpt lat="45.87756" lon="4.62549">
        <ele>284.02628</ele>
        <time>2022-09-27T12:50:24.000Z</time>
      </trkpt>
      <trkpt lat="45.87754" lon="4.62555">
        <ele>284.27893</ele>
        <time>2022-09-27T12:50:25.000Z</time>
      </trkpt>
      <trkpt lat="45.87751" lon="4.62561">
        <ele>284.50922</ele>
        <time>2022-09-27T12:50:26.000Z</time>
      </trkpt>
      <trkpt lat="45.87749" lon="4.62571">
        <ele>284.68918</ele>
        <time>2022-09-27T12:50:27.000Z</time>
      </trkpt>
      <trkpt lat="45.87746" lon="4.62576">
        <ele>284.84418</ele>
        <time>2022-09-27T12:50:28.000Z</time>
      </trkpt>
      <trkpt lat="45.87742" lon="4.62581">
        <ele>284.95773</ele>
        <time>2022-09-27T12:50:29.000Z</time>
      </trkpt>
      <trkpt lat="45.8774" lon="4.62588">
        <ele>284.9809</ele>
        <time>2022-09-27T12:50:30.000Z</time>
      </trkpt>
      <trkpt lat="45.87736" lon="4.62595">
        <ele>284.94489</ele>
        <time>2022-09-27T12:50:31.000Z</time>
      </trkpt>
      <trkpt lat="45.87732" lon="4.62603">
        <ele>284.5845</ele>
        <time>2022-09-27T12:50:32.000Z</time>
      </trkpt>
      <trkpt lat="45.87717" lon="4.62649">
        <ele>284.47226</ele>
        <time>2022-09-27T12:50:38.000Z</time>
      </trkpt>
      <trkpt lat="45.87714" lon="4.62658">
        <ele>284.42441</ele>
        <time>2022-09-27T12:50:39.000Z</time>
      </trkpt>
      <trkpt lat="45.87711" lon="4.62665">
        <ele>284.30814</ele>
        <time>2022-09-27T12:50:40.000Z</time>
      </trkpt>
      <trkpt lat="45.8771" lon="4.62671">
        <ele>284.15988</ele>
        <time>2022-09-27T12:50:41.000Z</time>
      </trkpt>
      <trkpt lat="45.87708" lon="4.62678">
        <ele>283.96204</ele>
        <time>2022-09-27T12:50:42.000Z</time>
      </trkpt>
      <trkpt lat="45.87707" lon="4.62683">
        <ele>283.82077</ele>
        <time>2022-09-27T12:50:43.000Z</time>
      </trkpt>
      <trkpt lat="45.87706" lon="4.62685">
        <ele>283.71631</ele>
        <time>2022-09-27T12:50:44.000Z</time>
      </trkpt>
      <trkpt lat="45.87704" lon="4.62688">
        <ele>283.67059</ele>
        <time>2022-09-27T12:50:45.000Z</time>
      </trkpt>
      <trkpt lat="45.87704" lon="4.62691">
        <ele>283.66574</ele>
        <time>2022-09-27T12:50:55.000Z</time>
      </trkpt>
      <trkpt lat="45.87704" lon="4.62688">
        <ele>283.67303</ele>
        <time>2022-09-27T12:51:16.000Z</time>
      </trkpt>
      <trkpt lat="45.87703" lon="4.62692">
        <ele>283.6351</ele>
        <time>2022-09-27T12:51:49.000Z</time>
      </trkpt>
      <trkpt lat="45.87701" lon="4.62696">
        <ele>283.62732</ele>
        <time>2022-09-27T12:51:50.000Z</time>
      </trkpt>
      <trkpt lat="45.87699" lon="4.627">
        <ele>283.50897</ele>
        <time>2022-09-27T12:51:51.000Z</time>
      </trkpt>
      <trkpt lat="45.87698" lon="4.62703">
        <ele>283.31424</ele>
        <time>2022-09-27T12:51:52.000Z</time>
      </trkpt>
      <trkpt lat="45.87696" lon="4.62708">
        <ele>283.16669</ele>
        <time>2022-09-27T12:51:53.000Z</time>
      </trkpt>
      <trkpt lat="45.87694" lon="4.62713">
        <ele>282.9563</ele>
        <time>2022-09-27T12:51:54.000Z</time>
      </trkpt>
      <trkpt lat="45.87692" lon="4.62718">
        <ele>282.79257</ele>
        <time>2022-09-27T12:51:55.000Z</time>
      </trkpt>
      <trkpt lat="45.8769" lon="4.62723">
        <ele>282.70697</ele>
        <time>2022-09-27T12:51:56.000Z</time>
      </trkpt>
      <trkpt lat="45.87689" lon="4.62728">
        <ele>282.6268</ele>
        <time>2022-09-27T12:51:57.000Z</time>
      </trkpt>
      <trkpt lat="45.87687" lon="4.62732">
        <ele>282.45953</ele>
        <time>2022-09-27T12:51:58.000Z</time>
      </trkpt>
      <trkpt lat="45.87685" lon="4.62737">
        <ele>282.16531</ele>
        <time>2022-09-27T12:51:59.000Z</time>
      </trkpt>
      <trkpt lat="45.87683" lon="4.62742">
        <ele>281.91437</ele>
        <time>2022-09-27T12:52:00.000Z</time>
      </trkpt>
      <trkpt lat="45.87682" lon="4.62748">
        <ele>281.83136</ele>
        <time>2022-09-27T12:52:01.000Z</time>
      </trkpt>
      <trkpt lat="45.8768" lon="4.62753">
        <ele>281.77335</ele>
        <time>2022-09-27T12:52:02.000Z</time>
      </trkpt>
      <trkpt lat="45.87679" lon="4.62759">
        <ele>281.72598</ele>
        <time>2022-09-27T12:52:03.000Z</time>
      </trkpt>
      <trkpt lat="45.87678" lon="4.62766">
        <ele>281.68878</ele>
        <time>2022-09-27T12:52:04.000Z</time>
      </trkpt>
      <trkpt lat="45.87676" lon="4.62772">
        <ele>281.67462</ele>
        <time>2022-09-27T12:52:05.000Z</time>
      </trkpt>
      <trkpt lat="45.87675" lon="4.62778">
        <ele>281.57935</ele>
        <time>2022-09-27T12:52:06.000Z</time>
      </trkpt>
      <trkpt lat="45.87674" lon="4.62784">
        <ele>281.48325</ele>
        <time>2022-09-27T12:52:07.000Z</time>
      </trkpt>
      <trkpt lat="45.87673" lon="4.6279">
        <ele>281.35712</ele>
        <time>2022-09-27T12:52:08.000Z</time>
      </trkpt>
      <trkpt lat="45.87671" lon="4.62796">
        <ele>281.20184</ele>
        <time>2022-09-27T12:52:09.000Z</time>
      </trkpt>
      <trkpt lat="45.87669" lon="4.62804">
        <ele>281.03271</ele>
        <time>2022-09-27T12:52:10.000Z</time>
      </trkpt>
      <trkpt lat="45.87668" lon="4.6281">
        <ele>280.89297</ele>
        <time>2022-09-27T12:52:11.000Z</time>
      </trkpt>
      <trkpt lat="45.87667" lon="4.62817">
        <ele>280.82925</ele>
        <time>2022-09-27T12:52:12.000Z</time>
      </trkpt>
      <trkpt lat="45.87666" lon="4.62824">
        <ele>280.71527</ele>
        <time>2022-09-27T12:52:13.000Z</time>
      </trkpt>
      <trkpt lat="45.87665" lon="4.62831">
        <ele>280.65918</ele>
        <time>2022-09-27T12:52:14.000Z</time>
      </trkpt>
      <trkpt lat="45.87664" lon="4.62837">
        <ele>280.61792</ele>
        <time>2022-09-27T12:52:15.000Z</time>
      </trkpt>
      <trkpt lat="45.87663" lon="4.62843">
        <ele>280.56915</ele>
        <time>2022-09-27T12:52:16.000Z</time>
      </trkpt>
      <trkpt lat="45.87662" lon="4.62851">
        <ele>280.63226</ele>
        <time>2022-09-27T12:52:17.000Z</time>
      </trkpt>
      <trkpt lat="45.8766" lon="4.62857">
        <ele>280.73688</ele>
        <time>2022-09-27T12:52:18.000Z</time>
      </trkpt>
      <trkpt lat="45.87659" lon="4.62863">
        <ele>280.8392</ele>
        <time>2022-09-27T12:52:19.000Z</time>
      </trkpt>
      <trkpt lat="45.87658" lon="4.62868">
        <ele>280.98175</ele>
        <time>2022-09-27T12:52:20.000Z</time>
      </trkpt>
      <trkpt lat="45.87658" lon="4.62874">
        <ele>281.10254</ele>
        <time>2022-09-27T12:52:21.000Z</time>
      </trkpt>
      <trkpt lat="45.87656" lon="4.6288">
        <ele>281.30655</ele>
        <time>2022-09-27T12:52:22.000Z</time>
      </trkpt>
      <trkpt lat="45.87654" lon="4.62885">
        <ele>281.53577</ele>
        <time>2022-09-27T12:52:23.000Z</time>
      </trkpt>
      <trkpt lat="45.87653" lon="4.6289">
        <ele>281.79312</ele>
        <time>2022-09-27T12:52:24.000Z</time>
      </trkpt>
      <trkpt lat="45.87652" lon="4.62898">
        <ele>282.1026</ele>
        <time>2022-09-27T12:52:25.000Z</time>
      </trkpt>
      <trkpt lat="45.8765" lon="4.62903">
        <ele>282.37527</ele>
        <time>2022-09-27T12:52:26.000Z</time>
      </trkpt>
      <trkpt lat="45.87649" lon="4.62909">
        <ele>282.63077</ele>
        <time>2022-09-27T12:52:27.000Z</time>
      </trkpt>
      <trkpt lat="45.87647" lon="4.62915">
        <ele>282.86667</ele>
        <time>2022-09-27T12:52:28.000Z</time>
      </trkpt>
      <trkpt lat="45.87646" lon="4.62921">
        <ele>283.16312</ele>
        <time>2022-09-27T12:52:29.000Z</time>
      </trkpt>
      <trkpt lat="45.87645" lon="4.62926">
        <ele>283.46509</ele>
        <time>2022-09-27T12:52:30.000Z</time>
      </trkpt>
      <trkpt lat="45.87645" lon="4.62933">
        <ele>283.79547</ele>
        <time>2022-09-27T12:52:31.000Z</time>
      </trkpt>
      <trkpt lat="45.87645" lon="4.62939">
        <ele>284.11627</ele>
        <time>2022-09-27T12:52:32.000Z</time>
      </trkpt>
      <trkpt lat="45.87645" lon="4.62945">
        <ele>284.46906</ele>
        <time>2022-09-27T12:52:33.000Z</time>
      </trkpt>
      <trkpt lat="45.87643" lon="4.62952">
        <ele>284.84662</ele>
        <time>2022-09-27T12:52:34.000Z</time>
      </trkpt>
      <trkpt lat="45.87642" lon="4.62958">
        <ele>285.16367</ele>
        <time>2022-09-27T12:52:35.000Z</time>
      </trkpt>
      <trkpt lat="45.87642" lon="4.62965">
        <ele>285.47418</ele>
        <time>2022-09-27T12:52:36.000Z</time>
      </trkpt>
      <trkpt lat="45.87642" lon="4.62973">
        <ele>285.7233</ele>
        <time>2022-09-27T12:52:37.000Z</time>
      </trkpt>
      <trkpt lat="45.87642" lon="4.62978">
        <ele>285.93036</ele>
        <time>2022-09-27T12:52:38.000Z</time>
      </trkpt>
      <trkpt lat="45.87641" lon="4.62986">
        <ele>286.13892</ele>
        <time>2022-09-27T12:52:39.000Z</time>
      </trkpt>
      <trkpt lat="45.87641" lon="4.62992">
        <ele>286.33014</ele>
        <time>2022-09-27T12:52:40.000Z</time>
      </trkpt>
      <trkpt lat="45.87641" lon="4.62999">
        <ele>286.40936</ele>
        <time>2022-09-27T12:52:41.000Z</time>
      </trkpt>
      <trkpt lat="45.87641" lon="4.63005">
        <ele>286.45172</ele>
        <time>2022-09-27T12:52:42.000Z</time>
      </trkpt>
      <trkpt lat="45.87641" lon="4.63012">
        <ele>286.40363</ele>
        <time>2022-09-27T12:52:43.000Z</time>
      </trkpt>
      <trkpt lat="45.87641" lon="4.63019">
        <ele>286.44812</ele>
        <time>2022-09-27T12:52:44.000Z</time>
      </trkpt>
      <trkpt lat="45.87641" lon="4.63026">
        <ele>286.48517</ele>
        <time>2022-09-27T12:52:45.000Z</time>
      </trkpt>
      <trkpt lat="45.87641" lon="4.63033">
        <ele>286.55304</ele>
        <time>2022-09-27T12:52:46.000Z</time>
      </trkpt>
      <trkpt lat="45.87641" lon="4.6304">
        <ele>286.65771</ele>
        <time>2022-09-27T12:52:47.000Z</time>
      </trkpt>
      <trkpt lat="45.87643" lon="4.63047">
        <ele>286.72473</ele>
        <time>2022-09-27T12:52:48.000Z</time>
      </trkpt>
      <trkpt lat="45.87644" lon="4.63056">
        <ele>286.82623</ele>
        <time>2022-09-27T12:52:49.000Z</time>
      </trkpt>
      <trkpt lat="45.87645" lon="4.63064">
        <ele>286.86533</ele>
        <time>2022-09-27T12:52:50.000Z</time>
      </trkpt>
      <trkpt lat="45.87645" lon="4.63072">
        <ele>286.91602</ele>
        <time>2022-09-27T12:52:51.000Z</time>
      </trkpt>
      <trkpt lat="45.87646" lon="4.63081">
        <ele>286.91977</ele>
        <time>2022-09-27T12:52:52.000Z</time>
      </trkpt>
      <trkpt lat="45.87646" lon="4.63089">
        <ele>286.93579</ele>
        <time>2022-09-27T12:52:53.000Z</time>
      </trkpt>
      <trkpt lat="45.87645" lon="4.63096">
        <ele>286.85587</ele>
        <time>2022-09-27T12:52:54.000Z</time>
      </trkpt>
      <trkpt lat="45.87646" lon="4.63104">
        <ele>286.78949</ele>
        <time>2022-09-27T12:52:55.000Z</time>
      </trkpt>
      <trkpt lat="45.87645" lon="4.63114">
        <ele>286.67621</ele>
        <time>2022-09-27T12:52:56.000Z</time>
      </trkpt>
      <trkpt lat="45.87645" lon="4.63123">
        <ele>286.56439</ele>
        <time>2022-09-27T12:52:57.000Z</time>
      </trkpt>
      <trkpt lat="45.87645" lon="4.63132">
        <ele>286.4794</ele>
        <time>2022-09-27T12:52:58.000Z</time>
      </trkpt>
      <trkpt lat="45.87645" lon="4.6314">
        <ele>286.38837</ele>
        <time>2022-09-27T12:52:59.000Z</time>
      </trkpt>
      <trkpt lat="45.87645" lon="4.63149">
        <ele>286.22455</ele>
        <time>2022-09-27T12:53:00.000Z</time>
      </trkpt>
      <trkpt lat="45.87644" lon="4.6316">
        <ele>285.97968</ele>
        <time>2022-09-27T12:53:01.000Z</time>
      </trkpt>
      <trkpt lat="45.87646" lon="4.63167">
        <ele>285.71927</ele>
        <time>2022-09-27T12:53:02.000Z</time>
      </trkpt>
      <trkpt lat="45.87644" lon="4.63177">
        <ele>285.38971</ele>
        <time>2022-09-27T12:53:03.000Z</time>
      </trkpt>
      <trkpt lat="45.87646" lon="4.63183">
        <ele>285.09091</ele>
        <time>2022-09-27T12:53:04.000Z</time>
      </trkpt>
      <trkpt lat="45.87646" lon="4.63192">
        <ele>284.78238</ele>
        <time>2022-09-27T12:53:05.000Z</time>
      </trkpt>
      <trkpt lat="45.87647" lon="4.63202">
        <ele>284.5697</ele>
        <time>2022-09-27T12:53:06.000Z</time>
      </trkpt>
      <trkpt lat="45.87646" lon="4.63213">
        <ele>284.36136</ele>
        <time>2022-09-27T12:53:07.000Z</time>
      </trkpt>
      <trkpt lat="45.87644" lon="4.63223">
        <ele>284.1485</ele>
        <time>2022-09-27T12:53:08.000Z</time>
      </trkpt>
      <trkpt lat="45.87642" lon="4.63233">
        <ele>283.84985</ele>
        <time>2022-09-27T12:53:09.000Z</time>
      </trkpt>
      <trkpt lat="45.87641" lon="4.63243">
        <ele>283.56543</ele>
        <time>2022-09-27T12:53:10.000Z</time>
      </trkpt>
      <trkpt lat="45.8764" lon="4.63254">
        <ele>283.27274</ele>
        <time>2022-09-27T12:53:11.000Z</time>
      </trkpt>
      <trkpt lat="45.87637" lon="4.63266">
        <ele>282.91003</ele>
        <time>2022-09-27T12:53:12.000Z</time>
      </trkpt>
      <trkpt lat="45.87635" lon="4.63277">
        <ele>282.54471</ele>
        <time>2022-09-27T12:53:13.000Z</time>
      </trkpt>
      <trkpt lat="45.87631" lon="4.63288">
        <ele>282.2356</ele>
        <time>2022-09-27T12:53:14.000Z</time>
      </trkpt>
      <trkpt lat="45.87628" lon="4.63297">
        <ele>281.99051</ele>
        <time>2022-09-27T12:53:15.000Z</time>
      </trkpt>
      <trkpt lat="45.87624" lon="4.63306">
        <ele>281.79861</ele>
        <time>2022-09-27T12:53:16.000Z</time>
      </trkpt>
      <trkpt lat="45.8762" lon="4.63313">
        <ele>281.51987</ele>
        <time>2022-09-27T12:53:17.000Z</time>
      </trkpt>
      <trkpt lat="45.87616" lon="4.6332">
        <ele>281.151</ele>
        <time>2022-09-27T12:53:18.000Z</time>
      </trkpt>
      <trkpt lat="45.87613" lon="4.63329">
        <ele>280.78091</ele>
        <time>2022-09-27T12:53:19.000Z</time>
      </trkpt>
      <trkpt lat="45.87611" lon="4.63336">
        <ele>280.44736</ele>
        <time>2022-09-27T12:53:20.000Z</time>
      </trkpt>
      <trkpt lat="45.87609" lon="4.63343">
        <ele>280.19421</ele>
        <time>2022-09-27T12:53:21.000Z</time>
      </trkpt>
      <trkpt lat="45.87605" lon="4.6335">
        <ele>279.89606</ele>
        <time>2022-09-27T12:53:22.000Z</time>
      </trkpt>
      <trkpt lat="45.87604" lon="4.63355">
        <ele>279.6944</ele>
        <time>2022-09-27T12:53:23.000Z</time>
      </trkpt>
      <trkpt lat="45.87601" lon="4.63359">
        <ele>279.30939</ele>
        <time>2022-09-27T12:53:24.000Z</time>
      </trkpt>
      <trkpt lat="45.87599" lon="4.63367">
        <ele>278.84097</ele>
        <time>2022-09-27T12:53:25.000Z</time>
      </trkpt>
      <trkpt lat="45.87596" lon="4.63377">
        <ele>278.33954</ele>
        <time>2022-09-27T12:53:26.000Z</time>
      </trkpt>
      <trkpt lat="45.87592" lon="4.63384">
        <ele>277.76758</ele>
        <time>2022-09-27T12:53:27.000Z</time>
      </trkpt>
      <trkpt lat="45.87589" lon="4.63391">
        <ele>277.18869</ele>
        <time>2022-09-27T12:53:28.000Z</time>
      </trkpt>
      <trkpt lat="45.87585" lon="4.63398">
        <ele>276.65942</ele>
        <time>2022-09-27T12:53:29.000Z</time>
      </trkpt>
      <trkpt lat="45.87582" lon="4.63404">
        <ele>276.0993</ele>
        <time>2022-09-27T12:53:30.000Z</time>
      </trkpt>
      <trkpt lat="45.87578" lon="4.63413">
        <ele>275.53708</ele>
        <time>2022-09-27T12:53:31.000Z</time>
      </trkpt>
      <trkpt lat="45.87575" lon="4.63419">
        <ele>275.09302</ele>
        <time>2022-09-27T12:53:32.000Z</time>
      </trkpt>
      <trkpt lat="45.8757" lon="4.63426">
        <ele>274.65488</ele>
        <time>2022-09-27T12:53:33.000Z</time>
      </trkpt>
      <trkpt lat="45.87567" lon="4.63433">
        <ele>274.3215</ele>
        <time>2022-09-27T12:53:34.000Z</time>
      </trkpt>
      <trkpt lat="45.87565" lon="4.63436">
        <ele>273.92889</ele>
        <time>2022-09-27T12:53:35.000Z</time>
      </trkpt>
      <trkpt lat="45.87564" lon="4.63441">
        <ele>273.56024</ele>
        <time>2022-09-27T12:53:36.000Z</time>
      </trkpt>
      <trkpt lat="45.87561" lon="4.63444">
        <ele>273.18106</ele>
        <time>2022-09-27T12:53:37.000Z</time>
      </trkpt>
      <trkpt lat="45.8756" lon="4.63445">
        <ele>272.88577</ele>
        <time>2022-09-27T12:53:38.000Z</time>
      </trkpt>
      <trkpt lat="45.87561" lon="4.63443">
        <ele>272.58557</ele>
        <time>2022-09-27T12:53:46.000Z</time>
      </trkpt>
      <trkpt lat="45.87561" lon="4.63445">
        <ele>272.24414</ele>
        <time>2022-09-27T12:53:52.000Z</time>
      </trkpt>
      <trkpt lat="45.87558" lon="4.63447">
        <ele>271.85181</ele>
        <time>2022-09-27T12:55:15.000Z</time>
      </trkpt>
      <trkpt lat="45.87556" lon="4.63451">
        <ele>271.50314</ele>
        <time>2022-09-27T12:55:16.000Z</time>
      </trkpt>
      <trkpt lat="45.87553" lon="4.63455">
        <ele>271.18771</ele>
        <time>2022-09-27T12:55:17.000Z</time>
      </trkpt>
      <trkpt lat="45.87551" lon="4.6346">
        <ele>270.93561</ele>
        <time>2022-09-27T12:55:18.000Z</time>
      </trkpt>
      <trkpt lat="45.87549" lon="4.63464">
        <ele>270.69937</ele>
        <time>2022-09-27T12:55:19.000Z</time>
      </trkpt>
      <trkpt lat="45.87547" lon="4.63469">
        <ele>270.37408</ele>
        <time>2022-09-27T12:55:20.000Z</time>
      </trkpt>
      <trkpt lat="45.87544" lon="4.63474">
        <ele>270.07275</ele>
        <time>2022-09-27T12:55:21.000Z</time>
      </trkpt>
      <trkpt lat="45.87541" lon="4.63478">
        <ele>269.82684</ele>
        <time>2022-09-27T12:55:22.000Z</time>
      </trkpt>
      <trkpt lat="45.87538" lon="4.63482">
        <ele>269.65298</ele>
        <time>2022-09-27T12:55:23.000Z</time>
      </trkpt>
      <trkpt lat="45.87535" lon="4.63486">
        <ele>269.54803</ele>
        <time>2022-09-27T12:55:24.000Z</time>
      </trkpt>
      <trkpt lat="45.87531" lon="4.63491">
        <ele>269.39032</ele>
        <time>2022-09-27T12:55:25.000Z</time>
      </trkpt>
      <trkpt lat="45.87527" lon="4.63495">
        <ele>269.15866</ele>
        <time>2022-09-27T12:55:26.000Z</time>
      </trkpt>
      <trkpt lat="45.87522" lon="4.635">
        <ele>268.8996</ele>
        <time>2022-09-27T12:55:27.000Z</time>
      </trkpt>
      <trkpt lat="45.87519" lon="4.63506">
        <ele>268.6347</ele>
        <time>2022-09-27T12:55:28.000Z</time>
      </trkpt>
      <trkpt lat="45.87516" lon="4.63512">
        <ele>268.39249</ele>
        <time>2022-09-27T12:55:29.000Z</time>
      </trkpt>
      <trkpt lat="45.87513" lon="4.63518">
        <ele>268.06076</ele>
        <time>2022-09-27T12:55:30.000Z</time>
      </trkpt>
      <trkpt lat="45.87509" lon="4.63523">
        <ele>267.78925</ele>
        <time>2022-09-27T12:55:31.000Z</time>
      </trkpt>
      <trkpt lat="45.87505" lon="4.6353">
        <ele>267.46036</ele>
        <time>2022-09-27T12:55:32.000Z</time>
      </trkpt>
      <trkpt lat="45.87504" lon="4.63538">
        <ele>267.00909</ele>
        <time>2022-09-27T12:55:33.000Z</time>
      </trkpt>
      <trkpt lat="45.875" lon="4.63545">
        <ele>266.56378</ele>
        <time>2022-09-27T12:55:34.000Z</time>
      </trkpt>
      <trkpt lat="45.87496" lon="4.63552">
        <ele>266.19928</ele>
        <time>2022-09-27T12:55:35.000Z</time>
      </trkpt>
      <trkpt lat="45.87492" lon="4.63559">
        <ele>265.81241</ele>
        <time>2022-09-27T12:55:36.000Z</time>
      </trkpt>
      <trkpt lat="45.87487" lon="4.63566">
        <ele>265.46609</ele>
        <time>2022-09-27T12:55:37.000Z</time>
      </trkpt>
      <trkpt lat="45.87485" lon="4.63575">
        <ele>265.08533</ele>
        <time>2022-09-27T12:55:38.000Z</time>
      </trkpt>
      <trkpt lat="45.87484" lon="4.63587">
        <ele>264.72711</ele>
        <time>2022-09-27T12:55:39.000Z</time>
      </trkpt>
      <trkpt lat="45.87478" lon="4.63595">
        <ele>264.51379</ele>
        <time>2022-09-27T12:55:40.000Z</time>
      </trkpt>
      <trkpt lat="45.87474" lon="4.63602">
        <ele>264.2269</ele>
        <time>2022-09-27T12:55:41.000Z</time>
      </trkpt>
      <trkpt lat="45.87467" lon="4.63606">
        <ele>263.92798</ele>
        <time>2022-09-27T12:55:42.000Z</time>
      </trkpt>
      <trkpt lat="45.87459" lon="4.63612">
        <ele>263.62906</ele>
        <time>2022-09-27T12:55:43.000Z</time>
      </trkpt>
      <trkpt lat="45.87449" lon="4.63614">
        <ele>263.35083</ele>
        <time>2022-09-27T12:55:44.000Z</time>
      </trkpt>
      <trkpt lat="45.8744" lon="4.63619">
        <ele>263.12756</ele>
        <time>2022-09-27T12:55:45.000Z</time>
      </trkpt>
      <trkpt lat="45.87432" lon="4.63627">
        <ele>262.88474</ele>
        <time>2022-09-27T12:55:46.000Z</time>
      </trkpt>
      <trkpt lat="45.87422" lon="4.63635">
        <ele>262.48343</ele>
        <time>2022-09-27T12:55:47.000Z</time>
      </trkpt>
      <trkpt lat="45.87413" lon="4.63646">
        <ele>261.99344</ele>
        <time>2022-09-27T12:55:48.000Z</time>
      </trkpt>
      <trkpt lat="45.87404" lon="4.63653">
        <ele>261.42755</ele>
        <time>2022-09-27T12:55:49.000Z</time>
      </trkpt>
      <trkpt lat="45.87393" lon="4.63662">
        <ele>261.00204</ele>
        <time>2022-09-27T12:55:50.000Z</time>
      </trkpt>
      <trkpt lat="45.87382" lon="4.63671">
        <ele>260.54852</ele>
        <time>2022-09-27T12:55:51.000Z</time>
      </trkpt>
      <trkpt lat="45.87373" lon="4.6368">
        <ele>260.10913</ele>
        <time>2022-09-27T12:55:52.000Z</time>
      </trkpt>
      <trkpt lat="45.87362" lon="4.63687">
        <ele>259.82678</ele>
        <time>2022-09-27T12:55:53.000Z</time>
      </trkpt>
      <trkpt lat="45.87353" lon="4.63695">
        <ele>259.66681</ele>
        <time>2022-09-27T12:55:54.000Z</time>
      </trkpt>
      <trkpt lat="45.87345" lon="4.63702">
        <ele>259.56442</ele>
        <time>2022-09-27T12:55:55.000Z</time>
      </trkpt>
      <trkpt lat="45.87336" lon="4.6371">
        <ele>259.5545</ele>
        <time>2022-09-27T12:55:56.000Z</time>
      </trkpt>
      <trkpt lat="45.87327" lon="4.63718">
        <ele>259.44678</ele>
        <time>2022-09-27T12:55:57.000Z</time>
      </trkpt>
      <trkpt lat="45.87319" lon="4.63727">
        <ele>259.29926</ele>
        <time>2022-09-27T12:55:58.000Z</time>
      </trkpt>
      <trkpt lat="45.87311" lon="4.63733">
        <ele>259.1734</ele>
        <time>2022-09-27T12:55:59.000Z</time>
      </trkpt>
      <trkpt lat="45.87303" lon="4.63738">
        <ele>258.95062</ele>
        <time>2022-09-27T12:56:00.000Z</time>
      </trkpt>
      <trkpt lat="45.87296" lon="4.63744">
        <ele>258.71268</ele>
        <time>2022-09-27T12:56:01.000Z</time>
      </trkpt>
      <trkpt lat="45.87288" lon="4.63751">
        <ele>258.37793</ele>
        <time>2022-09-27T12:56:02.000Z</time>
      </trkpt>
      <trkpt lat="45.8728" lon="4.63757">
        <ele>257.92224</ele>
        <time>2022-09-27T12:56:03.000Z</time>
      </trkpt>
      <trkpt lat="45.87273" lon="4.63766">
        <ele>257.40277</ele>
        <time>2022-09-27T12:56:04.000Z</time>
      </trkpt>
      <trkpt lat="45.87265" lon="4.63775">
        <ele>256.73953</ele>
        <time>2022-09-27T12:56:05.000Z</time>
      </trkpt>
      <trkpt lat="45.87258" lon="4.63783">
        <ele>256.15219</ele>
        <time>2022-09-27T12:56:06.000Z</time>
      </trkpt>
      <trkpt lat="45.87252" lon="4.6379">
        <ele>255.71538</ele>
        <time>2022-09-27T12:56:07.000Z</time>
      </trkpt>
      <trkpt lat="45.87247" lon="4.638">
        <ele>255.25293</ele>
        <time>2022-09-27T12:56:08.000Z</time>
      </trkpt>
      <trkpt lat="45.87241" lon="4.63808">
        <ele>254.89603</ele>
        <time>2022-09-27T12:56:09.000Z</time>
      </trkpt>
      <trkpt lat="45.87235" lon="4.63818">
        <ele>254.47147</ele>
        <time>2022-09-27T12:56:10.000Z</time>
      </trkpt>
      <trkpt lat="45.87228" lon="4.63828">
        <ele>254.05388</ele>
        <time>2022-09-27T12:56:11.000Z</time>
      </trkpt>
      <trkpt lat="45.87221" lon="4.63843">
        <ele>253.51872</ele>
        <time>2022-09-27T12:56:12.000Z</time>
      </trkpt>
      <trkpt lat="45.87216" lon="4.63856">
        <ele>252.95146</ele>
        <time>2022-09-27T12:56:13.000Z</time>
      </trkpt>
      <trkpt lat="45.87212" lon="4.63868">
        <ele>252.31364</ele>
        <time>2022-09-27T12:56:14.000Z</time>
      </trkpt>
      <trkpt lat="45.87205" lon="4.63879">
        <ele>251.63049</ele>
        <time>2022-09-27T12:56:15.000Z</time>
      </trkpt>
      <trkpt lat="45.87202" lon="4.63892">
        <ele>250.8851</ele>
        <time>2022-09-27T12:56:16.000Z</time>
      </trkpt>
      <trkpt lat="45.87199" lon="4.63904">
        <ele>250.09001</ele>
        <time>2022-09-27T12:56:17.000Z</time>
      </trkpt>
      <trkpt lat="45.87195" lon="4.63917">
        <ele>249.32996</ele>
        <time>2022-09-27T12:56:18.000Z</time>
      </trkpt>
      <trkpt lat="45.87191" lon="4.63929">
        <ele>248.50076</ele>
        <time>2022-09-27T12:56:19.000Z</time>
      </trkpt>
      <trkpt lat="45.8719" lon="4.63941">
        <ele>247.69319</ele>
        <time>2022-09-27T12:56:20.000Z</time>
      </trkpt>
      <trkpt lat="45.87185" lon="4.63955">
        <ele>246.94687</ele>
        <time>2022-09-27T12:56:21.000Z</time>
      </trkpt>
      <trkpt lat="45.87183" lon="4.63968">
        <ele>246.26785</ele>
        <time>2022-09-27T12:56:22.000Z</time>
      </trkpt>
      <trkpt lat="45.87181" lon="4.6398">
        <ele>245.60367</ele>
        <time>2022-09-27T12:56:23.000Z</time>
      </trkpt>
      <trkpt lat="45.87179" lon="4.63992">
        <ele>244.97783</ele>
        <time>2022-09-27T12:56:24.000Z</time>
      </trkpt>
      <trkpt lat="45.87179" lon="4.63998">
        <ele>244.5013</ele>
        <time>2022-09-27T12:56:25.000Z</time>
      </trkpt>
      <trkpt lat="45.8718" lon="4.64005">
        <ele>244.02231</ele>
        <time>2022-09-27T12:56:26.000Z</time>
      </trkpt>
      <trkpt lat="45.87179" lon="4.64013">
        <ele>243.53955</ele>
        <time>2022-09-27T12:56:27.000Z</time>
      </trkpt>
      <trkpt lat="45.8718" lon="4.64021">
        <ele>243.15869</ele>
        <time>2022-09-27T12:56:28.000Z</time>
      </trkpt>
      <trkpt lat="45.87178" lon="4.64027">
        <ele>242.72615</ele>
        <time>2022-09-27T12:56:29.000Z</time>
      </trkpt>
      <trkpt lat="45.87177" lon="4.64034">
        <ele>242.33948</ele>
        <time>2022-09-27T12:56:30.000Z</time>
      </trkpt>
      <trkpt lat="45.87176" lon="4.64038">
        <ele>241.96472</ele>
        <time>2022-09-27T12:56:31.000Z</time>
      </trkpt>
      <trkpt lat="45.87176" lon="4.64044">
        <ele>241.74426</ele>
        <time>2022-09-27T12:56:33.000Z</time>
      </trkpt>
      <trkpt lat="45.87174" lon="4.64047">
        <ele>241.43741</ele>
        <time>2022-09-27T12:56:36.000Z</time>
      </trkpt>
      <trkpt lat="45.87172" lon="4.64046">
        <ele>241.03198</ele>
        <time>2022-09-27T12:56:47.000Z</time>
      </trkpt>
      <trkpt lat="45.8717" lon="4.64047">
        <ele>240.4758</ele>
        <time>2022-09-27T12:57:02.000Z</time>
      </trkpt>
      <trkpt lat="45.87171" lon="4.6405">
        <ele>240.0024</ele>
        <time>2022-09-27T12:57:36.000Z</time>
      </trkpt>
      <trkpt lat="45.87171" lon="4.64053">
        <ele>239.50485</ele>
        <time>2022-09-27T12:57:37.000Z</time>
      </trkpt>
      <trkpt lat="45.8717" lon="4.64057">
        <ele>238.97417</ele>
        <time>2022-09-27T12:57:38.000Z</time>
      </trkpt>
      <trkpt lat="45.87171" lon="4.64061">
        <ele>238.52084</ele>
        <time>2022-09-27T12:57:39.000Z</time>
      </trkpt>
      <trkpt lat="45.87171" lon="4.64067">
        <ele>238.1582</ele>
        <time>2022-09-27T12:57:40.000Z</time>
      </trkpt>
      <trkpt lat="45.87174" lon="4.64077">
        <ele>237.76962</ele>
        <time>2022-09-27T12:57:41.000Z</time>
      </trkpt>
      <trkpt lat="45.87176" lon="4.64086">
        <ele>237.48755</ele>
        <time>2022-09-27T12:57:42.000Z</time>
      </trkpt>
      <trkpt lat="45.87176" lon="4.64095">
        <ele>237.21738</ele>
        <time>2022-09-27T12:57:43.000Z</time>
      </trkpt>
      <trkpt lat="45.87178" lon="4.64106">
        <ele>236.9039</ele>
        <time>2022-09-27T12:57:44.000Z</time>
      </trkpt>
      <trkpt lat="45.8718" lon="4.64117">
        <ele>236.56026</ele>
        <time>2022-09-27T12:57:45.000Z</time>
      </trkpt>
      <trkpt lat="45.87182" lon="4.64131">
        <ele>236.17233</ele>
        <time>2022-09-27T12:57:46.000Z</time>
      </trkpt>
      <trkpt lat="45.87184" lon="4.64143">
        <ele>235.71432</ele>
        <time>2022-09-27T12:57:47.000Z</time>
      </trkpt>
      <trkpt lat="45.87186" lon="4.64157">
        <ele>235.17171</ele>
        <time>2022-09-27T12:57:48.000Z</time>
      </trkpt>
      <trkpt lat="45.87188" lon="4.64171">
        <ele>234.63179</ele>
        <time>2022-09-27T12:57:49.000Z</time>
      </trkpt>
      <trkpt lat="45.87189" lon="4.64186">
        <ele>233.96492</ele>
        <time>2022-09-27T12:57:50.000Z</time>
      </trkpt>
      <trkpt lat="45.87191" lon="4.642">
        <ele>233.36118</ele>
        <time>2022-09-27T12:57:51.000Z</time>
      </trkpt>
      <trkpt lat="45.87194" lon="4.64215">
        <ele>232.74304</ele>
        <time>2022-09-27T12:57:52.000Z</time>
      </trkpt>
      <trkpt lat="45.87196" lon="4.64227">
        <ele>232.1329</ele>
        <time>2022-09-27T12:57:53.000Z</time>
      </trkpt>
      <trkpt lat="45.87198" lon="4.64239">
        <ele>231.59102</ele>
        <time>2022-09-27T12:57:54.000Z</time>
      </trkpt>
      <trkpt lat="45.87199" lon="4.6425">
        <ele>231.32138</ele>
        <time>2022-09-27T12:57:55.000Z</time>
      </trkpt>
      <trkpt lat="45.87201" lon="4.64258">
        <ele>230.92642</ele>
        <time>2022-09-27T12:57:56.000Z</time>
      </trkpt>
      <trkpt lat="45.87202" lon="4.64269">
        <ele>230.57657</ele>
        <time>2022-09-27T12:57:57.000Z</time>
      </trkpt>
      <trkpt lat="45.87205" lon="4.64276">
        <ele>230.27039</ele>
        <time>2022-09-27T12:57:58.000Z</time>
      </trkpt>
      <trkpt lat="45.87208" lon="4.64282">
        <ele>229.99472</ele>
        <time>2022-09-27T12:57:59.000Z</time>
      </trkpt>
      <trkpt lat="45.8721" lon="4.64288">
        <ele>229.72176</ele>
        <time>2022-09-27T12:58:00.000Z</time>
      </trkpt>
      <trkpt lat="45.87212" lon="4.64293">
        <ele>229.48752</ele>
        <time>2022-09-27T12:58:01.000Z</time>
      </trkpt>
      <trkpt lat="45.87212" lon="4.64296">
        <ele>229.13492</ele>
        <time>2022-09-27T12:58:02.000Z</time>
      </trkpt>
      <trkpt lat="45.87213" lon="4.643">
        <ele>228.7739</ele>
        <time>2022-09-27T12:58:03.000Z</time>
      </trkpt>
      <trkpt lat="45.87212" lon="4.64304">
        <ele>228.42842</ele>
        <time>2022-09-27T12:58:04.000Z</time>
      </trkpt>
      <trkpt lat="45.87213" lon="4.64307">
        <ele>228.12764</ele>
        <time>2022-09-27T12:58:05.000Z</time>
      </trkpt>
      <trkpt lat="45.87213" lon="4.64313">
        <ele>227.89326</ele>
        <time>2022-09-27T12:58:07.000Z</time>
      </trkpt>
      <trkpt lat="45.87215" lon="4.64316">
        <ele>227.69247</ele>
        <time>2022-09-27T12:58:08.000Z</time>
      </trkpt>
      <trkpt lat="45.87217" lon="4.64315">
        <ele>227.59036</ele>
        <time>2022-09-27T12:58:09.000Z</time>
      </trkpt>
      <trkpt lat="45.87219" lon="4.64316">
        <ele>227.50186</ele>
        <time>2022-09-27T12:58:10.000Z</time>
      </trkpt>
      <trkpt lat="45.87222" lon="4.64318">
        <ele>227.54155</ele>
        <time>2022-09-27T12:58:11.000Z</time>
      </trkpt>
      <trkpt lat="45.87225" lon="4.6432">
        <ele>227.54749</ele>
        <time>2022-09-27T12:58:12.000Z</time>
      </trkpt>
      <trkpt lat="45.87229" lon="4.6432">
        <ele>227.52002</ele>
        <time>2022-09-27T12:58:13.000Z</time>
      </trkpt>
      <trkpt lat="45.87232" lon="4.64319">
        <ele>227.50945</ele>
        <time>2022-09-27T12:58:14.000Z</time>
      </trkpt>
      <trkpt lat="45.87235" lon="4.64318">
        <ele>227.53757</ele>
        <time>2022-09-27T12:58:15.000Z</time>
      </trkpt>
      <trkpt lat="45.87239" lon="4.64317">
        <ele>227.35703</ele>
        <time>2022-09-27T12:58:16.000Z</time>
      </trkpt>
      <trkpt lat="45.87244" lon="4.6432">
        <ele>227.21904</ele>
        <time>2022-09-27T12:58:17.000Z</time>
      </trkpt>
      <trkpt lat="45.87248" lon="4.64321">
        <ele>227.16727</ele>
        <time>2022-09-27T12:58:18.000Z</time>
      </trkpt>
      <trkpt lat="45.87253" lon="4.64323">
        <ele>227.07198</ele>
        <time>2022-09-27T12:58:19.000Z</time>
      </trkpt>
      <trkpt lat="45.87257" lon="4.64323">
        <ele>226.87675</ele>
        <time>2022-09-27T12:58:20.000Z</time>
      </trkpt>
      <trkpt lat="45.87261" lon="4.64325">
        <ele>226.54192</ele>
        <time>2022-09-27T12:58:21.000Z</time>
      </trkpt>
      <trkpt lat="45.87266" lon="4.64326">
        <ele>226.21819</ele>
        <time>2022-09-27T12:58:22.000Z</time>
      </trkpt>
      <trkpt lat="45.8727" lon="4.64326">
        <ele>225.84317</ele>
        <time>2022-09-27T12:58:23.000Z</time>
      </trkpt>
      <trkpt lat="45.87276" lon="4.64325">
        <ele>225.51749</ele>
        <time>2022-09-27T12:58:24.000Z</time>
      </trkpt>
      <trkpt lat="45.87281" lon="4.64327">
        <ele>225.20554</ele>
        <time>2022-09-27T12:58:25.000Z</time>
      </trkpt>
      <trkpt lat="45.87287" lon="4.64327">
        <ele>224.87753</ele>
        <time>2022-09-27T12:58:26.000Z</time>
      </trkpt>
      <trkpt lat="45.8729" lon="4.64329">
        <ele>224.43286</ele>
        <time>2022-09-27T12:58:27.000Z</time>
      </trkpt>
      <trkpt lat="45.87297" lon="4.64331">
        <ele>223.99881</ele>
        <time>2022-09-27T12:58:28.000Z</time>
      </trkpt>
      <trkpt lat="45.87303" lon="4.64333">
        <ele>223.53317</ele>
        <time>2022-09-27T12:58:29.000Z</time>
      </trkpt>
      <trkpt lat="45.87307" lon="4.64335">
        <ele>223.0186</ele>
        <time>2022-09-27T12:58:30.000Z</time>
      </trkpt>
      <trkpt lat="45.87311" lon="4.64337">
        <ele>222.43582</ele>
        <time>2022-09-27T12:58:31.000Z</time>
      </trkpt>
      <trkpt lat="45.87315" lon="4.6434">
        <ele>221.80502</ele>
        <time>2022-09-27T12:58:32.000Z</time>
      </trkpt>
      <trkpt lat="45.8732" lon="4.64341">
        <ele>221.23958</ele>
        <time>2022-09-27T12:58:33.000Z</time>
      </trkpt>
      <trkpt lat="45.87325" lon="4.64342">
        <ele>220.78726</ele>
        <time>2022-09-27T12:58:34.000Z</time>
      </trkpt>
      <trkpt lat="45.8733" lon="4.64345">
        <ele>220.30403</ele>
        <time>2022-09-27T12:58:35.000Z</time>
      </trkpt>
      <trkpt lat="45.87337" lon="4.64347">
        <ele>219.99983</ele>
        <time>2022-09-27T12:58:36.000Z</time>
      </trkpt>
      <trkpt lat="45.87342" lon="4.64347">
        <ele>219.69983</ele>
        <time>2022-09-27T12:58:37.000Z</time>
      </trkpt>
      <trkpt lat="45.87347" lon="4.64346">
        <ele>219.37766</ele>
        <time>2022-09-27T12:58:38.000Z</time>
      </trkpt>
      <trkpt lat="45.87351" lon="4.64345">
        <ele>219.03738</ele>
        <time>2022-09-27T12:58:39.000Z</time>
      </trkpt>
      <trkpt lat="45.87358" lon="4.64345">
        <ele>218.75732</ele>
        <time>2022-09-27T12:58:40.000Z</time>
      </trkpt>
      <trkpt lat="45.87363" lon="4.64346">
        <ele>218.59219</ele>
        <time>2022-09-27T12:58:41.000Z</time>
      </trkpt>
      <trkpt lat="45.87369" lon="4.64346">
        <ele>218.39294</ele>
        <time>2022-09-27T12:58:42.000Z</time>
      </trkpt>
      <trkpt lat="45.87374" lon="4.64346">
        <ele>218.21628</ele>
        <time>2022-09-27T12:58:43.000Z</time>
      </trkpt>
      <trkpt lat="45.87379" lon="4.64345">
        <ele>218.05295</ele>
        <time>2022-09-27T12:58:44.000Z</time>
      </trkpt>
      <trkpt lat="45.87383" lon="4.64346">
        <ele>217.85873</ele>
        <time>2022-09-27T12:58:45.000Z</time>
      </trkpt>
      <trkpt lat="45.87387" lon="4.64346">
        <ele>217.64612</ele>
        <time>2022-09-27T12:58:46.000Z</time>
      </trkpt>
      <trkpt lat="45.87392" lon="4.64345">
        <ele>217.56204</ele>
        <time>2022-09-27T12:58:47.000Z</time>
      </trkpt>
      <trkpt lat="45.87396" lon="4.64345">
        <ele>217.55669</ele>
        <time>2022-09-27T12:58:48.000Z</time>
      </trkpt>
      <trkpt lat="45.87401" lon="4.64344">
        <ele>217.5511</ele>
        <time>2022-09-27T12:58:49.000Z</time>
      </trkpt>
      <trkpt lat="45.87406" lon="4.64345">
        <ele>217.60507</ele>
        <time>2022-09-27T12:58:50.000Z</time>
      </trkpt>
      <trkpt lat="45.87412" lon="4.64345">
        <ele>217.65092</ele>
        <time>2022-09-27T12:58:51.000Z</time>
      </trkpt>
      <trkpt lat="45.87416" lon="4.64344">
        <ele>217.75789</ele>
        <time>2022-09-27T12:58:53.000Z</time>
      </trkpt>
      <trkpt lat="45.87419" lon="4.64345">
        <ele>217.82613</ele>
        <time>2022-09-27T12:58:54.000Z</time>
      </trkpt>
      <trkpt lat="45.87423" lon="4.64344">
        <ele>217.77129</ele>
        <time>2022-09-27T12:58:55.000Z</time>
      </trkpt>
      <trkpt lat="45.87426" lon="4.64344">
        <ele>217.70064</ele>
        <time>2022-09-27T12:58:56.000Z</time>
      </trkpt>
      <trkpt lat="45.8743" lon="4.64343">
        <ele>217.58591</ele>
        <time>2022-09-27T12:58:57.000Z</time>
      </trkpt>
      <trkpt lat="45.87434" lon="4.64343">
        <ele>217.44888</ele>
        <time>2022-09-27T12:58:58.000Z</time>
      </trkpt>
      <trkpt lat="45.87438" lon="4.64343">
        <ele>217.30429</ele>
        <time>2022-09-27T12:58:59.000Z</time>
      </trkpt>
      <trkpt lat="45.87442" lon="4.64344">
        <ele>217.2692</ele>
        <time>2022-09-27T12:59:00.000Z</time>
      </trkpt>
      <trkpt lat="45.87446" lon="4.64345">
        <ele>217.2093</ele>
        <time>2022-09-27T12:59:01.000Z</time>
      </trkpt>
      <trkpt lat="45.87451" lon="4.64346">
        <ele>217.0907</ele>
        <time>2022-09-27T12:59:02.000Z</time>
      </trkpt>
      <trkpt lat="45.87455" lon="4.64347">
        <ele>216.99515</ele>
        <time>2022-09-27T12:59:03.000Z</time>
      </trkpt>
      <trkpt lat="45.87459" lon="4.64348">
        <ele>216.99068</ele>
        <time>2022-09-27T12:59:04.000Z</time>
      </trkpt>
      <trkpt lat="45.87464" lon="4.64351">
        <ele>216.93747</ele>
        <time>2022-09-27T12:59:05.000Z</time>
      </trkpt>
      <trkpt lat="45.87469" lon="4.64353">
        <ele>216.9012</ele>
        <time>2022-09-27T12:59:06.000Z</time>
      </trkpt>
      <trkpt lat="45.87476" lon="4.64355">
        <ele>216.91777</ele>
        <time>2022-09-27T12:59:07.000Z</time>
      </trkpt>
      <trkpt lat="45.87481" lon="4.64356">
        <ele>216.8978</ele>
        <time>2022-09-27T12:59:08.000Z</time>
      </trkpt>
      <trkpt lat="45.87487" lon="4.64358">
        <ele>216.89059</ele>
        <time>2022-09-27T12:59:09.000Z</time>
      </trkpt>
      <trkpt lat="45.87491" lon="4.6436">
        <ele>216.75139</ele>
        <time>2022-09-27T12:59:10.000Z</time>
      </trkpt>
      <trkpt lat="45.87496" lon="4.64362">
        <ele>216.53792</ele>
        <time>2022-09-27T12:59:11.000Z</time>
      </trkpt>
      <trkpt lat="45.87501" lon="4.64364">
        <ele>216.28427</ele>
        <time>2022-09-27T12:59:12.000Z</time>
      </trkpt>
      <trkpt lat="45.87507" lon="4.64366">
        <ele>216.02571</ele>
        <time>2022-09-27T12:59:13.000Z</time>
      </trkpt>
      <trkpt lat="45.87514" lon="4.64368">
        <ele>215.7684</ele>
        <time>2022-09-27T12:59:14.000Z</time>
      </trkpt>
      <trkpt lat="45.87519" lon="4.6437">
        <ele>215.63477</ele>
        <time>2022-09-27T12:59:15.000Z</time>
      </trkpt>
      <trkpt lat="45.87524" lon="4.64372">
        <ele>215.48886</ele>
        <time>2022-09-27T12:59:16.000Z</time>
      </trkpt>
      <trkpt lat="45.87529" lon="4.64375">
        <ele>215.34192</ele>
        <time>2022-09-27T12:59:17.000Z</time>
      </trkpt>
      <trkpt lat="45.87533" lon="4.64377">
        <ele>215.17032</ele>
        <time>2022-09-27T12:59:18.000Z</time>
      </trkpt>
      <trkpt lat="45.87538" lon="4.64376">
        <ele>215.07938</ele>
        <time>2022-09-27T12:59:19.000Z</time>
      </trkpt>
      <trkpt lat="45.87541" lon="4.64379">
        <ele>214.96658</ele>
        <time>2022-09-27T12:59:20.000Z</time>
      </trkpt>
      <trkpt lat="45.87543" lon="4.6438">
        <ele>214.90076</ele>
        <time>2022-09-27T12:59:21.000Z</time>
      </trkpt>
      <trkpt lat="45.87546" lon="4.64382">
        <ele>214.87788</ele>
        <time>2022-09-27T12:59:22.000Z</time>
      </trkpt>
      <trkpt lat="45.87548" lon="4.64382">
        <ele>214.91287</ele>
        <time>2022-09-27T12:59:23.000Z</time>
      </trkpt>
      <trkpt lat="45.87551" lon="4.64383">
        <ele>214.84627</ele>
        <time>2022-09-27T12:59:24.000Z</time>
      </trkpt>
      <trkpt lat="45.87554" lon="4.64383">
        <ele>214.80952</ele>
        <time>2022-09-27T12:59:25.000Z</time>
      </trkpt>
      <trkpt lat="45.87557" lon="4.64384">
        <ele>214.72849</ele>
        <time>2022-09-27T12:59:26.000Z</time>
      </trkpt>
      <trkpt lat="45.87558" lon="4.64387">
        <ele>214.63066</ele>
        <time>2022-09-27T12:59:27.000Z</time>
      </trkpt>
      <trkpt lat="45.87561" lon="4.64388">
        <ele>214.53755</ele>
        <time>2022-09-27T12:59:28.000Z</time>
      </trkpt>
      <trkpt lat="45.87564" lon="4.64389">
        <ele>214.49995</ele>
        <time>2022-09-27T12:59:30.000Z</time>
      </trkpt>
      <trkpt lat="45.87566" lon="4.6439">
        <ele>214.61702</ele>
        <time>2022-09-27T12:59:32.000Z</time>
      </trkpt>
      <trkpt lat="45.8757" lon="4.64392">
        <ele>214.80478</ele>
        <time>2022-09-27T12:59:53.000Z</time>
      </trkpt>
      <trkpt lat="45.87574" lon="4.64395">
        <ele>215.07124</ele>
        <time>2022-09-27T12:59:54.000Z</time>
      </trkpt>
      <trkpt lat="45.87578" lon="4.64399">
        <ele>215.33585</ele>
        <time>2022-09-27T12:59:55.000Z</time>
      </trkpt>
      <trkpt lat="45.87581" lon="4.64404">
        <ele>215.6906</ele>
        <time>2022-09-27T12:59:56.000Z</time>
      </trkpt>
      <trkpt lat="45.87585" lon="4.6441">
        <ele>216.08304</ele>
        <time>2022-09-27T12:59:57.000Z</time>
      </trkpt>
      <trkpt lat="45.8759" lon="4.64421">
        <ele>216.4346</ele>
        <time>2022-09-27T12:59:58.000Z</time>
      </trkpt>
      <trkpt lat="45.87593" lon="4.64427">
        <ele>216.72964</ele>
        <time>2022-09-27T12:59:59.000Z</time>
      </trkpt>
      <trkpt lat="45.87589" lon="4.64435">
        <ele>216.94646</ele>
        <time>2022-09-27T13:00:00.000Z</time>
      </trkpt>
      <trkpt lat="45.87587" lon="4.64441">
        <ele>217.12036</ele>
        <time>2022-09-27T13:00:01.000Z</time>
      </trkpt>
      <trkpt lat="45.87584" lon="4.64447">
        <ele>217.23117</ele>
        <time>2022-09-27T13:00:02.000Z</time>
      </trkpt>
      <trkpt lat="45.8758" lon="4.64453">
        <ele>217.38669</ele>
        <time>2022-09-27T13:00:03.000Z</time>
      </trkpt>
      <trkpt lat="45.87576" lon="4.64458">
        <ele>217.50215</ele>
        <time>2022-09-27T13:00:04.000Z</time>
      </trkpt>
      <trkpt lat="45.87574" lon="4.64464">
        <ele>217.5498</ele>
        <time>2022-09-27T13:00:05.000Z</time>
      </trkpt>
      <trkpt lat="45.8757" lon="4.6447">
        <ele>217.65617</ele>
        <time>2022-09-27T13:00:06.000Z</time>
      </trkpt>
      <trkpt lat="45.87567" lon="4.64475">
        <ele>217.74869</ele>
        <time>2022-09-27T13:00:07.000Z</time>
      </trkpt>
      <trkpt lat="45.87564" lon="4.64481">
        <ele>217.9008</ele>
        <time>2022-09-27T13:00:08.000Z</time>
      </trkpt>
      <trkpt lat="45.8756" lon="4.64488">
        <ele>218.02103</ele>
        <time>2022-09-27T13:00:09.000Z</time>
      </trkpt>
      <trkpt lat="45.87556" lon="4.64495">
        <ele>218.16843</ele>
        <time>2022-09-27T13:00:10.000Z</time>
      </trkpt>
      <trkpt lat="45.87553" lon="4.64501">
        <ele>218.14897</ele>
        <time>2022-09-27T13:00:11.000Z</time>
      </trkpt>
      <trkpt lat="45.87549" lon="4.64508">
        <ele>218.1232</ele>
        <time>2022-09-27T13:00:12.000Z</time>
      </trkpt>
      <trkpt lat="45.87545" lon="4.64515">
        <ele>218.10596</ele>
        <time>2022-09-27T13:00:13.000Z</time>
      </trkpt>
      <trkpt lat="45.87541" lon="4.64521">
        <ele>218.075</ele>
        <time>2022-09-27T13:00:14.000Z</time>
      </trkpt>
      <trkpt lat="45.87537" lon="4.64528">
        <ele>218.00797</ele>
        <time>2022-09-27T13:00:15.000Z</time>
      </trkpt>
      <trkpt lat="45.87534" lon="4.64535">
        <ele>217.85027</ele>
        <time>2022-09-27T13:00:16.000Z</time>
      </trkpt>
      <trkpt lat="45.8753" lon="4.64541">
        <ele>217.56172</ele>
        <time>2022-09-27T13:00:17.000Z</time>
      </trkpt>
      <trkpt lat="45.87524" lon="4.64548">
        <ele>217.33879</ele>
        <time>2022-09-27T13:00:18.000Z</time>
      </trkpt>
      <trkpt lat="45.87519" lon="4.64555">
        <ele>217.16597</ele>
        <time>2022-09-27T13:00:19.000Z</time>
      </trkpt>
      <trkpt lat="45.87515" lon="4.64562">
        <ele>217.11496</ele>
        <time>2022-09-27T13:00:20.000Z</time>
      </trkpt>
      <trkpt lat="45.87511" lon="4.64568">
        <ele>217.03445</ele>
        <time>2022-09-27T13:00:21.000Z</time>
      </trkpt>
      <trkpt lat="45.87506" lon="4.64575">
        <ele>216.98825</ele>
        <time>2022-09-27T13:00:22.000Z</time>
      </trkpt>
      <trkpt lat="45.87502" lon="4.64582">
        <ele>216.9257</ele>
        <time>2022-09-27T13:00:23.000Z</time>
      </trkpt>
      <trkpt lat="45.87499" lon="4.64589">
        <ele>216.86296</ele>
        <time>2022-09-27T13:00:24.000Z</time>
      </trkpt>
      <trkpt lat="45.87496" lon="4.64595">
        <ele>216.81836</ele>
        <time>2022-09-27T13:00:25.000Z</time>
      </trkpt>
      <trkpt lat="45.87492" lon="4.64602">
        <ele>216.78841</ele>
        <time>2022-09-27T13:00:26.000Z</time>
      </trkpt>
      <trkpt lat="45.87489" lon="4.64609">
        <ele>216.77829</ele>
        <time>2022-09-27T13:00:27.000Z</time>
      </trkpt>
      <trkpt lat="45.87483" lon="4.64616">
        <ele>216.76913</ele>
        <time>2022-09-27T13:00:28.000Z</time>
      </trkpt>
      <trkpt lat="45.87479" lon="4.64623">
        <ele>216.7793</ele>
        <time>2022-09-27T13:00:29.000Z</time>
      </trkpt>
      <trkpt lat="45.87474" lon="4.6463">
        <ele>216.7688</ele>
        <time>2022-09-27T13:00:30.000Z</time>
      </trkpt>
      <trkpt lat="45.8747" lon="4.64637">
        <ele>216.81621</ele>
        <time>2022-09-27T13:00:31.000Z</time>
      </trkpt>
      <trkpt lat="45.87465" lon="4.64645">
        <ele>216.83057</ele>
        <time>2022-09-27T13:00:32.000Z</time>
      </trkpt>
      <trkpt lat="45.87462" lon="4.64651">
        <ele>216.84158</ele>
        <time>2022-09-27T13:00:33.000Z</time>
      </trkpt>
      <trkpt lat="45.87458" lon="4.64656">
        <ele>216.85449</ele>
        <time>2022-09-27T13:00:34.000Z</time>
      </trkpt>
      <trkpt lat="45.87454" lon="4.64662">
        <ele>216.91025</ele>
        <time>2022-09-27T13:00:35.000Z</time>
      </trkpt>
      <trkpt lat="45.8745" lon="4.64669">
        <ele>216.95895</ele>
        <time>2022-09-27T13:00:36.000Z</time>
      </trkpt>
      <trkpt lat="45.87446" lon="4.64675">
        <ele>217.05429</ele>
        <time>2022-09-27T13:00:37.000Z</time>
      </trkpt>
      <trkpt lat="45.87441" lon="4.64682">
        <ele>217.10315</ele>
        <time>2022-09-27T13:00:38.000Z</time>
      </trkpt>
      <trkpt lat="45.87437" lon="4.6469">
        <ele>217.11914</ele>
        <time>2022-09-27T13:00:39.000Z</time>
      </trkpt>
      <trkpt lat="45.87433" lon="4.64697">
        <ele>217.16708</ele>
        <time>2022-09-27T13:00:40.000Z</time>
      </trkpt>
      <trkpt lat="45.8743" lon="4.64703">
        <ele>217.16953</ele>
        <time>2022-09-27T13:00:41.000Z</time>
      </trkpt>
      <trkpt lat="45.87424" lon="4.6471">
        <ele>217.20964</ele>
        <time>2022-09-27T13:00:42.000Z</time>
      </trkpt>
      <trkpt lat="45.87419" lon="4.64717">
        <ele>217.15018</ele>
        <time>2022-09-27T13:00:43.000Z</time>
      </trkpt>
      <trkpt lat="45.87414" lon="4.64723">
        <ele>217.0968</ele>
        <time>2022-09-27T13:00:44.000Z</time>
      </trkpt>
      <trkpt lat="45.8741" lon="4.6473">
        <ele>217.00253</ele>
        <time>2022-09-27T13:00:45.000Z</time>
      </trkpt>
      <trkpt lat="45.87405" lon="4.64736">
        <ele>216.87711</ele>
        <time>2022-09-27T13:00:46.000Z</time>
      </trkpt>
      <trkpt lat="45.87401" lon="4.64743">
        <ele>216.75166</ele>
        <time>2022-09-27T13:00:47.000Z</time>
      </trkpt>
      <trkpt lat="45.87398" lon="4.64749">
        <ele>216.63651</ele>
        <time>2022-09-27T13:00:48.000Z</time>
      </trkpt>
      <trkpt lat="45.87394" lon="4.64756">
        <ele>216.48311</ele>
        <time>2022-09-27T13:00:49.000Z</time>
      </trkpt>
      <trkpt lat="45.87389" lon="4.64763">
        <ele>216.2955</ele>
        <time>2022-09-27T13:00:50.000Z</time>
      </trkpt>
      <trkpt lat="45.87384" lon="4.6477">
        <ele>216.13889</ele>
        <time>2022-09-27T13:00:51.000Z</time>
      </trkpt>
      <trkpt lat="45.87379" lon="4.64777">
        <ele>216.0054</ele>
        <time>2022-09-27T13:00:52.000Z</time>
      </trkpt>
      <trkpt lat="45.87375" lon="4.64784">
        <ele>215.89493</ele>
        <time>2022-09-27T13:00:53.000Z</time>
      </trkpt>
      <trkpt lat="45.87371" lon="4.64791">
        <ele>215.80664</ele>
        <time>2022-09-27T13:00:54.000Z</time>
      </trkpt>
      <trkpt lat="45.87367" lon="4.64797">
        <ele>215.71902</ele>
        <time>2022-09-27T13:00:55.000Z</time>
      </trkpt>
      <trkpt lat="45.87362" lon="4.64804">
        <ele>215.62411</ele>
        <time>2022-09-27T13:00:56.000Z</time>
      </trkpt>
      <trkpt lat="45.87358" lon="4.64809">
        <ele>215.37166</ele>
        <time>2022-09-27T13:00:57.000Z</time>
      </trkpt>
      <trkpt lat="45.87354" lon="4.64816">
        <ele>215.17485</ele>
        <time>2022-09-27T13:00:58.000Z</time>
      </trkpt>
      <trkpt lat="45.8735" lon="4.64822">
        <ele>215.04761</ele>
        <time>2022-09-27T13:00:59.000Z</time>
      </trkpt>
      <trkpt lat="45.87345" lon="4.64828">
        <ele>214.89954</ele>
        <time>2022-09-27T13:01:00.000Z</time>
      </trkpt>
      <trkpt lat="45.8734" lon="4.64835">
        <ele>214.84378</ele>
        <time>2022-09-27T13:01:01.000Z</time>
      </trkpt>
      <trkpt lat="45.87334" lon="4.64842">
        <ele>214.69695</ele>
        <time>2022-09-27T13:01:02.000Z</time>
      </trkpt>
      <trkpt lat="45.8733" lon="4.64848">
        <ele>214.60901</ele>
        <time>2022-09-27T13:01:03.000Z</time>
      </trkpt>
      <trkpt lat="45.87326" lon="4.64854">
        <ele>214.50168</ele>
        <time>2022-09-27T13:01:04.000Z</time>
      </trkpt>
      <trkpt lat="45.87321" lon="4.64861">
        <ele>214.39497</ele>
        <time>2022-09-27T13:01:05.000Z</time>
      </trkpt>
      <trkpt lat="45.87318" lon="4.64867">
        <ele>214.31717</ele>
        <time>2022-09-27T13:01:06.000Z</time>
      </trkpt>
      <trkpt lat="45.87314" lon="4.64874">
        <ele>214.23206</ele>
        <time>2022-09-27T13:01:07.000Z</time>
      </trkpt>
      <trkpt lat="45.87308" lon="4.64881">
        <ele>214.11299</ele>
        <time>2022-09-27T13:01:08.000Z</time>
      </trkpt>
      <trkpt lat="45.87304" lon="4.64887">
        <ele>213.976</ele>
        <time>2022-09-27T13:01:09.000Z</time>
      </trkpt>
      <trkpt lat="45.87299" lon="4.64894">
        <ele>213.88786</ele>
        <time>2022-09-27T13:01:10.000Z</time>
      </trkpt>
      <trkpt lat="45.87296" lon="4.64902">
        <ele>213.74728</ele>
        <time>2022-09-27T13:01:11.000Z</time>
      </trkpt>
      <trkpt lat="45.87291" lon="4.64908">
        <ele>213.47346</ele>
        <time>2022-09-27T13:01:12.000Z</time>
      </trkpt>
      <trkpt lat="45.87287" lon="4.64913">
        <ele>213.15633</ele>
        <time>2022-09-27T13:01:13.000Z</time>
      </trkpt>
      <trkpt lat="45.87283" lon="4.6492">
        <ele>212.80237</ele>
        <time>2022-09-27T13:01:14.000Z</time>
      </trkpt>
      <trkpt lat="45.87279" lon="4.64928">
        <ele>212.40881</ele>
        <time>2022-09-27T13:01:15.000Z</time>
      </trkpt>
      <trkpt lat="45.87274" lon="4.64935">
        <ele>212.07071</ele>
        <time>2022-09-27T13:01:16.000Z</time>
      </trkpt>
      <trkpt lat="45.8727" lon="4.64941">
        <ele>211.86902</ele>
        <time>2022-09-27T13:01:17.000Z</time>
      </trkpt>
      <trkpt lat="45.87266" lon="4.64948">
        <ele>211.73547</ele>
        <time>2022-09-27T13:01:18.000Z</time>
      </trkpt>
      <trkpt lat="45.87262" lon="4.64956">
        <ele>211.55106</ele>
        <time>2022-09-27T13:01:19.000Z</time>
      </trkpt>
      <trkpt lat="45.87257" lon="4.64963">
        <ele>211.29028</ele>
        <time>2022-09-27T13:01:20.000Z</time>
      </trkpt>
      <trkpt lat="45.87253" lon="4.6497">
        <ele>210.98679</ele>
        <time>2022-09-27T13:01:21.000Z</time>
      </trkpt>
      <trkpt lat="45.87249" lon="4.64978">
        <ele>210.728</ele>
        <time>2022-09-27T13:01:22.000Z</time>
      </trkpt>
      <trkpt lat="45.87245" lon="4.64984">
        <ele>210.44621</ele>
        <time>2022-09-27T13:01:23.000Z</time>
      </trkpt>
      <trkpt lat="45.8724" lon="4.6499">
        <ele>210.17485</ele>
        <time>2022-09-27T13:01:24.000Z</time>
      </trkpt>
      <trkpt lat="45.87235" lon="4.64998">
        <ele>209.89409</ele>
        <time>2022-09-27T13:01:25.000Z</time>
      </trkpt>
      <trkpt lat="45.87232" lon="4.65004">
        <ele>209.56592</ele>
        <time>2022-09-27T13:01:26.000Z</time>
      </trkpt>
      <trkpt lat="45.87228" lon="4.65011">
        <ele>209.2478</ele>
        <time>2022-09-27T13:01:27.000Z</time>
      </trkpt>
      <trkpt lat="45.87223" lon="4.65018">
        <ele>208.95126</ele>
        <time>2022-09-27T13:01:28.000Z</time>
      </trkpt>
      <trkpt lat="45.87219" lon="4.65024">
        <ele>208.73772</ele>
        <time>2022-09-27T13:01:29.000Z</time>
      </trkpt>
      <trkpt lat="45.87215" lon="4.6503">
        <ele>208.52762</ele>
        <time>2022-09-27T13:01:30.000Z</time>
      </trkpt>
      <trkpt lat="45.87211" lon="4.65037">
        <ele>208.35596</ele>
        <time>2022-09-27T13:01:31.000Z</time>
      </trkpt>
      <trkpt lat="45.87206" lon="4.65043">
        <ele>208.26408</ele>
        <time>2022-09-27T13:01:32.000Z</time>
      </trkpt>
      <trkpt lat="45.87203" lon="4.6505">
        <ele>208.22299</ele>
        <time>2022-09-27T13:01:33.000Z</time>
      </trkpt>
      <trkpt lat="45.87197" lon="4.65056">
        <ele>208.14572</ele>
        <time>2022-09-27T13:01:34.000Z</time>
      </trkpt>
      <trkpt lat="45.87192" lon="4.65064">
        <ele>208.10287</ele>
        <time>2022-09-27T13:01:35.000Z</time>
      </trkpt>
      <trkpt lat="45.87189" lon="4.65071">
        <ele>208.0477</ele>
        <time>2022-09-27T13:01:36.000Z</time>
      </trkpt>
      <trkpt lat="45.87184" lon="4.65079">
        <ele>208.01053</ele>
        <time>2022-09-27T13:01:37.000Z</time>
      </trkpt>
      <trkpt lat="45.87179" lon="4.65086">
        <ele>207.90671</ele>
        <time>2022-09-27T13:01:38.000Z</time>
      </trkpt>
      <trkpt lat="45.87174" lon="4.65093">
        <ele>207.79593</ele>
        <time>2022-09-27T13:01:39.000Z</time>
      </trkpt>
      <trkpt lat="45.8717" lon="4.651">
        <ele>207.77715</ele>
        <time>2022-09-27T13:01:40.000Z</time>
      </trkpt>
      <trkpt lat="45.87165" lon="4.65108">
        <ele>207.74857</ele>
        <time>2022-09-27T13:01:41.000Z</time>
      </trkpt>
      <trkpt lat="45.87162" lon="4.65114">
        <ele>207.65079</ele>
        <time>2022-09-27T13:01:42.000Z</time>
      </trkpt>
      <trkpt lat="45.87157" lon="4.6512">
        <ele>207.56409</ele>
        <time>2022-09-27T13:01:43.000Z</time>
      </trkpt>
      <trkpt lat="45.87153" lon="4.65127">
        <ele>207.48877</ele>
        <time>2022-09-27T13:01:44.000Z</time>
      </trkpt>
      <trkpt lat="45.87148" lon="4.65135">
        <ele>207.47551</ele>
        <time>2022-09-27T13:01:45.000Z</time>
      </trkpt>
      <trkpt lat="45.87145" lon="4.65142">
        <ele>207.5022</ele>
        <time>2022-09-27T13:01:46.000Z</time>
      </trkpt>
      <trkpt lat="45.87141" lon="4.65149">
        <ele>207.51624</ele>
        <time>2022-09-27T13:01:47.000Z</time>
      </trkpt>
      <trkpt lat="45.87138" lon="4.65156">
        <ele>207.56377</ele>
        <time>2022-09-27T13:01:48.000Z</time>
      </trkpt>
      <trkpt lat="45.87135" lon="4.65163">
        <ele>207.59387</ele>
        <time>2022-09-27T13:01:49.000Z</time>
      </trkpt>
      <trkpt lat="45.87131" lon="4.65171">
        <ele>207.5835</ele>
        <time>2022-09-27T13:01:50.000Z</time>
      </trkpt>
      <trkpt lat="45.87127" lon="4.65178">
        <ele>207.57626</ele>
        <time>2022-09-27T13:01:51.000Z</time>
      </trkpt>
      <trkpt lat="45.87122" lon="4.65186">
        <ele>207.65515</ele>
        <time>2022-09-27T13:01:52.000Z</time>
      </trkpt>
      <trkpt lat="45.87119" lon="4.65192">
        <ele>207.67244</ele>
        <time>2022-09-27T13:01:53.000Z</time>
      </trkpt>
      <trkpt lat="45.87116" lon="4.65199">
        <ele>207.71667</ele>
        <time>2022-09-27T13:01:54.000Z</time>
      </trkpt>
      <trkpt lat="45.87111" lon="4.65206">
        <ele>207.71347</ele>
        <time>2022-09-27T13:01:55.000Z</time>
      </trkpt>
      <trkpt lat="45.87107" lon="4.65214">
        <ele>207.74568</ele>
        <time>2022-09-27T13:01:56.000Z</time>
      </trkpt>
      <trkpt lat="45.87103" lon="4.65221">
        <ele>207.76103</ele>
        <time>2022-09-27T13:01:57.000Z</time>
      </trkpt>
      <trkpt lat="45.871" lon="4.65227">
        <ele>207.78699</ele>
        <time>2022-09-27T13:01:58.000Z</time>
      </trkpt>
      <trkpt lat="45.87097" lon="4.65234">
        <ele>207.83846</ele>
        <time>2022-09-27T13:01:59.000Z</time>
      </trkpt>
      <trkpt lat="45.87094" lon="4.65241">
        <ele>207.82751</ele>
        <time>2022-09-27T13:02:00.000Z</time>
      </trkpt>
      <trkpt lat="45.87091" lon="4.65249">
        <ele>207.82426</ele>
        <time>2022-09-27T13:02:01.000Z</time>
      </trkpt>
      <trkpt lat="45.87088" lon="4.65256">
        <ele>207.82397</ele>
        <time>2022-09-27T13:02:02.000Z</time>
      </trkpt>
      <trkpt lat="45.87084" lon="4.65263">
        <ele>207.84441</ele>
        <time>2022-09-27T13:02:03.000Z</time>
      </trkpt>
      <trkpt lat="45.87082" lon="4.65271">
        <ele>207.90547</ele>
        <time>2022-09-27T13:02:04.000Z</time>
      </trkpt>
      <trkpt lat="45.8708" lon="4.65278">
        <ele>207.98372</ele>
        <time>2022-09-27T13:02:05.000Z</time>
      </trkpt>
      <trkpt lat="45.87077" lon="4.65286">
        <ele>208.0712</ele>
        <time>2022-09-27T13:02:06.000Z</time>
      </trkpt>
      <trkpt lat="45.87073" lon="4.65294">
        <ele>208.0909</ele>
        <time>2022-09-27T13:02:07.000Z</time>
      </trkpt>
      <trkpt lat="45.8707" lon="4.653">
        <ele>208.03174</ele>
        <time>2022-09-27T13:02:08.000Z</time>
      </trkpt>
      <trkpt lat="45.87066" lon="4.65307">
        <ele>207.96294</ele>
        <time>2022-09-27T13:02:09.000Z</time>
      </trkpt>
      <trkpt lat="45.87062" lon="4.65314">
        <ele>207.92081</ele>
        <time>2022-09-27T13:02:10.000Z</time>
      </trkpt>
      <trkpt lat="45.87057" lon="4.65322">
        <ele>207.90576</ele>
        <time>2022-09-27T13:02:11.000Z</time>
      </trkpt>
      <trkpt lat="45.87052" lon="4.65331">
        <ele>207.93217</ele>
        <time>2022-09-27T13:02:12.000Z</time>
      </trkpt>
      <trkpt lat="45.87047" lon="4.65338">
        <ele>207.96118</ele>
        <time>2022-09-27T13:02:13.000Z</time>
      </trkpt>
      <trkpt lat="45.87043" lon="4.65345">
        <ele>208.00862</ele>
        <time>2022-09-27T13:02:14.000Z</time>
      </trkpt>
      <trkpt lat="45.87039" lon="4.65352">
        <ele>208.12492</ele>
        <time>2022-09-27T13:02:15.000Z</time>
      </trkpt>
      <trkpt lat="45.87035" lon="4.65355">
        <ele>208.12923</ele>
        <time>2022-09-27T13:02:16.000Z</time>
      </trkpt>
      <trkpt lat="45.87027" lon="4.65362">
        <ele>208.17551</ele>
        <time>2022-09-27T13:02:17.000Z</time>
      </trkpt>
      <trkpt lat="45.87024" lon="4.65369">
        <ele>208.15862</ele>
        <time>2022-09-27T13:02:18.000Z</time>
      </trkpt>
      <trkpt lat="45.8702" lon="4.65375">
        <ele>208.10074</ele>
        <time>2022-09-27T13:02:19.000Z</time>
      </trkpt>
      <trkpt lat="45.87016" lon="4.65382">
        <ele>208.045</ele>
        <time>2022-09-27T13:02:20.000Z</time>
      </trkpt>
      <trkpt lat="45.8701" lon="4.65387">
        <ele>207.96216</ele>
        <time>2022-09-27T13:02:21.000Z</time>
      </trkpt>
      <trkpt lat="45.87005" lon="4.65392">
        <ele>207.93985</ele>
        <time>2022-09-27T13:02:22.000Z</time>
      </trkpt>
      <trkpt lat="45.87001" lon="4.65397">
        <ele>207.85315</ele>
        <time>2022-09-27T13:02:23.000Z</time>
      </trkpt>
      <trkpt lat="45.86996" lon="4.65403">
        <ele>207.66187</ele>
        <time>2022-09-27T13:02:24.000Z</time>
      </trkpt>
      <trkpt lat="45.86992" lon="4.65409">
        <ele>207.42168</ele>
        <time>2022-09-27T13:02:25.000Z</time>
      </trkpt>
      <trkpt lat="45.86986" lon="4.65414">
        <ele>207.1694</ele>
        <time>2022-09-27T13:02:26.000Z</time>
      </trkpt>
      <trkpt lat="45.86981" lon="4.6542">
        <ele>207.04407</ele>
        <time>2022-09-27T13:02:27.000Z</time>
      </trkpt>
      <trkpt lat="45.86976" lon="4.65425">
        <ele>206.89519</ele>
        <time>2022-09-27T13:02:28.000Z</time>
      </trkpt>
      <trkpt lat="45.86973" lon="4.6543">
        <ele>206.73018</ele>
        <time>2022-09-27T13:02:29.000Z</time>
      </trkpt>
      <trkpt lat="45.86967" lon="4.65437">
        <ele>206.60172</ele>
        <time>2022-09-27T13:02:30.000Z</time>
      </trkpt>
      <trkpt lat="45.86962" lon="4.65442">
        <ele>206.35555</ele>
        <time>2022-09-27T13:02:31.000Z</time>
      </trkpt>
      <trkpt lat="45.86957" lon="4.6545">
        <ele>206.06772</ele>
        <time>2022-09-27T13:02:32.000Z</time>
      </trkpt>
      <trkpt lat="45.86952" lon="4.65455">
        <ele>205.70805</ele>
        <time>2022-09-27T13:02:33.000Z</time>
      </trkpt>
      <trkpt lat="45.86947" lon="4.65461">
        <ele>205.34628</ele>
        <time>2022-09-27T13:02:34.000Z</time>
      </trkpt>
      <trkpt lat="45.86943" lon="4.65468">
        <ele>204.95622</ele>
        <time>2022-09-27T13:02:35.000Z</time>
      </trkpt>
      <trkpt lat="45.8694" lon="4.65474">
        <ele>204.62485</ele>
        <time>2022-09-27T13:02:36.000Z</time>
      </trkpt>
      <trkpt lat="45.86936" lon="4.6548">
        <ele>204.19495</ele>
        <time>2022-09-27T13:02:37.000Z</time>
      </trkpt>
      <trkpt lat="45.86932" lon="4.65487">
        <ele>203.7646</ele>
        <time>2022-09-27T13:02:38.000Z</time>
      </trkpt>
      <trkpt lat="45.8693" lon="4.65494">
        <ele>203.39883</ele>
        <time>2022-09-27T13:02:39.000Z</time>
      </trkpt>
      <trkpt lat="45.86925" lon="4.65502">
        <ele>203.09763</ele>
        <time>2022-09-27T13:02:40.000Z</time>
      </trkpt>
      <trkpt lat="45.86921" lon="4.65507">
        <ele>202.77261</ele>
        <time>2022-09-27T13:02:41.000Z</time>
      </trkpt>
      <trkpt lat="45.86918" lon="4.65515">
        <ele>202.51057</ele>
        <time>2022-09-27T13:02:42.000Z</time>
      </trkpt>
      <trkpt lat="45.86914" lon="4.65523">
        <ele>202.39026</ele>
        <time>2022-09-27T13:02:43.000Z</time>
      </trkpt>
      <trkpt lat="45.86911" lon="4.65531">
        <ele>202.30258</ele>
        <time>2022-09-27T13:02:44.000Z</time>
      </trkpt>
      <trkpt lat="45.86908" lon="4.6554">
        <ele>202.22456</ele>
        <time>2022-09-27T13:02:45.000Z</time>
      </trkpt>
      <trkpt lat="45.86902" lon="4.65548">
        <ele>202.02887</ele>
        <time>2022-09-27T13:02:46.000Z</time>
      </trkpt>
      <trkpt lat="45.86899" lon="4.65557">
        <ele>201.8101</ele>
        <time>2022-09-27T13:02:47.000Z</time>
      </trkpt>
      <trkpt lat="45.86897" lon="4.65565">
        <ele>201.68925</ele>
        <time>2022-09-27T13:02:48.000Z</time>
      </trkpt>
      <trkpt lat="45.86897" lon="4.65572">
        <ele>201.55736</ele>
        <time>2022-09-27T13:02:49.000Z</time>
      </trkpt>
      <trkpt lat="45.86894" lon="4.65581">
        <ele>201.43124</ele>
        <time>2022-09-27T13:02:50.000Z</time>
      </trkpt>
      <trkpt lat="45.86891" lon="4.6559">
        <ele>201.43394</ele>
        <time>2022-09-27T13:02:51.000Z</time>
      </trkpt>
      <trkpt lat="45.8689" lon="4.65599">
        <ele>201.48637</ele>
        <time>2022-09-27T13:02:52.000Z</time>
      </trkpt>
      <trkpt lat="45.86888" lon="4.65609">
        <ele>201.64461</ele>
        <time>2022-09-27T13:02:53.000Z</time>
      </trkpt>
      <trkpt lat="45.86886" lon="4.65617">
        <ele>201.8326</ele>
        <time>2022-09-27T13:02:54.000Z</time>
      </trkpt>
      <trkpt lat="45.86885" lon="4.65627">
        <ele>202.1261</ele>
        <time>2022-09-27T13:02:55.000Z</time>
      </trkpt>
      <trkpt lat="45.86884" lon="4.65635">
        <ele>202.46504</ele>
        <time>2022-09-27T13:02:56.000Z</time>
      </trkpt>
      <trkpt lat="45.86884" lon="4.65643">
        <ele>202.8989</ele>
        <time>2022-09-27T13:02:57.000Z</time>
      </trkpt>
      <trkpt lat="45.86883" lon="4.65652">
        <ele>203.45889</ele>
        <time>2022-09-27T13:02:58.000Z</time>
      </trkpt>
      <trkpt lat="45.86882" lon="4.65659">
        <ele>203.95135</ele>
        <time>2022-09-27T13:02:59.000Z</time>
      </trkpt>
      <trkpt lat="45.86882" lon="4.65667">
        <ele>204.46353</ele>
        <time>2022-09-27T13:03:00.000Z</time>
      </trkpt>
      <trkpt lat="45.86881" lon="4.65676">
        <ele>205.09103</ele>
        <time>2022-09-27T13:03:01.000Z</time>
      </trkpt>
      <trkpt lat="45.86881" lon="4.65685">
        <ele>205.72725</ele>
        <time>2022-09-27T13:03:02.000Z</time>
      </trkpt>
      <trkpt lat="45.8688" lon="4.65694">
        <ele>206.30127</ele>
        <time>2022-09-27T13:03:03.000Z</time>
      </trkpt>
      <trkpt lat="45.86879" lon="4.65702">
        <ele>206.93692</ele>
        <time>2022-09-27T13:03:04.000Z</time>
      </trkpt>
      <trkpt lat="45.86879" lon="4.65708">
        <ele>207.57535</ele>
        <time>2022-09-27T13:03:05.000Z</time>
      </trkpt>
      <trkpt lat="45.86879" lon="4.65718">
        <ele>208.39827</ele>
        <time>2022-09-27T13:03:06.000Z</time>
      </trkpt>
      <trkpt lat="45.86878" lon="4.65725">
        <ele>209.17856</ele>
        <time>2022-09-27T13:03:07.000Z</time>
      </trkpt>
      <trkpt lat="45.86877" lon="4.65733">
        <ele>209.94382</ele>
        <time>2022-09-27T13:03:08.000Z</time>
      </trkpt>
      <trkpt lat="45.86876" lon="4.65741">
        <ele>210.73389</ele>
        <time>2022-09-27T13:03:09.000Z</time>
      </trkpt>
      <trkpt lat="45.86874" lon="4.65749">
        <ele>211.47107</ele>
        <time>2022-09-27T13:03:10.000Z</time>
      </trkpt>
      <trkpt lat="45.86873" lon="4.65758">
        <ele>212.13962</ele>
        <time>2022-09-27T13:03:11.000Z</time>
      </trkpt>
      <trkpt lat="45.86871" lon="4.65766">
        <ele>212.71841</ele>
        <time>2022-09-27T13:03:12.000Z</time>
      </trkpt>
      <trkpt lat="45.86869" lon="4.65775">
        <ele>213.28389</ele>
        <time>2022-09-27T13:03:13.000Z</time>
      </trkpt>
      <trkpt lat="45.86867" lon="4.65785">
        <ele>213.78574</ele>
        <time>2022-09-27T13:03:14.000Z</time>
      </trkpt>
      <trkpt lat="45.86866" lon="4.65793">
        <ele>214.21646</ele>
        <time>2022-09-27T13:03:15.000Z</time>
      </trkpt>
      <trkpt lat="45.86864" lon="4.65801">
        <ele>214.63432</ele>
        <time>2022-09-27T13:03:16.000Z</time>
      </trkpt>
      <trkpt lat="45.86862" lon="4.65808">
        <ele>215.03035</ele>
        <time>2022-09-27T13:03:17.000Z</time>
      </trkpt>
      <trkpt lat="45.86862" lon="4.65816">
        <ele>215.36333</ele>
        <time>2022-09-27T13:03:18.000Z</time>
      </trkpt>
      <trkpt lat="45.86857" lon="4.65825">
        <ele>215.66353</ele>
        <time>2022-09-27T13:03:19.000Z</time>
      </trkpt>
      <trkpt lat="45.86853" lon="4.65832">
        <ele>215.94101</ele>
        <time>2022-09-27T13:03:20.000Z</time>
      </trkpt>
      <trkpt lat="45.86852" lon="4.65841">
        <ele>216.21323</ele>
        <time>2022-09-27T13:03:21.000Z</time>
      </trkpt>
      <trkpt lat="45.86849" lon="4.6585">
        <ele>216.44009</ele>
        <time>2022-09-27T13:03:22.000Z</time>
      </trkpt>
      <trkpt lat="45.86845" lon="4.65857">
        <ele>216.57658</ele>
        <time>2022-09-27T13:03:23.000Z</time>
      </trkpt>
      <trkpt lat="45.86842" lon="4.65863">
        <ele>216.69766</ele>
        <time>2022-09-27T13:03:24.000Z</time>
      </trkpt>
      <trkpt lat="45.86839" lon="4.65872">
        <ele>216.83218</ele>
        <time>2022-09-27T13:03:25.000Z</time>
      </trkpt>
      <trkpt lat="45.86835" lon="4.65879">
        <ele>216.92024</ele>
        <time>2022-09-27T13:03:26.000Z</time>
      </trkpt>
      <trkpt lat="45.86831" lon="4.65886">
        <ele>217.05325</ele>
        <time>2022-09-27T13:03:27.000Z</time>
      </trkpt>
      <trkpt lat="45.86828" lon="4.65893">
        <ele>217.20862</ele>
        <time>2022-09-27T13:03:28.000Z</time>
      </trkpt>
      <trkpt lat="45.86824" lon="4.65901">
        <ele>217.33044</ele>
        <time>2022-09-27T13:03:29.000Z</time>
      </trkpt>
      <trkpt lat="45.86821" lon="4.6591">
        <ele>217.3916</ele>
        <time>2022-09-27T13:03:30.000Z</time>
      </trkpt>
      <trkpt lat="45.86818" lon="4.65917">
        <ele>217.46721</ele>
        <time>2022-09-27T13:03:31.000Z</time>
      </trkpt>
      <trkpt lat="45.86814" lon="4.65924">
        <ele>217.44034</ele>
        <time>2022-09-27T13:03:32.000Z</time>
      </trkpt>
      <trkpt lat="45.86811" lon="4.6593">
        <ele>217.49353</ele>
        <time>2022-09-27T13:03:33.000Z</time>
      </trkpt>
      <trkpt lat="45.86808" lon="4.65937">
        <ele>217.65176</ele>
        <time>2022-09-27T13:03:34.000Z</time>
      </trkpt>
      <trkpt lat="45.86804" lon="4.65945">
        <ele>217.71187</ele>
        <time>2022-09-27T13:03:35.000Z</time>
      </trkpt>
      <trkpt lat="45.86801" lon="4.65952">
        <ele>217.78291</ele>
        <time>2022-09-27T13:03:36.000Z</time>
      </trkpt>
      <trkpt lat="45.86797" lon="4.6596">
        <ele>217.82541</ele>
        <time>2022-09-27T13:03:37.000Z</time>
      </trkpt>
      <trkpt lat="45.86795" lon="4.65966">
        <ele>217.87167</ele>
        <time>2022-09-27T13:03:38.000Z</time>
      </trkpt>
      <trkpt lat="45.8679" lon="4.65974">
        <ele>218.05811</ele>
        <time>2022-09-27T13:03:39.000Z</time>
      </trkpt>
      <trkpt lat="45.86786" lon="4.65981">
        <ele>218.22562</ele>
        <time>2022-09-27T13:03:40.000Z</time>
      </trkpt>
      <trkpt lat="45.86781" lon="4.65988">
        <ele>218.31277</ele>
        <time>2022-09-27T13:03:41.000Z</time>
      </trkpt>
      <trkpt lat="45.86775" lon="4.65995">
        <ele>218.47868</ele>
        <time>2022-09-27T13:03:42.000Z</time>
      </trkpt>
      <trkpt lat="45.8677" lon="4.66">
        <ele>218.68196</ele>
        <time>2022-09-27T13:03:43.000Z</time>
      </trkpt>
      <trkpt lat="45.86763" lon="4.66007">
        <ele>218.78165</ele>
        <time>2022-09-27T13:03:44.000Z</time>
      </trkpt>
      <trkpt lat="45.86758" lon="4.66011">
        <ele>218.84688</ele>
        <time>2022-09-27T13:03:45.000Z</time>
      </trkpt>
      <trkpt lat="45.86754" lon="4.66016">
        <ele>218.89104</ele>
        <time>2022-09-27T13:03:46.000Z</time>
      </trkpt>
      <trkpt lat="45.86747" lon="4.66021">
        <ele>218.92154</ele>
        <time>2022-09-27T13:03:47.000Z</time>
      </trkpt>
      <trkpt lat="45.86741" lon="4.66027">
        <ele>218.77641</ele>
        <time>2022-09-27T13:03:48.000Z</time>
      </trkpt>
      <trkpt lat="45.86734" lon="4.66033">
        <ele>218.5856</ele>
        <time>2022-09-27T13:03:49.000Z</time>
      </trkpt>
      <trkpt lat="45.86727" lon="4.66039">
        <ele>218.35892</ele>
        <time>2022-09-27T13:03:50.000Z</time>
      </trkpt>
      <trkpt lat="45.8672" lon="4.66043">
        <ele>218.09937</ele>
        <time>2022-09-27T13:03:51.000Z</time>
      </trkpt>
      <trkpt lat="45.86716" lon="4.66048">
        <ele>217.92619</ele>
        <time>2022-09-27T13:03:52.000Z</time>
      </trkpt>
      <trkpt lat="45.8671" lon="4.66051">
        <ele>217.66</ele>
        <time>2022-09-27T13:03:53.000Z</time>
      </trkpt>
      <trkpt lat="45.86704" lon="4.66054">
        <ele>217.35709</ele>
        <time>2022-09-27T13:03:54.000Z</time>
      </trkpt>
      <trkpt lat="45.86698" lon="4.66058">
        <ele>217.12369</ele>
        <time>2022-09-27T13:03:55.000Z</time>
      </trkpt>
      <trkpt lat="45.8669" lon="4.6606">
        <ele>216.7373</ele>
        <time>2022-09-27T13:03:56.000Z</time>
      </trkpt>
      <trkpt lat="45.86683" lon="4.66062">
        <ele>216.41675</ele>
        <time>2022-09-27T13:03:57.000Z</time>
      </trkpt>
      <trkpt lat="45.86675" lon="4.66064">
        <ele>216.11801</ele>
        <time>2022-09-27T13:03:58.000Z</time>
      </trkpt>
      <trkpt lat="45.86668" lon="4.66068">
        <ele>215.70767</ele>
        <time>2022-09-27T13:03:59.000Z</time>
      </trkpt>
      <trkpt lat="45.8666" lon="4.66071">
        <ele>215.26694</ele>
        <time>2022-09-27T13:04:00.000Z</time>
      </trkpt>
      <trkpt lat="45.86653" lon="4.66074">
        <ele>214.95024</ele>
        <time>2022-09-27T13:04:01.000Z</time>
      </trkpt>
      <trkpt lat="45.86645" lon="4.66078">
        <ele>214.52835</ele>
        <time>2022-09-27T13:04:02.000Z</time>
      </trkpt>
      <trkpt lat="45.86637" lon="4.66081">
        <ele>214.11572</ele>
        <time>2022-09-27T13:04:03.000Z</time>
      </trkpt>
      <trkpt lat="45.8663" lon="4.66084">
        <ele>213.76987</ele>
        <time>2022-09-27T13:04:04.000Z</time>
      </trkpt>
      <trkpt lat="45.86623" lon="4.66087">
        <ele>213.47615</ele>
        <time>2022-09-27T13:04:05.000Z</time>
      </trkpt>
      <trkpt lat="45.86618" lon="4.66091">
        <ele>213.17203</ele>
        <time>2022-09-27T13:04:06.000Z</time>
      </trkpt>
      <trkpt lat="45.86611" lon="4.66096">
        <ele>212.82327</ele>
        <time>2022-09-27T13:04:07.000Z</time>
      </trkpt>
      <trkpt lat="45.86605" lon="4.66101">
        <ele>212.65894</ele>
        <time>2022-09-27T13:04:08.000Z</time>
      </trkpt>
      <trkpt lat="45.86598" lon="4.66105">
        <ele>212.57504</ele>
        <time>2022-09-27T13:04:09.000Z</time>
      </trkpt>
      <trkpt lat="45.86594" lon="4.66111">
        <ele>212.60428</ele>
        <time>2022-09-27T13:04:10.000Z</time>
      </trkpt>
      <trkpt lat="45.86586" lon="4.66117">
        <ele>212.67351</ele>
        <time>2022-09-27T13:04:11.000Z</time>
      </trkpt>
      <trkpt lat="45.86579" lon="4.66122">
        <ele>212.78206</ele>
        <time>2022-09-27T13:04:12.000Z</time>
      </trkpt>
      <trkpt lat="45.86574" lon="4.66128">
        <ele>212.94016</ele>
        <time>2022-09-27T13:04:13.000Z</time>
      </trkpt>
      <trkpt lat="45.86566" lon="4.66133">
        <ele>213.01999</ele>
        <time>2022-09-27T13:04:14.000Z</time>
      </trkpt>
      <trkpt lat="45.8656" lon="4.66139">
        <ele>212.99739</ele>
        <time>2022-09-27T13:04:15.000Z</time>
      </trkpt>
      <trkpt lat="45.86553" lon="4.66143">
        <ele>213.0793</ele>
        <time>2022-09-27T13:04:16.000Z</time>
      </trkpt>
      <trkpt lat="45.86547" lon="4.66148">
        <ele>213.24179</ele>
        <time>2022-09-27T13:04:17.000Z</time>
      </trkpt>
      <trkpt lat="45.86541" lon="4.66155">
        <ele>213.36792</ele>
        <time>2022-09-27T13:04:18.000Z</time>
      </trkpt>
      <trkpt lat="45.86534" lon="4.6616">
        <ele>213.55437</ele>
        <time>2022-09-27T13:04:19.000Z</time>
      </trkpt>
      <trkpt lat="45.86527" lon="4.66165">
        <ele>213.82495</ele>
        <time>2022-09-27T13:04:20.000Z</time>
      </trkpt>
      <trkpt lat="45.8652" lon="4.66169">
        <ele>214.04659</ele>
        <time>2022-09-27T13:04:21.000Z</time>
      </trkpt>
      <trkpt lat="45.86511" lon="4.66172">
        <ele>214.21078</ele>
        <time>2022-09-27T13:04:22.000Z</time>
      </trkpt>
      <trkpt lat="45.86505" lon="4.66177">
        <ele>214.36885</ele>
        <time>2022-09-27T13:04:23.000Z</time>
      </trkpt>
      <trkpt lat="45.86499" lon="4.66181">
        <ele>214.56625</ele>
        <time>2022-09-27T13:04:24.000Z</time>
      </trkpt>
      <trkpt lat="45.86491" lon="4.66186">
        <ele>214.61555</ele>
        <time>2022-09-27T13:04:25.000Z</time>
      </trkpt>
      <trkpt lat="45.86484" lon="4.66188">
        <ele>214.57634</ele>
        <time>2022-09-27T13:04:26.000Z</time>
      </trkpt>
      <trkpt lat="45.86476" lon="4.66191">
        <ele>214.49883</ele>
        <time>2022-09-27T13:04:27.000Z</time>
      </trkpt>
      <trkpt lat="45.86469" lon="4.66195">
        <ele>214.3396</ele>
        <time>2022-09-27T13:04:28.000Z</time>
      </trkpt>
      <trkpt lat="45.86462" lon="4.66197">
        <ele>214.23042</ele>
        <time>2022-09-27T13:04:29.000Z</time>
      </trkpt>
      <trkpt lat="45.86455" lon="4.66199">
        <ele>214.09106</ele>
        <time>2022-09-27T13:04:30.000Z</time>
      </trkpt>
      <trkpt lat="45.86448" lon="4.66202">
        <ele>213.95418</ele>
        <time>2022-09-27T13:04:31.000Z</time>
      </trkpt>
      <trkpt lat="45.86441" lon="4.66203">
        <ele>213.79483</ele>
        <time>2022-09-27T13:04:32.000Z</time>
      </trkpt>
      <trkpt lat="45.86433" lon="4.66205">
        <ele>213.59927</ele>
        <time>2022-09-27T13:04:33.000Z</time>
      </trkpt>
      <trkpt lat="45.86426" lon="4.66208">
        <ele>213.41252</ele>
        <time>2022-09-27T13:04:34.000Z</time>
      </trkpt>
      <trkpt lat="45.86418" lon="4.6621">
        <ele>213.28677</ele>
        <time>2022-09-27T13:04:35.000Z</time>
      </trkpt>
      <trkpt lat="45.86411" lon="4.66212">
        <ele>213.17627</ele>
        <time>2022-09-27T13:04:36.000Z</time>
      </trkpt>
      <trkpt lat="45.86404" lon="4.66214">
        <ele>212.95085</ele>
        <time>2022-09-27T13:04:37.000Z</time>
      </trkpt>
      <trkpt lat="45.86398" lon="4.66217">
        <ele>212.77151</ele>
        <time>2022-09-27T13:04:38.000Z</time>
      </trkpt>
      <trkpt lat="45.86392" lon="4.6622">
        <ele>212.58569</ele>
        <time>2022-09-27T13:04:39.000Z</time>
      </trkpt>
      <trkpt lat="45.86384" lon="4.66222">
        <ele>212.31458</ele>
        <time>2022-09-27T13:04:40.000Z</time>
      </trkpt>
      <trkpt lat="45.86376" lon="4.66226">
        <ele>211.96909</ele>
        <time>2022-09-27T13:04:41.000Z</time>
      </trkpt>
      <trkpt lat="45.86368" lon="4.6623">
        <ele>211.66861</ele>
        <time>2022-09-27T13:04:42.000Z</time>
      </trkpt>
      <trkpt lat="45.86361" lon="4.66234">
        <ele>211.3812</ele>
        <time>2022-09-27T13:04:43.000Z</time>
      </trkpt>
      <trkpt lat="45.86355" lon="4.66238">
        <ele>211.04214</ele>
        <time>2022-09-27T13:04:44.000Z</time>
      </trkpt>
      <trkpt lat="45.86348" lon="4.66243">
        <ele>210.77568</ele>
        <time>2022-09-27T13:04:45.000Z</time>
      </trkpt>
      <trkpt lat="45.86341" lon="4.66249">
        <ele>210.65739</ele>
        <time>2022-09-27T13:04:46.000Z</time>
      </trkpt>
      <trkpt lat="45.86333" lon="4.66253">
        <ele>210.58606</ele>
        <time>2022-09-27T13:04:47.000Z</time>
      </trkpt>
      <trkpt lat="45.86326" lon="4.66258">
        <ele>210.52554</ele>
        <time>2022-09-27T13:04:48.000Z</time>
      </trkpt>
      <trkpt lat="45.86319" lon="4.66264">
        <ele>210.3735</ele>
        <time>2022-09-27T13:04:49.000Z</time>
      </trkpt>
      <trkpt lat="45.86312" lon="4.66269">
        <ele>210.15488</ele>
        <time>2022-09-27T13:04:50.000Z</time>
      </trkpt>
      <trkpt lat="45.86305" lon="4.66275">
        <ele>209.90727</ele>
        <time>2022-09-27T13:04:51.000Z</time>
      </trkpt>
      <trkpt lat="45.86299" lon="4.66283">
        <ele>209.63005</ele>
        <time>2022-09-27T13:04:52.000Z</time>
      </trkpt>
      <trkpt lat="45.86293" lon="4.66289">
        <ele>209.37578</ele>
        <time>2022-09-27T13:04:53.000Z</time>
      </trkpt>
      <trkpt lat="45.86287" lon="4.66297">
        <ele>209.11331</ele>
        <time>2022-09-27T13:04:54.000Z</time>
      </trkpt>
      <trkpt lat="45.86281" lon="4.66305">
        <ele>208.86353</ele>
        <time>2022-09-27T13:04:55.000Z</time>
      </trkpt>
      <trkpt lat="45.86275" lon="4.66313">
        <ele>208.627</ele>
        <time>2022-09-27T13:04:56.000Z</time>
      </trkpt>
      <trkpt lat="45.8627" lon="4.66321">
        <ele>208.40427</ele>
        <time>2022-09-27T13:04:57.000Z</time>
      </trkpt>
      <trkpt lat="45.86265" lon="4.6633">
        <ele>208.1409</ele>
        <time>2022-09-27T13:04:58.000Z</time>
      </trkpt>
      <trkpt lat="45.86261" lon="4.66339">
        <ele>207.88498</ele>
        <time>2022-09-27T13:04:59.000Z</time>
      </trkpt>
      <trkpt lat="45.86257" lon="4.66347">
        <ele>207.63432</ele>
        <time>2022-09-27T13:05:00.000Z</time>
      </trkpt>
      <trkpt lat="45.86251" lon="4.66357">
        <ele>207.43698</ele>
        <time>2022-09-27T13:05:01.000Z</time>
      </trkpt>
      <trkpt lat="45.86247" lon="4.66366">
        <ele>207.28189</ele>
        <time>2022-09-27T13:05:02.000Z</time>
      </trkpt>
      <trkpt lat="45.86242" lon="4.66375">
        <ele>207.0927</ele>
        <time>2022-09-27T13:05:03.000Z</time>
      </trkpt>
      <trkpt lat="45.86238" lon="4.66384">
        <ele>206.95413</ele>
        <time>2022-09-27T13:05:04.000Z</time>
      </trkpt>
      <trkpt lat="45.86234" lon="4.66393">
        <ele>206.85703</ele>
        <time>2022-09-27T13:05:05.000Z</time>
      </trkpt>
      <trkpt lat="45.8623" lon="4.66402">
        <ele>206.62918</ele>
        <time>2022-09-27T13:05:06.000Z</time>
      </trkpt>
      <trkpt lat="45.86224" lon="4.66411">
        <ele>206.3428</ele>
        <time>2022-09-27T13:05:07.000Z</time>
      </trkpt>
      <trkpt lat="45.8622" lon="4.66421">
        <ele>206.12866</ele>
        <time>2022-09-27T13:05:08.000Z</time>
      </trkpt>
      <trkpt lat="45.86215" lon="4.6643">
        <ele>205.95776</ele>
        <time>2022-09-27T13:05:09.000Z</time>
      </trkpt>
      <trkpt lat="45.86211" lon="4.66439">
        <ele>205.85347</ele>
        <time>2022-09-27T13:05:10.000Z</time>
      </trkpt>
      <trkpt lat="45.86207" lon="4.66448">
        <ele>205.76041</ele>
        <time>2022-09-27T13:05:11.000Z</time>
      </trkpt>
      <trkpt lat="45.86202" lon="4.66457">
        <ele>205.67619</ele>
        <time>2022-09-27T13:05:12.000Z</time>
      </trkpt>
      <trkpt lat="45.86196" lon="4.66466">
        <ele>205.51416</ele>
        <time>2022-09-27T13:05:13.000Z</time>
      </trkpt>
      <trkpt lat="45.86193" lon="4.66474">
        <ele>205.396</ele>
        <time>2022-09-27T13:05:14.000Z</time>
      </trkpt>
      <trkpt lat="45.86187" lon="4.66483">
        <ele>205.29721</ele>
        <time>2022-09-27T13:05:15.000Z</time>
      </trkpt>
      <trkpt lat="45.86182" lon="4.6649">
        <ele>205.14107</ele>
        <time>2022-09-27T13:05:16.000Z</time>
      </trkpt>
      <trkpt lat="45.86179" lon="4.66497">
        <ele>204.98367</ele>
        <time>2022-09-27T13:05:17.000Z</time>
      </trkpt>
      <trkpt lat="45.86176" lon="4.66504">
        <ele>204.87271</ele>
        <time>2022-09-27T13:05:18.000Z</time>
      </trkpt>
      <trkpt lat="45.86172" lon="4.66511">
        <ele>204.63173</ele>
        <time>2022-09-27T13:05:19.000Z</time>
      </trkpt>
      <trkpt lat="45.86167" lon="4.66517">
        <ele>204.29721</ele>
        <time>2022-09-27T13:05:20.000Z</time>
      </trkpt>
      <trkpt lat="45.86161" lon="4.66525">
        <ele>203.97072</ele>
        <time>2022-09-27T13:05:21.000Z</time>
      </trkpt>
      <trkpt lat="45.86158" lon="4.6653">
        <ele>203.57983</ele>
        <time>2022-09-27T13:05:22.000Z</time>
      </trkpt>
      <trkpt lat="45.86156" lon="4.66535">
        <ele>203.19899</ele>
        <time>2022-09-27T13:05:23.000Z</time>
      </trkpt>
      <trkpt lat="45.86151" lon="4.66543">
        <ele>202.88632</ele>
        <time>2022-09-27T13:05:24.000Z</time>
      </trkpt>
      <trkpt lat="45.86146" lon="4.66548">
        <ele>202.51779</ele>
        <time>2022-09-27T13:05:25.000Z</time>
      </trkpt>
      <trkpt lat="45.86141" lon="4.66555">
        <ele>202.23137</ele>
        <time>2022-09-27T13:05:26.000Z</time>
      </trkpt>
      <trkpt lat="45.86136" lon="4.6656">
        <ele>201.97601</ele>
        <time>2022-09-27T13:05:27.000Z</time>
      </trkpt>
      <trkpt lat="45.86132" lon="4.66566">
        <ele>201.60558</ele>
        <time>2022-09-27T13:05:28.000Z</time>
      </trkpt>
      <trkpt lat="45.86127" lon="4.6657">
        <ele>201.25583</ele>
        <time>2022-09-27T13:05:29.000Z</time>
      </trkpt>
      <trkpt lat="45.86121" lon="4.66575">
        <ele>200.97121</ele>
        <time>2022-09-27T13:05:30.000Z</time>
      </trkpt>
      <trkpt lat="45.86117" lon="4.66579">
        <ele>200.6498</ele>
        <time>2022-09-27T13:05:31.000Z</time>
      </trkpt>
      <trkpt lat="45.86112" lon="4.66583">
        <ele>200.34514</ele>
        <time>2022-09-27T13:05:32.000Z</time>
      </trkpt>
      <trkpt lat="45.86106" lon="4.66588">
        <ele>200.15964</ele>
        <time>2022-09-27T13:05:33.000Z</time>
      </trkpt>
      <trkpt lat="45.861" lon="4.66592">
        <ele>200.00693</ele>
        <time>2022-09-27T13:05:34.000Z</time>
      </trkpt>
      <trkpt lat="45.86094" lon="4.66595">
        <ele>199.86194</ele>
        <time>2022-09-27T13:05:35.000Z</time>
      </trkpt>
      <trkpt lat="45.86089" lon="4.666">
        <ele>199.75185</ele>
        <time>2022-09-27T13:05:36.000Z</time>
      </trkpt>
      <trkpt lat="45.86085" lon="4.66603">
        <ele>199.66397</ele>
        <time>2022-09-27T13:05:37.000Z</time>
      </trkpt>
      <trkpt lat="45.8608" lon="4.66607">
        <ele>199.39252</ele>
        <time>2022-09-27T13:05:38.000Z</time>
      </trkpt>
      <trkpt lat="45.86074" lon="4.66612">
        <ele>199.246</ele>
        <time>2022-09-27T13:05:39.000Z</time>
      </trkpt>
      <trkpt lat="45.86068" lon="4.66616">
        <ele>199.28522</ele>
        <time>2022-09-27T13:05:40.000Z</time>
      </trkpt>
      <trkpt lat="45.86061" lon="4.66621">
        <ele>199.19864</ele>
        <time>2022-09-27T13:05:41.000Z</time>
      </trkpt>
      <trkpt lat="45.86055" lon="4.66624">
        <ele>199.23431</ele>
        <time>2022-09-27T13:05:42.000Z</time>
      </trkpt>
      <trkpt lat="45.86049" lon="4.6663">
        <ele>199.314</ele>
        <time>2022-09-27T13:05:43.000Z</time>
      </trkpt>
      <trkpt lat="45.86044" lon="4.66636">
        <ele>199.33723</ele>
        <time>2022-09-27T13:05:44.000Z</time>
      </trkpt>
      <trkpt lat="45.86037" lon="4.66641">
        <ele>199.34219</ele>
        <time>2022-09-27T13:05:45.000Z</time>
      </trkpt>
      <trkpt lat="45.86031" lon="4.66647">
        <ele>199.36516</ele>
        <time>2022-09-27T13:05:46.000Z</time>
      </trkpt>
      <trkpt lat="45.86027" lon="4.66653">
        <ele>199.44849</ele>
        <time>2022-09-27T13:05:47.000Z</time>
      </trkpt>
      <trkpt lat="45.86022" lon="4.66659">
        <ele>199.59784</ele>
        <time>2022-09-27T13:05:48.000Z</time>
      </trkpt>
      <trkpt lat="45.86017" lon="4.66666">
        <ele>199.85107</ele>
        <time>2022-09-27T13:05:49.000Z</time>
      </trkpt>
      <trkpt lat="45.86011" lon="4.66672">
        <ele>200.02231</ele>
        <time>2022-09-27T13:05:50.000Z</time>
      </trkpt>
      <trkpt lat="45.86006" lon="4.66679">
        <ele>200.16006</ele>
        <time>2022-09-27T13:05:51.000Z</time>
      </trkpt>
      <trkpt lat="45.86001" lon="4.66686">
        <ele>200.29904</ele>
        <time>2022-09-27T13:05:52.000Z</time>
      </trkpt>
      <trkpt lat="45.85996" lon="4.66694">
        <ele>200.33307</ele>
        <time>2022-09-27T13:05:53.000Z</time>
      </trkpt>
      <trkpt lat="45.85991" lon="4.66701">
        <ele>200.41154</ele>
        <time>2022-09-27T13:05:54.000Z</time>
      </trkpt>
      <trkpt lat="45.85987" lon="4.66708">
        <ele>200.45372</ele>
        <time>2022-09-27T13:05:55.000Z</time>
      </trkpt>
      <trkpt lat="45.85983" lon="4.66716">
        <ele>200.57352</ele>
        <time>2022-09-27T13:05:56.000Z</time>
      </trkpt>
      <trkpt lat="45.8598" lon="4.66725">
        <ele>200.79428</ele>
        <time>2022-09-27T13:05:57.000Z</time>
      </trkpt>
      <trkpt lat="45.85976" lon="4.66737">
        <ele>201.15746</ele>
        <time>2022-09-27T13:05:58.000Z</time>
      </trkpt>
      <trkpt lat="45.85971" lon="4.66745">
        <ele>201.50963</ele>
        <time>2022-09-27T13:05:59.000Z</time>
      </trkpt>
      <trkpt lat="45.85968" lon="4.66756">
        <ele>201.80675</ele>
        <time>2022-09-27T13:06:00.000Z</time>
      </trkpt>
      <trkpt lat="45.85963" lon="4.66765">
        <ele>202.18166</ele>
        <time>2022-09-27T13:06:01.000Z</time>
      </trkpt>
      <trkpt lat="45.85961" lon="4.66775">
        <ele>202.55891</ele>
        <time>2022-09-27T13:06:02.000Z</time>
      </trkpt>
      <trkpt lat="45.85957" lon="4.66784">
        <ele>202.88272</ele>
        <time>2022-09-27T13:06:03.000Z</time>
      </trkpt>
      <trkpt lat="45.85955" lon="4.66792">
        <ele>203.28842</ele>
        <time>2022-09-27T13:06:04.000Z</time>
      </trkpt>
      <trkpt lat="45.85952" lon="4.66801">
        <ele>203.73708</ele>
        <time>2022-09-27T13:06:05.000Z</time>
      </trkpt>
      <trkpt lat="45.8595" lon="4.6681">
        <ele>204.14938</ele>
        <time>2022-09-27T13:06:06.000Z</time>
      </trkpt>
      <trkpt lat="45.85948" lon="4.66818">
        <ele>204.61212</ele>
        <time>2022-09-27T13:06:07.000Z</time>
      </trkpt>
      <trkpt lat="45.85945" lon="4.66828">
        <ele>204.87544</ele>
        <time>2022-09-27T13:06:08.000Z</time>
      </trkpt>
      <trkpt lat="45.85943" lon="4.66836">
        <ele>205.06662</ele>
        <time>2022-09-27T13:06:09.000Z</time>
      </trkpt>
      <trkpt lat="45.8594" lon="4.66843">
        <ele>205.24687</ele>
        <time>2022-09-27T13:06:10.000Z</time>
      </trkpt>
      <trkpt lat="45.85937" lon="4.66851">
        <ele>205.4823</ele>
        <time>2022-09-27T13:06:11.000Z</time>
      </trkpt>
      <trkpt lat="45.85935" lon="4.6686">
        <ele>205.77689</ele>
        <time>2022-09-27T13:06:12.000Z</time>
      </trkpt>
      <trkpt lat="45.85931" lon="4.66867">
        <ele>206.02376</ele>
        <time>2022-09-27T13:06:13.000Z</time>
      </trkpt>
      <trkpt lat="45.8593" lon="4.66874">
        <ele>206.21538</ele>
        <time>2022-09-27T13:06:14.000Z</time>
      </trkpt>
      <trkpt lat="45.85927" lon="4.66882">
        <ele>206.40225</ele>
        <time>2022-09-27T13:06:15.000Z</time>
      </trkpt>
      <trkpt lat="45.85924" lon="4.66889">
        <ele>206.46709</ele>
        <time>2022-09-27T13:06:16.000Z</time>
      </trkpt>
      <trkpt lat="45.85921" lon="4.66896">
        <ele>206.36234</ele>
        <time>2022-09-27T13:06:17.000Z</time>
      </trkpt>
      <trkpt lat="45.8592" lon="4.66903">
        <ele>206.23872</ele>
        <time>2022-09-27T13:06:18.000Z</time>
      </trkpt>
      <trkpt lat="45.85918" lon="4.6691">
        <ele>206.11279</ele>
        <time>2022-09-27T13:06:19.000Z</time>
      </trkpt>
      <trkpt lat="45.85917" lon="4.66917">
        <ele>205.99661</ele>
        <time>2022-09-27T13:06:20.000Z</time>
      </trkpt>
      <trkpt lat="45.85916" lon="4.66922">
        <ele>205.91885</ele>
        <time>2022-09-27T13:06:21.000Z</time>
      </trkpt>
      <trkpt lat="45.85914" lon="4.66928">
        <ele>205.82358</ele>
        <time>2022-09-27T13:06:22.000Z</time>
      </trkpt>
      <trkpt lat="45.85912" lon="4.66934">
        <ele>205.81827</ele>
        <time>2022-09-27T13:06:23.000Z</time>
      </trkpt>
      <trkpt lat="45.8591" lon="4.6694">
        <ele>205.71892</ele>
        <time>2022-09-27T13:06:24.000Z</time>
      </trkpt>
      <trkpt lat="45.8591" lon="4.66944">
        <ele>205.66251</ele>
        <time>2022-09-27T13:06:25.000Z</time>
      </trkpt>
      <trkpt lat="45.85908" lon="4.6695">
        <ele>205.68697</ele>
        <time>2022-09-27T13:06:26.000Z</time>
      </trkpt>
      <trkpt lat="45.85904" lon="4.66956">
        <ele>205.68286</ele>
        <time>2022-09-27T13:06:27.000Z</time>
      </trkpt>
      <trkpt lat="45.85898" lon="4.66958">
        <ele>205.86226</ele>
        <time>2022-09-27T13:06:28.000Z</time>
      </trkpt>
      <trkpt lat="45.85892" lon="4.66959">
        <ele>205.94556</ele>
        <time>2022-09-27T13:06:29.000Z</time>
      </trkpt>
      <trkpt lat="45.85887" lon="4.6696">
        <ele>206.08614</ele>
        <time>2022-09-27T13:06:30.000Z</time>
      </trkpt>
      <trkpt lat="45.85881" lon="4.66957">
        <ele>206.20898</ele>
        <time>2022-09-27T13:06:31.000Z</time>
      </trkpt>
      <trkpt lat="45.85876" lon="4.66954">
        <ele>206.24194</ele>
        <time>2022-09-27T13:06:32.000Z</time>
      </trkpt>
      <trkpt lat="45.85872" lon="4.66952">
        <ele>206.31216</ele>
        <time>2022-09-27T13:06:33.000Z</time>
      </trkpt>
      <trkpt lat="45.85867" lon="4.66949">
        <ele>206.35721</ele>
        <time>2022-09-27T13:06:34.000Z</time>
      </trkpt>
      <trkpt lat="45.85862" lon="4.66948">
        <ele>206.42795</ele>
        <time>2022-09-27T13:06:35.000Z</time>
      </trkpt>
      <trkpt lat="45.85857" lon="4.66945">
        <ele>206.51936</ele>
        <time>2022-09-27T13:06:36.000Z</time>
      </trkpt>
      <trkpt lat="45.85851" lon="4.66944">
        <ele>206.70097</ele>
        <time>2022-09-27T13:06:37.000Z</time>
      </trkpt>
      <trkpt lat="45.85846" lon="4.66942">
        <ele>206.89571</ele>
        <time>2022-09-27T13:06:38.000Z</time>
      </trkpt>
      <trkpt lat="45.85841" lon="4.6694">
        <ele>207.10291</ele>
        <time>2022-09-27T13:06:39.000Z</time>
      </trkpt>
      <trkpt lat="45.85835" lon="4.66938">
        <ele>207.26306</ele>
        <time>2022-09-27T13:06:40.000Z</time>
      </trkpt>
      <trkpt lat="45.8583" lon="4.66938">
        <ele>207.44748</ele>
        <time>2022-09-27T13:06:41.000Z</time>
      </trkpt>
      <trkpt lat="45.85824" lon="4.66937">
        <ele>207.564</ele>
        <time>2022-09-27T13:06:42.000Z</time>
      </trkpt>
      <trkpt lat="45.85818" lon="4.66936">
        <ele>207.68619</ele>
        <time>2022-09-27T13:06:43.000Z</time>
      </trkpt>
      <trkpt lat="45.85813" lon="4.66936">
        <ele>207.82727</ele>
        <time>2022-09-27T13:06:44.000Z</time>
      </trkpt>
      <trkpt lat="45.85809" lon="4.66935">
        <ele>207.98099</ele>
        <time>2022-09-27T13:06:45.000Z</time>
      </trkpt>
      <trkpt lat="45.85804" lon="4.66936">
        <ele>208.00748</ele>
        <time>2022-09-27T13:06:46.000Z</time>
      </trkpt>
      <trkpt lat="45.85799" lon="4.66936">
        <ele>207.9572</ele>
        <time>2022-09-27T13:06:47.000Z</time>
      </trkpt>
      <trkpt lat="45.85793" lon="4.66936">
        <ele>207.89481</ele>
        <time>2022-09-27T13:06:48.000Z</time>
      </trkpt>
      <trkpt lat="45.85787" lon="4.66937">
        <ele>207.87964</ele>
        <time>2022-09-27T13:06:49.000Z</time>
      </trkpt>
      <trkpt lat="45.85781" lon="4.66936">
        <ele>207.82515</ele>
        <time>2022-09-27T13:06:50.000Z</time>
      </trkpt>
      <trkpt lat="45.85777" lon="4.66936">
        <ele>207.72722</ele>
        <time>2022-09-27T13:06:51.000Z</time>
      </trkpt>
      <trkpt lat="45.85771" lon="4.66934">
        <ele>207.63481</ele>
        <time>2022-09-27T13:06:52.000Z</time>
      </trkpt>
      <trkpt lat="45.85765" lon="4.66934">
        <ele>207.6521</ele>
        <time>2022-09-27T13:06:53.000Z</time>
      </trkpt>
      <trkpt lat="45.85759" lon="4.66931">
        <ele>207.67615</ele>
        <time>2022-09-27T13:06:54.000Z</time>
      </trkpt>
      <trkpt lat="45.85752" lon="4.66931">
        <ele>207.78391</ele>
        <time>2022-09-27T13:06:55.000Z</time>
      </trkpt>
      <trkpt lat="45.85747" lon="4.66929">
        <ele>207.92435</ele>
        <time>2022-09-27T13:06:56.000Z</time>
      </trkpt>
      <trkpt lat="45.85742" lon="4.66927">
        <ele>208.02255</ele>
        <time>2022-09-27T13:06:57.000Z</time>
      </trkpt>
      <trkpt lat="45.85736" lon="4.66924">
        <ele>208.16023</ele>
        <time>2022-09-27T13:06:58.000Z</time>
      </trkpt>
      <trkpt lat="45.85731" lon="4.66921">
        <ele>208.3062</ele>
        <time>2022-09-27T13:06:59.000Z</time>
      </trkpt>
      <trkpt lat="45.85725" lon="4.6692">
        <ele>208.47537</ele>
        <time>2022-09-27T13:07:00.000Z</time>
      </trkpt>
      <trkpt lat="45.85719" lon="4.66918">
        <ele>208.60324</ele>
        <time>2022-09-27T13:07:01.000Z</time>
      </trkpt>
      <trkpt lat="45.85713" lon="4.66917">
        <ele>208.76147</ele>
        <time>2022-09-27T13:07:02.000Z</time>
      </trkpt>
      <trkpt lat="45.85707" lon="4.66916">
        <ele>208.82629</ele>
        <time>2022-09-27T13:07:03.000Z</time>
      </trkpt>
      <trkpt lat="45.85701" lon="4.66914">
        <ele>208.85674</ele>
        <time>2022-09-27T13:07:04.000Z</time>
      </trkpt>
      <trkpt lat="45.85695" lon="4.66915">
        <ele>208.95772</ele>
        <time>2022-09-27T13:07:05.000Z</time>
      </trkpt>
      <trkpt lat="45.8569" lon="4.66915">
        <ele>209.09663</ele>
        <time>2022-09-27T13:07:06.000Z</time>
      </trkpt>
      <trkpt lat="45.85684" lon="4.66914">
        <ele>209.23013</ele>
        <time>2022-09-27T13:07:07.000Z</time>
      </trkpt>
      <trkpt lat="45.85678" lon="4.66915">
        <ele>209.40659</ele>
        <time>2022-09-27T13:07:08.000Z</time>
      </trkpt>
      <trkpt lat="45.85673" lon="4.66914">
        <ele>209.56209</ele>
        <time>2022-09-27T13:07:09.000Z</time>
      </trkpt>
      <trkpt lat="45.85667" lon="4.66914">
        <ele>209.73071</ele>
        <time>2022-09-27T13:07:10.000Z</time>
      </trkpt>
      <trkpt lat="45.85662" lon="4.66915">
        <ele>209.91031</ele>
        <time>2022-09-27T13:07:11.000Z</time>
      </trkpt>
      <trkpt lat="45.85656" lon="4.66916">
        <ele>210.08525</ele>
        <time>2022-09-27T13:07:12.000Z</time>
      </trkpt>
      <trkpt lat="45.85651" lon="4.66918">
        <ele>210.18759</ele>
        <time>2022-09-27T13:07:13.000Z</time>
      </trkpt>
      <trkpt lat="45.85646" lon="4.66919">
        <ele>210.31306</ele>
        <time>2022-09-27T13:07:14.000Z</time>
      </trkpt>
      <trkpt lat="45.8564" lon="4.66921">
        <ele>210.3813</ele>
        <time>2022-09-27T13:07:15.000Z</time>
      </trkpt>
      <trkpt lat="45.85635" lon="4.66921">
        <ele>210.40703</ele>
        <time>2022-09-27T13:07:16.000Z</time>
      </trkpt>
      <trkpt lat="45.85629" lon="4.66923">
        <ele>210.42422</ele>
        <time>2022-09-27T13:07:17.000Z</time>
      </trkpt>
      <trkpt lat="45.85623" lon="4.66925">
        <ele>210.41275</ele>
        <time>2022-09-27T13:07:18.000Z</time>
      </trkpt>
      <trkpt lat="45.85618" lon="4.66927">
        <ele>210.37741</ele>
        <time>2022-09-27T13:07:19.000Z</time>
      </trkpt>
      <trkpt lat="45.85613" lon="4.66929">
        <ele>210.30647</ele>
        <time>2022-09-27T13:07:20.000Z</time>
      </trkpt>
      <trkpt lat="45.85609" lon="4.66931">
        <ele>210.26262</ele>
        <time>2022-09-27T13:07:21.000Z</time>
      </trkpt>
      <trkpt lat="45.85606" lon="4.66934">
        <ele>210.1925</ele>
        <time>2022-09-27T13:07:22.000Z</time>
      </trkpt>
      <trkpt lat="45.85605" lon="4.66937">
        <ele>210.13838</ele>
        <time>2022-09-27T13:07:23.000Z</time>
      </trkpt>
      <trkpt lat="45.85603" lon="4.6694">
        <ele>209.98991</ele>
        <time>2022-09-27T13:07:24.000Z</time>
      </trkpt>
      <trkpt lat="45.85603" lon="4.66944">
        <ele>209.72971</ele>
        <time>2022-09-27T13:07:25.000Z</time>
      </trkpt>
      <trkpt lat="45.85605" lon="4.66947">
        <ele>209.46671</ele>
        <time>2022-09-27T13:07:26.000Z</time>
      </trkpt>
      <trkpt lat="45.85607" lon="4.66949">
        <ele>209.2917</ele>
        <time>2022-09-27T13:07:28.000Z</time>
      </trkpt>
      <trkpt lat="45.85608" lon="4.66953">
        <ele>209.12822</ele>
        <time>2022-09-27T13:07:29.000Z</time>
      </trkpt>
      <trkpt lat="45.8561" lon="4.66956">
        <ele>209.02934</ele>
        <time>2022-09-27T13:07:30.000Z</time>
      </trkpt>
      <trkpt lat="45.85611" lon="4.6696">
        <ele>208.93694</ele>
        <time>2022-09-27T13:07:31.000Z</time>
      </trkpt>
      <trkpt lat="45.85612" lon="4.66965">
        <ele>208.84106</ele>
        <time>2022-09-27T13:07:32.000Z</time>
      </trkpt>
      <trkpt lat="45.85613" lon="4.66969">
        <ele>208.77719</ele>
        <time>2022-09-27T13:07:33.000Z</time>
      </trkpt>
      <trkpt lat="45.85613" lon="4.66972">
        <ele>208.78995</ele>
        <time>2022-09-27T13:07:34.000Z</time>
      </trkpt>
      <trkpt lat="45.85616" lon="4.66974">
        <ele>208.84033</ele>
        <time>2022-09-27T13:07:36.000Z</time>
      </trkpt>
      <trkpt lat="45.85618" lon="4.66972">
        <ele>208.90402</ele>
        <time>2022-09-27T13:07:37.000Z</time>
      </trkpt>
      <trkpt lat="45.85618" lon="4.6697">
        <ele>209.01627</ele>
        <time>2022-09-27T13:07:38.000Z</time>
      </trkpt>
      <trkpt lat="45.85618" lon="4.66967">
        <ele>209.14485</ele>
        <time>2022-09-27T13:07:39.000Z</time>
      </trkpt>
      <trkpt lat="45.85616" lon="4.66964">
        <ele>209.24133</ele>
        <time>2022-09-27T13:07:40.000Z</time>
      </trkpt>
      <trkpt lat="45.85614" lon="4.66962">
        <ele>209.32268</ele>
        <time>2022-09-27T13:07:41.000Z</time>
      </trkpt>
      <trkpt lat="45.85611" lon="4.6696">
        <ele>209.40891</ele>
        <time>2022-09-27T13:07:42.000Z</time>
      </trkpt>
      <trkpt lat="45.85608" lon="4.66956">
        <ele>209.46402</ele>
        <time>2022-09-27T13:07:43.000Z</time>
      </trkpt>
      <trkpt lat="45.85606" lon="4.66953">
        <ele>209.50603</ele>
        <time>2022-09-27T13:07:44.000Z</time>
      </trkpt>
      <trkpt lat="45.85605" lon="4.66949">
        <ele>209.55989</ele>
        <time>2022-09-27T13:07:45.000Z</time>
      </trkpt>
      <trkpt lat="45.85603" lon="4.66946">
        <ele>209.69943</ele>
        <time>2022-09-27T13:07:46.000Z</time>
      </trkpt>
      <trkpt lat="45.85602" lon="4.66943">
        <ele>209.88884</ele>
        <time>2022-09-27T13:07:47.000Z</time>
      </trkpt>
      <trkpt lat="45.856" lon="4.66939">
        <ele>210.15384</ele>
        <time>2022-09-27T13:07:49.000Z</time>
      </trkpt>
      <trkpt lat="45.85598" lon="4.66939">
        <ele>210.36819</ele>
        <time>2022-09-27T13:07:50.000Z</time>
      </trkpt>
      <trkpt lat="45.85595" lon="4.6694">
        <ele>210.56267</ele>
        <time>2022-09-27T13:07:51.000Z</time>
      </trkpt>
      <trkpt lat="45.85592" lon="4.66942">
        <ele>210.76909</ele>
        <time>2022-09-27T13:07:52.000Z</time>
      </trkpt>
      <trkpt lat="45.85589" lon="4.66944">
        <ele>210.97025</ele>
        <time>2022-09-27T13:07:53.000Z</time>
      </trkpt>
      <trkpt lat="45.85586" lon="4.66946">
        <ele>211.24309</ele>
        <time>2022-09-27T13:07:54.000Z</time>
      </trkpt>
      <trkpt lat="45.85583" lon="4.66947">
        <ele>211.50375</ele>
        <time>2022-09-27T13:07:55.000Z</time>
      </trkpt>
      <trkpt lat="45.8558" lon="4.66949">
        <ele>211.69296</ele>
        <time>2022-09-27T13:07:56.000Z</time>
      </trkpt>
      <trkpt lat="45.85578" lon="4.6695">
        <ele>211.97163</ele>
        <time>2022-09-27T13:07:57.000Z</time>
      </trkpt>
      <trkpt lat="45.85576" lon="4.66952">
        <ele>212.19083</ele>
        <time>2022-09-27T13:07:58.000Z</time>
      </trkpt>
      <trkpt lat="45.85573" lon="4.66953">
        <ele>212.35518</ele>
        <time>2022-09-27T13:07:59.000Z</time>
      </trkpt>
      <trkpt lat="45.85571" lon="4.66955">
        <ele>212.47672</ele>
        <time>2022-09-27T13:08:00.000Z</time>
      </trkpt>
      <trkpt lat="45.85568" lon="4.66956">
        <ele>212.6346</ele>
        <time>2022-09-27T13:08:01.000Z</time>
      </trkpt>
      <trkpt lat="45.85565" lon="4.66957">
        <ele>212.83382</ele>
        <time>2022-09-27T13:08:02.000Z</time>
      </trkpt>
      <trkpt lat="45.85562" lon="4.66958">
        <ele>213.02725</ele>
        <time>2022-09-27T13:08:03.000Z</time>
      </trkpt>
      <trkpt lat="45.85559" lon="4.66958">
        <ele>213.24307</ele>
        <time>2022-09-27T13:08:04.000Z</time>
      </trkpt>
      <trkpt lat="45.85556" lon="4.66959">
        <ele>213.45398</ele>
        <time>2022-09-27T13:08:05.000Z</time>
      </trkpt>
      <trkpt lat="45.85553" lon="4.6696">
        <ele>213.66458</ele>
        <time>2022-09-27T13:08:06.000Z</time>
      </trkpt>
      <trkpt lat="45.85551" lon="4.66961">
        <ele>213.87178</ele>
        <time>2022-09-27T13:08:07.000Z</time>
      </trkpt>
      <trkpt lat="45.85547" lon="4.66961">
        <ele>214.04184</ele>
        <time>2022-09-27T13:08:08.000Z</time>
      </trkpt>
      <trkpt lat="45.85545" lon="4.66961">
        <ele>214.18674</ele>
        <time>2022-09-27T13:08:09.000Z</time>
      </trkpt>
      <trkpt lat="45.85542" lon="4.66961">
        <ele>214.41983</ele>
        <time>2022-09-27T13:08:10.000Z</time>
      </trkpt>
      <trkpt lat="45.8554" lon="4.66961">
        <ele>214.64839</ele>
        <time>2022-09-27T13:08:11.000Z</time>
      </trkpt>
      <trkpt lat="45.85538" lon="4.66961">
        <ele>214.85031</ele>
        <time>2022-09-27T13:08:12.000Z</time>
      </trkpt>
      <trkpt lat="45.85535" lon="4.66961">
        <ele>214.97644</ele>
        <time>2022-09-27T13:08:15.000Z</time>
      </trkpt>
      <trkpt lat="45.85533" lon="4.66964">
        <ele>214.99605</ele>
        <time>2022-09-27T13:08:17.000Z</time>
      </trkpt>
      <trkpt lat="45.85534" lon="4.66967">
        <ele>214.96333</ele>
        <time>2022-09-27T13:08:19.000Z</time>
      </trkpt>
      <trkpt lat="45.85535" lon="4.66971">
        <ele>215.00345</ele>
        <time>2022-09-27T13:08:21.000Z</time>
      </trkpt>
      <trkpt lat="45.85536" lon="4.66976">
        <ele>214.84534</ele>
        <time>2022-09-27T13:08:23.000Z</time>
      </trkpt>
      <trkpt lat="45.85536" lon="4.66979">
        <ele>214.68706</ele>
        <time>2022-09-27T13:08:24.000Z</time>
      </trkpt>
      <trkpt lat="45.85538" lon="4.66983">
        <ele>214.56461</ele>
        <time>2022-09-27T13:08:26.000Z</time>
      </trkpt>
      <trkpt lat="45.8554" lon="4.66985">
        <ele>214.49377</ele>
        <time>2022-09-27T13:08:27.000Z</time>
      </trkpt>
      <trkpt lat="45.85541" lon="4.66988">
        <ele>214.35654</ele>
        <time>2022-09-27T13:08:28.000Z</time>
      </trkpt>
      <trkpt lat="45.85542" lon="4.6699">
        <ele>214.13928</ele>
        <time>2022-09-27T13:08:29.000Z</time>
      </trkpt>
      <trkpt lat="45.85543" lon="4.66993">
        <ele>213.97165</ele>
        <time>2022-09-27T13:08:30.000Z</time>
      </trkpt>
      <trkpt lat="45.85544" lon="4.66997">
        <ele>213.79724</ele>
        <time>2022-09-27T13:08:31.000Z</time>
      </trkpt>
      <trkpt lat="45.85545" lon="4.67">
        <ele>213.64807</ele>
        <time>2022-09-27T13:08:32.000Z</time>
      </trkpt>
      <trkpt lat="45.85546" lon="4.67003">
        <ele>213.44817</ele>
        <time>2022-09-27T13:08:33.000Z</time>
      </trkpt>
      <trkpt lat="45.85548" lon="4.67006">
        <ele>213.25627</ele>
        <time>2022-09-27T13:08:34.000Z</time>
      </trkpt>
      <trkpt lat="45.85549" lon="4.6701">
        <ele>213.15459</ele>
        <time>2022-09-27T13:08:35.000Z</time>
      </trkpt>
      <trkpt lat="45.8555" lon="4.67014">
        <ele>213.07971</ele>
        <time>2022-09-27T13:08:36.000Z</time>
      </trkpt>
      <trkpt lat="45.85551" lon="4.67018">
        <ele>212.90775</ele>
        <time>2022-09-27T13:08:37.000Z</time>
      </trkpt>
      <trkpt lat="45.85553" lon="4.67022">
        <ele>212.7207</ele>
        <time>2022-09-27T13:08:38.000Z</time>
      </trkpt>
      <trkpt lat="45.85554" lon="4.67026">
        <ele>212.5098</ele>
        <time>2022-09-27T13:08:39.000Z</time>
      </trkpt>
      <trkpt lat="45.85555" lon="4.67029">
        <ele>212.35886</ele>
        <time>2022-09-27T13:08:40.000Z</time>
      </trkpt>
      <trkpt lat="45.85556" lon="4.67033">
        <ele>212.32498</ele>
        <time>2022-09-27T13:08:41.000Z</time>
      </trkpt>
      <trkpt lat="45.85557" lon="4.67037">
        <ele>212.39738</ele>
        <time>2022-09-27T13:08:42.000Z</time>
      </trkpt>
      <trkpt lat="45.85559" lon="4.67041">
        <ele>212.39204</ele>
        <time>2022-09-27T13:08:43.000Z</time>
      </trkpt>
      <trkpt lat="45.8556" lon="4.67045">
        <ele>212.44487</ele>
        <time>2022-09-27T13:08:44.000Z</time>
      </trkpt>
      <trkpt lat="45.85562" lon="4.6705">
        <ele>212.50549</ele>
        <time>2022-09-27T13:08:45.000Z</time>
      </trkpt>
      <trkpt lat="45.85563" lon="4.67054">
        <ele>212.55972</ele>
        <time>2022-09-27T13:08:46.000Z</time>
      </trkpt>
      <trkpt lat="45.85563" lon="4.67058">
        <ele>212.58955</ele>
        <time>2022-09-27T13:08:47.000Z</time>
      </trkpt>
      <trkpt lat="45.85565" lon="4.67062">
        <ele>212.6492</ele>
        <time>2022-09-27T13:08:48.000Z</time>
      </trkpt>
      <trkpt lat="45.85566" lon="4.67066">
        <ele>212.74234</ele>
        <time>2022-09-27T13:08:49.000Z</time>
      </trkpt>
      <trkpt lat="45.85568" lon="4.67071">
        <ele>212.75354</ele>
        <time>2022-09-27T13:08:50.000Z</time>
      </trkpt>
      <trkpt lat="45.8557" lon="4.67076">
        <ele>212.82503</ele>
        <time>2022-09-27T13:08:51.000Z</time>
      </trkpt>
      <trkpt lat="45.85572" lon="4.67081">
        <ele>212.97871</ele>
        <time>2022-09-27T13:08:52.000Z</time>
      </trkpt>
      <trkpt lat="45.85573" lon="4.67086">
        <ele>213.18098</ele>
        <time>2022-09-27T13:08:53.000Z</time>
      </trkpt>
      <trkpt lat="45.85574" lon="4.6709">
        <ele>213.31885</ele>
        <time>2022-09-27T13:08:54.000Z</time>
      </trkpt>
      <trkpt lat="45.85576" lon="4.67094">
        <ele>213.29971</ele>
        <time>2022-09-27T13:08:55.000Z</time>
      </trkpt>
      <trkpt lat="45.85577" lon="4.67099">
        <ele>213.26384</ele>
        <time>2022-09-27T13:08:56.000Z</time>
      </trkpt>
      <trkpt lat="45.85578" lon="4.67104">
        <ele>213.24893</ele>
        <time>2022-09-27T13:08:57.000Z</time>
      </trkpt>
      <trkpt lat="45.8558" lon="4.67109">
        <ele>213.14401</ele>
        <time>2022-09-27T13:08:58.000Z</time>
      </trkpt>
      <trkpt lat="45.85582" lon="4.67115">
        <ele>213.05447</ele>
        <time>2022-09-27T13:08:59.000Z</time>
      </trkpt>
      <trkpt lat="45.85585" lon="4.6713">
        <ele>212.89331</ele>
        <time>2022-09-27T13:09:00.000Z</time>
      </trkpt>
      <trkpt lat="45.85587" lon="4.67133">
        <ele>212.71359</ele>
        <time>2022-09-27T13:09:01.000Z</time>
      </trkpt>
      <trkpt lat="45.85587" lon="4.67142">
        <ele>212.41232</ele>
        <time>2022-09-27T13:09:02.000Z</time>
      </trkpt>
      <trkpt lat="45.85588" lon="4.67137">
        <ele>212.13884</ele>
        <time>2022-09-27T13:09:03.000Z</time>
      </trkpt>
      <trkpt lat="45.8559" lon="4.67137">
        <ele>211.84961</ele>
        <time>2022-09-27T13:09:04.000Z</time>
      </trkpt>
      <trkpt lat="45.85591" lon="4.67142">
        <ele>211.62773</ele>
        <time>2022-09-27T13:09:06.000Z</time>
      </trkpt>
      <trkpt lat="45.85593" lon="4.67146">
        <ele>211.29419</ele>
        <time>2022-09-27T13:09:08.000Z</time>
      </trkpt>
      <trkpt lat="45.85594" lon="4.67152">
        <ele>210.98096</ele>
        <time>2022-09-27T13:09:10.000Z</time>
      </trkpt>
      <trkpt lat="45.85597" lon="4.67152">
        <ele>210.76697</ele>
        <time>2022-09-27T13:09:11.000Z</time>
      </trkpt>
      <trkpt lat="45.85599" lon="4.67154">
        <ele>210.53809</ele>
        <time>2022-09-27T13:09:12.000Z</time>
      </trkpt>
      <trkpt lat="45.856" lon="4.67158">
        <ele>210.28207</ele>
        <time>2022-09-27T13:09:13.000Z</time>
      </trkpt>
      <trkpt lat="45.85602" lon="4.6716">
        <ele>209.9819</ele>
        <time>2022-09-27T13:09:14.000Z</time>
      </trkpt>
      <trkpt lat="45.85604" lon="4.67163">
        <ele>209.58894</ele>
        <time>2022-09-27T13:09:15.000Z</time>
      </trkpt>
      <trkpt lat="45.85606" lon="4.67165">
        <ele>209.1991</ele>
        <time>2022-09-27T13:09:16.000Z</time>
      </trkpt>
      <trkpt lat="45.85608" lon="4.67169">
        <ele>208.93698</ele>
        <time>2022-09-27T13:09:18.000Z</time>
      </trkpt>
      <trkpt lat="45.85609" lon="4.67173">
        <ele>208.77481</ele>
        <time>2022-09-27T13:09:20.000Z</time>
      </trkpt>
      <trkpt lat="45.8561" lon="4.67176">
        <ele>208.56697</ele>
        <time>2022-09-27T13:09:21.000Z</time>
      </trkpt>
      <trkpt lat="45.85611" lon="4.67178">
        <ele>208.40593</ele>
        <time>2022-09-27T13:09:22.000Z</time>
      </trkpt>
      <trkpt lat="45.85613" lon="4.67181">
        <ele>208.36177</ele>
        <time>2022-09-27T13:09:23.000Z</time>
      </trkpt>
      <trkpt lat="45.85615" lon="4.67184">
        <ele>208.31058</ele>
        <time>2022-09-27T13:09:24.000Z</time>
      </trkpt>
      <trkpt lat="45.85617" lon="4.67186">
        <ele>208.36511</ele>
        <time>2022-09-27T13:09:25.000Z</time>
      </trkpt>
      <trkpt lat="45.85618" lon="4.67188">
        <ele>208.47241</ele>
        <time>2022-09-27T13:09:26.000Z</time>
      </trkpt>
      <trkpt lat="45.8562" lon="4.67192">
        <ele>208.55783</ele>
        <time>2022-09-27T13:09:27.000Z</time>
      </trkpt>
      <trkpt lat="45.85622" lon="4.67195">
        <ele>208.65425</ele>
        <time>2022-09-27T13:09:28.000Z</time>
      </trkpt>
      <trkpt lat="45.85624" lon="4.67199">
        <ele>208.74741</ele>
        <time>2022-09-27T13:09:29.000Z</time>
      </trkpt>
      <trkpt lat="45.85625" lon="4.67203">
        <ele>208.73239</ele>
        <time>2022-09-27T13:09:30.000Z</time>
      </trkpt>
      <trkpt lat="45.85627" lon="4.67206">
        <ele>208.86215</ele>
        <time>2022-09-27T13:09:31.000Z</time>
      </trkpt>
      <trkpt lat="45.85628" lon="4.67209">
        <ele>208.95303</ele>
        <time>2022-09-27T13:09:32.000Z</time>
      </trkpt>
      <trkpt lat="45.8563" lon="4.67212">
        <ele>209.01184</ele>
        <time>2022-09-27T13:09:33.000Z</time>
      </trkpt>
      <trkpt lat="45.85632" lon="4.67216">
        <ele>209.07329</ele>
        <time>2022-09-27T13:09:34.000Z</time>
      </trkpt>
      <trkpt lat="45.85635" lon="4.67219">
        <ele>209.20781</ele>
        <time>2022-09-27T13:09:35.000Z</time>
      </trkpt>
      <trkpt lat="45.85638" lon="4.67222">
        <ele>209.32539</ele>
        <time>2022-09-27T13:09:36.000Z</time>
      </trkpt>
      <trkpt lat="45.85641" lon="4.67224">
        <ele>209.48111</ele>
        <time>2022-09-27T13:09:37.000Z</time>
      </trkpt>
      <trkpt lat="45.85645" lon="4.67227">
        <ele>209.592</ele>
        <time>2022-09-27T13:09:38.000Z</time>
      </trkpt>
      <trkpt lat="45.85648" lon="4.67229">
        <ele>209.59488</ele>
        <time>2022-09-27T13:09:39.000Z</time>
      </trkpt>
      <trkpt lat="45.85651" lon="4.67232">
        <ele>209.49622</ele>
        <time>2022-09-27T13:09:40.000Z</time>
      </trkpt>
      <trkpt lat="45.85655" lon="4.67235">
        <ele>209.41977</ele>
        <time>2022-09-27T13:09:41.000Z</time>
      </trkpt>
      <trkpt lat="45.85659" lon="4.67238">
        <ele>209.21884</ele>
        <time>2022-09-27T13:09:42.000Z</time>
      </trkpt>
      <trkpt lat="45.85662" lon="4.67241">
        <ele>209.04826</ele>
        <time>2022-09-27T13:09:43.000Z</time>
      </trkpt>
      <trkpt lat="45.85665" lon="4.67245">
        <ele>208.83154</ele>
        <time>2022-09-27T13:09:44.000Z</time>
      </trkpt>
      <trkpt lat="45.85668" lon="4.67248">
        <ele>208.59146</ele>
        <time>2022-09-27T13:09:45.000Z</time>
      </trkpt>
      <trkpt lat="45.85671" lon="4.67251">
        <ele>208.37424</ele>
        <time>2022-09-27T13:09:46.000Z</time>
      </trkpt>
      <trkpt lat="45.85674" lon="4.67253">
        <ele>208.28223</ele>
        <time>2022-09-27T13:09:47.000Z</time>
      </trkpt>
      <trkpt lat="45.85678" lon="4.67256">
        <ele>208.19223</ele>
        <time>2022-09-27T13:09:48.000Z</time>
      </trkpt>
      <trkpt lat="45.85682" lon="4.67258">
        <ele>208.04202</ele>
        <time>2022-09-27T13:09:49.000Z</time>
      </trkpt>
      <trkpt lat="45.85686" lon="4.67261">
        <ele>207.9292</ele>
        <time>2022-09-27T13:09:50.000Z</time>
      </trkpt>
      <trkpt lat="45.85691" lon="4.67263">
        <ele>207.89619</ele>
        <time>2022-09-27T13:09:51.000Z</time>
      </trkpt>
      <trkpt lat="45.85695" lon="4.67265">
        <ele>207.8851</ele>
        <time>2022-09-27T13:09:52.000Z</time>
      </trkpt>
      <trkpt lat="45.85698" lon="4.67268">
        <ele>207.71956</ele>
        <time>2022-09-27T13:09:53.000Z</time>
      </trkpt>
      <trkpt lat="45.857" lon="4.6727">
        <ele>207.50142</ele>
        <time>2022-09-27T13:09:54.000Z</time>
      </trkpt>
      <trkpt lat="45.85703" lon="4.67272">
        <ele>207.25032</ele>
        <time>2022-09-27T13:09:55.000Z</time>
      </trkpt>
      <trkpt lat="45.85707" lon="4.67274">
        <ele>206.972</ele>
        <time>2022-09-27T13:09:56.000Z</time>
      </trkpt>
      <trkpt lat="45.8571" lon="4.67276">
        <ele>206.68355</ele>
        <time>2022-09-27T13:09:57.000Z</time>
      </trkpt>
      <trkpt lat="45.85714" lon="4.67277">
        <ele>206.46773</ele>
        <time>2022-09-27T13:09:58.000Z</time>
      </trkpt>
      <trkpt lat="45.85719" lon="4.6728">
        <ele>206.28772</ele>
        <time>2022-09-27T13:09:59.000Z</time>
      </trkpt>
      <trkpt lat="45.85722" lon="4.67282">
        <ele>206.17522</ele>
        <time>2022-09-27T13:10:00.000Z</time>
      </trkpt>
      <trkpt lat="45.85726" lon="4.67285">
        <ele>206.07547</ele>
        <time>2022-09-27T13:10:01.000Z</time>
      </trkpt>
      <trkpt lat="45.85729" lon="4.67288">
        <ele>206.01067</ele>
        <time>2022-09-27T13:10:02.000Z</time>
      </trkpt>
      <trkpt lat="45.85733" lon="4.67291">
        <ele>205.93274</ele>
        <time>2022-09-27T13:10:03.000Z</time>
      </trkpt>
      <trkpt lat="45.85736" lon="4.67294">
        <ele>205.85657</ele>
        <time>2022-09-27T13:10:04.000Z</time>
      </trkpt>
      <trkpt lat="45.8574" lon="4.67297">
        <ele>205.82649</ele>
        <time>2022-09-27T13:10:05.000Z</time>
      </trkpt>
      <trkpt lat="45.85743" lon="4.67301">
        <ele>205.67307</ele>
        <time>2022-09-27T13:10:06.000Z</time>
      </trkpt>
      <trkpt lat="45.85745" lon="4.67304">
        <ele>205.45679</ele>
        <time>2022-09-27T13:10:07.000Z</time>
      </trkpt>
      <trkpt lat="45.85748" lon="4.67308">
        <ele>205.26872</ele>
        <time>2022-09-27T13:10:08.000Z</time>
      </trkpt>
      <trkpt lat="45.85751" lon="4.67311">
        <ele>205.14079</ele>
        <time>2022-09-27T13:10:09.000Z</time>
      </trkpt>
      <trkpt lat="45.85753" lon="4.67313">
        <ele>204.96738</ele>
        <time>2022-09-27T13:10:10.000Z</time>
      </trkpt>
      <trkpt lat="45.85755" lon="4.67315">
        <ele>204.66751</ele>
        <time>2022-09-27T13:10:11.000Z</time>
      </trkpt>
      <trkpt lat="45.85757" lon="4.67317">
        <ele>204.4014</ele>
        <time>2022-09-27T13:10:12.000Z</time>
      </trkpt>
      <trkpt lat="45.85759" lon="4.6732">
        <ele>204.22031</ele>
        <time>2022-09-27T13:10:13.000Z</time>
      </trkpt>
      <trkpt lat="45.85762" lon="4.67324">
        <ele>204.04692</ele>
        <time>2022-09-27T13:10:14.000Z</time>
      </trkpt>
      <trkpt lat="45.85764" lon="4.67327">
        <ele>203.93477</ele>
        <time>2022-09-27T13:10:15.000Z</time>
      </trkpt>
      <trkpt lat="45.85766" lon="4.67331">
        <ele>203.81578</ele>
        <time>2022-09-27T13:10:16.000Z</time>
      </trkpt>
      <trkpt lat="45.85769" lon="4.67334">
        <ele>203.76505</ele>
        <time>2022-09-27T13:10:17.000Z</time>
      </trkpt>
      <trkpt lat="45.85771" lon="4.67336">
        <ele>203.72885</ele>
        <time>2022-09-27T13:10:18.000Z</time>
      </trkpt>
      <trkpt lat="45.85773" lon="4.67339">
        <ele>203.76344</ele>
        <time>2022-09-27T13:10:19.000Z</time>
      </trkpt>
      <trkpt lat="45.85773" lon="4.67343">
        <ele>203.77573</ele>
        <time>2022-09-27T13:10:20.000Z</time>
      </trkpt>
      <trkpt lat="45.85772" lon="4.67347">
        <ele>203.81279</ele>
        <time>2022-09-27T13:10:21.000Z</time>
      </trkpt>
      <trkpt lat="45.85771" lon="4.6735">
        <ele>203.91115</ele>
        <time>2022-09-27T13:10:22.000Z</time>
      </trkpt>
      <trkpt lat="45.85771" lon="4.67353">
        <ele>204.0179</ele>
        <time>2022-09-27T13:10:23.000Z</time>
      </trkpt>
      <trkpt lat="45.85771" lon="4.67357">
        <ele>204.06873</ele>
        <time>2022-09-27T13:10:24.000Z</time>
      </trkpt>
      <trkpt lat="45.85771" lon="4.6736">
        <ele>204.13504</ele>
        <time>2022-09-27T13:10:25.000Z</time>
      </trkpt>
      <trkpt lat="45.85772" lon="4.67363">
        <ele>204.21011</ele>
        <time>2022-09-27T13:10:26.000Z</time>
      </trkpt>
      <trkpt lat="45.85771" lon="4.67367">
        <ele>204.28355</ele>
        <time>2022-09-27T13:10:27.000Z</time>
      </trkpt>
      <trkpt lat="45.85771" lon="4.67369">
        <ele>204.3595</ele>
        <time>2022-09-27T13:10:28.000Z</time>
      </trkpt>
      <trkpt lat="45.8577" lon="4.67372">
        <ele>204.46104</ele>
        <time>2022-09-27T13:10:29.000Z</time>
      </trkpt>
      <trkpt lat="45.85769" lon="4.67374">
        <ele>204.6618</ele>
        <time>2022-09-27T13:10:30.000Z</time>
      </trkpt>
      <trkpt lat="45.85767" lon="4.67376">
        <ele>204.92509</ele>
        <time>2022-09-27T13:10:31.000Z</time>
      </trkpt>
      <trkpt lat="45.85766" lon="4.67378">
        <ele>205.1794</ele>
        <time>2022-09-27T13:10:32.000Z</time>
      </trkpt>
      <trkpt lat="45.85764" lon="4.67381">
        <ele>205.46997</ele>
        <time>2022-09-27T13:10:33.000Z</time>
      </trkpt>
      <trkpt lat="45.85763" lon="4.67383">
        <ele>205.849</ele>
        <time>2022-09-27T13:10:34.000Z</time>
      </trkpt>
      <trkpt lat="45.85761" lon="4.67386">
        <ele>206.21872</ele>
        <time>2022-09-27T13:10:35.000Z</time>
      </trkpt>
      <trkpt lat="45.85759" lon="4.67389">
        <ele>206.63547</ele>
        <time>2022-09-27T13:10:36.000Z</time>
      </trkpt>
      <trkpt lat="45.85757" lon="4.67392">
        <ele>206.96904</ele>
        <time>2022-09-27T13:10:37.000Z</time>
      </trkpt>
      <trkpt lat="45.85756" lon="4.67396">
        <ele>207.24846</ele>
        <time>2022-09-27T13:10:38.000Z</time>
      </trkpt>
      <trkpt lat="45.85754" lon="4.67399">
        <ele>207.44363</ele>
        <time>2022-09-27T13:10:39.000Z</time>
      </trkpt>
      <trkpt lat="45.85752" lon="4.67403">
        <ele>207.70264</ele>
        <time>2022-09-27T13:10:40.000Z</time>
      </trkpt>
      <trkpt lat="45.8575" lon="4.67407">
        <ele>207.90738</ele>
        <time>2022-09-27T13:10:41.000Z</time>
      </trkpt>
      <trkpt lat="45.85749" lon="4.67411">
        <ele>208.07541</ele>
        <time>2022-09-27T13:10:42.000Z</time>
      </trkpt>
      <trkpt lat="45.85747" lon="4.67416">
        <ele>208.15933</ele>
        <time>2022-09-27T13:10:43.000Z</time>
      </trkpt>
      <trkpt lat="45.85745" lon="4.6742">
        <ele>208.26448</ele>
        <time>2022-09-27T13:10:44.000Z</time>
      </trkpt>
      <trkpt lat="45.85743" lon="4.67423">
        <ele>208.29781</ele>
        <time>2022-09-27T13:10:45.000Z</time>
      </trkpt>
      <trkpt lat="45.85741" lon="4.67427">
        <ele>208.38264</ele>
        <time>2022-09-27T13:10:46.000Z</time>
      </trkpt>
      <trkpt lat="45.8574" lon="4.67431">
        <ele>208.50583</ele>
        <time>2022-09-27T13:10:47.000Z</time>
      </trkpt>
      <trkpt lat="45.85737" lon="4.67436">
        <ele>208.51236</ele>
        <time>2022-09-27T13:10:48.000Z</time>
      </trkpt>
      <trkpt lat="45.85735" lon="4.6744">
        <ele>208.5439</ele>
        <time>2022-09-27T13:10:49.000Z</time>
      </trkpt>
      <trkpt lat="45.85733" lon="4.67444">
        <ele>208.58719</ele>
        <time>2022-09-27T13:10:50.000Z</time>
      </trkpt>
      <trkpt lat="45.85731" lon="4.67448">
        <ele>208.65862</ele>
        <time>2022-09-27T13:10:51.000Z</time>
      </trkpt>
      <trkpt lat="45.85729" lon="4.67452">
        <ele>208.67905</ele>
        <time>2022-09-27T13:10:52.000Z</time>
      </trkpt>
      <trkpt lat="45.85727" lon="4.67455">
        <ele>208.65396</ele>
        <time>2022-09-27T13:10:53.000Z</time>
      </trkpt>
      <trkpt lat="45.85725" lon="4.67459">
        <ele>208.59372</ele>
        <time>2022-09-27T13:10:54.000Z</time>
      </trkpt>
      <trkpt lat="45.85722" lon="4.67462">
        <ele>208.49911</ele>
        <time>2022-09-27T13:10:55.000Z</time>
      </trkpt>
      <trkpt lat="45.85719" lon="4.67466">
        <ele>208.36084</ele>
        <time>2022-09-27T13:10:56.000Z</time>
      </trkpt>
      <trkpt lat="45.85716" lon="4.67471">
        <ele>208.28488</ele>
        <time>2022-09-27T13:10:57.000Z</time>
      </trkpt>
      <trkpt lat="45.85714" lon="4.67476">
        <ele>208.20374</ele>
        <time>2022-09-27T13:10:58.000Z</time>
      </trkpt>
      <trkpt lat="45.85711" lon="4.6748">
        <ele>208.12973</ele>
        <time>2022-09-27T13:10:59.000Z</time>
      </trkpt>
      <trkpt lat="45.85709" lon="4.67485">
        <ele>208.01871</ele>
        <time>2022-09-27T13:11:00.000Z</time>
      </trkpt>
      <trkpt lat="45.85706" lon="4.6749">
        <ele>207.94565</ele>
        <time>2022-09-27T13:11:01.000Z</time>
      </trkpt>
      <trkpt lat="45.85703" lon="4.67495">
        <ele>207.8591</ele>
        <time>2022-09-27T13:11:02.000Z</time>
      </trkpt>
      <trkpt lat="45.85699" lon="4.675">
        <ele>207.80989</ele>
        <time>2022-09-27T13:11:03.000Z</time>
      </trkpt>
      <trkpt lat="45.85696" lon="4.67506">
        <ele>207.78735</ele>
        <time>2022-09-27T13:11:04.000Z</time>
      </trkpt>
      <trkpt lat="45.85692" lon="4.67512">
        <ele>207.82085</ele>
        <time>2022-09-27T13:11:05.000Z</time>
      </trkpt>
      <trkpt lat="45.85688" lon="4.67516">
        <ele>207.89742</ele>
        <time>2022-09-27T13:11:06.000Z</time>
      </trkpt>
      <trkpt lat="45.85685" lon="4.6752">
        <ele>207.96677</ele>
        <time>2022-09-27T13:11:07.000Z</time>
      </trkpt>
      <trkpt lat="45.8568" lon="4.67524">
        <ele>208.16084</ele>
        <time>2022-09-27T13:11:08.000Z</time>
      </trkpt>
      <trkpt lat="45.85677" lon="4.67528">
        <ele>208.35429</ele>
        <time>2022-09-27T13:11:09.000Z</time>
      </trkpt>
      <trkpt lat="45.85673" lon="4.67531">
        <ele>208.44392</ele>
        <time>2022-09-27T13:11:10.000Z</time>
      </trkpt>
      <trkpt lat="45.85669" lon="4.67535">
        <ele>208.45773</ele>
        <time>2022-09-27T13:11:11.000Z</time>
      </trkpt>
      <trkpt lat="45.85665" lon="4.67537">
        <ele>208.48418</ele>
        <time>2022-09-27T13:11:12.000Z</time>
      </trkpt>
      <trkpt lat="45.85661" lon="4.67541">
        <ele>208.51151</ele>
        <time>2022-09-27T13:11:13.000Z</time>
      </trkpt>
      <trkpt lat="45.85658" lon="4.67545">
        <ele>208.58577</ele>
        <time>2022-09-27T13:11:14.000Z</time>
      </trkpt>
      <trkpt lat="45.85654" lon="4.6755">
        <ele>208.65828</ele>
        <time>2022-09-27T13:11:15.000Z</time>
      </trkpt>
      <trkpt lat="45.8565" lon="4.67554">
        <ele>208.74248</ele>
        <time>2022-09-27T13:11:16.000Z</time>
      </trkpt>
      <trkpt lat="45.85645" lon="4.67558">
        <ele>208.75117</ele>
        <time>2022-09-27T13:11:17.000Z</time>
      </trkpt>
      <trkpt lat="45.85641" lon="4.67562">
        <ele>208.79131</ele>
        <time>2022-09-27T13:11:18.000Z</time>
      </trkpt>
      <trkpt lat="45.85638" lon="4.67566">
        <ele>208.85947</ele>
        <time>2022-09-27T13:11:19.000Z</time>
      </trkpt>
      <trkpt lat="45.85633" lon="4.67569">
        <ele>208.939</ele>
        <time>2022-09-27T13:11:20.000Z</time>
      </trkpt>
      <trkpt lat="45.85628" lon="4.67573">
        <ele>209.00549</ele>
        <time>2022-09-27T13:11:21.000Z</time>
      </trkpt>
      <trkpt lat="45.85625" lon="4.67576">
        <ele>209.1353</ele>
        <time>2022-09-27T13:11:22.000Z</time>
      </trkpt>
      <trkpt lat="45.85618" lon="4.67581">
        <ele>209.24454</ele>
        <time>2022-09-27T13:11:23.000Z</time>
      </trkpt>
      <trkpt lat="45.85614" lon="4.67586">
        <ele>209.39812</ele>
        <time>2022-09-27T13:11:24.000Z</time>
      </trkpt>
      <trkpt lat="45.85611" lon="4.67591">
        <ele>209.44304</ele>
        <time>2022-09-27T13:11:25.000Z</time>
      </trkpt>
      <trkpt lat="45.85607" lon="4.67595">
        <ele>209.45146</ele>
        <time>2022-09-27T13:11:26.000Z</time>
      </trkpt>
      <trkpt lat="45.85602" lon="4.676">
        <ele>209.39148</ele>
        <time>2022-09-27T13:11:27.000Z</time>
      </trkpt>
      <trkpt lat="45.85598" lon="4.67604">
        <ele>209.30887</ele>
        <time>2022-09-27T13:11:28.000Z</time>
      </trkpt>
      <trkpt lat="45.85593" lon="4.67609">
        <ele>209.19019</ele>
        <time>2022-09-27T13:11:29.000Z</time>
      </trkpt>
      <trkpt lat="45.85589" lon="4.67613">
        <ele>209.18506</ele>
        <time>2022-09-27T13:11:30.000Z</time>
      </trkpt>
      <trkpt lat="45.85585" lon="4.67617">
        <ele>209.26518</ele>
        <time>2022-09-27T13:11:31.000Z</time>
      </trkpt>
      <trkpt lat="45.85582" lon="4.67622">
        <ele>209.41948</ele>
        <time>2022-09-27T13:11:32.000Z</time>
      </trkpt>
      <trkpt lat="45.85578" lon="4.67627">
        <ele>209.59476</ele>
        <time>2022-09-27T13:11:33.000Z</time>
      </trkpt>
      <trkpt lat="45.85573" lon="4.67632">
        <ele>209.6772</ele>
        <time>2022-09-27T13:11:34.000Z</time>
      </trkpt>
      <trkpt lat="45.85569" lon="4.67637">
        <ele>209.80026</ele>
        <time>2022-09-27T13:11:35.000Z</time>
      </trkpt>
      <trkpt lat="45.85565" lon="4.67641">
        <ele>209.92831</ele>
        <time>2022-09-27T13:11:36.000Z</time>
      </trkpt>
      <trkpt lat="45.85562" lon="4.67645">
        <ele>210.06548</ele>
        <time>2022-09-27T13:11:37.000Z</time>
      </trkpt>
      <trkpt lat="45.85558" lon="4.67651">
        <ele>210.16043</ele>
        <time>2022-09-27T13:11:38.000Z</time>
      </trkpt>
      <trkpt lat="45.85553" lon="4.67656">
        <ele>210.20049</ele>
        <time>2022-09-27T13:11:39.000Z</time>
      </trkpt>
      <trkpt lat="45.85549" lon="4.67662">
        <ele>210.18411</ele>
        <time>2022-09-27T13:11:40.000Z</time>
      </trkpt>
      <trkpt lat="45.85545" lon="4.67667">
        <ele>210.11954</ele>
        <time>2022-09-27T13:11:41.000Z</time>
      </trkpt>
      <trkpt lat="45.8554" lon="4.67672">
        <ele>209.97701</ele>
        <time>2022-09-27T13:11:42.000Z</time>
      </trkpt>
      <trkpt lat="45.85535" lon="4.67677">
        <ele>209.83301</ele>
        <time>2022-09-27T13:11:43.000Z</time>
      </trkpt>
      <trkpt lat="45.85531" lon="4.67683">
        <ele>209.65939</ele>
        <time>2022-09-27T13:11:44.000Z</time>
      </trkpt>
      <trkpt lat="45.85527" lon="4.67689">
        <ele>209.52129</ele>
        <time>2022-09-27T13:11:45.000Z</time>
      </trkpt>
      <trkpt lat="45.85523" lon="4.67694">
        <ele>209.42485</ele>
        <time>2022-09-27T13:11:46.000Z</time>
      </trkpt>
      <trkpt lat="45.85519" lon="4.67701">
        <ele>209.32138</ele>
        <time>2022-09-27T13:11:47.000Z</time>
      </trkpt>
      <trkpt lat="45.85515" lon="4.67707">
        <ele>209.16365</ele>
        <time>2022-09-27T13:11:48.000Z</time>
      </trkpt>
      <trkpt lat="45.85512" lon="4.67714">
        <ele>208.95444</ele>
        <time>2022-09-27T13:11:49.000Z</time>
      </trkpt>
      <trkpt lat="45.85508" lon="4.67721">
        <ele>208.7164</ele>
        <time>2022-09-27T13:11:50.000Z</time>
      </trkpt>
      <trkpt lat="45.85506" lon="4.67728">
        <ele>208.45865</ele>
        <time>2022-09-27T13:11:51.000Z</time>
      </trkpt>
      <trkpt lat="45.85502" lon="4.67736">
        <ele>208.10764</ele>
        <time>2022-09-27T13:11:52.000Z</time>
      </trkpt>
      <trkpt lat="45.85499" lon="4.67743">
        <ele>207.69095</ele>
        <time>2022-09-27T13:11:53.000Z</time>
      </trkpt>
      <trkpt lat="45.85495" lon="4.67753">
        <ele>207.39047</ele>
        <time>2022-09-27T13:11:54.000Z</time>
      </trkpt>
      <trkpt lat="45.85493" lon="4.67758">
        <ele>207.01128</ele>
        <time>2022-09-27T13:11:55.000Z</time>
      </trkpt>
      <trkpt lat="45.85489" lon="4.67766">
        <ele>206.6429</ele>
        <time>2022-09-27T13:11:56.000Z</time>
      </trkpt>
      <trkpt lat="45.85488" lon="4.67772">
        <ele>206.25073</ele>
        <time>2022-09-27T13:11:57.000Z</time>
      </trkpt>
      <trkpt lat="45.85487" lon="4.67779">
        <ele>205.88725</ele>
        <time>2022-09-27T13:11:58.000Z</time>
      </trkpt>
      <trkpt lat="45.85486" lon="4.67788">
        <ele>205.56445</ele>
        <time>2022-09-27T13:11:59.000Z</time>
      </trkpt>
      <trkpt lat="45.85486" lon="4.67795">
        <ele>205.29385</ele>
        <time>2022-09-27T13:12:00.000Z</time>
      </trkpt>
      <trkpt lat="45.85489" lon="4.67802">
        <ele>205.11526</ele>
        <time>2022-09-27T13:12:01.000Z</time>
      </trkpt>
      <trkpt lat="45.85491" lon="4.67811">
        <ele>204.9819</ele>
        <time>2022-09-27T13:12:02.000Z</time>
      </trkpt>
      <trkpt lat="45.85492" lon="4.6782">
        <ele>204.8864</ele>
        <time>2022-09-27T13:12:03.000Z</time>
      </trkpt>
      <trkpt lat="45.85495" lon="4.67829">
        <ele>204.79663</ele>
        <time>2022-09-27T13:12:04.000Z</time>
      </trkpt>
      <trkpt lat="45.85497" lon="4.67838">
        <ele>204.77614</ele>
        <time>2022-09-27T13:12:05.000Z</time>
      </trkpt>
      <trkpt lat="45.85498" lon="4.67847">
        <ele>204.6479</ele>
        <time>2022-09-27T13:12:06.000Z</time>
      </trkpt>
      <trkpt lat="45.85498" lon="4.67854">
        <ele>204.58841</ele>
        <time>2022-09-27T13:12:07.000Z</time>
      </trkpt>
      <trkpt lat="45.85499" lon="4.67864">
        <ele>204.54324</ele>
        <time>2022-09-27T13:12:08.000Z</time>
      </trkpt>
      <trkpt lat="45.85501" lon="4.67871">
        <ele>204.55983</ele>
        <time>2022-09-27T13:12:09.000Z</time>
      </trkpt>
      <trkpt lat="45.85502" lon="4.6788">
        <ele>204.60168</ele>
        <time>2022-09-27T13:12:10.000Z</time>
      </trkpt>
      <trkpt lat="45.85505" lon="4.67889">
        <ele>204.56752</ele>
        <time>2022-09-27T13:12:11.000Z</time>
      </trkpt>
      <trkpt lat="45.85509" lon="4.67896">
        <ele>204.60039</ele>
        <time>2022-09-27T13:12:12.000Z</time>
      </trkpt>
      <trkpt lat="45.85513" lon="4.67904">
        <ele>204.701</ele>
        <time>2022-09-27T13:12:13.000Z</time>
      </trkpt>
      <trkpt lat="45.85517" lon="4.67908">
        <ele>204.80051</ele>
        <time>2022-09-27T13:12:14.000Z</time>
      </trkpt>
      <trkpt lat="45.85519" lon="4.67915">
        <ele>204.95903</ele>
        <time>2022-09-27T13:12:15.000Z</time>
      </trkpt>
      <trkpt lat="45.85522" lon="4.6792">
        <ele>205.11633</ele>
        <time>2022-09-27T13:12:16.000Z</time>
      </trkpt>
      <trkpt lat="45.85523" lon="4.67925">
        <ele>205.29314</ele>
        <time>2022-09-27T13:12:17.000Z</time>
      </trkpt>
      <trkpt lat="45.85524" lon="4.67931">
        <ele>205.46497</ele>
        <time>2022-09-27T13:12:18.000Z</time>
      </trkpt>
      <trkpt lat="45.85526" lon="4.67936">
        <ele>205.63583</ele>
        <time>2022-09-27T13:12:19.000Z</time>
      </trkpt>
      <trkpt lat="45.85528" lon="4.67941">
        <ele>205.82764</ele>
        <time>2022-09-27T13:12:20.000Z</time>
      </trkpt>
      <trkpt lat="45.8553" lon="4.67946">
        <ele>205.96587</ele>
        <time>2022-09-27T13:12:21.000Z</time>
      </trkpt>
      <trkpt lat="45.85532" lon="4.67951">
        <ele>206.1189</ele>
        <time>2022-09-27T13:12:22.000Z</time>
      </trkpt>
      <trkpt lat="45.85533" lon="4.67956">
        <ele>206.2897</ele>
        <time>2022-09-27T13:12:23.000Z</time>
      </trkpt>
      <trkpt lat="45.85533" lon="4.6796">
        <ele>206.43784</ele>
        <time>2022-09-27T13:12:24.000Z</time>
      </trkpt>
      <trkpt lat="45.8553" lon="4.67965">
        <ele>206.52396</ele>
        <time>2022-09-27T13:12:25.000Z</time>
      </trkpt>
      <trkpt lat="45.85526" lon="4.67968">
        <ele>206.64795</ele>
        <time>2022-09-27T13:12:26.000Z</time>
      </trkpt>
      <trkpt lat="45.85521" lon="4.67972">
        <ele>206.74178</ele>
        <time>2022-09-27T13:12:27.000Z</time>
      </trkpt>
      <trkpt lat="45.85516" lon="4.67976">
        <ele>206.85934</ele>
        <time>2022-09-27T13:12:28.000Z</time>
      </trkpt>
      <trkpt lat="45.85513" lon="4.67979">
        <ele>206.98792</ele>
        <time>2022-09-27T13:12:29.000Z</time>
      </trkpt>
      <trkpt lat="45.85509" lon="4.67984">
        <ele>207.06628</ele>
        <time>2022-09-27T13:12:30.000Z</time>
      </trkpt>
      <trkpt lat="45.85505" lon="4.67988">
        <ele>207.21237</ele>
        <time>2022-09-27T13:12:31.000Z</time>
      </trkpt>
      <trkpt lat="45.855" lon="4.67991">
        <ele>207.3093</ele>
        <time>2022-09-27T13:12:32.000Z</time>
      </trkpt>
      <trkpt lat="45.85497" lon="4.67996">
        <ele>207.44308</ele>
        <time>2022-09-27T13:12:33.000Z</time>
      </trkpt>
      <trkpt lat="45.85492" lon="4.68002">
        <ele>207.55542</ele>
        <time>2022-09-27T13:12:34.000Z</time>
      </trkpt>
      <trkpt lat="45.85489" lon="4.68006">
        <ele>207.6875</ele>
        <time>2022-09-27T13:12:35.000Z</time>
      </trkpt>
      <trkpt lat="45.85485" lon="4.68008">
        <ele>207.78732</ele>
        <time>2022-09-27T13:12:36.000Z</time>
      </trkpt>
      <trkpt lat="45.85479" lon="4.68011">
        <ele>207.83115</ele>
        <time>2022-09-27T13:12:37.000Z</time>
      </trkpt>
      <trkpt lat="45.85477" lon="4.68016">
        <ele>207.90327</ele>
        <time>2022-09-27T13:12:38.000Z</time>
      </trkpt>
      <trkpt lat="45.85471" lon="4.68019">
        <ele>207.94951</ele>
        <time>2022-09-27T13:12:39.000Z</time>
      </trkpt>
      <trkpt lat="45.85467" lon="4.68024">
        <ele>207.98428</ele>
        <time>2022-09-27T13:12:40.000Z</time>
      </trkpt>
      <trkpt lat="45.85464" lon="4.68028">
        <ele>208.07748</ele>
        <time>2022-09-27T13:12:41.000Z</time>
      </trkpt>
      <trkpt lat="45.85459" lon="4.68033">
        <ele>208.17654</ele>
        <time>2022-09-27T13:12:42.000Z</time>
      </trkpt>
      <trkpt lat="45.85454" lon="4.68038">
        <ele>208.28671</ele>
        <time>2022-09-27T13:12:43.000Z</time>
      </trkpt>
      <trkpt lat="45.85452" lon="4.68042">
        <ele>208.45773</ele>
        <time>2022-09-27T13:12:44.000Z</time>
      </trkpt>
      <trkpt lat="45.85448" lon="4.68046">
        <ele>208.64603</ele>
        <time>2022-09-27T13:12:45.000Z</time>
      </trkpt>
      <trkpt lat="45.85445" lon="4.68049">
        <ele>208.85263</ele>
        <time>2022-09-27T13:12:46.000Z</time>
      </trkpt>
      <trkpt lat="45.8544" lon="4.68053">
        <ele>209.10872</ele>
        <time>2022-09-27T13:12:47.000Z</time>
      </trkpt>
      <trkpt lat="45.85436" lon="4.68057">
        <ele>209.26521</ele>
        <time>2022-09-27T13:12:48.000Z</time>
      </trkpt>
      <trkpt lat="45.85432" lon="4.68061">
        <ele>209.4108</ele>
        <time>2022-09-27T13:12:49.000Z</time>
      </trkpt>
      <trkpt lat="45.85429" lon="4.68063">
        <ele>209.56612</ele>
        <time>2022-09-27T13:12:50.000Z</time>
      </trkpt>
      <trkpt lat="45.85425" lon="4.68066">
        <ele>209.64531</ele>
        <time>2022-09-27T13:12:51.000Z</time>
      </trkpt>
      <trkpt lat="45.85419" lon="4.6807">
        <ele>209.73251</ele>
        <time>2022-09-27T13:12:52.000Z</time>
      </trkpt>
      <trkpt lat="45.85415" lon="4.68072">
        <ele>209.74995</ele>
        <time>2022-09-27T13:12:53.000Z</time>
      </trkpt>
      <trkpt lat="45.8541" lon="4.68076">
        <ele>209.7601</ele>
        <time>2022-09-27T13:12:54.000Z</time>
      </trkpt>
      <trkpt lat="45.85405" lon="4.68081">
        <ele>209.80659</ele>
        <time>2022-09-27T13:12:55.000Z</time>
      </trkpt>
      <trkpt lat="45.85401" lon="4.68087">
        <ele>209.99553</ele>
        <time>2022-09-27T13:12:56.000Z</time>
      </trkpt>
      <trkpt lat="45.85396" lon="4.6809">
        <ele>210.25851</ele>
        <time>2022-09-27T13:12:57.000Z</time>
      </trkpt>
      <trkpt lat="45.85391" lon="4.68094">
        <ele>210.54871</ele>
        <time>2022-09-27T13:12:58.000Z</time>
      </trkpt>
      <trkpt lat="45.85388" lon="4.68098">
        <ele>210.93018</ele>
        <time>2022-09-27T13:12:59.000Z</time>
      </trkpt>
      <trkpt lat="45.85384" lon="4.68103">
        <ele>211.29915</ele>
        <time>2022-09-27T13:13:00.000Z</time>
      </trkpt>
      <trkpt lat="45.8538" lon="4.68108">
        <ele>211.6595</ele>
        <time>2022-09-27T13:13:01.000Z</time>
      </trkpt>
      <trkpt lat="45.85377" lon="4.68112">
        <ele>212.02234</ele>
        <time>2022-09-27T13:13:02.000Z</time>
      </trkpt>
      <trkpt lat="45.85372" lon="4.68117">
        <ele>212.30054</ele>
        <time>2022-09-27T13:13:03.000Z</time>
      </trkpt>
      <trkpt lat="45.85368" lon="4.68121">
        <ele>212.53574</ele>
        <time>2022-09-27T13:13:04.000Z</time>
      </trkpt>
      <trkpt lat="45.85364" lon="4.68125">
        <ele>212.82463</ele>
        <time>2022-09-27T13:13:05.000Z</time>
      </trkpt>
      <trkpt lat="45.85359" lon="4.68131">
        <ele>213.09846</ele>
        <time>2022-09-27T13:13:06.000Z</time>
      </trkpt>
      <trkpt lat="45.85356" lon="4.68135">
        <ele>213.32773</ele>
        <time>2022-09-27T13:13:07.000Z</time>
      </trkpt>
      <trkpt lat="45.85352" lon="4.68139">
        <ele>213.63689</ele>
        <time>2022-09-27T13:13:08.000Z</time>
      </trkpt>
      <trkpt lat="45.85348" lon="4.68144">
        <ele>213.98987</ele>
        <time>2022-09-27T13:13:09.000Z</time>
      </trkpt>
      <trkpt lat="45.85345" lon="4.68148">
        <ele>214.36511</ele>
        <time>2022-09-27T13:13:10.000Z</time>
      </trkpt>
      <trkpt lat="45.85341" lon="4.68153">
        <ele>214.76567</ele>
        <time>2022-09-27T13:13:11.000Z</time>
      </trkpt>
      <trkpt lat="45.85337" lon="4.68157">
        <ele>215.20752</ele>
        <time>2022-09-27T13:13:12.000Z</time>
      </trkpt>
      <trkpt lat="45.85334" lon="4.68162">
        <ele>215.66763</ele>
        <time>2022-09-27T13:13:13.000Z</time>
      </trkpt>
      <trkpt lat="45.8533" lon="4.68168">
        <ele>216.12556</ele>
        <time>2022-09-27T13:13:14.000Z</time>
      </trkpt>
      <trkpt lat="45.85326" lon="4.68171">
        <ele>216.48067</ele>
        <time>2022-09-27T13:13:15.000Z</time>
      </trkpt>
      <trkpt lat="45.85322" lon="4.68175">
        <ele>216.70732</ele>
        <time>2022-09-27T13:13:16.000Z</time>
      </trkpt>
      <trkpt lat="45.85318" lon="4.68179">
        <ele>216.92673</ele>
        <time>2022-09-27T13:13:17.000Z</time>
      </trkpt>
      <trkpt lat="45.85315" lon="4.68184">
        <ele>217.15652</ele>
        <time>2022-09-27T13:13:18.000Z</time>
      </trkpt>
      <trkpt lat="45.85312" lon="4.68187">
        <ele>217.37971</ele>
        <time>2022-09-27T13:13:19.000Z</time>
      </trkpt>
      <trkpt lat="45.85308" lon="4.6819">
        <ele>217.66568</ele>
        <time>2022-09-27T13:13:20.000Z</time>
      </trkpt>
      <trkpt lat="45.85305" lon="4.68194">
        <ele>217.86978</ele>
        <time>2022-09-27T13:13:21.000Z</time>
      </trkpt>
      <trkpt lat="45.85302" lon="4.68199">
        <ele>218.09912</ele>
        <time>2022-09-27T13:13:22.000Z</time>
      </trkpt>
      <trkpt lat="45.85299" lon="4.68203">
        <ele>218.36563</ele>
        <time>2022-09-27T13:13:23.000Z</time>
      </trkpt>
      <trkpt lat="45.85295" lon="4.68208">
        <ele>218.65833</ele>
        <time>2022-09-27T13:13:24.000Z</time>
      </trkpt>
      <trkpt lat="45.85293" lon="4.68212">
        <ele>218.83675</ele>
        <time>2022-09-27T13:13:25.000Z</time>
      </trkpt>
      <trkpt lat="45.85291" lon="4.68216">
        <ele>219.05388</ele>
        <time>2022-09-27T13:13:26.000Z</time>
      </trkpt>
      <trkpt lat="45.85288" lon="4.68221">
        <ele>219.33298</ele>
        <time>2022-09-27T13:13:27.000Z</time>
      </trkpt>
      <trkpt lat="45.85285" lon="4.68226">
        <ele>219.61201</ele>
        <time>2022-09-27T13:13:28.000Z</time>
      </trkpt>
      <trkpt lat="45.85283" lon="4.6823">
        <ele>219.85332</ele>
        <time>2022-09-27T13:13:29.000Z</time>
      </trkpt>
      <trkpt lat="45.8528" lon="4.68235">
        <ele>220.06062</ele>
        <time>2022-09-27T13:13:30.000Z</time>
      </trkpt>
      <trkpt lat="45.85277" lon="4.68239">
        <ele>220.29073</ele>
        <time>2022-09-27T13:13:31.000Z</time>
      </trkpt>
      <trkpt lat="45.85274" lon="4.68244">
        <ele>220.37662</ele>
        <time>2022-09-27T13:13:32.000Z</time>
      </trkpt>
      <trkpt lat="45.85271" lon="4.68247">
        <ele>220.50237</ele>
        <time>2022-09-27T13:13:33.000Z</time>
      </trkpt>
      <trkpt lat="45.85269" lon="4.68252">
        <ele>220.64432</ele>
        <time>2022-09-27T13:13:34.000Z</time>
      </trkpt>
      <trkpt lat="45.85266" lon="4.68255">
        <ele>220.8317</ele>
        <time>2022-09-27T13:13:35.000Z</time>
      </trkpt>
      <trkpt lat="45.85264" lon="4.68259">
        <ele>221.06833</ele>
        <time>2022-09-27T13:13:36.000Z</time>
      </trkpt>
      <trkpt lat="45.85262" lon="4.68263">
        <ele>221.29549</ele>
        <time>2022-09-27T13:13:37.000Z</time>
      </trkpt>
      <trkpt lat="45.8526" lon="4.68266">
        <ele>221.50874</ele>
        <time>2022-09-27T13:13:38.000Z</time>
      </trkpt>
      <trkpt lat="45.85258" lon="4.6827">
        <ele>221.70642</ele>
        <time>2022-09-27T13:13:39.000Z</time>
      </trkpt>
      <trkpt lat="45.85255" lon="4.68274">
        <ele>221.80444</ele>
        <time>2022-09-27T13:13:40.000Z</time>
      </trkpt>
      <trkpt lat="45.85253" lon="4.68277">
        <ele>221.94913</ele>
        <time>2022-09-27T13:13:41.000Z</time>
      </trkpt>
      <trkpt lat="45.85251" lon="4.68281">
        <ele>222.02951</ele>
        <time>2022-09-27T13:13:42.000Z</time>
      </trkpt>
      <trkpt lat="45.85248" lon="4.68285">
        <ele>222.10751</ele>
        <time>2022-09-27T13:13:43.000Z</time>
      </trkpt>
      <trkpt lat="45.85246" lon="4.68288">
        <ele>222.17313</ele>
        <time>2022-09-27T13:13:44.000Z</time>
      </trkpt>
      <trkpt lat="45.85244" lon="4.68292">
        <ele>222.28471</ele>
        <time>2022-09-27T13:13:45.000Z</time>
      </trkpt>
      <trkpt lat="45.85241" lon="4.68296">
        <ele>222.32669</ele>
        <time>2022-09-27T13:13:46.000Z</time>
      </trkpt>
      <trkpt lat="45.85238" lon="4.68299">
        <ele>222.2426</ele>
        <time>2022-09-27T13:13:47.000Z</time>
      </trkpt>
      <trkpt lat="45.85236" lon="4.68303">
        <ele>222.08125</ele>
        <time>2022-09-27T13:13:48.000Z</time>
      </trkpt>
      <trkpt lat="45.85233" lon="4.68306">
        <ele>222.08157</ele>
        <time>2022-09-27T13:13:49.000Z</time>
      </trkpt>
      <trkpt lat="45.8523" lon="4.6831">
        <ele>222.04758</ele>
        <time>2022-09-27T13:13:50.000Z</time>
      </trkpt>
      <trkpt lat="45.85228" lon="4.68314">
        <ele>221.96164</ele>
        <time>2022-09-27T13:13:51.000Z</time>
      </trkpt>
      <trkpt lat="45.85226" lon="4.68318">
        <ele>221.97954</ele>
        <time>2022-09-27T13:13:52.000Z</time>
      </trkpt>
      <trkpt lat="45.85223" lon="4.68323">
        <ele>221.98148</ele>
        <time>2022-09-27T13:13:53.000Z</time>
      </trkpt>
      <trkpt lat="45.85221" lon="4.68327">
        <ele>222.08488</ele>
        <time>2022-09-27T13:13:54.000Z</time>
      </trkpt>
      <trkpt lat="45.85219" lon="4.68331">
        <ele>222.22086</ele>
        <time>2022-09-27T13:13:55.000Z</time>
      </trkpt>
      <trkpt lat="45.85217" lon="4.68336">
        <ele>222.3354</ele>
        <time>2022-09-27T13:13:56.000Z</time>
      </trkpt>
      <trkpt lat="45.85216" lon="4.6834">
        <ele>222.55948</ele>
        <time>2022-09-27T13:13:57.000Z</time>
      </trkpt>
      <trkpt lat="45.85217" lon="4.68343">
        <ele>222.79764</ele>
        <time>2022-09-27T13:13:58.000Z</time>
      </trkpt>
      <trkpt lat="45.85216" lon="4.68347">
        <ele>222.97737</ele>
        <time>2022-09-27T13:13:59.000Z</time>
      </trkpt>
      <trkpt lat="45.85214" lon="4.68352">
        <ele>223.12358</ele>
        <time>2022-09-27T13:14:00.000Z</time>
      </trkpt>
      <trkpt lat="45.85212" lon="4.68356">
        <ele>223.19717</ele>
        <time>2022-09-27T13:14:01.000Z</time>
      </trkpt>
      <trkpt lat="45.85209" lon="4.6836">
        <ele>223.29599</ele>
        <time>2022-09-27T13:14:02.000Z</time>
      </trkpt>
      <trkpt lat="45.85207" lon="4.68364">
        <ele>223.40207</ele>
        <time>2022-09-27T13:14:03.000Z</time>
      </trkpt>
      <trkpt lat="45.85204" lon="4.68368">
        <ele>223.56482</ele>
        <time>2022-09-27T13:14:04.000Z</time>
      </trkpt>
      <trkpt lat="45.85202" lon="4.68371">
        <ele>223.72055</ele>
        <time>2022-09-27T13:14:05.000Z</time>
      </trkpt>
      <trkpt lat="45.852" lon="4.68375">
        <ele>223.93912</ele>
        <time>2022-09-27T13:14:06.000Z</time>
      </trkpt>
      <trkpt lat="45.85197" lon="4.6838">
        <ele>224.26282</ele>
        <time>2022-09-27T13:14:07.000Z</time>
      </trkpt>
      <trkpt lat="45.85194" lon="4.68384">
        <ele>224.74895</ele>
        <time>2022-09-27T13:14:08.000Z</time>
      </trkpt>
      <trkpt lat="45.85191" lon="4.68388">
        <ele>224.97832</ele>
        <time>2022-09-27T13:14:09.000Z</time>
      </trkpt>
      <trkpt lat="45.85189" lon="4.68392">
        <ele>225.26704</ele>
        <time>2022-09-27T13:14:10.000Z</time>
      </trkpt>
      <trkpt lat="45.85187" lon="4.68396">
        <ele>225.61984</ele>
        <time>2022-09-27T13:14:11.000Z</time>
      </trkpt>
      <trkpt lat="45.85184" lon="4.684">
        <ele>226.04195</ele>
        <time>2022-09-27T13:14:12.000Z</time>
      </trkpt>
      <trkpt lat="45.85181" lon="4.68405">
        <ele>226.4156</ele>
        <time>2022-09-27T13:14:13.000Z</time>
      </trkpt>
      <trkpt lat="45.85178" lon="4.68409">
        <ele>226.67203</ele>
        <time>2022-09-27T13:14:14.000Z</time>
      </trkpt>
      <trkpt lat="45.85175" lon="4.68413">
        <ele>226.86601</ele>
        <time>2022-09-27T13:14:15.000Z</time>
      </trkpt>
      <trkpt lat="45.85173" lon="4.68418">
        <ele>227.06088</ele>
        <time>2022-09-27T13:14:16.000Z</time>
      </trkpt>
      <trkpt lat="45.8517" lon="4.68423">
        <ele>227.11133</ele>
        <time>2022-09-27T13:14:17.000Z</time>
      </trkpt>
      <trkpt lat="45.85167" lon="4.68427">
        <ele>227.09927</ele>
        <time>2022-09-27T13:14:18.000Z</time>
      </trkpt>
      <trkpt lat="45.85164" lon="4.68432">
        <ele>227.07291</ele>
        <time>2022-09-27T13:14:19.000Z</time>
      </trkpt>
      <trkpt lat="45.85161" lon="4.68436">
        <ele>227.14212</ele>
        <time>2022-09-27T13:14:20.000Z</time>
      </trkpt>
      <trkpt lat="45.85158" lon="4.68441">
        <ele>227.24922</ele>
        <time>2022-09-27T13:14:21.000Z</time>
      </trkpt>
      <trkpt lat="45.85154" lon="4.68446">
        <ele>227.34624</ele>
        <time>2022-09-27T13:14:22.000Z</time>
      </trkpt>
      <trkpt lat="45.85152" lon="4.68451">
        <ele>227.46623</ele>
        <time>2022-09-27T13:14:23.000Z</time>
      </trkpt>
      <trkpt lat="45.85149" lon="4.68455">
        <ele>227.56921</ele>
        <time>2022-09-27T13:14:24.000Z</time>
      </trkpt>
      <trkpt lat="45.85144" lon="4.68462">
        <ele>227.68808</ele>
        <time>2022-09-27T13:14:25.000Z</time>
      </trkpt>
      <trkpt lat="45.85141" lon="4.68466">
        <ele>227.80937</ele>
        <time>2022-09-27T13:14:26.000Z</time>
      </trkpt>
      <trkpt lat="45.85136" lon="4.6847">
        <ele>227.86385</ele>
        <time>2022-09-27T13:14:27.000Z</time>
      </trkpt>
      <trkpt lat="45.85133" lon="4.68474">
        <ele>227.80525</ele>
        <time>2022-09-27T13:14:28.000Z</time>
      </trkpt>
      <trkpt lat="45.85129" lon="4.68479">
        <ele>227.74438</ele>
        <time>2022-09-27T13:14:29.000Z</time>
      </trkpt>
      <trkpt lat="45.85127" lon="4.68484">
        <ele>227.66702</ele>
        <time>2022-09-27T13:14:30.000Z</time>
      </trkpt>
      <trkpt lat="45.85125" lon="4.68488">
        <ele>227.58768</ele>
        <time>2022-09-27T13:14:31.000Z</time>
      </trkpt>
      <trkpt lat="45.85122" lon="4.68494">
        <ele>227.51242</ele>
        <time>2022-09-27T13:14:32.000Z</time>
      </trkpt>
      <trkpt lat="45.85119" lon="4.685">
        <ele>227.54614</ele>
        <time>2022-09-27T13:14:33.000Z</time>
      </trkpt>
      <trkpt lat="45.85117" lon="4.68505">
        <ele>227.62764</ele>
        <time>2022-09-27T13:14:34.000Z</time>
      </trkpt>
      <trkpt lat="45.85114" lon="4.68511">
        <ele>227.69754</ele>
        <time>2022-09-27T13:14:35.000Z</time>
      </trkpt>
      <trkpt lat="45.8511" lon="4.68517">
        <ele>227.81418</ele>
        <time>2022-09-27T13:14:36.000Z</time>
      </trkpt>
      <trkpt lat="45.85107" lon="4.68521">
        <ele>227.9384</ele>
        <time>2022-09-27T13:14:37.000Z</time>
      </trkpt>
      <trkpt lat="45.85105" lon="4.68526">
        <ele>228.07816</ele>
        <time>2022-09-27T13:14:38.000Z</time>
      </trkpt>
      <trkpt lat="45.85103" lon="4.68531">
        <ele>228.23335</ele>
        <time>2022-09-27T13:14:39.000Z</time>
      </trkpt>
      <trkpt lat="45.851" lon="4.68537">
        <ele>228.37016</ele>
        <time>2022-09-27T13:14:40.000Z</time>
      </trkpt>
      <trkpt lat="45.85098" lon="4.68542">
        <ele>228.51187</ele>
        <time>2022-09-27T13:14:41.000Z</time>
      </trkpt>
      <trkpt lat="45.85095" lon="4.68548">
        <ele>228.62785</ele>
        <time>2022-09-27T13:14:42.000Z</time>
      </trkpt>
      <trkpt lat="45.85092" lon="4.68554">
        <ele>228.70024</ele>
        <time>2022-09-27T13:14:43.000Z</time>
      </trkpt>
      <trkpt lat="45.8509" lon="4.6856">
        <ele>228.7402</ele>
        <time>2022-09-27T13:14:44.000Z</time>
      </trkpt>
      <trkpt lat="45.85086" lon="4.68566">
        <ele>228.78947</ele>
        <time>2022-09-27T13:14:45.000Z</time>
      </trkpt>
      <trkpt lat="45.85082" lon="4.68572">
        <ele>228.83423</ele>
        <time>2022-09-27T13:14:46.000Z</time>
      </trkpt>
      <trkpt lat="45.85079" lon="4.68578">
        <ele>228.84282</ele>
        <time>2022-09-27T13:14:47.000Z</time>
      </trkpt>
      <trkpt lat="45.85077" lon="4.68584">
        <ele>228.88513</ele>
        <time>2022-09-27T13:14:48.000Z</time>
      </trkpt>
      <trkpt lat="45.85075" lon="4.6859">
        <ele>228.97063</ele>
        <time>2022-09-27T13:14:49.000Z</time>
      </trkpt>
      <trkpt lat="45.85073" lon="4.68595">
        <ele>229.04366</ele>
        <time>2022-09-27T13:14:50.000Z</time>
      </trkpt>
      <trkpt lat="45.85071" lon="4.68602">
        <ele>229.0688</ele>
        <time>2022-09-27T13:14:51.000Z</time>
      </trkpt>
      <trkpt lat="45.85068" lon="4.68609">
        <ele>229.05342</ele>
        <time>2022-09-27T13:14:52.000Z</time>
      </trkpt>
      <trkpt lat="45.85065" lon="4.68616">
        <ele>228.9462</ele>
        <time>2022-09-27T13:14:53.000Z</time>
      </trkpt>
      <trkpt lat="45.85062" lon="4.68624">
        <ele>228.76965</ele>
        <time>2022-09-27T13:14:54.000Z</time>
      </trkpt>
      <trkpt lat="45.85059" lon="4.6863">
        <ele>228.60776</ele>
        <time>2022-09-27T13:14:55.000Z</time>
      </trkpt>
      <trkpt lat="45.85059" lon="4.68635">
        <ele>228.33223</ele>
        <time>2022-09-27T13:14:56.000Z</time>
      </trkpt>
      <trkpt lat="45.85056" lon="4.68639">
        <ele>228.03584</ele>
        <time>2022-09-27T13:14:57.000Z</time>
      </trkpt>
      <trkpt lat="45.85056" lon="4.68644">
        <ele>227.74057</ele>
        <time>2022-09-27T13:14:58.000Z</time>
      </trkpt>
      <trkpt lat="45.85054" lon="4.68649">
        <ele>227.41866</ele>
        <time>2022-09-27T13:14:59.000Z</time>
      </trkpt>
      <trkpt lat="45.85052" lon="4.68653">
        <ele>227.13606</ele>
        <time>2022-09-27T13:15:00.000Z</time>
      </trkpt>
      <trkpt lat="45.85052" lon="4.68655">
        <ele>226.88461</ele>
        <time>2022-09-27T13:15:01.000Z</time>
      </trkpt>
      <trkpt lat="45.8505" lon="4.68658">
        <ele>226.59119</ele>
        <time>2022-09-27T13:15:02.000Z</time>
      </trkpt>
      <trkpt lat="45.85049" lon="4.68661">
        <ele>226.29524</ele>
        <time>2022-09-27T13:15:03.000Z</time>
      </trkpt>
      <trkpt lat="45.85049" lon="4.68664">
        <ele>226.03833</ele>
        <time>2022-09-27T13:15:04.000Z</time>
      </trkpt>
      <trkpt lat="45.85048" lon="4.68668">
        <ele>225.71036</ele>
        <time>2022-09-27T13:15:05.000Z</time>
      </trkpt>
      <trkpt lat="45.85047" lon="4.68671">
        <ele>225.40303</ele>
        <time>2022-09-27T13:15:06.000Z</time>
      </trkpt>
      <trkpt lat="45.85046" lon="4.68674">
        <ele>225.21765</ele>
        <time>2022-09-27T13:15:07.000Z</time>
      </trkpt>
      <trkpt lat="45.85045" lon="4.68678">
        <ele>225.00264</ele>
        <time>2022-09-27T13:15:08.000Z</time>
      </trkpt>
      <trkpt lat="45.85043" lon="4.68682">
        <ele>224.80661</ele>
        <time>2022-09-27T13:15:09.000Z</time>
      </trkpt>
      <trkpt lat="45.85041" lon="4.68687">
        <ele>224.61919</ele>
        <time>2022-09-27T13:15:10.000Z</time>
      </trkpt>
      <trkpt lat="45.85038" lon="4.68694">
        <ele>224.43782</ele>
        <time>2022-09-27T13:15:11.000Z</time>
      </trkpt>
      <trkpt lat="45.85035" lon="4.687">
        <ele>224.18979</ele>
        <time>2022-09-27T13:15:12.000Z</time>
      </trkpt>
      <trkpt lat="45.85034" lon="4.68707">
        <ele>223.94577</ele>
        <time>2022-09-27T13:15:13.000Z</time>
      </trkpt>
      <trkpt lat="45.85031" lon="4.68715">
        <ele>223.72404</ele>
        <time>2022-09-27T13:15:14.000Z</time>
      </trkpt>
      <trkpt lat="45.85027" lon="4.68723">
        <ele>223.53384</ele>
        <time>2022-09-27T13:15:15.000Z</time>
      </trkpt>
      <trkpt lat="45.85023" lon="4.68733">
        <ele>223.39861</ele>
        <time>2022-09-27T13:15:16.000Z</time>
      </trkpt>
      <trkpt lat="45.85019" lon="4.68741">
        <ele>223.30679</ele>
        <time>2022-09-27T13:15:17.000Z</time>
      </trkpt>
      <trkpt lat="45.85016" lon="4.68748">
        <ele>223.16492</ele>
        <time>2022-09-27T13:15:18.000Z</time>
      </trkpt>
      <trkpt lat="45.85013" lon="4.68758">
        <ele>223.07588</ele>
        <time>2022-09-27T13:15:19.000Z</time>
      </trkpt>
      <trkpt lat="45.8501" lon="4.68766">
        <ele>222.94943</ele>
        <time>2022-09-27T13:15:20.000Z</time>
      </trkpt>
      <trkpt lat="45.85007" lon="4.68774">
        <ele>222.87036</ele>
        <time>2022-09-27T13:15:21.000Z</time>
      </trkpt>
      <trkpt lat="45.85003" lon="4.68781">
        <ele>222.83994</ele>
        <time>2022-09-27T13:15:22.000Z</time>
      </trkpt>
      <trkpt lat="45.84999" lon="4.68788">
        <ele>222.78874</ele>
        <time>2022-09-27T13:15:23.000Z</time>
      </trkpt>
      <trkpt lat="45.84995" lon="4.68795">
        <ele>222.64859</ele>
        <time>2022-09-27T13:15:24.000Z</time>
      </trkpt>
      <trkpt lat="45.84991" lon="4.68802">
        <ele>222.54977</ele>
        <time>2022-09-27T13:15:25.000Z</time>
      </trkpt>
      <trkpt lat="45.84986" lon="4.68808">
        <ele>222.40604</ele>
        <time>2022-09-27T13:15:26.000Z</time>
      </trkpt>
      <trkpt lat="45.84981" lon="4.68813">
        <ele>222.26982</ele>
        <time>2022-09-27T13:15:27.000Z</time>
      </trkpt>
      <trkpt lat="45.84976" lon="4.68819">
        <ele>222.17615</ele>
        <time>2022-09-27T13:15:28.000Z</time>
      </trkpt>
      <trkpt lat="45.84972" lon="4.68825">
        <ele>222.05273</ele>
        <time>2022-09-27T13:15:29.000Z</time>
      </trkpt>
      <trkpt lat="45.84966" lon="4.6883">
        <ele>221.91257</ele>
        <time>2022-09-27T13:15:30.000Z</time>
      </trkpt>
      <trkpt lat="45.84962" lon="4.68836">
        <ele>221.8024</ele>
        <time>2022-09-27T13:15:31.000Z</time>
      </trkpt>
      <trkpt lat="45.84957" lon="4.68841">
        <ele>221.81071</ele>
        <time>2022-09-27T13:15:32.000Z</time>
      </trkpt>
      <trkpt lat="45.84953" lon="4.68846">
        <ele>221.85918</ele>
        <time>2022-09-27T13:15:33.000Z</time>
      </trkpt>
      <trkpt lat="45.84948" lon="4.68851">
        <ele>221.81091</ele>
        <time>2022-09-27T13:15:34.000Z</time>
      </trkpt>
      <trkpt lat="45.84943" lon="4.68855">
        <ele>221.7106</ele>
        <time>2022-09-27T13:15:35.000Z</time>
      </trkpt>
      <trkpt lat="45.84939" lon="4.68859">
        <ele>221.65024</ele>
        <time>2022-09-27T13:15:36.000Z</time>
      </trkpt>
      <trkpt lat="45.84935" lon="4.68862">
        <ele>221.60567</ele>
        <time>2022-09-27T13:15:37.000Z</time>
      </trkpt>
      <trkpt lat="45.8493" lon="4.68866">
        <ele>221.58887</ele>
        <time>2022-09-27T13:15:38.000Z</time>
      </trkpt>
      <trkpt lat="45.84926" lon="4.68869">
        <ele>221.5712</ele>
        <time>2022-09-27T13:15:39.000Z</time>
      </trkpt>
      <trkpt lat="45.84922" lon="4.68872">
        <ele>221.54346</ele>
        <time>2022-09-27T13:15:40.000Z</time>
      </trkpt>
      <trkpt lat="45.84918" lon="4.68875">
        <ele>221.42416</ele>
        <time>2022-09-27T13:15:41.000Z</time>
      </trkpt>
      <trkpt lat="45.84914" lon="4.68877">
        <ele>221.28584</ele>
        <time>2022-09-27T13:15:42.000Z</time>
      </trkpt>
      <trkpt lat="45.84911" lon="4.68881">
        <ele>221.17932</ele>
        <time>2022-09-27T13:15:43.000Z</time>
      </trkpt>
      <trkpt lat="45.84908" lon="4.68883">
        <ele>221.1436</ele>
        <time>2022-09-27T13:15:44.000Z</time>
      </trkpt>
      <trkpt lat="45.84905" lon="4.68886">
        <ele>221.09949</ele>
        <time>2022-09-27T13:15:45.000Z</time>
      </trkpt>
      <trkpt lat="45.84902" lon="4.68889">
        <ele>221.06734</ele>
        <time>2022-09-27T13:15:46.000Z</time>
      </trkpt>
      <trkpt lat="45.849" lon="4.68893">
        <ele>220.95059</ele>
        <time>2022-09-27T13:15:47.000Z</time>
      </trkpt>
      <trkpt lat="45.84898" lon="4.68897">
        <ele>220.82048</ele>
        <time>2022-09-27T13:15:48.000Z</time>
      </trkpt>
      <trkpt lat="45.84896" lon="4.68901">
        <ele>220.77901</ele>
        <time>2022-09-27T13:15:49.000Z</time>
      </trkpt>
      <trkpt lat="45.84895" lon="4.68908">
        <ele>220.79524</ele>
        <time>2022-09-27T13:15:50.000Z</time>
      </trkpt>
      <trkpt lat="45.84894" lon="4.68913">
        <ele>220.81194</ele>
        <time>2022-09-27T13:15:51.000Z</time>
      </trkpt>
      <trkpt lat="45.84895" lon="4.68919">
        <ele>220.7532</ele>
        <time>2022-09-27T13:15:52.000Z</time>
      </trkpt>
      <trkpt lat="45.84896" lon="4.68924">
        <ele>220.67615</ele>
        <time>2022-09-27T13:15:53.000Z</time>
      </trkpt>
      <trkpt lat="45.84898" lon="4.6893">
        <ele>220.67558</ele>
        <time>2022-09-27T13:15:54.000Z</time>
      </trkpt>
      <trkpt lat="45.849" lon="4.68935">
        <ele>220.69344</ele>
        <time>2022-09-27T13:15:55.000Z</time>
      </trkpt>
      <trkpt lat="45.84903" lon="4.6894">
        <ele>220.66995</ele>
        <time>2022-09-27T13:15:56.000Z</time>
      </trkpt>
      <trkpt lat="45.84906" lon="4.68947">
        <ele>220.64352</ele>
        <time>2022-09-27T13:15:57.000Z</time>
      </trkpt>
      <trkpt lat="45.84908" lon="4.68952">
        <ele>220.66544</ele>
        <time>2022-09-27T13:15:58.000Z</time>
      </trkpt>
      <trkpt lat="45.8491" lon="4.68958">
        <ele>220.70328</ele>
        <time>2022-09-27T13:15:59.000Z</time>
      </trkpt>
      <trkpt lat="45.84912" lon="4.68964">
        <ele>220.70735</ele>
        <time>2022-09-27T13:16:00.000Z</time>
      </trkpt>
      <trkpt lat="45.84914" lon="4.6897">
        <ele>220.78482</ele>
        <time>2022-09-27T13:16:01.000Z</time>
      </trkpt>
      <trkpt lat="45.84916" lon="4.68976">
        <ele>220.91769</ele>
        <time>2022-09-27T13:16:02.000Z</time>
      </trkpt>
      <trkpt lat="45.84918" lon="4.68982">
        <ele>221.08589</ele>
        <time>2022-09-27T13:16:03.000Z</time>
      </trkpt>
      <trkpt lat="45.8492" lon="4.68987">
        <ele>221.20755</ele>
        <time>2022-09-27T13:16:04.000Z</time>
      </trkpt>
      <trkpt lat="45.84923" lon="4.68993">
        <ele>221.41104</ele>
        <time>2022-09-27T13:16:05.000Z</time>
      </trkpt>
      <trkpt lat="45.84924" lon="4.68999">
        <ele>221.601</ele>
        <time>2022-09-27T13:16:06.000Z</time>
      </trkpt>
      <trkpt lat="45.84926" lon="4.69007">
        <ele>221.88797</ele>
        <time>2022-09-27T13:16:07.000Z</time>
      </trkpt>
      <trkpt lat="45.84927" lon="4.69013">
        <ele>222.1647</ele>
        <time>2022-09-27T13:16:08.000Z</time>
      </trkpt>
      <trkpt lat="45.8493" lon="4.69018">
        <ele>222.4062</ele>
        <time>2022-09-27T13:16:09.000Z</time>
      </trkpt>
      <trkpt lat="45.84932" lon="4.69025">
        <ele>222.6337</ele>
        <time>2022-09-27T13:16:10.000Z</time>
      </trkpt>
      <trkpt lat="45.84933" lon="4.69031">
        <ele>222.81845</ele>
        <time>2022-09-27T13:16:11.000Z</time>
      </trkpt>
      <trkpt lat="45.84935" lon="4.69037">
        <ele>223.04672</ele>
        <time>2022-09-27T13:16:12.000Z</time>
      </trkpt>
      <trkpt lat="45.84937" lon="4.69043">
        <ele>223.2579</ele>
        <time>2022-09-27T13:16:13.000Z</time>
      </trkpt>
      <trkpt lat="45.84938" lon="4.69049">
        <ele>223.36032</ele>
        <time>2022-09-27T13:16:14.000Z</time>
      </trkpt>
      <trkpt lat="45.8494" lon="4.69055">
        <ele>223.4559</ele>
        <time>2022-09-27T13:16:15.000Z</time>
      </trkpt>
      <trkpt lat="45.84942" lon="4.69062">
        <ele>223.54207</ele>
        <time>2022-09-27T13:16:16.000Z</time>
      </trkpt>
      <trkpt lat="45.84944" lon="4.69069">
        <ele>223.58357</ele>
        <time>2022-09-27T13:16:17.000Z</time>
      </trkpt>
      <trkpt lat="45.84946" lon="4.69075">
        <ele>223.60648</ele>
        <time>2022-09-27T13:16:18.000Z</time>
      </trkpt>
      <trkpt lat="45.84948" lon="4.69081">
        <ele>223.6799</ele>
        <time>2022-09-27T13:16:19.000Z</time>
      </trkpt>
      <trkpt lat="45.8495" lon="4.69088">
        <ele>223.77597</ele>
        <time>2022-09-27T13:16:20.000Z</time>
      </trkpt>
      <trkpt lat="45.84952" lon="4.69095">
        <ele>223.87454</ele>
        <time>2022-09-27T13:16:21.000Z</time>
      </trkpt>
      <trkpt lat="45.84953" lon="4.69103">
        <ele>223.99808</ele>
        <time>2022-09-27T13:16:22.000Z</time>
      </trkpt>
      <trkpt lat="45.84956" lon="4.69109">
        <ele>224.11386</ele>
        <time>2022-09-27T13:16:23.000Z</time>
      </trkpt>
      <trkpt lat="45.84958" lon="4.69116">
        <ele>224.28874</ele>
        <time>2022-09-27T13:16:24.000Z</time>
      </trkpt>
      <trkpt lat="45.84959" lon="4.69123">
        <ele>224.42107</ele>
        <time>2022-09-27T13:16:25.000Z</time>
      </trkpt>
      <trkpt lat="45.84961" lon="4.69129">
        <ele>224.59415</ele>
        <time>2022-09-27T13:16:26.000Z</time>
      </trkpt>
      <trkpt lat="45.84964" lon="4.69136">
        <ele>224.70988</ele>
        <time>2022-09-27T13:16:27.000Z</time>
      </trkpt>
      <trkpt lat="45.84966" lon="4.69143">
        <ele>224.8772</ele>
        <time>2022-09-27T13:16:28.000Z</time>
      </trkpt>
      <trkpt lat="45.8497" lon="4.69149">
        <ele>225.08215</ele>
        <time>2022-09-27T13:16:29.000Z</time>
      </trkpt>
      <trkpt lat="45.84972" lon="4.69156">
        <ele>225.1927</ele>
        <time>2022-09-27T13:16:30.000Z</time>
      </trkpt>
      <trkpt lat="45.84974" lon="4.69164">
        <ele>225.33435</ele>
        <time>2022-09-27T13:16:31.000Z</time>
      </trkpt>
      <trkpt lat="45.84977" lon="4.69171">
        <ele>225.41324</ele>
        <time>2022-09-27T13:16:32.000Z</time>
      </trkpt>
      <trkpt lat="45.8498" lon="4.69178">
        <ele>225.53386</ele>
        <time>2022-09-27T13:16:33.000Z</time>
      </trkpt>
      <trkpt lat="45.84982" lon="4.69185">
        <ele>225.77571</ele>
        <time>2022-09-27T13:16:34.000Z</time>
      </trkpt>
      <trkpt lat="45.84984" lon="4.69194">
        <ele>226.09734</ele>
        <time>2022-09-27T13:16:35.000Z</time>
      </trkpt>
      <trkpt lat="45.84985" lon="4.69202">
        <ele>226.41299</ele>
        <time>2022-09-27T13:16:36.000Z</time>
      </trkpt>
      <trkpt lat="45.8499" lon="4.69208">
        <ele>226.69217</ele>
        <time>2022-09-27T13:16:37.000Z</time>
      </trkpt>
      <trkpt lat="45.84992" lon="4.69216">
        <ele>226.94897</ele>
        <time>2022-09-27T13:16:38.000Z</time>
      </trkpt>
      <trkpt lat="45.84993" lon="4.69224">
        <ele>227.11166</ele>
        <time>2022-09-27T13:16:39.000Z</time>
      </trkpt>
      <trkpt lat="45.84995" lon="4.69231">
        <ele>227.32906</ele>
        <time>2022-09-27T13:16:40.000Z</time>
      </trkpt>
      <trkpt lat="45.84997" lon="4.69239">
        <ele>227.4744</ele>
        <time>2022-09-27T13:16:41.000Z</time>
      </trkpt>
      <trkpt lat="45.84999" lon="4.69248">
        <ele>227.57803</ele>
        <time>2022-09-27T13:16:42.000Z</time>
      </trkpt>
      <trkpt lat="45.85001" lon="4.69255">
        <ele>227.70471</ele>
        <time>2022-09-27T13:16:43.000Z</time>
      </trkpt>
      <trkpt lat="45.85002" lon="4.69262">
        <ele>227.78329</ele>
        <time>2022-09-27T13:16:44.000Z</time>
      </trkpt>
      <trkpt lat="45.85002" lon="4.69268">
        <ele>227.86685</ele>
        <time>2022-09-27T13:16:45.000Z</time>
      </trkpt>
      <trkpt lat="45.85004" lon="4.69276">
        <ele>228.04105</ele>
        <time>2022-09-27T13:16:46.000Z</time>
      </trkpt>
      <trkpt lat="45.85004" lon="4.69284">
        <ele>228.31104</ele>
        <time>2022-09-27T13:16:47.000Z</time>
      </trkpt>
      <trkpt lat="45.85005" lon="4.69292">
        <ele>228.54875</ele>
        <time>2022-09-27T13:16:48.000Z</time>
      </trkpt>
      <trkpt lat="45.85006" lon="4.693">
        <ele>228.88254</ele>
        <time>2022-09-27T13:16:49.000Z</time>
      </trkpt>
      <trkpt lat="45.85006" lon="4.69308">
        <ele>229.27881</ele>
        <time>2022-09-27T13:16:50.000Z</time>
      </trkpt>
      <trkpt lat="45.85006" lon="4.69316">
        <ele>229.77888</ele>
        <time>2022-09-27T13:16:51.000Z</time>
      </trkpt>
      <trkpt lat="45.85006" lon="4.69322">
        <ele>230.31714</ele>
        <time>2022-09-27T13:16:52.000Z</time>
      </trkpt>
      <trkpt lat="45.85005" lon="4.69329">
        <ele>230.86166</ele>
        <time>2022-09-27T13:16:53.000Z</time>
      </trkpt>
      <trkpt lat="45.85004" lon="4.69335">
        <ele>231.32019</ele>
        <time>2022-09-27T13:16:54.000Z</time>
      </trkpt>
      <trkpt lat="45.85004" lon="4.69341">
        <ele>231.80432</ele>
        <time>2022-09-27T13:16:55.000Z</time>
      </trkpt>
      <trkpt lat="45.85003" lon="4.69348">
        <ele>232.356</ele>
        <time>2022-09-27T13:16:56.000Z</time>
      </trkpt>
      <trkpt lat="45.85001" lon="4.69355">
        <ele>232.97714</ele>
        <time>2022-09-27T13:16:57.000Z</time>
      </trkpt>
      <trkpt lat="45.85" lon="4.69361">
        <ele>233.56511</ele>
        <time>2022-09-27T13:16:58.000Z</time>
      </trkpt>
      <trkpt lat="45.84999" lon="4.69366">
        <ele>234.09941</ele>
        <time>2022-09-27T13:16:59.000Z</time>
      </trkpt>
      <trkpt lat="45.84998" lon="4.6937">
        <ele>234.41165</ele>
        <time>2022-09-27T13:17:00.000Z</time>
      </trkpt>
      <trkpt lat="45.84996" lon="4.69375">
        <ele>234.76627</ele>
        <time>2022-09-27T13:17:01.000Z</time>
      </trkpt>
      <trkpt lat="45.84995" lon="4.69383">
        <ele>235.10442</ele>
        <time>2022-09-27T13:17:02.000Z</time>
      </trkpt>
      <trkpt lat="45.84992" lon="4.69388">
        <ele>235.40955</ele>
        <time>2022-09-27T13:17:03.000Z</time>
      </trkpt>
      <trkpt lat="45.84991" lon="4.69393">
        <ele>235.76804</ele>
        <time>2022-09-27T13:17:04.000Z</time>
      </trkpt>
      <trkpt lat="45.8499" lon="4.69397">
        <ele>236.16826</ele>
        <time>2022-09-27T13:17:05.000Z</time>
      </trkpt>
      <trkpt lat="45.84989" lon="4.694">
        <ele>236.47775</ele>
        <time>2022-09-27T13:17:06.000Z</time>
      </trkpt>
      <trkpt lat="45.84988" lon="4.69404">
        <ele>236.69031</ele>
        <time>2022-09-27T13:17:07.000Z</time>
      </trkpt>
      <trkpt lat="45.84985" lon="4.6941">
        <ele>236.89224</ele>
        <time>2022-09-27T13:17:08.000Z</time>
      </trkpt>
      <trkpt lat="45.84983" lon="4.69415">
        <ele>236.87553</ele>
        <time>2022-09-27T13:17:09.000Z</time>
      </trkpt>
      <trkpt lat="45.8498" lon="4.69421">
        <ele>236.90852</ele>
        <time>2022-09-27T13:17:10.000Z</time>
      </trkpt>
      <trkpt lat="45.84978" lon="4.69426">
        <ele>236.67361</ele>
        <time>2022-09-27T13:17:11.000Z</time>
      </trkpt>
      <trkpt lat="45.84976" lon="4.69431">
        <ele>236.48059</ele>
        <time>2022-09-27T13:17:12.000Z</time>
      </trkpt>
      <trkpt lat="45.84973" lon="4.69436">
        <ele>236.27266</ele>
        <time>2022-09-27T13:17:13.000Z</time>
      </trkpt>
      <trkpt lat="45.84971" lon="4.69441">
        <ele>236.14194</ele>
        <time>2022-09-27T13:17:14.000Z</time>
      </trkpt>
      <trkpt lat="45.84968" lon="4.69446">
        <ele>235.94565</ele>
        <time>2022-09-27T13:17:15.000Z</time>
      </trkpt>
      <trkpt lat="45.84966" lon="4.69451">
        <ele>235.67676</ele>
        <time>2022-09-27T13:17:16.000Z</time>
      </trkpt>
      <trkpt lat="45.84963" lon="4.69457">
        <ele>235.4321</ele>
        <time>2022-09-27T13:17:17.000Z</time>
      </trkpt>
      <trkpt lat="45.84961" lon="4.69462">
        <ele>235.24336</ele>
        <time>2022-09-27T13:17:18.000Z</time>
      </trkpt>
      <trkpt lat="45.84958" lon="4.69468">
        <ele>235.12875</ele>
        <time>2022-09-27T13:17:19.000Z</time>
      </trkpt>
      <trkpt lat="45.84956" lon="4.69473">
        <ele>235.22163</ele>
        <time>2022-09-27T13:17:20.000Z</time>
      </trkpt>
      <trkpt lat="45.84953" lon="4.69479">
        <ele>235.23068</ele>
        <time>2022-09-27T13:17:21.000Z</time>
      </trkpt>
      <trkpt lat="45.84951" lon="4.69485">
        <ele>235.27632</ele>
        <time>2022-09-27T13:17:22.000Z</time>
      </trkpt>
      <trkpt lat="45.8495" lon="4.69491">
        <ele>235.25374</ele>
        <time>2022-09-27T13:17:23.000Z</time>
      </trkpt>
      <trkpt lat="45.84946" lon="4.69498">
        <ele>235.20647</ele>
        <time>2022-09-27T13:17:24.000Z</time>
      </trkpt>
      <trkpt lat="45.84943" lon="4.69503">
        <ele>235.08257</ele>
        <time>2022-09-27T13:17:25.000Z</time>
      </trkpt>
      <trkpt lat="45.84939" lon="4.69509">
        <ele>234.90488</ele>
        <time>2022-09-27T13:17:26.000Z</time>
      </trkpt>
      <trkpt lat="45.84936" lon="4.69513">
        <ele>234.69121</ele>
        <time>2022-09-27T13:17:27.000Z</time>
      </trkpt>
      <trkpt lat="45.84934" lon="4.69518">
        <ele>234.48181</ele>
        <time>2022-09-27T13:17:28.000Z</time>
      </trkpt>
      <trkpt lat="45.84933" lon="4.69522">
        <ele>234.36502</ele>
        <time>2022-09-27T13:17:29.000Z</time>
      </trkpt>
      <trkpt lat="45.84929" lon="4.69527">
        <ele>234.2282</ele>
        <time>2022-09-27T13:17:30.000Z</time>
      </trkpt>
      <trkpt lat="45.84925" lon="4.69532">
        <ele>234.23555</ele>
        <time>2022-09-27T13:17:31.000Z</time>
      </trkpt>
      <trkpt lat="45.84921" lon="4.69538">
        <ele>234.16061</ele>
        <time>2022-09-27T13:17:32.000Z</time>
      </trkpt>
      <trkpt lat="45.84918" lon="4.69543">
        <ele>234.09367</ele>
        <time>2022-09-27T13:17:33.000Z</time>
      </trkpt>
      <trkpt lat="45.84915" lon="4.69548">
        <ele>234.05278</ele>
        <time>2022-09-27T13:17:34.000Z</time>
      </trkpt>
      <trkpt lat="45.8491" lon="4.69554">
        <ele>233.99838</ele>
        <time>2022-09-27T13:17:35.000Z</time>
      </trkpt>
      <trkpt lat="45.84905" lon="4.6956">
        <ele>233.98355</ele>
        <time>2022-09-27T13:17:36.000Z</time>
      </trkpt>
      <trkpt lat="45.84901" lon="4.69565">
        <ele>233.95419</ele>
        <time>2022-09-27T13:17:37.000Z</time>
      </trkpt>
      <trkpt lat="45.84898" lon="4.69568">
        <ele>233.86401</ele>
        <time>2022-09-27T13:17:38.000Z</time>
      </trkpt>
      <trkpt lat="45.84894" lon="4.6957">
        <ele>233.80363</ele>
        <time>2022-09-27T13:17:39.000Z</time>
      </trkpt>
      <trkpt lat="45.84889" lon="4.69574">
        <ele>233.71741</ele>
        <time>2022-09-27T13:17:40.000Z</time>
      </trkpt>
      <trkpt lat="45.84881" lon="4.69579">
        <ele>233.77763</ele>
        <time>2022-09-27T13:17:41.000Z</time>
      </trkpt>
      <trkpt lat="45.84878" lon="4.69583">
        <ele>233.79297</ele>
        <time>2022-09-27T13:17:42.000Z</time>
      </trkpt>
      <trkpt lat="45.84873" lon="4.69589">
        <ele>233.88892</ele>
        <time>2022-09-27T13:17:43.000Z</time>
      </trkpt>
      <trkpt lat="45.84869" lon="4.69593">
        <ele>234.01775</ele>
        <time>2022-09-27T13:17:44.000Z</time>
      </trkpt>
      <trkpt lat="45.84865" lon="4.69596">
        <ele>234.19394</ele>
        <time>2022-09-27T13:17:45.000Z</time>
      </trkpt>
      <trkpt lat="45.84862" lon="4.69597">
        <ele>234.44168</ele>
        <time>2022-09-27T13:17:46.000Z</time>
      </trkpt>
      <trkpt lat="45.84855" lon="4.69601">
        <ele>234.62964</ele>
        <time>2022-09-27T13:17:47.000Z</time>
      </trkpt>
      <trkpt lat="45.8485" lon="4.69601">
        <ele>234.78752</ele>
        <time>2022-09-27T13:17:48.000Z</time>
      </trkpt>
      <trkpt lat="45.84848" lon="4.69605">
        <ele>234.97275</ele>
        <time>2022-09-27T13:17:49.000Z</time>
      </trkpt>
      <trkpt lat="45.84843" lon="4.69606">
        <ele>235.15027</ele>
        <time>2022-09-27T13:17:50.000Z</time>
      </trkpt>
      <trkpt lat="45.84838" lon="4.69608">
        <ele>235.3595</ele>
        <time>2022-09-27T13:17:51.000Z</time>
      </trkpt>
      <trkpt lat="45.84833" lon="4.69609">
        <ele>235.56963</ele>
        <time>2022-09-27T13:17:52.000Z</time>
      </trkpt>
      <trkpt lat="45.84827" lon="4.69609">
        <ele>235.74838</ele>
        <time>2022-09-27T13:17:53.000Z</time>
      </trkpt>
      <trkpt lat="45.84822" lon="4.6961">
        <ele>235.90005</ele>
        <time>2022-09-27T13:17:54.000Z</time>
      </trkpt>
      <trkpt lat="45.84816" lon="4.6961">
        <ele>236.01059</ele>
        <time>2022-09-27T13:17:55.000Z</time>
      </trkpt>
      <trkpt lat="45.84812" lon="4.69611">
        <ele>236.11617</ele>
        <time>2022-09-27T13:17:56.000Z</time>
      </trkpt>
      <trkpt lat="45.84808" lon="4.69612">
        <ele>236.20239</ele>
        <time>2022-09-27T13:17:57.000Z</time>
      </trkpt>
      <trkpt lat="45.84803" lon="4.69612">
        <ele>236.35445</ele>
        <time>2022-09-27T13:17:58.000Z</time>
      </trkpt>
      <trkpt lat="45.84798" lon="4.69612">
        <ele>236.48506</ele>
        <time>2022-09-27T13:17:59.000Z</time>
      </trkpt>
      <trkpt lat="45.84793" lon="4.69615">
        <ele>236.57175</ele>
        <time>2022-09-27T13:18:00.000Z</time>
      </trkpt>
      <trkpt lat="45.84789" lon="4.69618">
        <ele>236.67908</ele>
        <time>2022-09-27T13:18:01.000Z</time>
      </trkpt>
      <trkpt lat="45.84785" lon="4.6962">
        <ele>236.86926</ele>
        <time>2022-09-27T13:18:02.000Z</time>
      </trkpt>
      <trkpt lat="45.84781" lon="4.69624">
        <ele>237.07344</ele>
        <time>2022-09-27T13:18:03.000Z</time>
      </trkpt>
      <trkpt lat="45.84776" lon="4.69629">
        <ele>237.0938</ele>
        <time>2022-09-27T13:18:04.000Z</time>
      </trkpt>
      <trkpt lat="45.84773" lon="4.69633">
        <ele>237.12427</ele>
        <time>2022-09-27T13:18:05.000Z</time>
      </trkpt>
      <trkpt lat="45.84771" lon="4.69638">
        <ele>237.1368</ele>
        <time>2022-09-27T13:18:06.000Z</time>
      </trkpt>
      <trkpt lat="45.84767" lon="4.69644">
        <ele>237.22263</ele>
        <time>2022-09-27T13:18:07.000Z</time>
      </trkpt>
      <trkpt lat="45.84765" lon="4.69651">
        <ele>237.30173</ele>
        <time>2022-09-27T13:18:08.000Z</time>
      </trkpt>
      <trkpt lat="45.84762" lon="4.69657">
        <ele>237.32239</ele>
        <time>2022-09-27T13:18:09.000Z</time>
      </trkpt>
      <trkpt lat="45.8476" lon="4.69662">
        <ele>237.32307</ele>
        <time>2022-09-27T13:18:10.000Z</time>
      </trkpt>
      <trkpt lat="45.84758" lon="4.69669">
        <ele>237.27567</ele>
        <time>2022-09-27T13:18:11.000Z</time>
      </trkpt>
      <trkpt lat="45.84757" lon="4.69675">
        <ele>237.15508</ele>
        <time>2022-09-27T13:18:12.000Z</time>
      </trkpt>
      <trkpt lat="45.84756" lon="4.6968">
        <ele>237.05583</ele>
        <time>2022-09-27T13:18:13.000Z</time>
      </trkpt>
      <trkpt lat="45.84756" lon="4.69686">
        <ele>237.01782</ele>
        <time>2022-09-27T13:18:14.000Z</time>
      </trkpt>
      <trkpt lat="45.84753" lon="4.69691">
        <ele>237.01888</ele>
        <time>2022-09-27T13:18:15.000Z</time>
      </trkpt>
      <trkpt lat="45.84753" lon="4.69696">
        <ele>237.00134</ele>
        <time>2022-09-27T13:18:16.000Z</time>
      </trkpt>
      <trkpt lat="45.84751" lon="4.69701">
        <ele>236.9847</ele>
        <time>2022-09-27T13:18:17.000Z</time>
      </trkpt>
      <trkpt lat="45.84749" lon="4.69706">
        <ele>236.98306</ele>
        <time>2022-09-27T13:18:18.000Z</time>
      </trkpt>
      <trkpt lat="45.84746" lon="4.69712">
        <ele>236.99301</ele>
        <time>2022-09-27T13:18:19.000Z</time>
      </trkpt>
      <trkpt lat="45.84743" lon="4.69718">
        <ele>237.04895</ele>
        <time>2022-09-27T13:18:20.000Z</time>
      </trkpt>
      <trkpt lat="45.84741" lon="4.69721">
        <ele>237.04155</ele>
        <time>2022-09-27T13:18:21.000Z</time>
      </trkpt>
      <trkpt lat="45.84739" lon="4.69726">
        <ele>236.98544</ele>
        <time>2022-09-27T13:18:22.000Z</time>
      </trkpt>
      <trkpt lat="45.84736" lon="4.69729">
        <ele>236.91487</ele>
        <time>2022-09-27T13:18:23.000Z</time>
      </trkpt>
      <trkpt lat="45.84733" lon="4.69731">
        <ele>237.06311</ele>
        <time>2022-09-27T13:18:24.000Z</time>
      </trkpt>
      <trkpt lat="45.8473" lon="4.69735">
        <ele>237.16922</ele>
        <time>2022-09-27T13:18:25.000Z</time>
      </trkpt>
      <trkpt lat="45.84728" lon="4.69738">
        <ele>237.06216</ele>
        <time>2022-09-27T13:18:26.000Z</time>
      </trkpt>
      <trkpt lat="45.84726" lon="4.6974">
        <ele>236.88962</ele>
        <time>2022-09-27T13:18:27.000Z</time>
      </trkpt>
      <trkpt lat="45.84722" lon="4.69742">
        <ele>236.71887</ele>
        <time>2022-09-27T13:18:28.000Z</time>
      </trkpt>
      <trkpt lat="45.84718" lon="4.69744">
        <ele>236.64597</ele>
        <time>2022-09-27T13:18:29.000Z</time>
      </trkpt>
      <trkpt lat="45.84715" lon="4.69743">
        <ele>236.58347</ele>
        <time>2022-09-27T13:18:30.000Z</time>
      </trkpt>
      <trkpt lat="45.84711" lon="4.69744">
        <ele>236.54749</ele>
        <time>2022-09-27T13:18:31.000Z</time>
      </trkpt>
      <trkpt lat="45.84707" lon="4.69745">
        <ele>236.53403</ele>
        <time>2022-09-27T13:18:32.000Z</time>
      </trkpt>
      <trkpt lat="45.84703" lon="4.69745">
        <ele>236.55038</ele>
        <time>2022-09-27T13:18:33.000Z</time>
      </trkpt>
      <trkpt lat="45.84698" lon="4.69746">
        <ele>236.47351</ele>
        <time>2022-09-27T13:18:34.000Z</time>
      </trkpt>
      <trkpt lat="45.84694" lon="4.69746">
        <ele>236.41557</ele>
        <time>2022-09-27T13:18:35.000Z</time>
      </trkpt>
      <trkpt lat="45.8469" lon="4.69746">
        <ele>236.31754</ele>
        <time>2022-09-27T13:18:36.000Z</time>
      </trkpt>
      <trkpt lat="45.84686" lon="4.69746">
        <ele>236.17505</ele>
        <time>2022-09-27T13:18:37.000Z</time>
      </trkpt>
      <trkpt lat="45.84682" lon="4.69746">
        <ele>236.03841</ele>
        <time>2022-09-27T13:18:38.000Z</time>
      </trkpt>
      <trkpt lat="45.84678" lon="4.69745">
        <ele>235.82422</ele>
        <time>2022-09-27T13:18:39.000Z</time>
      </trkpt>
      <trkpt lat="45.84674" lon="4.69745">
        <ele>235.59184</ele>
        <time>2022-09-27T13:18:40.000Z</time>
      </trkpt>
      <trkpt lat="45.84671" lon="4.69744">
        <ele>235.36092</ele>
        <time>2022-09-27T13:18:41.000Z</time>
      </trkpt>
      <trkpt lat="45.84667" lon="4.69744">
        <ele>235.12749</ele>
        <time>2022-09-27T13:18:42.000Z</time>
      </trkpt>
      <trkpt lat="45.84662" lon="4.69743">
        <ele>234.87798</ele>
        <time>2022-09-27T13:18:43.000Z</time>
      </trkpt>
      <trkpt lat="45.84658" lon="4.69743">
        <ele>234.56413</ele>
        <time>2022-09-27T13:18:44.000Z</time>
      </trkpt>
      <trkpt lat="45.84654" lon="4.69743">
        <ele>234.25703</ele>
        <time>2022-09-27T13:18:45.000Z</time>
      </trkpt>
      <trkpt lat="45.8465" lon="4.69743">
        <ele>234.14766</ele>
        <time>2022-09-27T13:18:46.000Z</time>
      </trkpt>
      <trkpt lat="45.84646" lon="4.69743">
        <ele>234.12993</ele>
        <time>2022-09-27T13:18:47.000Z</time>
      </trkpt>
      <trkpt lat="45.84642" lon="4.69743">
        <ele>234.15186</ele>
        <time>2022-09-27T13:18:48.000Z</time>
      </trkpt>
      <trkpt lat="45.84637" lon="4.69743">
        <ele>234.00949</ele>
        <time>2022-09-27T13:18:49.000Z</time>
      </trkpt>
      <trkpt lat="45.84632" lon="4.69743">
        <ele>233.88098</ele>
        <time>2022-09-27T13:18:50.000Z</time>
      </trkpt>
      <trkpt lat="45.84628" lon="4.69744">
        <ele>233.80176</ele>
        <time>2022-09-27T13:18:51.000Z</time>
      </trkpt>
      <trkpt lat="45.84624" lon="4.69744">
        <ele>233.78073</ele>
        <time>2022-09-27T13:18:52.000Z</time>
      </trkpt>
      <trkpt lat="45.8462" lon="4.69744">
        <ele>233.73808</ele>
        <time>2022-09-27T13:18:53.000Z</time>
      </trkpt>
      <trkpt lat="45.84616" lon="4.69745">
        <ele>233.74271</ele>
        <time>2022-09-27T13:18:54.000Z</time>
      </trkpt>
      <trkpt lat="45.84611" lon="4.69745">
        <ele>233.78203</ele>
        <time>2022-09-27T13:18:55.000Z</time>
      </trkpt>
      <trkpt lat="45.84607" lon="4.69746">
        <ele>233.85361</ele>
        <time>2022-09-27T13:18:56.000Z</time>
      </trkpt>
      <trkpt lat="45.84603" lon="4.69747">
        <ele>234.08163</ele>
        <time>2022-09-27T13:18:57.000Z</time>
      </trkpt>
      <trkpt lat="45.846" lon="4.69748">
        <ele>234.28316</ele>
        <time>2022-09-27T13:18:58.000Z</time>
      </trkpt>
      <trkpt lat="45.84596" lon="4.69748">
        <ele>234.52303</ele>
        <time>2022-09-27T13:18:59.000Z</time>
      </trkpt>
      <trkpt lat="45.84591" lon="4.69749">
        <ele>234.80228</ele>
        <time>2022-09-27T13:19:00.000Z</time>
      </trkpt>
      <trkpt lat="45.84587" lon="4.6975">
        <ele>234.88933</ele>
        <time>2022-09-27T13:19:01.000Z</time>
      </trkpt>
      <trkpt lat="45.84582" lon="4.6975">
        <ele>235.01086</ele>
        <time>2022-09-27T13:19:02.000Z</time>
      </trkpt>
      <trkpt lat="45.84574" lon="4.69748">
        <ele>235.10974</ele>
        <time>2022-09-27T13:19:03.000Z</time>
      </trkpt>
      <trkpt lat="45.84568" lon="4.6975">
        <ele>235.23416</ele>
        <time>2022-09-27T13:19:04.000Z</time>
      </trkpt>
      <trkpt lat="45.84562" lon="4.6975">
        <ele>235.35629</ele>
        <time>2022-09-27T13:19:05.000Z</time>
      </trkpt>
      <trkpt lat="45.84558" lon="4.69751">
        <ele>235.49075</ele>
        <time>2022-09-27T13:19:06.000Z</time>
      </trkpt>
      <trkpt lat="45.84555" lon="4.69751">
        <ele>235.66704</ele>
        <time>2022-09-27T13:19:07.000Z</time>
      </trkpt>
      <trkpt lat="45.84548" lon="4.69752">
        <ele>235.87161</ele>
        <time>2022-09-27T13:19:08.000Z</time>
      </trkpt>
      <trkpt lat="45.84544" lon="4.6975">
        <ele>236.1713</ele>
        <time>2022-09-27T13:19:09.000Z</time>
      </trkpt>
      <trkpt lat="45.84538" lon="4.69748">
        <ele>236.34871</ele>
        <time>2022-09-27T13:19:10.000Z</time>
      </trkpt>
      <trkpt lat="45.84533" lon="4.69749">
        <ele>236.5701</ele>
        <time>2022-09-27T13:19:11.000Z</time>
      </trkpt>
      <trkpt lat="45.84527" lon="4.69749">
        <ele>236.89192</ele>
        <time>2022-09-27T13:19:12.000Z</time>
      </trkpt>
      <trkpt lat="45.8452" lon="4.69751">
        <ele>237.30478</ele>
        <time>2022-09-27T13:19:13.000Z</time>
      </trkpt>
      <trkpt lat="45.84514" lon="4.69751">
        <ele>237.7139</ele>
        <time>2022-09-27T13:19:14.000Z</time>
      </trkpt>
      <trkpt lat="45.84509" lon="4.69751">
        <ele>238.15913</ele>
        <time>2022-09-27T13:19:15.000Z</time>
      </trkpt>
      <trkpt lat="45.84501" lon="4.69752">
        <ele>238.6637</ele>
        <time>2022-09-27T13:19:16.000Z</time>
      </trkpt>
      <trkpt lat="45.84496" lon="4.69755">
        <ele>239.16623</ele>
        <time>2022-09-27T13:19:17.000Z</time>
      </trkpt>
      <trkpt lat="45.84492" lon="4.69755">
        <ele>239.67136</ele>
        <time>2022-09-27T13:19:18.000Z</time>
      </trkpt>
      <trkpt lat="45.84486" lon="4.69755">
        <ele>240.14474</ele>
        <time>2022-09-27T13:19:19.000Z</time>
      </trkpt>
      <trkpt lat="45.84482" lon="4.69756">
        <ele>240.61101</ele>
        <time>2022-09-27T13:19:20.000Z</time>
      </trkpt>
      <trkpt lat="45.84476" lon="4.69757">
        <ele>241.27446</ele>
        <time>2022-09-27T13:19:21.000Z</time>
      </trkpt>
      <trkpt lat="45.8447" lon="4.69758">
        <ele>241.88083</ele>
        <time>2022-09-27T13:19:22.000Z</time>
      </trkpt>
      <trkpt lat="45.84466" lon="4.6976">
        <ele>242.543</ele>
        <time>2022-09-27T13:19:23.000Z</time>
      </trkpt>
      <trkpt lat="45.8446" lon="4.69759">
        <ele>243.07736</ele>
        <time>2022-09-27T13:19:24.000Z</time>
      </trkpt>
      <trkpt lat="45.84456" lon="4.69759">
        <ele>243.74277</ele>
        <time>2022-09-27T13:19:25.000Z</time>
      </trkpt>
      <trkpt lat="45.84452" lon="4.6976">
        <ele>244.39804</ele>
        <time>2022-09-27T13:19:26.000Z</time>
      </trkpt>
      <trkpt lat="45.84446" lon="4.69761">
        <ele>245.03484</ele>
        <time>2022-09-27T13:19:27.000Z</time>
      </trkpt>
      <trkpt lat="45.84441" lon="4.69762">
        <ele>245.59631</ele>
        <time>2022-09-27T13:19:28.000Z</time>
      </trkpt>
      <trkpt lat="45.84436" lon="4.69762">
        <ele>246.13254</ele>
        <time>2022-09-27T13:19:29.000Z</time>
      </trkpt>
      <trkpt lat="45.84431" lon="4.69763">
        <ele>246.73926</ele>
        <time>2022-09-27T13:19:30.000Z</time>
      </trkpt>
      <trkpt lat="45.84427" lon="4.69764">
        <ele>247.25919</ele>
        <time>2022-09-27T13:19:31.000Z</time>
      </trkpt>
      <trkpt lat="45.84422" lon="4.69765">
        <ele>247.65988</ele>
        <time>2022-09-27T13:19:32.000Z</time>
      </trkpt>
      <trkpt lat="45.84414" lon="4.69765">
        <ele>247.97209</ele>
        <time>2022-09-27T13:19:33.000Z</time>
      </trkpt>
      <trkpt lat="45.84412" lon="4.69764">
        <ele>248.15654</ele>
        <time>2022-09-27T13:19:34.000Z</time>
      </trkpt>
      <trkpt lat="45.84408" lon="4.69767">
        <ele>248.30266</ele>
        <time>2022-09-27T13:19:35.000Z</time>
      </trkpt>
      <trkpt lat="45.84401" lon="4.69771">
        <ele>248.58044</ele>
        <time>2022-09-27T13:19:36.000Z</time>
      </trkpt>
      <trkpt lat="45.84396" lon="4.69775">
        <ele>248.78491</ele>
        <time>2022-09-27T13:19:37.000Z</time>
      </trkpt>
      <trkpt lat="45.8439" lon="4.69779">
        <ele>248.95178</ele>
        <time>2022-09-27T13:19:38.000Z</time>
      </trkpt>
      <trkpt lat="45.84384" lon="4.69783">
        <ele>249.15767</ele>
        <time>2022-09-27T13:19:39.000Z</time>
      </trkpt>
      <trkpt lat="45.84377" lon="4.69788">
        <ele>249.32117</ele>
        <time>2022-09-27T13:19:40.000Z</time>
      </trkpt>
      <trkpt lat="45.84371" lon="4.69792">
        <ele>249.49138</ele>
        <time>2022-09-27T13:19:41.000Z</time>
      </trkpt>
      <trkpt lat="45.84368" lon="4.69795">
        <ele>249.62654</ele>
        <time>2022-09-27T13:19:42.000Z</time>
      </trkpt>
      <trkpt lat="45.84363" lon="4.69798">
        <ele>249.75464</ele>
        <time>2022-09-27T13:19:43.000Z</time>
      </trkpt>
      <trkpt lat="45.84359" lon="4.69803">
        <ele>249.94377</ele>
        <time>2022-09-27T13:19:44.000Z</time>
      </trkpt>
      <trkpt lat="45.84354" lon="4.69806">
        <ele>250.03227</ele>
        <time>2022-09-27T13:19:45.000Z</time>
      </trkpt>
      <trkpt lat="45.84351" lon="4.69811">
        <ele>250.1541</ele>
        <time>2022-09-27T13:19:46.000Z</time>
      </trkpt>
      <trkpt lat="45.84349" lon="4.69813">
        <ele>250.27563</ele>
        <time>2022-09-27T13:19:47.000Z</time>
      </trkpt>
      <trkpt lat="45.84345" lon="4.69817">
        <ele>250.37024</ele>
        <time>2022-09-27T13:19:48.000Z</time>
      </trkpt>
      <trkpt lat="45.84341" lon="4.6982">
        <ele>250.5323</ele>
        <time>2022-09-27T13:19:49.000Z</time>
      </trkpt>
      <trkpt lat="45.84335" lon="4.69822">
        <ele>250.76192</ele>
        <time>2022-09-27T13:19:50.000Z</time>
      </trkpt>
      <trkpt lat="45.84331" lon="4.69824">
        <ele>251.07654</ele>
        <time>2022-09-27T13:19:51.000Z</time>
      </trkpt>
      <trkpt lat="45.84324" lon="4.69825">
        <ele>251.46635</ele>
        <time>2022-09-27T13:19:52.000Z</time>
      </trkpt>
      <trkpt lat="45.84318" lon="4.69823">
        <ele>251.84148</ele>
        <time>2022-09-27T13:19:53.000Z</time>
      </trkpt>
      <trkpt lat="45.84311" lon="4.69823">
        <ele>252.21321</ele>
        <time>2022-09-27T13:19:54.000Z</time>
      </trkpt>
      <trkpt lat="45.84306" lon="4.69821">
        <ele>252.48865</ele>
        <time>2022-09-27T13:19:55.000Z</time>
      </trkpt>
      <trkpt lat="45.843" lon="4.69817">
        <ele>252.50188</ele>
        <time>2022-09-27T13:19:56.000Z</time>
      </trkpt>
      <trkpt lat="45.84294" lon="4.69813">
        <ele>252.48691</ele>
        <time>2022-09-27T13:19:57.000Z</time>
      </trkpt>
      <trkpt lat="45.84289" lon="4.6981">
        <ele>252.46765</ele>
        <time>2022-09-27T13:19:58.000Z</time>
      </trkpt>
      <trkpt lat="45.84284" lon="4.69807">
        <ele>252.48129</ele>
        <time>2022-09-27T13:19:59.000Z</time>
      </trkpt>
      <trkpt lat="45.84279" lon="4.69803">
        <ele>252.52405</ele>
        <time>2022-09-27T13:20:00.000Z</time>
      </trkpt>
      <trkpt lat="45.84275" lon="4.69801">
        <ele>252.44363</ele>
        <time>2022-09-27T13:20:01.000Z</time>
      </trkpt>
      <trkpt lat="45.8427" lon="4.69798">
        <ele>252.41695</ele>
        <time>2022-09-27T13:20:02.000Z</time>
      </trkpt>
      <trkpt lat="45.84264" lon="4.69799">
        <ele>252.45403</ele>
        <time>2022-09-27T13:20:03.000Z</time>
      </trkpt>
      <trkpt lat="45.8426" lon="4.69801">
        <ele>252.51767</ele>
        <time>2022-09-27T13:20:04.000Z</time>
      </trkpt>
      <trkpt lat="45.84254" lon="4.69804">
        <ele>252.60538</ele>
        <time>2022-09-27T13:20:05.000Z</time>
      </trkpt>
      <trkpt lat="45.84248" lon="4.69808">
        <ele>252.66821</ele>
        <time>2022-09-27T13:20:06.000Z</time>
      </trkpt>
      <trkpt lat="45.84246" lon="4.69813">
        <ele>252.71753</ele>
        <time>2022-09-27T13:20:07.000Z</time>
      </trkpt>
      <trkpt lat="45.84241" lon="4.6982">
        <ele>252.83777</ele>
        <time>2022-09-27T13:20:08.000Z</time>
      </trkpt>
      <trkpt lat="45.84237" lon="4.69828">
        <ele>252.9736</ele>
        <time>2022-09-27T13:20:09.000Z</time>
      </trkpt>
      <trkpt lat="45.84235" lon="4.69833">
        <ele>253.05579</ele>
        <time>2022-09-27T13:20:10.000Z</time>
      </trkpt>
      <trkpt lat="45.84233" lon="4.69839">
        <ele>253.00005</ele>
        <time>2022-09-27T13:20:11.000Z</time>
      </trkpt>
      <trkpt lat="45.84231" lon="4.69846">
        <ele>252.83347</ele>
        <time>2022-09-27T13:20:12.000Z</time>
      </trkpt>
      <trkpt lat="45.84229" lon="4.69853">
        <ele>252.64404</ele>
        <time>2022-09-27T13:20:13.000Z</time>
      </trkpt>
      <trkpt lat="45.84226" lon="4.6986">
        <ele>252.62004</ele>
        <time>2022-09-27T13:20:14.000Z</time>
      </trkpt>
      <trkpt lat="45.84222" lon="4.69865">
        <ele>252.72221</ele>
        <time>2022-09-27T13:20:15.000Z</time>
      </trkpt>
      <trkpt lat="45.84219" lon="4.69869">
        <ele>252.85376</ele>
        <time>2022-09-27T13:20:16.000Z</time>
      </trkpt>
      <trkpt lat="45.84214" lon="4.69874">
        <ele>253.00066</ele>
        <time>2022-09-27T13:20:17.000Z</time>
      </trkpt>
      <trkpt lat="45.84209" lon="4.69876">
        <ele>253.21941</ele>
        <time>2022-09-27T13:20:18.000Z</time>
      </trkpt>
      <trkpt lat="45.84204" lon="4.69877">
        <ele>253.37265</ele>
        <time>2022-09-27T13:20:19.000Z</time>
      </trkpt>
      <trkpt lat="45.84199" lon="4.69877">
        <ele>253.47571</ele>
        <time>2022-09-27T13:20:20.000Z</time>
      </trkpt>
      <trkpt lat="45.84195" lon="4.69878">
        <ele>253.63498</ele>
        <time>2022-09-27T13:20:21.000Z</time>
      </trkpt>
      <trkpt lat="45.84191" lon="4.69881">
        <ele>253.76762</ele>
        <time>2022-09-27T13:20:22.000Z</time>
      </trkpt>
      <trkpt lat="45.84186" lon="4.69883">
        <ele>253.88498</ele>
        <time>2022-09-27T13:20:23.000Z</time>
      </trkpt>
      <trkpt lat="45.84181" lon="4.69885">
        <ele>253.94412</ele>
        <time>2022-09-27T13:20:24.000Z</time>
      </trkpt>
      <trkpt lat="45.84175" lon="4.69887">
        <ele>253.86984</ele>
        <time>2022-09-27T13:20:25.000Z</time>
      </trkpt>
      <trkpt lat="45.84171" lon="4.69889">
        <ele>253.79883</ele>
        <time>2022-09-27T13:20:26.000Z</time>
      </trkpt>
      <trkpt lat="45.84166" lon="4.69889">
        <ele>253.72897</ele>
        <time>2022-09-27T13:20:27.000Z</time>
      </trkpt>
      <trkpt lat="45.84161" lon="4.69891">
        <ele>253.62053</ele>
        <time>2022-09-27T13:20:28.000Z</time>
      </trkpt>
      <trkpt lat="45.84156" lon="4.69889">
        <ele>253.31348</ele>
        <time>2022-09-27T13:20:29.000Z</time>
      </trkpt>
      <trkpt lat="45.84153" lon="4.69891">
        <ele>252.98788</ele>
        <time>2022-09-27T13:20:30.000Z</time>
      </trkpt>
      <trkpt lat="45.84147" lon="4.69893">
        <ele>252.75642</ele>
        <time>2022-09-27T13:20:31.000Z</time>
      </trkpt>
      <trkpt lat="45.84141" lon="4.69895">
        <ele>252.58667</ele>
        <time>2022-09-27T13:20:32.000Z</time>
      </trkpt>
      <trkpt lat="45.84135" lon="4.69898">
        <ele>252.52837</ele>
        <time>2022-09-27T13:20:33.000Z</time>
      </trkpt>
      <trkpt lat="45.8413" lon="4.69901">
        <ele>252.4689</ele>
        <time>2022-09-27T13:20:34.000Z</time>
      </trkpt>
      <trkpt lat="45.84122" lon="4.69903">
        <ele>252.40706</ele>
        <time>2022-09-27T13:20:35.000Z</time>
      </trkpt>
      <trkpt lat="45.84117" lon="4.69905">
        <ele>252.36336</ele>
        <time>2022-09-27T13:20:36.000Z</time>
      </trkpt>
      <trkpt lat="45.84112" lon="4.69907">
        <ele>252.29008</ele>
        <time>2022-09-27T13:20:37.000Z</time>
      </trkpt>
      <trkpt lat="45.84106" lon="4.69911">
        <ele>252.23015</ele>
        <time>2022-09-27T13:20:38.000Z</time>
      </trkpt>
      <trkpt lat="45.84101" lon="4.69913">
        <ele>252.19856</ele>
        <time>2022-09-27T13:20:39.000Z</time>
      </trkpt>
      <trkpt lat="45.84095" lon="4.69915">
        <ele>252.16182</ele>
        <time>2022-09-27T13:20:40.000Z</time>
      </trkpt>
      <trkpt lat="45.8409" lon="4.69915">
        <ele>252.09195</ele>
        <time>2022-09-27T13:20:41.000Z</time>
      </trkpt>
      <trkpt lat="45.84086" lon="4.69918">
        <ele>252.08008</ele>
        <time>2022-09-27T13:20:42.000Z</time>
      </trkpt>
      <trkpt lat="45.84081" lon="4.69921">
        <ele>252.09314</ele>
        <time>2022-09-27T13:20:43.000Z</time>
      </trkpt>
      <trkpt lat="45.84077" lon="4.69925">
        <ele>252.19339</ele>
        <time>2022-09-27T13:20:44.000Z</time>
      </trkpt>
      <trkpt lat="45.84073" lon="4.69928">
        <ele>252.45642</ele>
        <time>2022-09-27T13:20:45.000Z</time>
      </trkpt>
      <trkpt lat="45.84069" lon="4.6993">
        <ele>252.6626</ele>
        <time>2022-09-27T13:20:46.000Z</time>
      </trkpt>
      <trkpt lat="45.84065" lon="4.69934">
        <ele>252.82881</ele>
        <time>2022-09-27T13:20:47.000Z</time>
      </trkpt>
      <trkpt lat="45.84062" lon="4.69937">
        <ele>253.03934</ele>
        <time>2022-09-27T13:20:48.000Z</time>
      </trkpt>
      <trkpt lat="45.84057" lon="4.6994">
        <ele>253.37422</ele>
        <time>2022-09-27T13:20:49.000Z</time>
      </trkpt>
      <trkpt lat="45.84054" lon="4.69944">
        <ele>253.77287</ele>
        <time>2022-09-27T13:20:50.000Z</time>
      </trkpt>
      <trkpt lat="45.84049" lon="4.69947">
        <ele>254.06116</ele>
        <time>2022-09-27T13:20:51.000Z</time>
      </trkpt>
      <trkpt lat="45.84046" lon="4.6995">
        <ele>254.3907</ele>
        <time>2022-09-27T13:20:52.000Z</time>
      </trkpt>
      <trkpt lat="45.84041" lon="4.69952">
        <ele>254.62061</ele>
        <time>2022-09-27T13:20:53.000Z</time>
      </trkpt>
      <trkpt lat="45.84038" lon="4.69956">
        <ele>254.77145</ele>
        <time>2022-09-27T13:20:54.000Z</time>
      </trkpt>
      <trkpt lat="45.84035" lon="4.69961">
        <ele>254.9482</ele>
        <time>2022-09-27T13:20:55.000Z</time>
      </trkpt>
      <trkpt lat="45.84031" lon="4.69964">
        <ele>255.19131</ele>
        <time>2022-09-27T13:20:56.000Z</time>
      </trkpt>
      <trkpt lat="45.84027" lon="4.69963">
        <ele>255.32715</ele>
        <time>2022-09-27T13:20:57.000Z</time>
      </trkpt>
      <trkpt lat="45.84023" lon="4.69968">
        <ele>255.41699</ele>
        <time>2022-09-27T13:20:58.000Z</time>
      </trkpt>
      <trkpt lat="45.84018" lon="4.69975">
        <ele>255.56535</ele>
        <time>2022-09-27T13:20:59.000Z</time>
      </trkpt>
      <trkpt lat="45.84011" lon="4.69978">
        <ele>255.78572</ele>
        <time>2022-09-27T13:21:00.000Z</time>
      </trkpt>
      <trkpt lat="45.84006" lon="4.69982">
        <ele>255.97128</ele>
        <time>2022-09-27T13:21:01.000Z</time>
      </trkpt>
      <trkpt lat="45.84" lon="4.69985">
        <ele>256.21652</ele>
        <time>2022-09-27T13:21:02.000Z</time>
      </trkpt>
      <trkpt lat="45.83996" lon="4.6999">
        <ele>256.44781</ele>
        <time>2022-09-27T13:21:03.000Z</time>
      </trkpt>
      <trkpt lat="45.83994" lon="4.69993">
        <ele>256.62457</ele>
        <time>2022-09-27T13:21:04.000Z</time>
      </trkpt>
      <trkpt lat="45.8399" lon="4.69998">
        <ele>256.66858</ele>
        <time>2022-09-27T13:21:05.000Z</time>
      </trkpt>
      <trkpt lat="45.83988" lon="4.7">
        <ele>256.73846</ele>
        <time>2022-09-27T13:21:06.000Z</time>
      </trkpt>
      <trkpt lat="45.83984" lon="4.70003">
        <ele>256.89926</ele>
        <time>2022-09-27T13:21:07.000Z</time>
      </trkpt>
      <trkpt lat="45.83981" lon="4.70006">
        <ele>257.01923</ele>
        <time>2022-09-27T13:21:08.000Z</time>
      </trkpt>
      <trkpt lat="45.83978" lon="4.70009">
        <ele>257.11652</ele>
        <time>2022-09-27T13:21:09.000Z</time>
      </trkpt>
      <trkpt lat="45.83974" lon="4.70013">
        <ele>257.26709</ele>
        <time>2022-09-27T13:21:10.000Z</time>
      </trkpt>
      <trkpt lat="45.83969" lon="4.70017">
        <ele>257.46918</ele>
        <time>2022-09-27T13:21:11.000Z</time>
      </trkpt>
      <trkpt lat="45.83966" lon="4.7002">
        <ele>257.75323</ele>
        <time>2022-09-27T13:21:12.000Z</time>
      </trkpt>
      <trkpt lat="45.83962" lon="4.70024">
        <ele>258.02057</ele>
        <time>2022-09-27T13:21:13.000Z</time>
      </trkpt>
      <trkpt lat="45.83959" lon="4.70027">
        <ele>258.48538</ele>
        <time>2022-09-27T13:21:14.000Z</time>
      </trkpt>
      <trkpt lat="45.83956" lon="4.7003">
        <ele>258.87173</ele>
        <time>2022-09-27T13:21:15.000Z</time>
      </trkpt>
      <trkpt lat="45.83953" lon="4.70033">
        <ele>259.2554</ele>
        <time>2022-09-27T13:21:16.000Z</time>
      </trkpt>
      <trkpt lat="45.83949" lon="4.70036">
        <ele>259.79285</ele>
        <time>2022-09-27T13:21:17.000Z</time>
      </trkpt>
      <trkpt lat="45.83946" lon="4.70039">
        <ele>260.2861</ele>
        <time>2022-09-27T13:21:18.000Z</time>
      </trkpt>
      <trkpt lat="45.83943" lon="4.70043">
        <ele>260.66788</ele>
        <time>2022-09-27T13:21:19.000Z</time>
      </trkpt>
      <trkpt lat="45.8394" lon="4.70046">
        <ele>261.04932</ele>
        <time>2022-09-27T13:21:20.000Z</time>
      </trkpt>
      <trkpt lat="45.83937" lon="4.70051">
        <ele>261.54462</ele>
        <time>2022-09-27T13:21:21.000Z</time>
      </trkpt>
      <trkpt lat="45.83934" lon="4.70055">
        <ele>261.98438</ele>
        <time>2022-09-27T13:21:22.000Z</time>
      </trkpt>
      <trkpt lat="45.83931" lon="4.70059">
        <ele>262.27963</ele>
        <time>2022-09-27T13:21:23.000Z</time>
      </trkpt>
      <trkpt lat="45.83928" lon="4.70063">
        <ele>262.62335</ele>
        <time>2022-09-27T13:21:24.000Z</time>
      </trkpt>
      <trkpt lat="45.83924" lon="4.70067">
        <ele>263.0188</ele>
        <time>2022-09-27T13:21:25.000Z</time>
      </trkpt>
      <trkpt lat="45.83921" lon="4.70072">
        <ele>263.38153</ele>
        <time>2022-09-27T13:21:26.000Z</time>
      </trkpt>
      <trkpt lat="45.83918" lon="4.70076">
        <ele>263.69724</ele>
        <time>2022-09-27T13:21:27.000Z</time>
      </trkpt>
      <trkpt lat="45.83915" lon="4.7008">
        <ele>263.97296</ele>
        <time>2022-09-27T13:21:28.000Z</time>
      </trkpt>
      <trkpt lat="45.83913" lon="4.70083">
        <ele>264.22256</ele>
        <time>2022-09-27T13:21:29.000Z</time>
      </trkpt>
      <trkpt lat="45.83911" lon="4.70087">
        <ele>264.37631</ele>
        <time>2022-09-27T13:21:30.000Z</time>
      </trkpt>
      <trkpt lat="45.83909" lon="4.7009">
        <ele>264.65018</ele>
        <time>2022-09-27T13:21:31.000Z</time>
      </trkpt>
      <trkpt lat="45.83907" lon="4.70093">
        <ele>264.82977</ele>
        <time>2022-09-27T13:21:32.000Z</time>
      </trkpt>
      <trkpt lat="45.83905" lon="4.70096">
        <ele>265.01294</ele>
        <time>2022-09-27T13:21:33.000Z</time>
      </trkpt>
      <trkpt lat="45.83903" lon="4.701">
        <ele>265.0372</ele>
        <time>2022-09-27T13:21:34.000Z</time>
      </trkpt>
      <trkpt lat="45.83901" lon="4.70104">
        <ele>265.0928</ele>
        <time>2022-09-27T13:21:35.000Z</time>
      </trkpt>
      <trkpt lat="45.83899" lon="4.70108">
        <ele>265.1619</ele>
        <time>2022-09-27T13:21:36.000Z</time>
      </trkpt>
      <trkpt lat="45.83897" lon="4.70112">
        <ele>265.1756</ele>
        <time>2022-09-27T13:21:37.000Z</time>
      </trkpt>
      <trkpt lat="45.83895" lon="4.70116">
        <ele>265.2674</ele>
        <time>2022-09-27T13:21:38.000Z</time>
      </trkpt>
      <trkpt lat="45.83893" lon="4.7012">
        <ele>265.38315</ele>
        <time>2022-09-27T13:21:39.000Z</time>
      </trkpt>
      <trkpt lat="45.83891" lon="4.70124">
        <ele>265.47958</ele>
        <time>2022-09-27T13:21:40.000Z</time>
      </trkpt>
      <trkpt lat="45.83889" lon="4.70128">
        <ele>265.53583</ele>
        <time>2022-09-27T13:21:41.000Z</time>
      </trkpt>
      <trkpt lat="45.83887" lon="4.70133">
        <ele>265.64008</ele>
        <time>2022-09-27T13:21:42.000Z</time>
      </trkpt>
      <trkpt lat="45.83886" lon="4.70138">
        <ele>265.83759</ele>
        <time>2022-09-27T13:21:43.000Z</time>
      </trkpt>
      <trkpt lat="45.83885" lon="4.70144">
        <ele>265.95569</ele>
        <time>2022-09-27T13:21:44.000Z</time>
      </trkpt>
      <trkpt lat="45.83884" lon="4.70149">
        <ele>266.15375</ele>
        <time>2022-09-27T13:21:45.000Z</time>
      </trkpt>
      <trkpt lat="45.83883" lon="4.70154">
        <ele>266.39755</ele>
        <time>2022-09-27T13:21:46.000Z</time>
      </trkpt>
      <trkpt lat="45.83882" lon="4.7016">
        <ele>266.77362</ele>
        <time>2022-09-27T13:21:47.000Z</time>
      </trkpt>
      <trkpt lat="45.83881" lon="4.70165">
        <ele>267.28015</ele>
        <time>2022-09-27T13:21:48.000Z</time>
      </trkpt>
      <trkpt lat="45.83881" lon="4.70171">
        <ele>267.86298</ele>
        <time>2022-09-27T13:21:49.000Z</time>
      </trkpt>
      <trkpt lat="45.83881" lon="4.70177">
        <ele>268.58188</ele>
        <time>2022-09-27T13:21:50.000Z</time>
      </trkpt>
      <trkpt lat="45.83881" lon="4.70183">
        <ele>269.32907</ele>
        <time>2022-09-27T13:21:51.000Z</time>
      </trkpt>
      <trkpt lat="45.83881" lon="4.70188">
        <ele>270.07526</ele>
        <time>2022-09-27T13:21:52.000Z</time>
      </trkpt>
      <trkpt lat="45.83882" lon="4.70193">
        <ele>270.83038</ele>
        <time>2022-09-27T13:21:53.000Z</time>
      </trkpt>
      <trkpt lat="45.83882" lon="4.702">
        <ele>271.62814</ele>
        <time>2022-09-27T13:21:54.000Z</time>
      </trkpt>
      <trkpt lat="45.83883" lon="4.70206">
        <ele>272.33865</ele>
        <time>2022-09-27T13:21:55.000Z</time>
      </trkpt>
      <trkpt lat="45.83883" lon="4.70212">
        <ele>273.02634</ele>
        <time>2022-09-27T13:21:56.000Z</time>
      </trkpt>
      <trkpt lat="45.83883" lon="4.70218">
        <ele>273.70978</ele>
        <time>2022-09-27T13:21:57.000Z</time>
      </trkpt>
      <trkpt lat="45.83884" lon="4.70223">
        <ele>274.37772</ele>
        <time>2022-09-27T13:21:58.000Z</time>
      </trkpt>
      <trkpt lat="45.83885" lon="4.70228">
        <ele>275.13071</ele>
        <time>2022-09-27T13:21:59.000Z</time>
      </trkpt>
      <trkpt lat="45.83886" lon="4.70234">
        <ele>275.80969</ele>
        <time>2022-09-27T13:22:00.000Z</time>
      </trkpt>
      <trkpt lat="45.83888" lon="4.70239">
        <ele>276.55151</ele>
        <time>2022-09-27T13:22:01.000Z</time>
      </trkpt>
      <trkpt lat="45.8389" lon="4.70244">
        <ele>277.23444</ele>
        <time>2022-09-27T13:22:02.000Z</time>
      </trkpt>
      <trkpt lat="45.83892" lon="4.70249">
        <ele>277.90948</ele>
        <time>2022-09-27T13:22:03.000Z</time>
      </trkpt>
      <trkpt lat="45.83894" lon="4.70254">
        <ele>278.64911</ele>
        <time>2022-09-27T13:22:04.000Z</time>
      </trkpt>
      <trkpt lat="45.83895" lon="4.7026">
        <ele>279.36301</ele>
        <time>2022-09-27T13:22:05.000Z</time>
      </trkpt>
      <trkpt lat="45.83897" lon="4.70265">
        <ele>279.94879</ele>
        <time>2022-09-27T13:22:06.000Z</time>
      </trkpt>
      <trkpt lat="45.83897" lon="4.70271">
        <ele>280.37866</ele>
        <time>2022-09-27T13:22:07.000Z</time>
      </trkpt>
      <trkpt lat="45.83898" lon="4.70277">
        <ele>280.74881</ele>
        <time>2022-09-27T13:22:08.000Z</time>
      </trkpt>
      <trkpt lat="45.83899" lon="4.70282">
        <ele>281.16901</ele>
        <time>2022-09-27T13:22:09.000Z</time>
      </trkpt>
      <trkpt lat="45.83901" lon="4.70288">
        <ele>281.49677</ele>
        <time>2022-09-27T13:22:10.000Z</time>
      </trkpt>
      <trkpt lat="45.83902" lon="4.70294">
        <ele>281.61954</ele>
        <time>2022-09-27T13:22:11.000Z</time>
      </trkpt>
      <trkpt lat="45.83904" lon="4.703">
        <ele>281.68689</ele>
        <time>2022-09-27T13:22:12.000Z</time>
      </trkpt>
      <trkpt lat="45.83905" lon="4.70306">
        <ele>281.76559</ele>
        <time>2022-09-27T13:22:13.000Z</time>
      </trkpt>
      <trkpt lat="45.83907" lon="4.70311">
        <ele>281.85443</ele>
        <time>2022-09-27T13:22:14.000Z</time>
      </trkpt>
      <trkpt lat="45.83909" lon="4.70317">
        <ele>282.02155</ele>
        <time>2022-09-27T13:22:15.000Z</time>
      </trkpt>
      <trkpt lat="45.83911" lon="4.70323">
        <ele>282.23001</ele>
        <time>2022-09-27T13:22:16.000Z</time>
      </trkpt>
      <trkpt lat="45.83913" lon="4.70329">
        <ele>282.5329</ele>
        <time>2022-09-27T13:22:17.000Z</time>
      </trkpt>
      <trkpt lat="45.83914" lon="4.70335">
        <ele>282.84006</ele>
        <time>2022-09-27T13:22:18.000Z</time>
      </trkpt>
      <trkpt lat="45.83915" lon="4.70342">
        <ele>283.15155</ele>
        <time>2022-09-27T13:22:19.000Z</time>
      </trkpt>
      <trkpt lat="45.83916" lon="4.70348">
        <ele>283.54791</ele>
        <time>2022-09-27T13:22:20.000Z</time>
      </trkpt>
      <trkpt lat="45.83917" lon="4.70355">
        <ele>283.9101</ele>
        <time>2022-09-27T13:22:21.000Z</time>
      </trkpt>
      <trkpt lat="45.83918" lon="4.7036">
        <ele>284.30795</ele>
        <time>2022-09-27T13:22:22.000Z</time>
      </trkpt>
      <trkpt lat="45.83919" lon="4.70366">
        <ele>284.73373</ele>
        <time>2022-09-27T13:22:23.000Z</time>
      </trkpt>
      <trkpt lat="45.83921" lon="4.70374">
        <ele>285.13031</ele>
        <time>2022-09-27T13:22:24.000Z</time>
      </trkpt>
      <trkpt lat="45.83924" lon="4.70378">
        <ele>285.40402</ele>
        <time>2022-09-27T13:22:25.000Z</time>
      </trkpt>
      <trkpt lat="45.83925" lon="4.70385">
        <ele>285.77899</ele>
        <time>2022-09-27T13:22:26.000Z</time>
      </trkpt>
      <trkpt lat="45.83926" lon="4.70392">
        <ele>286.15616</ele>
        <time>2022-09-27T13:22:27.000Z</time>
      </trkpt>
      <trkpt lat="45.83927" lon="4.70397">
        <ele>286.51785</ele>
        <time>2022-09-27T13:22:28.000Z</time>
      </trkpt>
      <trkpt lat="45.83928" lon="4.70405">
        <ele>286.841</ele>
        <time>2022-09-27T13:22:29.000Z</time>
      </trkpt>
      <trkpt lat="45.83928" lon="4.70411">
        <ele>287.18854</ele>
        <time>2022-09-27T13:22:30.000Z</time>
      </trkpt>
      <trkpt lat="45.83928" lon="4.70419">
        <ele>287.64084</ele>
        <time>2022-09-27T13:22:31.000Z</time>
      </trkpt>
      <trkpt lat="45.83929" lon="4.70426">
        <ele>288.11072</ele>
        <time>2022-09-27T13:22:32.000Z</time>
      </trkpt>
      <trkpt lat="45.8393" lon="4.70432">
        <ele>288.62256</ele>
        <time>2022-09-27T13:22:33.000Z</time>
      </trkpt>
      <trkpt lat="45.8393" lon="4.70438">
        <ele>289.10416</ele>
        <time>2022-09-27T13:22:34.000Z</time>
      </trkpt>
      <trkpt lat="45.8393" lon="4.70444">
        <ele>289.57379</ele>
        <time>2022-09-27T13:22:35.000Z</time>
      </trkpt>
      <trkpt lat="45.8393" lon="4.70449">
        <ele>290.00607</ele>
        <time>2022-09-27T13:22:36.000Z</time>
      </trkpt>
      <trkpt lat="45.8393" lon="4.70457">
        <ele>290.42014</ele>
        <time>2022-09-27T13:22:37.000Z</time>
      </trkpt>
      <trkpt lat="45.8393" lon="4.70463">
        <ele>290.80536</ele>
        <time>2022-09-27T13:22:38.000Z</time>
      </trkpt>
      <trkpt lat="45.8393" lon="4.70468">
        <ele>291.18201</ele>
        <time>2022-09-27T13:22:39.000Z</time>
      </trkpt>
      <trkpt lat="45.83928" lon="4.70474">
        <ele>291.59445</ele>
        <time>2022-09-27T13:22:40.000Z</time>
      </trkpt>
      <trkpt lat="45.83925" lon="4.70479">
        <ele>291.98947</ele>
        <time>2022-09-27T13:22:41.000Z</time>
      </trkpt>
      <trkpt lat="45.8392" lon="4.70484">
        <ele>292.36108</ele>
        <time>2022-09-27T13:22:42.000Z</time>
      </trkpt>
      <trkpt lat="45.83915" lon="4.70488">
        <ele>292.66058</ele>
        <time>2022-09-27T13:22:43.000Z</time>
      </trkpt>
      <trkpt lat="45.83911" lon="4.70492">
        <ele>293.0318</ele>
        <time>2022-09-27T13:22:44.000Z</time>
      </trkpt>
      <trkpt lat="45.83907" lon="4.70494">
        <ele>293.46152</ele>
        <time>2022-09-27T13:22:45.000Z</time>
      </trkpt>
      <trkpt lat="45.83903" lon="4.70497">
        <ele>293.84967</ele>
        <time>2022-09-27T13:22:46.000Z</time>
      </trkpt>
      <trkpt lat="45.83899" lon="4.70498">
        <ele>294.272</ele>
        <time>2022-09-27T13:22:47.000Z</time>
      </trkpt>
      <trkpt lat="45.83894" lon="4.70501">
        <ele>294.63675</ele>
        <time>2022-09-27T13:22:48.000Z</time>
      </trkpt>
      <trkpt lat="45.8389" lon="4.70503">
        <ele>295.00293</ele>
        <time>2022-09-27T13:22:49.000Z</time>
      </trkpt>
      <trkpt lat="45.83885" lon="4.70505">
        <ele>295.27692</ele>
        <time>2022-09-27T13:22:50.000Z</time>
      </trkpt>
      <trkpt lat="45.83881" lon="4.70508">
        <ele>295.52655</ele>
        <time>2022-09-27T13:22:51.000Z</time>
      </trkpt>
      <trkpt lat="45.83877" lon="4.70511">
        <ele>295.83878</ele>
        <time>2022-09-27T13:22:52.000Z</time>
      </trkpt>
      <trkpt lat="45.83873" lon="4.70512">
        <ele>296.00824</ele>
        <time>2022-09-27T13:22:53.000Z</time>
      </trkpt>
      <trkpt lat="45.83869" lon="4.70515">
        <ele>296.18756</ele>
        <time>2022-09-27T13:22:54.000Z</time>
      </trkpt>
      <trkpt lat="45.83864" lon="4.70518">
        <ele>296.36084</ele>
        <time>2022-09-27T13:22:55.000Z</time>
      </trkpt>
      <trkpt lat="45.8386" lon="4.70521">
        <ele>296.52704</ele>
        <time>2022-09-27T13:22:56.000Z</time>
      </trkpt>
      <trkpt lat="45.83855" lon="4.70524">
        <ele>296.67178</ele>
        <time>2022-09-27T13:22:57.000Z</time>
      </trkpt>
      <trkpt lat="45.83851" lon="4.70527">
        <ele>296.78671</ele>
        <time>2022-09-27T13:22:58.000Z</time>
      </trkpt>
      <trkpt lat="45.83847" lon="4.7053">
        <ele>296.92035</ele>
        <time>2022-09-27T13:22:59.000Z</time>
      </trkpt>
      <trkpt lat="45.83842" lon="4.70534">
        <ele>297.01105</ele>
        <time>2022-09-27T13:23:00.000Z</time>
      </trkpt>
      <trkpt lat="45.83838" lon="4.70538">
        <ele>297.03098</ele>
        <time>2022-09-27T13:23:01.000Z</time>
      </trkpt>
      <trkpt lat="45.83833" lon="4.7054">
        <ele>296.93182</ele>
        <time>2022-09-27T13:23:02.000Z</time>
      </trkpt>
      <trkpt lat="45.83828" lon="4.70543">
        <ele>296.83282</ele>
        <time>2022-09-27T13:23:03.000Z</time>
      </trkpt>
      <trkpt lat="45.83826" lon="4.70546">
        <ele>296.73422</ele>
        <time>2022-09-27T13:23:04.000Z</time>
      </trkpt>
      <trkpt lat="45.83821" lon="4.70549">
        <ele>296.68378</ele>
        <time>2022-09-27T13:23:05.000Z</time>
      </trkpt>
      <trkpt lat="45.83816" lon="4.70553">
        <ele>296.68887</ele>
        <time>2022-09-27T13:23:06.000Z</time>
      </trkpt>
      <trkpt lat="45.83812" lon="4.70556">
        <ele>296.68011</ele>
        <time>2022-09-27T13:23:07.000Z</time>
      </trkpt>
      <trkpt lat="45.83807" lon="4.70559">
        <ele>296.72443</ele>
        <time>2022-09-27T13:23:08.000Z</time>
      </trkpt>
      <trkpt lat="45.83803" lon="4.70563">
        <ele>296.73636</ele>
        <time>2022-09-27T13:23:09.000Z</time>
      </trkpt>
      <trkpt lat="45.83798" lon="4.70562">
        <ele>296.81946</ele>
        <time>2022-09-27T13:23:10.000Z</time>
      </trkpt>
      <trkpt lat="45.83793" lon="4.70563">
        <ele>296.94244</ele>
        <time>2022-09-27T13:23:11.000Z</time>
      </trkpt>
      <trkpt lat="45.83787" lon="4.70567">
        <ele>296.97745</ele>
        <time>2022-09-27T13:23:12.000Z</time>
      </trkpt>
      <trkpt lat="45.83783" lon="4.70571">
        <ele>297.05347</ele>
        <time>2022-09-27T13:23:13.000Z</time>
      </trkpt>
      <trkpt lat="45.83778" lon="4.70574">
        <ele>296.96521</ele>
        <time>2022-09-27T13:23:14.000Z</time>
      </trkpt>
      <trkpt lat="45.83773" lon="4.70577">
        <ele>296.86887</ele>
        <time>2022-09-27T13:23:15.000Z</time>
      </trkpt>
      <trkpt lat="45.83768" lon="4.70581">
        <ele>296.74576</ele>
        <time>2022-09-27T13:23:16.000Z</time>
      </trkpt>
      <trkpt lat="45.83763" lon="4.70584">
        <ele>296.56619</ele>
        <time>2022-09-27T13:23:17.000Z</time>
      </trkpt>
      <trkpt lat="45.83758" lon="4.70586">
        <ele>296.41418</ele>
        <time>2022-09-27T13:23:18.000Z</time>
      </trkpt>
      <trkpt lat="45.83754" lon="4.70588">
        <ele>296.22687</ele>
        <time>2022-09-27T13:23:19.000Z</time>
      </trkpt>
      <trkpt lat="45.83749" lon="4.70591">
        <ele>296.03302</ele>
        <time>2022-09-27T13:23:20.000Z</time>
      </trkpt>
      <trkpt lat="45.83743" lon="4.70593">
        <ele>295.87625</ele>
        <time>2022-09-27T13:23:21.000Z</time>
      </trkpt>
      <trkpt lat="45.83738" lon="4.70593">
        <ele>295.75552</ele>
        <time>2022-09-27T13:23:22.000Z</time>
      </trkpt>
      <trkpt lat="45.83733" lon="4.70594">
        <ele>295.63785</ele>
        <time>2022-09-27T13:23:23.000Z</time>
      </trkpt>
      <trkpt lat="45.83727" lon="4.70594">
        <ele>295.47058</ele>
        <time>2022-09-27T13:23:24.000Z</time>
      </trkpt>
      <trkpt lat="45.83723" lon="4.70595">
        <ele>295.28076</ele>
        <time>2022-09-27T13:23:25.000Z</time>
      </trkpt>
      <trkpt lat="45.83717" lon="4.70596">
        <ele>295.12909</ele>
        <time>2022-09-27T13:23:26.000Z</time>
      </trkpt>
      <trkpt lat="45.83713" lon="4.70596">
        <ele>295.00891</ele>
        <time>2022-09-27T13:23:27.000Z</time>
      </trkpt>
      <trkpt lat="45.83707" lon="4.70597">
        <ele>294.87573</ele>
        <time>2022-09-27T13:23:28.000Z</time>
      </trkpt>
      <trkpt lat="45.83702" lon="4.70599">
        <ele>294.68567</ele>
        <time>2022-09-27T13:23:29.000Z</time>
      </trkpt>
      <trkpt lat="45.83695" lon="4.70601">
        <ele>294.44864</ele>
        <time>2022-09-27T13:23:30.000Z</time>
      </trkpt>
      <trkpt lat="45.83689" lon="4.70604">
        <ele>294.16483</ele>
        <time>2022-09-27T13:23:31.000Z</time>
      </trkpt>
      <trkpt lat="45.83682" lon="4.70604">
        <ele>293.87735</ele>
        <time>2022-09-27T13:23:32.000Z</time>
      </trkpt>
      <trkpt lat="45.83675" lon="4.70604">
        <ele>293.65533</ele>
        <time>2022-09-27T13:23:33.000Z</time>
      </trkpt>
      <trkpt lat="45.8367" lon="4.70605">
        <ele>293.61749</ele>
        <time>2022-09-27T13:23:34.000Z</time>
      </trkpt>
      <trkpt lat="45.83664" lon="4.70606">
        <ele>293.54651</ele>
        <time>2022-09-27T13:23:35.000Z</time>
      </trkpt>
      <trkpt lat="45.83659" lon="4.70607">
        <ele>293.52466</ele>
        <time>2022-09-27T13:23:36.000Z</time>
      </trkpt>
      <trkpt lat="45.83653" lon="4.7061">
        <ele>293.51657</ele>
        <time>2022-09-27T13:23:37.000Z</time>
      </trkpt>
      <trkpt lat="45.83649" lon="4.70614">
        <ele>293.58557</ele>
        <time>2022-09-27T13:23:38.000Z</time>
      </trkpt>
      <trkpt lat="45.83644" lon="4.70618">
        <ele>293.71689</ele>
        <time>2022-09-27T13:23:39.000Z</time>
      </trkpt>
      <trkpt lat="45.83638" lon="4.70622">
        <ele>293.87949</ele>
        <time>2022-09-27T13:23:40.000Z</time>
      </trkpt>
      <trkpt lat="45.83633" lon="4.70625">
        <ele>294.02573</ele>
        <time>2022-09-27T13:23:41.000Z</time>
      </trkpt>
      <trkpt lat="45.83626" lon="4.70627">
        <ele>294.15298</ele>
        <time>2022-09-27T13:23:42.000Z</time>
      </trkpt>
      <trkpt lat="45.83619" lon="4.70627">
        <ele>294.22171</ele>
        <time>2022-09-27T13:23:43.000Z</time>
      </trkpt>
      <trkpt lat="45.83613" lon="4.70628">
        <ele>294.36249</ele>
        <time>2022-09-27T13:23:44.000Z</time>
      </trkpt>
      <trkpt lat="45.83608" lon="4.70626">
        <ele>294.5545</ele>
        <time>2022-09-27T13:23:45.000Z</time>
      </trkpt>
      <trkpt lat="45.83602" lon="4.70623">
        <ele>294.67505</ele>
        <time>2022-09-27T13:23:46.000Z</time>
      </trkpt>
      <trkpt lat="45.83596" lon="4.70621">
        <ele>294.71432</ele>
        <time>2022-09-27T13:23:47.000Z</time>
      </trkpt>
      <trkpt lat="45.83591" lon="4.70619">
        <ele>294.84769</ele>
        <time>2022-09-27T13:23:48.000Z</time>
      </trkpt>
      <trkpt lat="45.83586" lon="4.70617">
        <ele>295.03528</ele>
        <time>2022-09-27T13:23:49.000Z</time>
      </trkpt>
      <trkpt lat="45.8358" lon="4.70616">
        <ele>295.21646</ele>
        <time>2022-09-27T13:23:50.000Z</time>
      </trkpt>
      <trkpt lat="45.83575" lon="4.70616">
        <ele>295.37952</ele>
        <time>2022-09-27T13:23:51.000Z</time>
      </trkpt>
      <trkpt lat="45.83569" lon="4.70615">
        <ele>295.58325</ele>
        <time>2022-09-27T13:23:52.000Z</time>
      </trkpt>
      <trkpt lat="45.83565" lon="4.70614">
        <ele>295.71188</ele>
        <time>2022-09-27T13:23:53.000Z</time>
      </trkpt>
      <trkpt lat="45.83559" lon="4.70613">
        <ele>295.82416</ele>
        <time>2022-09-27T13:23:54.000Z</time>
      </trkpt>
      <trkpt lat="45.83555" lon="4.70612">
        <ele>295.95209</ele>
        <time>2022-09-27T13:23:55.000Z</time>
      </trkpt>
      <trkpt lat="45.83548" lon="4.7061">
        <ele>296.0578</ele>
        <time>2022-09-27T13:23:56.000Z</time>
      </trkpt>
      <trkpt lat="45.83542" lon="4.7061">
        <ele>296.1817</ele>
        <time>2022-09-27T13:23:57.000Z</time>
      </trkpt>
      <trkpt lat="45.83536" lon="4.70609">
        <ele>296.35388</ele>
        <time>2022-09-27T13:23:58.000Z</time>
      </trkpt>
      <trkpt lat="45.83532" lon="4.70611">
        <ele>296.45959</ele>
        <time>2022-09-27T13:23:59.000Z</time>
      </trkpt>
      <trkpt lat="45.83527" lon="4.70612">
        <ele>296.52213</ele>
        <time>2022-09-27T13:24:00.000Z</time>
      </trkpt>
      <trkpt lat="45.83523" lon="4.70614">
        <ele>296.61646</ele>
        <time>2022-09-27T13:24:01.000Z</time>
      </trkpt>
      <trkpt lat="45.83517" lon="4.70614">
        <ele>296.73904</ele>
        <time>2022-09-27T13:24:02.000Z</time>
      </trkpt>
      <trkpt lat="45.83513" lon="4.70616">
        <ele>296.95554</ele>
        <time>2022-09-27T13:24:03.000Z</time>
      </trkpt>
      <trkpt lat="45.83508" lon="4.70617">
        <ele>297.11578</ele>
        <time>2022-09-27T13:24:04.000Z</time>
      </trkpt>
      <trkpt lat="45.83503" lon="4.70618">
        <ele>297.27286</ele>
        <time>2022-09-27T13:24:05.000Z</time>
      </trkpt>
      <trkpt lat="45.83498" lon="4.70618">
        <ele>297.46814</ele>
        <time>2022-09-27T13:24:06.000Z</time>
      </trkpt>
      <trkpt lat="45.83493" lon="4.7062">
        <ele>297.74725</ele>
        <time>2022-09-27T13:24:07.000Z</time>
      </trkpt>
      <trkpt lat="45.83488" lon="4.70619">
        <ele>297.95706</ele>
        <time>2022-09-27T13:24:08.000Z</time>
      </trkpt>
      <trkpt lat="45.83483" lon="4.70618">
        <ele>298.11847</ele>
        <time>2022-09-27T13:24:09.000Z</time>
      </trkpt>
      <trkpt lat="45.83479" lon="4.70619">
        <ele>298.27341</ele>
        <time>2022-09-27T13:24:10.000Z</time>
      </trkpt>
      <trkpt lat="45.83474" lon="4.70619">
        <ele>298.52835</ele>
        <time>2022-09-27T13:24:11.000Z</time>
      </trkpt>
      <trkpt lat="45.8347" lon="4.7062">
        <ele>298.79776</ele>
        <time>2022-09-27T13:24:12.000Z</time>
      </trkpt>
      <trkpt lat="45.83464" lon="4.7062">
        <ele>299.11395</ele>
        <time>2022-09-27T13:24:13.000Z</time>
      </trkpt>
      <trkpt lat="45.83458" lon="4.70621">
        <ele>299.46671</ele>
        <time>2022-09-27T13:24:14.000Z</time>
      </trkpt>
      <trkpt lat="45.83453" lon="4.70621">
        <ele>299.85449</ele>
        <time>2022-09-27T13:24:15.000Z</time>
      </trkpt>
      <trkpt lat="45.83448" lon="4.7062">
        <ele>300.25763</ele>
        <time>2022-09-27T13:24:16.000Z</time>
      </trkpt>
      <trkpt lat="45.83443" lon="4.70618">
        <ele>300.68219</ele>
        <time>2022-09-27T13:24:17.000Z</time>
      </trkpt>
      <trkpt lat="45.83438" lon="4.70617">
        <ele>300.95264</ele>
        <time>2022-09-27T13:24:18.000Z</time>
      </trkpt>
      <trkpt lat="45.83432" lon="4.70618">
        <ele>301.19385</ele>
        <time>2022-09-27T13:24:19.000Z</time>
      </trkpt>
      <trkpt lat="45.83426" lon="4.70617">
        <ele>301.46405</ele>
        <time>2022-09-27T13:24:20.000Z</time>
      </trkpt>
      <trkpt lat="45.83421" lon="4.70617">
        <ele>301.75464</ele>
        <time>2022-09-27T13:24:21.000Z</time>
      </trkpt>
      <trkpt lat="45.83414" lon="4.70616">
        <ele>302.10968</ele>
        <time>2022-09-27T13:24:22.000Z</time>
      </trkpt>
      <trkpt lat="45.83408" lon="4.70615">
        <ele>302.46063</ele>
        <time>2022-09-27T13:24:23.000Z</time>
      </trkpt>
      <trkpt lat="45.83402" lon="4.70614">
        <ele>302.85617</ele>
        <time>2022-09-27T13:24:24.000Z</time>
      </trkpt>
      <trkpt lat="45.83396" lon="4.70614">
        <ele>303.28751</ele>
        <time>2022-09-27T13:24:25.000Z</time>
      </trkpt>
      <trkpt lat="45.8339" lon="4.70613">
        <ele>303.73401</ele>
        <time>2022-09-27T13:24:26.000Z</time>
      </trkpt>
      <trkpt lat="45.83385" lon="4.70612">
        <ele>304.11328</ele>
        <time>2022-09-27T13:24:27.000Z</time>
      </trkpt>
      <trkpt lat="45.8338" lon="4.70612">
        <ele>304.53378</ele>
        <time>2022-09-27T13:24:28.000Z</time>
      </trkpt>
      <trkpt lat="45.83374" lon="4.7061">
        <ele>305.03229</ele>
        <time>2022-09-27T13:24:29.000Z</time>
      </trkpt>
      <trkpt lat="45.83368" lon="4.70609">
        <ele>305.49957</ele>
        <time>2022-09-27T13:24:30.000Z</time>
      </trkpt>
      <trkpt lat="45.83364" lon="4.70609">
        <ele>305.82452</ele>
        <time>2022-09-27T13:24:31.000Z</time>
      </trkpt>
      <trkpt lat="45.8336" lon="4.70609">
        <ele>306.15506</ele>
        <time>2022-09-27T13:24:32.000Z</time>
      </trkpt>
      <trkpt lat="45.83357" lon="4.7061">
        <ele>306.44952</ele>
        <time>2022-09-27T13:24:33.000Z</time>
      </trkpt>
      <trkpt lat="45.83354" lon="4.70609">
        <ele>306.6474</ele>
        <time>2022-09-27T13:24:34.000Z</time>
      </trkpt>
      <trkpt lat="45.83354" lon="4.70612">
        <ele>306.71442</ele>
        <time>2022-09-27T13:24:36.000Z</time>
      </trkpt>
      <trkpt lat="45.83351" lon="4.70616">
        <ele>306.81067</ele>
        <time>2022-09-27T13:24:38.000Z</time>
      </trkpt>
      <trkpt lat="45.8335" lon="4.70621">
        <ele>306.88641</ele>
        <time>2022-09-27T13:24:39.000Z</time>
      </trkpt>
      <trkpt lat="45.83351" lon="4.70625">
        <ele>306.96292</ele>
        <time>2022-09-27T13:24:40.000Z</time>
      </trkpt>
      <trkpt lat="45.8335" lon="4.70657">
        <ele>307.19803</ele>
        <time>2022-09-27T13:24:46.000Z</time>
      </trkpt>
      <trkpt lat="45.8335" lon="4.70663">
        <ele>307.31689</ele>
        <time>2022-09-27T13:24:47.000Z</time>
      </trkpt>
      <trkpt lat="45.83349" lon="4.70671">
        <ele>307.47046</ele>
        <time>2022-09-27T13:24:48.000Z</time>
      </trkpt>
      <trkpt lat="45.83349" lon="4.70677">
        <ele>307.59106</ele>
        <time>2022-09-27T13:24:49.000Z</time>
      </trkpt>
      <trkpt lat="45.83349" lon="4.70684">
        <ele>307.70401</ele>
        <time>2022-09-27T13:24:50.000Z</time>
      </trkpt>
      <trkpt lat="45.83347" lon="4.70691">
        <ele>307.74197</ele>
        <time>2022-09-27T13:24:51.000Z</time>
      </trkpt>
      <trkpt lat="45.83347" lon="4.70697">
        <ele>307.76382</ele>
        <time>2022-09-27T13:24:52.000Z</time>
      </trkpt>
      <trkpt lat="45.83346" lon="4.70703">
        <ele>307.79736</ele>
        <time>2022-09-27T13:24:53.000Z</time>
      </trkpt>
      <trkpt lat="45.83348" lon="4.70707">
        <ele>307.80588</ele>
        <time>2022-09-27T13:24:54.000Z</time>
      </trkpt>
      <trkpt lat="45.83346" lon="4.70715">
        <ele>307.70889</ele>
        <time>2022-09-27T13:24:55.000Z</time>
      </trkpt>
      <trkpt lat="45.83345" lon="4.70723">
        <ele>307.53601</ele>
        <time>2022-09-27T13:24:56.000Z</time>
      </trkpt>
      <trkpt lat="45.83345" lon="4.7073">
        <ele>307.44388</ele>
        <time>2022-09-27T13:24:57.000Z</time>
      </trkpt>
      <trkpt lat="45.83344" lon="4.70737">
        <ele>307.54938</ele>
        <time>2022-09-27T13:24:58.000Z</time>
      </trkpt>
      <trkpt lat="45.83343" lon="4.70745">
        <ele>307.61255</ele>
        <time>2022-09-27T13:24:59.000Z</time>
      </trkpt>
      <trkpt lat="45.83343" lon="4.70752">
        <ele>307.69049</ele>
        <time>2022-09-27T13:25:00.000Z</time>
      </trkpt>
      <trkpt lat="45.83342" lon="4.70759">
        <ele>307.76758</ele>
        <time>2022-09-27T13:25:01.000Z</time>
      </trkpt>
      <trkpt lat="45.83342" lon="4.70765">
        <ele>307.86981</ele>
        <time>2022-09-27T13:25:02.000Z</time>
      </trkpt>
      <trkpt lat="45.8334" lon="4.7077">
        <ele>307.83972</ele>
        <time>2022-09-27T13:25:03.000Z</time>
      </trkpt>
      <trkpt lat="45.8334" lon="4.70777">
        <ele>307.87119</ele>
        <time>2022-09-27T13:25:04.000Z</time>
      </trkpt>
      <trkpt lat="45.8334" lon="4.70786">
        <ele>307.91702</ele>
        <time>2022-09-27T13:25:05.000Z</time>
      </trkpt>
      <trkpt lat="45.8334" lon="4.70793">
        <ele>307.83441</ele>
        <time>2022-09-27T13:25:06.000Z</time>
      </trkpt>
      <trkpt lat="45.8334" lon="4.708">
        <ele>307.86203</ele>
        <time>2022-09-27T13:25:07.000Z</time>
      </trkpt>
      <trkpt lat="45.8334" lon="4.70807">
        <ele>307.86151</ele>
        <time>2022-09-27T13:25:08.000Z</time>
      </trkpt>
      <trkpt lat="45.83339" lon="4.70815">
        <ele>307.88043</ele>
        <time>2022-09-27T13:25:09.000Z</time>
      </trkpt>
      <trkpt lat="45.83338" lon="4.70821">
        <ele>307.91913</ele>
        <time>2022-09-27T13:25:10.000Z</time>
      </trkpt>
      <trkpt lat="45.83337" lon="4.70827">
        <ele>307.95386</ele>
        <time>2022-09-27T13:25:11.000Z</time>
      </trkpt>
      <trkpt lat="45.83336" lon="4.70831">
        <ele>307.93622</ele>
        <time>2022-09-27T13:25:12.000Z</time>
      </trkpt>
      <trkpt lat="45.83336" lon="4.70837">
        <ele>307.90094</ele>
        <time>2022-09-27T13:25:13.000Z</time>
      </trkpt>
    </trkseg>
  </trk>
</gpx>